# Wetter Temperatur Luftdruck Luftfeuchtigkeit Sichtweite Windgeschwindigkeit Windrichtung Zeit
1 Rain 26 1015 78 10000 7.72 90 11:48 22.04.2021
2 Clouds 26 1016 78 10000 6.17 90 11:24 22.04.2021
3 Clouds 26 1016 78 10000 5.14 100 10:46 22.04.2021
4 Clouds 26 1016 78 10000 5.14 100 10:46 22.04.2021
5 Clouds 27 1016 74 10000 5.66 100 10:26 22.04.2021
6 Clouds 27 1016 74 10000 6.17 100 09:49 22.04.2021
7 Clouds 26 1016 78 10000 6.69 90 09:30 22.04.2021
8 Clouds 26 1015 78 10000 6.17 90 08:41 22.04.2021
9 Clouds 26 1015 78 10000 6.17 90 08:22 22.04.2021
10 Rain 26 1015 78 10000 4.63 100 07:46 22.04.2021
11 Clouds 27 1015 69 10000 5.14 110 07:24 22.04.2021
12 Clouds 27 1014 69 10000 4.63 110 06:32 22.04.2021
13 Clouds 28 1014 65 10000 5.66 100 05:26 22.04.2021
14 Clouds 28 1014 65 10000 6.17 90 04:56 22.04.2021
15 Clouds 28 1015 65 10000 7.72 90 01:23 22.04.2021
16 Clouds 28 1016 65 10000 5.66 90 23:53 21.04.2021
17 Clouds 27 1016 69 10000 7.2 90 23:32 21.04.2021
18 Clouds 27 1017 69 10000 6.17 90 22:44 21.04.2021
19 Clouds 27 1017 69 10000 6.69 90 22:24 21.04.2021
20 Clouds 27 1017 69 10000 6.17 90 21:50 21.04.2021
21 Clouds 26 1017 73 10000 6.17 100 21:25 21.04.2021
22 Clouds 26 1016 73 10000 4.12 110 20:59 21.04.2021
23 Clouds 26 1016 73 10000 4.12 110 20:59 21.04.2021
24 Clouds 26 1016 73 10000 5.66 100 20:21 21.04.2021
25 Clouds 25 1016 78 10000 5.14 100 19:45 21.04.2021
26 Rain 25 1016 78 10000 5.66 100 19:25 21.04.2021
27 Rain 25 1016 78 10000 5.66 100 19:25 21.04.2021
28 Rain 25 1015 78 10000 4.63 100 18:46 21.04.2021
29 Clouds 25 1015 78 10000 4.12 110 18:28 21.04.2021
30 Clouds 26 1015 73 10000 5.14 100 17:49 21.04.2021
31 Rain 25 1015 78 10000 5.14 100 17:25 21.04.2021
32 Rain 25 1015 78 10000 5.14 100 17:25 21.04.2021
33 Rain 25 1015 78 10000 5.14 100 17:25 21.04.2021
34 Rain 25 1015 83 10000 5.66 90 16:55 21.04.2021
35 Rain 25 1015 78 10000 7.2 90 16:23 21.04.2021
36 Rain 24 1015 88 10000 4.12 110 15:42 21.04.2021
37 Rain 24 1016 88 10000 4.12 100 14:58 21.04.2021
38 Rain 24 1016 88 10000 3.6 110 14:40 21.04.2021
39 Rain 24 1016 88 10000 3.6 110 14:18 21.04.2021
40 Rain 24 1016 88 10000 4.12 110 13:40 21.04.2021
41 Rain 24 1016 88 10000 4.12 110 13:21 21.04.2021
42 Rain 24 1016 88 10000 4.12 110 12:31 21.04.2021
43 Rain 23 1017 94 6000 3.6 110 11:50 21.04.2021
44 Rain 24 1017 88 10000 3.6 110 11:30 21.04.2021
45 Rain 24 1017 88 10000 5.14 110 10:52 21.04.2021
46 Rain 24 1017 83 10000 4.12 100 10:34 21.04.2021
47 Rain 24 1017 88 10000 4.12 110 09:51 21.04.2021
48 Rain 24 1017 83 10000 3.6 100 09:19 21.04.2021
49 Rain 24 1016 88 10000 3.6 100 08:40 21.04.2021
50 Rain 24 1016 88 10000 3.6 100 08:20 21.04.2021
51 Rain 24 1016 83 10000 3.6 100 07:31 21.04.2021
52 Rain 23 1016 94 10000 1.54 120 06:57 21.04.2021
53 Clouds 24 1016 88 10000 4.12 100 05:22 21.04.2021
54 Rain 27 1016 74 10000 5.14 110 01:32 21.04.2021
55 Rain 27 1017 69 10000 5.14 90 23:51 20.04.2021
56 Clouds 27 1017 74 10000 5.14 100 23:25 20.04.2021
57 Clouds 27 1018 69 10000 4.63 100 22:41 20.04.2021
58 Clouds 27 1018 69 10000 4.63 100 22:21 20.04.2021
59 Clouds 26 1018 73 10000 5.66 90 21:47 20.04.2021
60 Clouds 26 1018 73 10000 4.63 100 21:25 20.04.2021
61 Clouds 26 1017 73 10000 5.14 100 20:43 20.04.2021
62 Clouds 25 1017 78 10000 4.12 100 20:23 20.04.2021
63 Clouds 25 1017 78 10000 3.6 110 19:55 20.04.2021
64 Clouds 24 1017 83 10000 2.06 120 19:36 20.04.2021
65 Clouds 24 1017 83 10000 2.06 120 19:18 20.04.2021
66 Clouds 25 1016 73 10000 2.57 110 18:35 20.04.2021
67 Clouds 25 1016 73 10000 2.06 110 17:46 20.04.2021
68 Clouds 25 1016 78 10000 2.06 130 17:25 20.04.2021
69 Clouds 24 1016 83 10000 3.09 90 16:44 20.04.2021
70 Drizzle 24 1017 83 10000 4.12 110 15:51 20.04.2021
71 Clouds 25 1016 78 10000 4.63 90 15:28 20.04.2021
72 Clouds 25 1016 78 10000 4.63 100 14:57 20.04.2021
73 Clouds 25 1017 78 10000 3.09 100 14:31 20.04.2021
74 Clouds 26 1017 69 10000 5.14 90 13:37 20.04.2021
75 Rain 26 1017 69 10000 5.14 90 13:18 20.04.2021
76 Rain 26 1017 69 10000 5.14 90 13:18 20.04.2021
77 Rain 26 1017 69 10000 4.63 90 12:40 20.04.2021
78 Rain 26 1017 69 10000 4.63 90 12:19 20.04.2021
79 Rain 25 1017 78 10000 4.12 100 11:40 20.04.2021
80 Rain 25 1017 78 10000 4.12 100 11:20 20.04.2021
81 Clouds 26 1017 73 10000 4.63 90 10:42 20.04.2021
82 Rain 25 1017 78 10000 4.12 100 10:22 20.04.2021
83 Clouds 26 1017 69 10000 4.12 110 09:22 20.04.2021
84 Clouds 26 1017 73 10000 4.63 100 08:54 20.04.2021
85 Clouds 26 1016 73 10000 4.12 110 08:19 20.04.2021
86 Clouds 25 1016 78 10000 3.09 100 07:39 20.04.2021
87 Clouds 25 1016 83 10000 8.91 125 06:35 20.04.2021
88 Rain 25 1016 83 10000 2.57 160 05:37 20.04.2021
89 Clouds 27 1015 69 10000 4.12 110 04:41 20.04.2021
90 Clouds 28 1016 69 10000 4.63 100 00:53 20.04.2021
91 Clouds 28 1017 69 10000 5.14 100 00:27 20.04.2021
92 Clouds 28 1017 69 10000 5.14 100 00:27 20.04.2021
93 Clouds 27 1017 69 10000 4.63 100 23:33 19.04.2021
94 Clouds 27 1017 74 10000 4.63 100 22:51 19.04.2021
95 Clouds 27 1018 69 10000 3.6 110 22:29 19.04.2021
96 Clouds 26 1017 73 10000 3.09 100 21:47 19.04.2021
97 Clouds 26 1017 73 10000 4.12 100 21:22 19.04.2021
98 Clouds 25 1017 78 10000 4.12 100 20:41 19.04.2021
99 Clouds 25 1017 78 10000 4.12 100 20:21 19.04.2021
100 Clouds 25 1017 78 10000 4.63 100 19:50 19.04.2021
101 Rain 25 1017 83 10000 3.6 100 19:27 19.04.2021
102 Rain 25 1017 78 10000 3.6 90 18:59 19.04.2021
103 Clouds 26 1016 73 10000 4.63 100 18:41 19.04.2021
104 Clouds 26 1016 73 10000 4.63 100 18:19 19.04.2021
105 Clouds 26 1016 73 10000 4.63 100 18:19 19.04.2021
106 Clouds 26 1016 73 10000 4.63 100 18:19 19.04.2021
107 Clouds 26 1016 73 10000 4.12 100 17:44 19.04.2021
108 Rain 26 1015 73 10000 2.57 110 17:24 19.04.2021
109 Rain 26 1015 73 10000 3.09 110 16:43 19.04.2021
110 Rain 26 1015 73 10000 4.63 100 16:24 19.04.2021
111 Rain 26 1015 69 10000 4.12 100 15:43 19.04.2021
112 Rain 26 1015 73 10000 3.6 110 15:24 19.04.2021
113 Rain 26 1015 73 10000 4.63 100 14:51 19.04.2021
114 Rain 26 1015 78 10000 4.63 110 14:30 19.04.2021
115 Rain 26 1015 78 10000 4.63 100 13:50 19.04.2021
116 Rain 26 1016 78 10000 4.12 100 13:27 19.04.2021
117 Rain 26 1016 78 10000 4.12 110 12:48 19.04.2021
118 Rain 26 1016 78 10000 5.14 100 12:27 19.04.2021
119 Rain 26 1016 78 10000 4.12 100 11:58 19.04.2021
120 Rain 26 1016 78 10000 5.66 90 11:27 19.04.2021
121 Rain 26 1016 78 10000 5.66 90 11:27 19.04.2021
122 Rain 26 1016 83 10000 5.14 100 10:55 19.04.2021
123 Rain 26 1016 83 10000 6.17 90 10:36 19.04.2021
124 Rain 26 1016 83 10000 6.17 90 10:18 19.04.2021
125 Rain 26 1016 83 10000 6.17 90 10:18 19.04.2021
126 Rain 26 1016 83 10000 5.14 90 09:38 19.04.2021
127 Rain 26 1016 83 10000 5.14 90 09:38 19.04.2021
128 Rain 26 1016 83 10000 5.14 90 09:19 19.04.2021
129 Rain 26 1015 83 10000 3.6 100 08:30 19.04.2021
130 Rain 26 1015 89 10000 4.63 90 07:49 19.04.2021
131 Rain 27 1015 78 10000 5.66 90 07:20 19.04.2021
132 Rain 27 1014 78 10000 6.69 80 06:38 19.04.2021
133 Rain 28 1014 78 10000 7.2 80 02:37 19.04.2021
134 Rain 29 1014 74 10000 7.2 80 01:29 19.04.2021
135 Rain 29 1015 74 10000 6.69 80 00:23 19.04.2021
136 Rain 28 1016 78 10000 6.69 70 23:19 18.04.2021
137 Rain 28 1016 78 10000 5.66 90 22:49 18.04.2021
138 Rain 28 1016 74 10000 6.17 80 22:30 18.04.2021
139 Rain 28 1016 74 10000 6.17 80 22:30 18.04.2021
140 Rain 27 1015 83 10000 5.66 80 21:41 18.04.2021
141 Rain 27 1015 83 10000 5.66 80 21:20 18.04.2021
142 Rain 26 1015 83 10000 4.63 90 20:40 18.04.2021
143 Rain 26 1015 83 10000 4.63 90 20:20 18.04.2021
144 Rain 25 1014 88 10000 3.6 90 19:49 18.04.2021
145 Rain 25 1014 88 10000 2.57 90 19:29 18.04.2021
146 Rain 25 1014 88 10000 2.06 90 18:54 18.04.2021
147 Rain 25 1013 88 10000 3.09 100 18:31 18.04.2021
148 Rain 25 1013 83 10000 3.09 90 17:55 18.04.2021
149 Rain 25 1013 88 10000 2.06 100 17:37 18.04.2021
150 Rain 25 1013 88 10000 2.06 100 17:18 18.04.2021
151 Rain 25 1013 83 10000 1.54 90 16:41 18.04.2021
152 Rain 25 1013 83 10000 2.06 110 15:59 18.04.2021
153 Rain 24 1013 88 10000 1.03 100 15:38 18.04.2021
154 Rain 24 1013 88 10000 1.03 100 15:18 18.04.2021
155 Rain 25 1013 83 10000 2.06 100 14:41 18.04.2021
156 Rain 25 1013 83 10000 2.06 100 14:19 18.04.2021
157 Rain 25 1013 83 10000 2.06 100 13:49 18.04.2021
158 Rain 25 1013 83 10000 2.06 100 13:49 18.04.2021
159 Rain 25 1014 83 10000 1.54 110 13:29 18.04.2021
160 Rain 25 1014 88 10000 1.03 110 12:38 18.04.2021
161 Rain 25 1014 88 10000 1.54 120 11:58 18.04.2021
162 Rain 26 1014 83 10000 2.06 110 11:39 18.04.2021
163 Clouds 26 1014 83 10000 2.06 110 11:20 18.04.2021
164 Clouds 25 1014 88 10000 1.54 100 10:41 18.04.2021
165 Clouds 25 1014 88 10000 1.54 100 10:18 18.04.2021
166 Clouds 25 1014 83 10000 1.54 110 09:39 18.04.2021
167 Clouds 25 1014 83 10000 1.54 110 09:20 18.04.2021
168 Clouds 25 1014 83 10000 1.54 110 08:44 18.04.2021
169 Clouds 25 1013 88 10000 1.54 110 08:24 18.04.2021
170 Clouds 26 1013 83 10000 1.54 110 07:40 18.04.2021
171 Rain 27 1012 78 10000 3.09 80 05:56 18.04.2021
172 Clouds 28 1012 74 10000 2.57 100 05:26 18.04.2021
173 Clouds 27 1011 78 10000 4.12 60 04:30 18.04.2021
174 Clouds 28 1012 69 10000 3.09 90 02:23 18.04.2021
175 Clouds 28 1013 74 10000 3.6 50 00:41 18.04.2021
176 Clouds 28 1013 74 10000 3.6 60 23:46 17.04.2021
177 Clouds 28 1013 74 10000 3.6 60 23:18 17.04.2021
178 Clouds 28 1013 74 10000 3.6 60 22:41 17.04.2021
179 Clouds 28 1013 74 10000 3.6 60 22:20 17.04.2021
180 Clouds 27 1013 74 10000 0.51 270 21:41 17.04.2021
181 Clouds 27 1013 74 10000 0.51 270 21:21 17.04.2021
182 Rain 24 1013 94 10000 0.51 80 20:28 17.04.2021
183 Rain 22 1012 100 10000 0.51 120 19:46 17.04.2021
184 Rain 22 1012 100 10000 0.51 120 19:46 17.04.2021
185 Rain 21 1012 100 10000 0.51 160 19:23 17.04.2021
186 Rain 21 1012 100 10000 0.51 100 18:58 17.04.2021
187 Rain 21 1011 100 10000 0.51 140 18:37 17.04.2021
188 Rain 21 1011 100 10000 0.51 140 18:18 17.04.2021
189 Rain 21 1011 100 10000 0.51 100 17:41 17.04.2021
190 Rain 22 1011 94 10000 1.03 80 16:55 17.04.2021
191 Rain 22 1011 100 10000 1.03 90 16:29 17.04.2021
192 Rain 22 1011 100 10000 1.03 90 16:29 17.04.2021
193 Rain 22 1011 100 10000 0.51 140 15:55 17.04.2021
194 Rain 23 1011 94 10000 0.51 140 14:51 17.04.2021
195 Rain 23 1012 94 10000 1.03 120 14:33 17.04.2021
196 Rain 23 1012 94 10000 0.51 160 13:50 17.04.2021
197 Rain 24 1012 94 10000 0.51 220 13:25 17.04.2021
198 Rain 23 1012 94 10000 0.51 150 12:42 17.04.2021
199 Clouds 23 1012 94 10000 0.51 150 12:20 17.04.2021
200 Clouds 23 1012 94 10000 0.51 130 11:45 17.04.2021
201 Rain 23 1012 94 10000 1.54 190 11:27 17.04.2021
202 Rain 24 1012 88 10000 0.51 230 10:45 17.04.2021
203 Rain 24 1012 88 10000 1.03 210 10:26 17.04.2021
204 Rain 25 1012 83 10000 2.06 130 09:27 17.04.2021
205 Rain 25 1011 83 10000 2.57 180 08:40 17.04.2021
206 Clouds 25 1011 83 10000 2.57 180 08:21 17.04.2021
207 Rain 25 1011 88 10000 2.57 180 06:44 17.04.2021
208 Clouds 28 1010 69 10000 2.57 90 03:53 17.04.2021
209 Clouds 28 1010 74 10000 2.06 30 02:58 17.04.2021
210 Clouds 29 1011 70 10000 3.6 260 00:46 17.04.2021
211 Clear 29 1011 70 10000 4.12 270 00:24 17.04.2021
212 Clear 29 1011 65 10000 2.06 230 23:46 16.04.2021
213 Clouds 28 1012 69 10000 2.06 250 23:23 16.04.2021
214 Clouds 28 1012 69 10000 1.54 220 22:43 16.04.2021
215 Clear 28 1012 69 10000 1.54 200 22:20 16.04.2021
216 Clear 28 1012 74 10000 1.54 180 21:50 16.04.2021
217 Clear 27 1012 78 10000 1.54 180 21:29 16.04.2021
218 Clouds 27 1011 74 10000 1.54 180 20:48 16.04.2021
219 Clouds 26 1011 78 10000 1.03 200 20:24 16.04.2021
220 Clouds 24 1011 88 10000 1.03 180 19:50 16.04.2021
221 Clouds 25 1011 83 10000 1.03 200 19:27 16.04.2021
222 Clear 24 1010 88 10000 1.54 200 18:28 16.04.2021
223 Clouds 24 1010 88 10000 1.54 200 17:55 16.04.2021
224 Clouds 24 1010 88 10000 1.03 200 17:21 16.04.2021
225 Clouds 24 1010 88 10000 1.54 190 16:58 16.04.2021
226 Clouds 24 1010 88 10000 1.54 200 16:40 16.04.2021
227 Clouds 24 1010 88 10000 1.54 200 16:21 16.04.2021
228 Clouds 24 1010 88 10000 1.54 200 15:40 16.04.2021
229 Clouds 24 1010 88 10000 1.54 200 14:59 16.04.2021
230 Clouds 24 1010 88 10000 1.54 200 14:40 16.04.2021
231 Clouds 24 1010 88 10000 1.54 200 13:59 16.04.2021
232 Clouds 24 1010 88 10000 1.54 200 13:37 16.04.2021
233 Clouds 24 1010 88 10000 1.54 200 13:18 16.04.2021
234 Clear 24 1011 88 10000 1.54 200 12:44 16.04.2021
235 Clouds 24 1011 94 10000 1.54 200 12:23 16.04.2021
236 Clouds 24 1011 94 10000 1.54 190 11:43 16.04.2021
237 Clouds 25 1011 88 10000 1.54 190 11:23 16.04.2021
238 Clouds 25 1011 88 10000 1.03 200 10:43 16.04.2021
239 Clouds 25 1011 88 10000 1.54 200 10:23 16.04.2021
240 Clouds 26 1011 83 10000 2.57 230 09:45 16.04.2021
241 Clouds 26 1011 83 10000 2.57 230 09:45 16.04.2021
242 Clouds 25 1011 88 10000 1.54 220 09:23 16.04.2021
243 Clouds 25 1010 83 10000 1.54 220 08:45 16.04.2021
244 Clear 25 1010 83 10000 1.54 230 08:24 16.04.2021
245 Clear 26 1010 78 10000 2.06 240 07:46 16.04.2021
246 Clear 27 1009 74 10000 3.09 260 07:25 16.04.2021
247 Clouds 28 1009 65 10000 4.12 260 06:41 16.04.2021
248 Clouds 28 1009 69 10000 4.12 260 05:32 16.04.2021
249 Clear 29 1009 61 10000 5.14 260 03:31 16.04.2021
250 Clouds 29 1010 65 10000 4.63 280 00:46 16.04.2021
251 Clouds 29 1011 70 10000 4.63 280 00:22 16.04.2021
252 Clouds 28 1011 69 10000 4.12 280 23:57 15.04.2021
253 Clouds 28 1011 74 10000 4.63 280 23:32 15.04.2021
254 Clouds 28 1011 74 10000 4.12 290 22:50 15.04.2021
255 Clouds 28 1011 74 10000 3.6 290 22:24 15.04.2021
256 Clouds 28 1011 74 10000 2.57 320 21:44 15.04.2021
257 Clouds 28 1011 74 10000 2.57 320 21:44 15.04.2021
258 Clouds 27 1011 78 10000 3.09 300 21:26 15.04.2021
259 Clouds 26 1011 83 10000 3.6 280 20:49 15.04.2021
260 Clouds 26 1011 83 10000 3.6 300 20:26 15.04.2021
261 Clouds 23 1010 94 10000 1.03 190 19:57 15.04.2021
262 Clouds 22 1010 100 10000 1.54 190 19:39 15.04.2021
263 Clouds 22 1010 100 10000 1.54 190 19:20 15.04.2021
264 Clouds 23 1009 94 10000 1.54 190 18:39 15.04.2021
265 Clouds 23 1009 94 10000 1.54 190 18:18 15.04.2021
266 Clouds 23 1009 94 10000 1.03 220 17:53 15.04.2021
267 Clouds 22 1009 100 10000 1.03 180 17:30 15.04.2021
268 Clouds 23 1009 94 10000 1.03 190 16:44 15.04.2021
269 Clouds 24 1009 88 10000 2.57 290 16:24 15.04.2021
270 Clouds 23 1010 94 10000 1.54 150 15:50 15.04.2021
271 Clouds 22 1010 100 10000 1.54 200 15:27 15.04.2021
272 Rain 23 1010 94 10000 1.54 210 14:44 15.04.2021
273 Rain 23 1010 94 3700 8.23 250 14:25 15.04.2021
274 Clouds 23 1010 94 10000 1.03 180 13:49 15.04.2021
275 Clouds 22 1010 94 10000 0.51 180 13:25 15.04.2021
276 Clouds 22 1010 94 10000 0.51 230 12:50 15.04.2021
277 Clouds 22 1010 94 10000 1.03 150 12:27 15.04.2021
278 Clouds 22 1010 94 10000 1.03 170 11:48 15.04.2021
279 Clouds 22 1010 94 10000 1.03 160 11:27 15.04.2021
280 Clouds 22 1010 94 10000 1.03 160 11:27 15.04.2021
281 Clouds 23 1010 88 10000 0.51 150 10:58 15.04.2021
282 Clouds 22 1010 94 10000 1.03 160 10:39 15.04.2021
283 Clouds 22 1010 94 10000 1.03 160 10:20 15.04.2021
284 Clouds 23 1010 88 10000 0.51 160 09:30 15.04.2021
285 Clouds 24 1010 83 10000 1.03 190 08:52 15.04.2021
286 Clouds 24 1009 83 8000 0.51 200 08:30 15.04.2021
287 Clouds 26 1009 73 10000 2.57 290 07:36 15.04.2021
288 Clear 27 1009 69 10000 3.09 280 06:56 15.04.2021
289 Clouds 28 1008 65 10000 3.09 280 06:35 15.04.2021
290 Clouds 28 1008 65 10000 3.09 290 04:54 15.04.2021
291 Clear 28 1008 69 10000 3.09 300 03:58 15.04.2021
292 Clear 28 1010 69 10000 2.06 310 23:51 14.04.2021
293 Clear 28 1010 69 10000 2.57 310 23:30 14.04.2021
294 Clear 28 1010 69 10000 2.06 320 22:47 14.04.2021
295 Clouds 28 1010 69 10000 1.54 350 22:28 14.04.2021
296 Clouds 27 1010 74 10000 1.54 360 21:56 14.04.2021
297 Clouds 27 1009 74 10000 0.51 350 21:37 14.04.2021
298 Clouds 27 1009 74 10000 0.51 350 21:18 14.04.2021
299 Clouds 23 1009 100 10000 0.51 100 20:36 14.04.2021
300 Clouds 23 1009 100 10000 0.51 100 20:18 14.04.2021
301 Clear 21 1008 100 10000 0.51 150 19:38 14.04.2021
302 Clear 21 1008 100 10000 0.51 150 19:18 14.04.2021
303 Clear 21 1008 100 10000 0.51 180 18:49 14.04.2021
304 Clear 21 1008 100 10000 0.51 150 18:18 14.04.2021
305 Clouds 21 1008 100 10000 1.03 110 17:51 14.04.2021
306 Clouds 22 1007 94 10000 0.51 120 17:23 14.04.2021
307 Clouds 21 1008 100 10000 0.51 140 16:42 14.04.2021
308 Clouds 21 1008 100 10000 0.51 140 16:21 14.04.2021
309 Clear 21 1008 100 10000 0.51 150 15:39 14.04.2021
310 Clear 21 1008 100 10000 0.51 150 15:18 14.04.2021
311 Drizzle 22 1008 94 10000 0.51 200 14:41 14.04.2021
312 Drizzle 22 1008 94 10000 0.51 200 14:21 14.04.2021
313 Clear 21 1008 100 10000 0.51 150 13:47 14.04.2021
314 Clear 22 1009 100 10000 1.03 180 12:47 14.04.2021
315 Clear 22 1009 100 10000 1.03 180 12:24 14.04.2021
316 Clear 22 1009 94 10000 1.03 210 11:42 14.04.2021
317 Clear 22 1009 94 10000 1.03 210 11:23 14.04.2021
318 Clouds 23 1009 88 10000 0.51 70 10:34 14.04.2021
319 Rain 23 1009 94 10000 0.51 170 09:43 14.04.2021
320 Clear 23 1009 94 10000 1.03 170 09:25 14.04.2021
321 Clear 23 1008 94 10000 1.03 190 08:56 14.04.2021
322 Clouds 23 1008 94 10000 1.03 130 08:30 14.04.2021
323 Clouds 25 1007 78 10000 1.03 120 07:41 14.04.2021
324 Clouds 27 1007 69 10000 2.06 70 06:35 14.04.2021
325 Clouds 27 1007 69 10000 1.54 290 05:36 14.04.2021
326 Clouds 28 1007 65 10000 1.54 280 02:31 14.04.2021
327 Clouds 28 1007 65 10000 2.06 310 00:50 14.04.2021
328 Clouds 28 1008 69 10000 1.54 300 00:32 14.04.2021
329 Clouds 28 1008 65 10000 1.54 80 23:34 13.04.2021
330 Rain 27 1008 69 10000 1.54 150 22:44 13.04.2021
331 Clouds 25 1008 78 10000 2.06 190 22:22 13.04.2021
332 Clouds 27 1008 69 10000 1.54 120 21:49 13.04.2021
333 Clouds 27 1008 74 10000 0.51 90 21:30 13.04.2021
334 Clouds 27 1008 74 10000 0.51 90 21:30 13.04.2021
335 Rain 25 1008 88 10000 0.51 210 20:50 13.04.2021
336 Clouds 23 1007 88 10000 1.54 180 20:25 13.04.2021
337 Clouds 22 1007 94 10000 1.03 170 19:58 13.04.2021
338 Clouds 22 1006 94 10000 1.54 190 19:26 13.04.2021
339 Clouds 22 1006 94 10000 1.03 180 18:49 13.04.2021
340 Clouds 22 1006 94 10000 1.54 180 18:30 13.04.2021
341 Clouds 22 1006 94 10000 1.54 180 18:30 13.04.2021
342 Clouds 22 1006 94 10000 1.54 180 18:30 13.04.2021
343 Clouds 22 1006 94 10000 1.03 180 17:40 13.04.2021
344 Clouds 22 1006 94 10000 1.03 180 17:19 13.04.2021
345 Clouds 22 1005 94 10000 1.54 190 16:45 13.04.2021
346 Clear 22 1005 94 10000 1.54 190 16:26 13.04.2021
347 Clear 22 1005 94 10000 1.54 190 15:55 13.04.2021
348 Clouds 21 1005 100 10000 1.03 180 15:36 13.04.2021
349 Clear 22 1006 94 10000 1.03 190 14:50 13.04.2021
350 Clouds 22 1006 94 10000 1.54 180 14:22 13.04.2021
351 Clouds 22 1006 94 10000 1.54 180 13:45 13.04.2021
352 Rain 22 1006 94 10000 1.54 190 13:26 13.04.2021
353 Rain 22 1006 94 10000 1.54 180 12:58 13.04.2021
354 Rain 22 1007 94 10000 1.54 190 12:31 13.04.2021
355 Rain 22 1007 94 10000 1.03 180 11:59 13.04.2021
356 Rain 22 1007 94 10000 1.54 190 11:34 13.04.2021
357 Rain 22 1007 94 10000 1.54 190 10:56 13.04.2021
358 Rain 22 1007 94 10000 1.54 190 10:24 13.04.2021
359 Rain 22 1007 94 10000 1.03 170 09:59 13.04.2021
360 Rain 23 1007 88 10000 1.54 180 09:40 13.04.2021
361 Rain 23 1007 88 10000 1.54 180 09:18 13.04.2021
362 Rain 23 1006 94 10000 1.03 200 08:41 13.04.2021
363 Rain 23 1006 94 10000 1.03 200 08:41 13.04.2021
364 Rain 23 1006 94 10000 1.03 200 08:20 13.04.2021
365 Rain 24 1006 83 10000 0.51 170 07:36 13.04.2021
366 Rain 27 1005 69 10000 1.54 230 06:31 13.04.2021
367 Clouds 27 1005 74 10000 1.54 190 04:50 13.04.2021
368 Clouds 28 1006 69 10000 3.6 290 02:41 13.04.2021
369 Clouds 27 1007 74 10000 2.57 310 00:33 13.04.2021
370 Clouds 28 1008 74 10000 2.06 330 23:49 12.04.2021
371 Clouds 27 1008 74 10000 2.06 350 23:26 12.04.2021
372 Clouds 26 1008 83 10000 2.06 50 22:39 12.04.2021
373 Clouds 26 1008 83 10000 2.06 50 22:18 12.04.2021
374 Clouds 26 1008 83 10000 2.06 50 22:18 12.04.2021
375 Clouds 26 1008 78 10000 2.06 50 21:45 12.04.2021
376 Clouds 26 1008 78 10000 1.54 50 21:19 12.04.2021
377 Rain 23 1007 94 10000 0.51 140 20:41 12.04.2021
378 Rain 23 1007 94 10000 0.51 140 20:22 12.04.2021
379 Rain 22 1007 94 10000 0.51 220 19:55 12.04.2021
380 Rain 22 1007 100 10000 1.54 130 19:36 12.04.2021
381 Rain 22 1007 100 10000 1.54 130 19:18 12.04.2021
382 Rain 22 1007 100 10000 0.51 120 18:42 12.04.2021
383 Clouds 22 1007 100 10000 0.51 120 18:24 12.04.2021
384 Rain 22 1007 100 10000 1.03 180 17:43 12.04.2021
385 Rain 22 1007 100 10000 1.54 50 17:23 12.04.2021
386 Rain 22 1007 100 10000 1.03 190 16:46 12.04.2021
387 Rain 22 1007 100 10000 1.03 190 16:46 12.04.2021
388 Rain 22 1006 100 10000 1.03 80 16:27 12.04.2021
389 Rain 22 1007 100 10000 0.51 340 15:48 12.04.2021
390 Rain 22 1007 100 9000 1.54 320 15:25 12.04.2021
391 Rain 22 1007 94 1600 1.54 110 14:50 12.04.2021
392 Rain 23 1007 94 10000 3.6 160 14:29 12.04.2021
393 Rain 23 1007 94 10000 3.09 200 13:46 12.04.2021
394 Rain 23 1007 100 10000 3.09 180 13:26 12.04.2021
395 Rain 23 1007 100 1800 3.6 210 12:45 12.04.2021
396 Rain 24 1007 100 10000 4.63 240 12:24 12.04.2021
397 Rain 24 1007 100 10000 4.63 240 12:24 12.04.2021
398 Rain 25 1008 94 2800 4.63 250 11:56 12.04.2021
399 Rain 26 1008 89 10000 3.6 290 11:18 12.04.2021
400 Rain 25 1008 94 10000 2.06 210 10:41 12.04.2021
401 Rain 25 1008 94 10000 2.06 210 10:22 12.04.2021
402 Rain 26 1008 89 10000 5.14 250 09:40 12.04.2021
403 Rain 26 1008 89 10000 5.14 250 09:18 12.04.2021
404 Rain 27 1007 83 10000 5.66 310 08:35 12.04.2021
405 Rain 27 1007 83 10000 5.66 300 07:38 12.04.2021
406 Rain 27 1007 83 10000 5.66 300 07:19 12.04.2021
407 Clouds 28 1007 78 10000 3.09 320 05:51 12.04.2021
408 Clouds 28 1007 78 10000 3.6 310 04:28 12.04.2021
409 Rain 28 1009 78 10000 2.57 330 00:52 12.04.2021
410 Rain 28 1010 78 10000 3.09 320 00:24 12.04.2021
411 Rain 28 1010 78 10000 3.09 320 00:24 12.04.2021
412 Rain 28 1010 78 10000 2.57 320 23:46 11.04.2021
413 Rain 28 1011 78 10000 2.06 310 23:23 11.04.2021
414 Rain 27 1011 83 10000 3.09 290 22:45 11.04.2021
415 Rain 26 1011 89 10000 3.09 280 22:22 11.04.2021
416 Rain 26 1010 94 10000 3.09 280 21:46 11.04.2021
417 Clouds 26 1010 94 10000 3.6 290 21:27 11.04.2021
418 Rain 26 1010 94 10000 3.09 310 20:52 11.04.2021
419 Rain 26 1010 94 10000 1.54 50 20:28 11.04.2021
420 Rain 26 1010 94 10000 1.54 360 19:54 11.04.2021
421 Rain 25 1010 100 10000 0.51 110 19:36 11.04.2021
422 Rain 25 1010 100 10000 0.51 110 19:18 11.04.2021
423 Rain 25 1010 100 10000 0.51 110 19:18 11.04.2021
424 Rain 24 1010 100 10000 0.51 140 18:42 11.04.2021
425 Clouds 24 1010 100 10000 0.51 140 18:23 11.04.2021
426 Clouds 24 1010 100 10000 1.03 160 17:45 11.04.2021
427 Clouds 24 1010 100 10000 0.51 160 17:26 11.04.2021
428 Clouds 24 1010 100 10000 0.51 200 16:50 11.04.2021
429 Clouds 24 1010 100 10000 1.03 190 16:23 11.04.2021
430 Clouds 24 1010 100 10000 1.03 160 15:51 11.04.2021
431 Clouds 24 1010 100 10000 0.51 80 15:27 11.04.2021
432 Clouds 24 1010 100 10000 1.03 100 14:55 11.04.2021
433 Clouds 24 1011 100 8000 1.03 180 14:31 11.04.2021
434 Clouds 24 1011 100 10000 1.03 150 13:51 11.04.2021
435 Clouds 24 1011 100 10000 0.51 140 13:31 11.04.2021
436 Clouds 24 1012 100 10000 0.51 70 12:49 11.04.2021
437 Clouds 25 1012 94 10000 1.54 190 12:21 11.04.2021
438 Clouds 25 1012 94 10000 1.54 200 11:50 11.04.2021
439 Clouds 24 1012 100 10000 0.51 150 11:23 11.04.2021
440 Clouds 24 1012 100 10000 0.51 130 10:48 11.04.2021
441 Clouds 24 1012 100 10000 0.51 170 10:30 11.04.2021
442 Clouds 24 1012 100 10000 0.51 180 09:56 11.04.2021
443 Clouds 24 1012 100 10000 1.03 130 09:32 11.04.2021
444 Clouds 25 1011 94 10000 2.06 90 08:42 11.04.2021
445 Clouds 25 1011 94 10000 2.06 90 08:21 11.04.2021
446 Clouds 26 1011 94 10000 0.51 170 07:21 11.04.2021
447 Clouds 27 1011 89 10000 2.06 180 06:26 11.04.2021
448 Clouds 27 1010 89 10000 2.57 210 05:37 11.04.2021
449 Clouds 27 1010 89 10000 2.57 210 05:18 11.04.2021
450 Clouds 28 1010 83 10000 2.57 260 04:33 11.04.2021
451 Clouds 28 1012 78 10000 4.12 280 01:40 11.04.2021
452 Clouds 28 1013 78 10000 2.06 270 00:33 11.04.2021
453 Clouds 28 1013 83 10000 2.57 260 23:47 10.04.2021
454 Clouds 28 1013 83 10000 2.06 330 22:59 10.04.2021
455 Clouds 28 1012 83 10000 2.06 330 22:31 10.04.2021
456 Clouds 28 1012 78 10000 1.03 360 21:55 10.04.2021
457 Clouds 27 1012 89 10000 2.06 290 21:33 10.04.2021
458 Clouds 27 1012 89 10000 2.57 290 20:58 10.04.2021
459 Clouds 27 1012 89 10000 1.03 50 20:40 10.04.2021
460 Clouds 27 1012 89 10000 1.03 50 20:21 10.04.2021
461 Clouds 25 1012 100 10000 1.03 110 19:43 10.04.2021
462 Clouds 25 1011 100 10000 1.54 100 19:25 10.04.2021
463 Clouds 25 1011 94 10000 1.54 80 18:44 10.04.2021
464 Clouds 25 1011 94 10000 1.03 90 18:25 10.04.2021
465 Clouds 24 1011 100 10000 1.03 100 17:36 10.04.2021
466 Clouds 25 1011 94 10000 0.51 270 16:54 10.04.2021
467 Clouds 25 1011 100 10000 1.54 110 16:26 10.04.2021
468 Clouds 25 1011 100 10000 2.06 110 15:53 10.04.2021
469 Rain 25 1012 94 10000 1.03 160 14:57 10.04.2021
470 Clouds 24 1012 100 10000 1.03 180 14:37 10.04.2021
471 Clouds 24 1012 100 10000 0.51 190 13:59 10.04.2021
472 Clouds 24 1012 100 10000 0.51 200 13:39 10.04.2021
473 Clouds 25 1012 94 10000 1.03 80 12:48 10.04.2021
474 Clouds 25 1013 94 10000 1.54 90 12:26 10.04.2021
475 Clouds 25 1013 94 10000 1.54 100 11:46 10.04.2021
476 Clouds 25 1013 94 10000 1.54 100 11:23 10.04.2021
477 Clouds 25 1013 94 10000 1.03 70 10:52 10.04.2021
478 Clouds 24 1013 100 10000 1.03 150 10:31 10.04.2021
479 Clouds 25 1012 94 10000 0.51 150 09:45 10.04.2021
480 Clouds 25 1012 94 10000 1.03 190 09:19 10.04.2021
481 Clouds 26 1012 89 10000 1.03 150 08:36 10.04.2021
482 Clouds 26 1012 89 10000 1.03 150 08:18 10.04.2021
483 Clouds 26 1012 89 10000 1.03 190 07:26 10.04.2021
484 Clouds 27 1011 89 10000 1.03 200 06:42 10.04.2021
485 Clouds 28 1011 78 10000 2.57 260 05:36 10.04.2021
486 Clouds 29 1010 79 10000 2.57 330 03:42 10.04.2021
487 Clouds 29 1010 74 10000 1.54 360 02:48 10.04.2021
488 Rain 29 1011 74 10000 2.57 10 01:28 10.04.2021
489 Rain 29 1012 74 10000 3.09 20 00:37 10.04.2021
490 Clouds 29 1013 74 10000 3.09 20 23:55 09.04.2021
491 Clouds 28 1013 78 10000 3.6 20 23:30 09.04.2021
492 Rain 28 1013 78 10000 3.09 40 22:54 09.04.2021
493 Rain 28 1013 83 10000 3.09 60 22:36 09.04.2021
494 Rain 27 1012 89 10000 1.54 80 21:41 09.04.2021
495 Rain 27 1012 89 10000 1.54 80 21:22 09.04.2021
496 Rain 26 1012 94 10000 2.06 100 20:57 09.04.2021
497 Rain 25 1012 100 6000 1.54 10 20:39 09.04.2021
498 Rain 25 1012 100 6000 1.54 10 20:20 09.04.2021
499 Rain 25 1011 100 10000 1.03 90 19:43 09.04.2021
500 Rain 24 1011 100 10000 0.51 100 19:22 09.04.2021
501 Rain 24 1011 100 10000 0.51 100 19:22 09.04.2021
502 Rain 24 1010 100 4000 1.54 80 18:42 09.04.2021
503 Rain 24 1010 100 4000 1.54 80 18:23 09.04.2021
504 Rain 24 1010 100 3000 0.51 140 17:47 09.04.2021
505 Clouds 24 1010 100 9000 4.59 359 17:29 09.04.2021
506 Clouds 24 1010 100 10000 1.03 160 16:44 09.04.2021
507 Clouds 24 1010 100 10000 1.54 180 16:23 09.04.2021
508 Clouds 24 1010 100 10000 1.03 130 15:43 09.04.2021
509 Clouds 24 1010 100 10000 0.51 120 15:23 09.04.2021
510 Rain 25 1011 94 10000 1.03 110 14:46 09.04.2021
511 Clouds 25 1011 94 10000 1.54 190 14:21 09.04.2021
512 Clouds 25 1011 94 10000 1.03 110 13:43 09.04.2021
513 Clouds 25 1011 94 10000 1.54 100 13:22 09.04.2021
514 Drizzle 25 1011 94 10000 2.57 90 12:47 09.04.2021
515 Rain 25 1012 94 10000 2.57 90 11:59 09.04.2021
516 Rain 24 1011 100 10000 1.03 110 11:30 09.04.2021
517 Rain 24 1012 94 1500 2.57 210 10:56 09.04.2021
518 Rain 24 1012 94 10000 2.57 220 10:37 09.04.2021
519 Rain 25 1012 94 10000 3.09 270 09:55 09.04.2021
520 Rain 25 1011 100 7000 1.54 130 09:27 09.04.2021
521 Rain 25 1010 94 10000 2.06 100 08:55 09.04.2021
522 Rain 25 1010 94 3000 1.03 110 08:25 09.04.2021
523 Rain 25 1010 94 10000 2.06 220 07:21 09.04.2021
524 Rain 25 1009 94 10000 2.57 200 06:21 09.04.2021
525 Clouds 28 1009 83 10000 3.6 330 03:56 09.04.2021
526 Clouds 29 1009 79 10000 3.6 340 03:38 09.04.2021
527 Clouds 27 1011 83 10000 3.6 10 00:38 09.04.2021
528 Clouds 27 1011 83 10000 3.6 10 00:20 09.04.2021
529 Clouds 27 1011 89 10000 4.63 360 23:31 08.04.2021
530 Clouds 27 1011 83 10000 3.09 10 22:47 08.04.2021
531 Clouds 27 1011 83 10000 4.12 360 22:27 08.04.2021
532 Clouds 27 1011 83 10000 3.6 360 21:58 08.04.2021
533 Clouds 26 1011 89 10000 3.6 360 21:38 08.04.2021
534 Clouds 26 1011 89 10000 3.6 360 21:20 08.04.2021
535 Clouds 26 1011 89 10000 3.09 10 20:53 08.04.2021
536 Clouds 25 1011 94 10000 2.57 50 20:34 08.04.2021
537 Rain 24 1011 100 10000 2.57 20 19:57 08.04.2021
538 Rain 24 1011 100 6000 3.6 360 19:24 08.04.2021
539 Mist 24 1010 100 4900 3.6 10 18:52 08.04.2021
540 Rain 24 1010 100 3700 4.12 360 18:23 08.04.2021
541 Rain 25 1010 88 3100 3.09 10 17:50 08.04.2021
542 Rain 25 1010 88 2900 3.09 10 17:26 08.04.2021
543 Clouds 27 1009 78 10000 5.66 50 16:56 08.04.2021
544 Clouds 27 1009 78 10000 5.66 40 16:35 08.04.2021
545 Clouds 27 1009 78 10000 4.12 30 15:50 08.04.2021
546 Clouds 27 1009 78 10000 4.12 20 15:32 08.04.2021
547 Clouds 27 1009 78 10000 3.6 30 14:58 08.04.2021
548 Clouds 27 1010 78 10000 4.12 20 14:37 08.04.2021
549 Clouds 27 1010 78 10000 4.12 20 14:19 08.04.2021
550 Clouds 27 1009 78 10000 3.6 30 13:43 08.04.2021
551 Clouds 27 1010 78 10000 4.63 40 13:23 08.04.2021
552 Clouds 27 1010 78 10000 4.12 50 12:45 08.04.2021
553 Clouds 27 1010 74 10000 3.09 40 12:25 08.04.2021
554 Clouds 27 1011 74 10000 2.57 30 11:43 08.04.2021
555 Clouds 27 1011 74 10000 3.09 30 11:18 08.04.2021
556 Clouds 28 1011 69 10000 3.09 30 10:42 08.04.2021
557 Clouds 28 1011 69 10000 3.09 30 10:19 08.04.2021
558 Clouds 28 1011 69 10000 3.09 30 09:43 08.04.2021
559 Clouds 28 1010 69 10000 3.6 40 08:47 08.04.2021
560 Clouds 27 1010 74 10000 3.6 70 08:28 08.04.2021
561 Clouds 28 1010 69 9000 2.57 20 07:59 08.04.2021
562 Clouds 28 1009 69 10000 2.57 30 07:35 08.04.2021
563 Clouds 28 1009 69 10000 3.6 20 04:18 08.04.2021
564 Clouds 28 1010 69 10000 3.6 30 01:21 08.04.2021
565 Clouds 28 1010 65 10000 4.12 40 00:21 08.04.2021
566 Clouds 29 1011 65 10000 4.63 40 23:42 07.04.2021
567 Clouds 28 1011 65 10000 4.12 50 23:22 07.04.2021
568 Clouds 28 1011 69 10000 4.12 50 22:50 07.04.2021
569 Clouds 28 1011 69 10000 4.63 50 22:32 07.04.2021
570 Clouds 28 1011 69 10000 4.12 50 21:46 07.04.2021
571 Clouds 27 1011 69 10000 3.09 40 21:24 07.04.2021
572 Clouds 27 1011 74 10000 3.6 40 20:45 07.04.2021
573 Clouds 27 1010 74 10000 4.12 60 20:21 07.04.2021
574 Clouds 27 1010 74 10000 4.63 60 19:45 07.04.2021
575 Clouds 27 1010 74 10000 3.09 30 19:26 07.04.2021
576 Clouds 27 1010 74 10000 3.6 10 18:48 07.04.2021
577 Clouds 27 1009 74 10000 3.09 30 18:20 07.04.2021
578 Clouds 27 1009 74 10000 3.09 40 17:55 07.04.2021
579 Clouds 27 1009 74 10000 3.09 40 17:55 07.04.2021
580 Clouds 27 1009 74 10000 3.09 40 17:36 07.04.2021
581 Clouds 27 1009 74 10000 3.6 50 16:49 07.04.2021
582 Clouds 27 1009 69 10000 4.12 40 16:24 07.04.2021
583 Clouds 27 1009 74 10000 4.12 50 15:59 07.04.2021
584 Clouds 27 1009 69 10000 4.12 50 15:39 07.04.2021
585 Clouds 27 1010 69 10000 4.63 50 14:57 07.04.2021
586 Clouds 27 1010 74 10000 4.12 50 14:31 07.04.2021
587 Clouds 27 1010 74 10000 4.12 60 13:52 07.04.2021
588 Clouds 25 1010 83 10000 3.09 80 13:23 07.04.2021
589 Clouds 25 1011 83 10000 3.09 90 12:51 07.04.2021
590 Clouds 25 1011 83 10000 2.57 80 12:24 07.04.2021
591 Clouds 26 1011 78 10000 3.09 80 11:54 07.04.2021
592 Clouds 26 1011 78 10000 3.6 70 11:26 07.04.2021
593 Clouds 26 1011 78 10000 3.09 80 10:52 07.04.2021
594 Clouds 26 1011 78 10000 2.06 90 10:19 07.04.2021
595 Clouds 26 1011 73 10000 2.06 90 09:40 07.04.2021
596 Clouds 26 1011 73 10000 2.06 90 09:21 07.04.2021
597 Clouds 26 1011 73 10000 2.06 90 08:34 07.04.2021
598 Clouds 26 1010 73 10000 2.06 80 07:59 07.04.2021
599 Clouds 26 1010 73 10000 2.57 80 07:37 07.04.2021
600 Clouds 26 1010 73 10000 2.57 80 07:19 07.04.2021
601 Clouds 27 1010 69 10000 4.12 60 06:22 07.04.2021
602 Clouds 28 1010 65 10000 4.63 50 04:22 07.04.2021
603 Clouds 28 1012 69 10000 6.17 60 00:19 07.04.2021
604 Clouds 28 1012 69 10000 6.17 60 23:42 06.04.2021
605 Clouds 28 1012 69 10000 6.17 60 23:18 06.04.2021
606 Clouds 28 1012 69 10000 6.69 60 22:22 06.04.2021
607 Clouds 28 1013 69 10000 6.69 60 21:59 06.04.2021
608 Clouds 28 1012 69 10000 6.69 60 21:39 06.04.2021
609 Clouds 28 1012 69 10000 6.69 60 21:21 06.04.2021
610 Clouds 28 1012 69 10000 6.69 60 21:21 06.04.2021
611 Clouds 27 1012 74 10000 7.2 70 20:51 06.04.2021
612 Clouds 27 1012 74 10000 6.69 60 20:21 06.04.2021
613 Clouds 27 1011 74 10000 7.72 70 19:50 06.04.2021
614 Clouds 26 1011 78 10000 7.2 70 19:31 06.04.2021
615 Clouds 26 1011 78 10000 7.2 70 18:48 06.04.2021
616 Clouds 26 1011 78 10000 6.69 70 18:24 06.04.2021
617 Clouds 26 1011 78 10000 6.69 70 17:52 06.04.2021
618 Clouds 26 1010 78 10000 7.72 70 17:30 06.04.2021
619 Clouds 27 1011 74 10000 7.2 60 16:56 06.04.2021
620 Clouds 27 1011 74 10000 6.69 70 16:38 06.04.2021
621 Clouds 27 1011 74 10000 5.66 60 15:41 06.04.2021
622 Clouds 27 1011 74 10000 5.66 60 15:20 06.04.2021
623 Clouds 26 1012 78 10000 5.14 80 14:39 06.04.2021
624 Clouds 26 1012 78 10000 5.14 80 14:39 06.04.2021
625 Clouds 26 1012 78 10000 5.14 80 14:18 06.04.2021
626 Clouds 27 1012 74 10000 5.14 70 13:41 06.04.2021
627 Clouds 27 1012 74 10000 5.14 70 13:23 06.04.2021
628 Clouds 27 1013 74 10000 5.66 70 12:41 06.04.2021
629 Clouds 27 1013 74 10000 5.66 70 12:22 06.04.2021
630 Clouds 27 1013 74 10000 5.66 70 11:49 06.04.2021
631 Clouds 27 1013 74 10000 5.14 60 11:21 06.04.2021
632 Clouds 27 1013 78 10000 5.66 70 10:47 06.04.2021
633 Clouds 27 1013 78 10000 6.17 70 10:27 06.04.2021
634 Clouds 27 1013 74 10000 6.69 60 09:49 06.04.2021
635 Clouds 27 1013 74 10000 6.17 70 09:29 06.04.2021
636 Clouds 27 1012 74 10000 5.66 70 08:43 06.04.2021
637 Clouds 27 1012 74 10000 7.2 70 07:59 06.04.2021
638 Clouds 27 1012 78 10000 7.2 70 06:55 06.04.2021
639 Clouds 28 1011 74 10000 7.2 70 05:40 06.04.2021
640 Clouds 29 1011 74 10000 7.72 70 02:54 06.04.2021
641 Clouds 28 1012 74 10000 8.23 70 00:44 06.04.2021
642 Clouds 28 1013 78 10000 6.69 60 00:21 06.04.2021
643 Clouds 28 1013 83 10000 5.14 40 23:42 05.04.2021
644 Rain 26 1014 89 10000 7.2 50 23:19 05.04.2021
645 Rain 27 1014 78 10000 6.17 80 22:48 05.04.2021
646 Rain 27 1014 83 10000 7.72 70 22:25 05.04.2021
647 Rain 25 1014 94 7000 4.12 100 21:43 05.04.2021
648 Rain 25 1014 88 10000 5.14 100 21:20 05.04.2021
649 Rain 25 1013 94 10000 6.17 90 20:42 05.04.2021
650 Rain 25 1013 94 10000 6.17 90 20:23 05.04.2021
651 Mist 25 1013 100 4300 3.6 30 19:42 05.04.2021
652 Rain 25 1013 100 4300 3.6 30 19:21 05.04.2021
653 Rain 25 1013 100 1600 4.63 360 18:49 05.04.2021
654 Rain 25 1012 100 10000 4.63 10 18:31 05.04.2021
655 Rain 25 1012 100 10000 4.63 40 17:57 05.04.2021
656 Rain 25 1012 100 3800 5.66 50 17:37 05.04.2021
657 Rain 25 1012 100 3800 5.66 50 17:18 05.04.2021
658 Rain 26 1012 94 10000 6.69 60 16:41 05.04.2021
659 Rain 26 1012 94 10000 6.69 60 16:19 05.04.2021
660 Rain 26 1012 94 10000 7.2 70 15:48 05.04.2021
661 Rain 26 1012 94 10000 7.2 70 15:27 05.04.2021
662 Rain 26 1012 94 6000 6.17 80 14:36 05.04.2021
663 Rain 25 1012 100 10000 4.63 90 13:59 05.04.2021
664 Rain 26 1013 94 4300 6.17 70 13:31 05.04.2021
665 Rain 26 1013 94 10000 4.12 90 12:48 05.04.2021
666 Rain 27 1013 94 10000 6.17 70 12:26 05.04.2021
667 Rain 27 1013 94 10000 6.17 70 12:26 05.04.2021
668 Rain 26 1013 94 10000 3.09 90 11:53 05.04.2021
669 Rain 26 1013 94 10000 3.6 90 11:31 05.04.2021
670 Rain 26 1013 94 7000 4.12 90 10:56 05.04.2021
671 Rain 26 1013 94 10000 3.6 90 10:36 05.04.2021
672 Rain 26 1013 94 10000 4.12 90 09:49 05.04.2021
673 Rain 26 1013 94 10000 3.6 100 09:26 05.04.2021
674 Rain 26 1013 94 6000 3.6 90 08:54 05.04.2021
675 Rain 26 1013 100 10000 5.66 80 08:36 05.04.2021
676 Rain 26 1013 100 10000 5.66 80 08:18 05.04.2021
677 Rain 27 1012 89 10000 2.57 90 07:33 05.04.2021
678 Rain 27 1012 83 10000 6.17 80 03:42 05.04.2021
679 Clouds 29 1012 74 10000 8.75 70 00:56 05.04.2021
680 Rain 30 1013 74 10000 8.23 70 00:19 05.04.2021
681 Rain 29 1013 79 10000 8.75 80 23:32 04.04.2021
682 Rain 29 1013 79 10000 8.23 70 22:58 04.04.2021
683 Rain 29 1013 74 10000 9.26 80 22:34 04.04.2021
684 Rain 29 1013 74 10000 9.26 80 22:34 04.04.2021
685 Rain 28 1013 78 10000 8.23 80 21:57 04.04.2021
686 Rain 28 1013 78 10000 7.72 80 21:21 04.04.2021
687 Rain 28 1012 78 10000 8.23 80 20:43 04.04.2021
688 Rain 28 1012 78 10000 6.69 80 20:23 04.04.2021
689 Rain 27 1012 83 10000 5.14 90 19:40 04.04.2021
690 Clouds 27 1012 83 10000 5.14 90 19:19 04.04.2021
691 Clouds 27 1011 83 10000 6.17 80 18:51 04.04.2021
692 Clouds 27 1011 83 10000 5.14 90 18:25 04.04.2021
693 Clouds 27 1011 83 10000 5.66 80 17:58 04.04.2021
694 Clouds 27 1011 83 10000 6.17 80 17:25 04.04.2021
695 Clouds 27 1011 83 10000 6.17 80 16:56 04.04.2021
696 Clouds 27 1011 83 10000 6.17 80 16:37 04.04.2021
697 Clouds 27 1011 83 10000 5.14 80 15:51 04.04.2021
698 Clouds 27 1011 83 10000 5.66 80 15:31 04.04.2021
699 Clouds 27 1011 83 10000 5.66 80 14:39 04.04.2021
700 Clouds 27 1011 83 10000 5.66 80 14:19 04.04.2021
701 Clouds 27 1011 83 10000 5.66 80 14:19 04.04.2021
702 Clouds 27 1011 83 10000 5.66 80 13:26 04.04.2021
703 Clouds 27 1011 83 10000 6.17 80 12:51 04.04.2021
704 Clouds 27 1011 83 10000 6.17 80 12:27 04.04.2021
705 Clouds 27 1012 83 10000 5.14 80 11:49 04.04.2021
706 Clouds 27 1012 78 10000 5.14 90 11:30 04.04.2021
707 Clouds 27 1012 83 10000 4.63 90 10:46 04.04.2021
708 Clouds 27 1012 83 10000 4.12 90 10:21 04.04.2021
709 Clouds 27 1012 78 10000 3.6 90 09:37 04.04.2021
710 Clouds 27 1012 78 10000 3.6 90 09:18 04.04.2021
711 Clouds 27 1011 78 10000 3.6 90 08:42 04.04.2021
712 Clouds 27 1011 83 10000 3.09 90 08:24 04.04.2021
713 Clouds 28 1010 78 10000 5.14 80 06:39 04.04.2021
714 Clouds 28 1010 74 10000 6.17 70 05:43 04.04.2021
715 Clouds 29 1010 74 10000 5.14 60 01:49 04.04.2021
716 Clouds 29 1011 74 10000 6.17 60 00:44 04.04.2021
717 Clouds 29 1011 74 10000 7.2 80 23:59 03.04.2021
718 Clouds 29 1011 79 10000 6.17 70 23:39 03.04.2021
719 Clouds 29 1011 74 10000 6.69 70 22:54 03.04.2021
720 Clouds 29 1011 74 10000 7.2 70 22:24 03.04.2021
721 Clouds 28 1011 74 10000 6.69 80 21:59 03.04.2021
722 Clouds 28 1011 74 10000 6.69 80 21:39 03.04.2021
723 Clouds 28 1011 74 10000 6.69 80 21:19 03.04.2021
724 Clouds 27 1011 83 10000 3.6 90 20:30 03.04.2021
725 Clouds 27 1011 83 10000 3.6 90 20:30 03.04.2021
726 Clouds 26 1011 89 10000 4.12 90 19:52 03.04.2021
727 Clouds 26 1010 83 10000 3.6 90 19:34 03.04.2021
728 Clouds 26 1010 83 10000 3.6 90 18:57 03.04.2021
729 Clouds 26 1010 83 10000 3.6 90 18:36 03.04.2021
730 Clouds 26 1010 83 10000 3.6 90 17:57 03.04.2021
731 Clouds 26 1009 83 10000 2.06 100 17:27 03.04.2021
732 Clouds 26 1009 83 10000 4.12 90 16:58 03.04.2021
733 Clouds 26 1009 83 10000 4.63 80 16:31 03.04.2021
734 Clouds 26 1009 83 10000 4.12 90 15:53 03.04.2021
735 Clouds 26 1009 83 10000 4.12 90 15:53 03.04.2021
736 Clouds 26 1010 83 10000 4.12 90 15:32 03.04.2021
737 Clouds 26 1010 83 10000 4.12 90 14:54 03.04.2021
738 Clouds 26 1010 83 10000 4.12 90 14:27 03.04.2021
739 Clouds 26 1010 83 10000 4.12 80 13:58 03.04.2021
740 Clouds 26 1011 83 10000 3.6 90 13:35 03.04.2021
741 Clouds 26 1011 83 10000 3.6 90 12:59 03.04.2021
742 Clouds 27 1011 78 10000 3.09 90 12:35 03.04.2021
743 Clouds 27 1011 78 10000 3.6 90 11:54 03.04.2021
744 Clouds 27 1011 78 10000 5.14 80 11:30 03.04.2021
745 Clouds 27 1011 78 10000 6.17 70 10:49 03.04.2021
746 Clouds 26 1011 83 10000 5.66 80 10:27 03.04.2021
747 Clouds 27 1010 78 10000 4.63 90 09:42 03.04.2021
748 Clouds 27 1010 78 10000 4.63 90 09:23 03.04.2021
749 Clouds 27 1010 78 10000 2.57 100 08:38 03.04.2021
750 Clouds 27 1010 78 10000 3.6 90 07:47 03.04.2021
751 Clouds 27 1009 78 10000 4.12 90 07:26 03.04.2021
752 Clouds 29 1009 74 10000 6.17 70 04:24 03.04.2021
753 Clouds 29 1010 74 10000 5.66 60 02:56 03.04.2021
754 Clouds 29 1010 74 10000 6.17 70 02:31 03.04.2021
755 Clouds 29 1011 74 10000 6.17 70 00:45 03.04.2021
756 Clouds 29 1011 74 10000 5.66 70 00:18 03.04.2021
757 Clouds 29 1012 74 10000 5.66 60 23:44 02.04.2021
758 Clouds 29 1012 70 10000 7.2 70 23:18 02.04.2021
759 Clouds 29 1012 70 10000 6.69 70 22:44 02.04.2021
760 Clouds 28 1012 74 10000 7.2 80 22:25 02.04.2021
761 Clouds 28 1012 74 10000 4.63 90 21:41 02.04.2021
762 Clouds 28 1012 74 10000 4.63 90 21:19 02.04.2021
763 Clouds 27 1012 78 10000 3.09 90 20:42 02.04.2021
764 Clouds 27 1012 78 10000 3.09 90 20:20 02.04.2021
765 Clouds 26 1011 83 10000 2.57 90 19:42 02.04.2021
766 Clouds 26 1011 83 10000 2.57 90 19:22 02.04.2021
767 Clouds 25 1011 83 10000 2.57 90 18:48 02.04.2021
768 Clouds 26 1011 83 10000 3.09 90 18:28 02.04.2021
769 Clouds 26 1010 83 10000 2.06 100 17:56 02.04.2021
770 Rain 25 1010 88 10000 1.54 110 17:25 02.04.2021
771 Rain 25 1010 88 10000 2.57 90 16:24 02.04.2021
772 Rain 25 1011 88 10000 2.06 90 15:43 02.04.2021
773 Rain 26 1011 83 10000 2.06 100 15:20 02.04.2021
774 Rain 26 1011 83 10000 2.57 100 14:33 02.04.2021
775 Clouds 26 1012 83 10000 2.57 90 13:50 02.04.2021
776 Clouds 26 1012 83 10000 2.57 100 13:28 02.04.2021
777 Clouds 26 1012 83 10000 2.57 100 12:55 02.04.2021
778 Clouds 26 1012 83 10000 2.06 100 12:21 02.04.2021
779 Clouds 26 1012 83 10000 3.09 90 11:59 02.04.2021
780 Clouds 26 1012 83 10000 3.09 90 11:38 02.04.2021
781 Rain 26 1012 83 10000 3.09 90 11:18 02.04.2021
782 Rain 26 1012 83 10000 3.6 90 10:42 02.04.2021
783 Rain 26 1012 83 10000 3.6 90 10:20 02.04.2021
784 Rain 27 1012 78 10000 3.6 90 09:39 02.04.2021
785 Clouds 27 1012 78 10000 3.6 90 09:20 02.04.2021
786 Clouds 26 1011 83 10000 3.6 90 08:44 02.04.2021
787 Clouds 27 1011 78 10000 3.6 90 08:22 02.04.2021
788 Clear 26 1011 83 10000 2.06 110 07:20 02.04.2021
789 Rain 27 1011 83 10000 3.09 100 06:31 02.04.2021
790 Clouds 28 1010 74 10000 6.69 80 03:24 02.04.2021
791 Clouds 29 1011 74 10000 7.2 80 00:56 02.04.2021
792 Clouds 29 1012 74 10000 6.69 80 00:38 02.04.2021
793 Clouds 29 1012 74 10000 6.69 80 23:43 01.04.2021
794 Clouds 29 1012 74 10000 5.66 90 23:25 01.04.2021
795 Rain 29 1012 70 10000 4.12 100 22:22 01.04.2021
796 Rain 28 1012 74 10000 4.63 90 21:56 01.04.2021
797 Rain 28 1012 74 10000 3.6 100 21:38 01.04.2021
798 Clouds 28 1012 74 10000 3.6 100 21:18 01.04.2021
799 Rain 27 1012 74 10000 1.54 120 20:33 01.04.2021
800 Clouds 26 1012 78 10000 1.03 110 19:58 01.04.2021
801 Clear 26 1012 78 10000 2.57 120 19:39 01.04.2021
802 Clouds 25 1012 78 10000 1.54 130 18:51 01.04.2021
803 Clear 25 1012 83 10000 1.54 110 18:19 01.04.2021
804 Clear 25 1011 78 10000 1.03 120 17:58 01.04.2021
805 Clear 25 1011 83 10000 1.54 120 17:38 01.04.2021
806 Clear 25 1011 83 10000 1.54 120 17:19 01.04.2021
807 Clear 25 1012 83 10000 1.03 140 16:41 01.04.2021
808 Clear 25 1012 83 10000 1.03 140 16:41 01.04.2021
809 Clear 26 1012 78 10000 1.54 140 15:49 01.04.2021
810 Clear 25 1012 83 10000 1.54 130 15:23 01.04.2021
811 Clear 25 1012 83 10000 1.54 130 14:51 01.04.2021
812 Clear 25 1013 78 10000 1.54 140 14:28 01.04.2021
813 Clouds 25 1013 78 10000 1.03 140 13:58 01.04.2021
814 Clear 26 1013 73 10000 2.57 130 13:31 01.04.2021
815 Clear 25 1013 78 10000 1.54 140 12:56 01.04.2021
816 Clouds 26 1013 73 10000 2.06 120 12:34 01.04.2021
817 Clouds 26 1013 73 10000 2.57 110 11:58 01.04.2021
818 Clouds 26 1013 73 10000 3.09 110 11:40 01.04.2021
819 Clouds 26 1013 73 10000 3.09 110 11:18 01.04.2021
820 Clouds 27 1013 69 10000 3.09 110 10:45 01.04.2021
821 Clouds 27 1013 69 10000 4.12 100 10:24 01.04.2021
822 Clear 26 1013 73 10000 2.57 100 09:32 01.04.2021
823 Clear 26 1012 73 10000 2.57 100 08:54 01.04.2021
824 Clouds 26 1012 73 10000 2.57 100 08:28 01.04.2021
825 Clouds 27 1011 69 10000 3.09 120 07:21 01.04.2021
826 Clouds 27 1011 74 10000 3.09 110 06:56 01.04.2021
827 Clouds 28 1011 69 10000 3.09 130 05:33 01.04.2021
828 Clouds 28 1010 69 10000 5.66 100 03:18 01.04.2021
829 Clouds 28 1012 65 10000 6.17 100 23:55 31.03.2021
830 Clouds 28 1012 69 10000 6.17 100 23:37 31.03.2021
831 Clouds 28 1012 69 10000 5.66 100 22:44 31.03.2021
832 Clear 28 1012 69 10000 5.14 100 22:23 31.03.2021
833 Clear 28 1012 69 10000 5.14 90 21:54 31.03.2021
834 Clear 28 1013 74 10000 2.57 110 21:36 31.03.2021
835 Clear 28 1013 74 10000 2.57 110 21:18 31.03.2021
836 Clouds 27 1012 74 10000 3.6 100 20:40 31.03.2021
837 Clouds 27 1012 74 10000 3.6 100 20:20 31.03.2021
838 Clouds 25 1012 83 10000 2.06 130 19:42 31.03.2021
839 Clouds 25 1012 83 10000 2.06 130 19:20 31.03.2021
840 Clouds 25 1011 83 10000 2.06 130 18:53 31.03.2021
841 Rain 26 1011 83 10000 3.09 110 18:34 31.03.2021
842 Rain 25 1010 88 10000 3.6 120 17:38 31.03.2021
843 Rain 25 1010 88 10000 3.6 120 17:19 31.03.2021
844 Rain 26 1010 78 10000 2.57 100 16:50 31.03.2021
845 Rain 26 1010 78 10000 3.09 100 16:31 31.03.2021
846 Rain 26 1010 83 10000 3.6 100 15:53 31.03.2021
847 Rain 26 1010 83 10000 2.57 100 15:20 31.03.2021
848 Rain 25 1010 83 10000 2.06 110 14:49 31.03.2021
849 Clouds 26 1011 78 10000 1.54 110 14:24 31.03.2021
850 Clouds 26 1011 78 10000 2.06 130 13:54 31.03.2021
851 Clouds 26 1011 83 10000 2.57 100 13:22 31.03.2021
852 Clouds 26 1011 83 10000 3.09 100 12:40 31.03.2021
853 Clouds 26 1011 83 10000 3.09 100 12:40 31.03.2021
854 Clouds 26 1011 83 10000 3.09 100 12:18 31.03.2021
855 Rain 26 1012 83 10000 2.57 120 11:22 31.03.2021
856 Rain 26 1012 83 10000 2.57 120 11:22 31.03.2021
857 Rain 27 1012 78 10000 3.09 110 10:50 31.03.2021
858 Rain 27 1011 78 10000 4.12 110 10:27 31.03.2021
859 Clouds 26 1011 83 10000 3.09 110 09:54 31.03.2021
860 Rain 27 1011 78 10000 3.09 110 09:29 31.03.2021
861 Rain 26 1011 83 10000 2.06 120 08:46 31.03.2021
862 Rain 26 1011 83 10000 3.09 110 08:25 31.03.2021
863 Clouds 26 1010 83 10000 3.09 110 07:33 31.03.2021
864 Rain 27 1010 78 10000 4.12 100 04:34 31.03.2021
865 Clouds 29 1010 74 10000 7.72 80 02:37 31.03.2021
866 Rain 29 1011 70 10000 3.6 100 00:54 31.03.2021
867 Rain 29 1011 70 10000 3.6 100 00:22 31.03.2021
868 Rain 29 1012 74 10000 4.12 100 23:54 30.03.2021
869 Clouds 28 1012 78 10000 3.09 110 23:22 30.03.2021
870 Rain 27 1012 83 10000 4.63 90 22:49 30.03.2021
871 Rain 27 1012 83 10000 4.63 90 22:49 30.03.2021
872 Clouds 29 1012 74 10000 4.63 90 22:30 30.03.2021
873 Clouds 28 1012 78 10000 6.69 80 21:56 30.03.2021
874 Clouds 28 1012 78 10000 4.63 80 21:25 30.03.2021
875 Clouds 27 1012 83 10000 3.09 90 20:58 30.03.2021
876 Clouds 26 1012 83 10000 2.06 90 20:30 30.03.2021
877 Clouds 26 1012 83 10000 2.06 110 19:52 30.03.2021
878 Rain 25 1011 88 10000 1.03 110 19:29 30.03.2021
879 Rain 26 1011 83 10000 1.54 110 18:47 30.03.2021
880 Rain 26 1011 83 10000 1.54 100 18:24 30.03.2021
881 Rain 25 1011 88 10000 2.57 100 17:42 30.03.2021
882 Rain 25 1011 88 10000 2.57 100 17:24 30.03.2021
883 Rain 25 1011 88 10000 2.57 110 16:46 30.03.2021
884 Rain 26 1011 89 10000 3.6 80 16:25 30.03.2021
885 Rain 27 1011 83 10000 3.6 90 15:22 30.03.2021
886 Rain 27 1011 83 10000 4.63 90 14:59 30.03.2021
887 Rain 27 1011 83 10000 4.12 90 14:40 30.03.2021
888 Rain 27 1011 83 10000 4.12 90 14:19 30.03.2021
889 Rain 27 1012 83 10000 2.57 90 13:42 30.03.2021
890 Clouds 27 1012 83 10000 3.6 90 12:58 30.03.2021
891 Clouds 27 1012 83 10000 4.12 90 12:39 30.03.2021
892 Rain 27 1012 83 10000 4.12 90 12:20 30.03.2021
893 Rain 27 1012 83 10000 5.14 80 11:24 30.03.2021
894 Rain 27 1012 83 10000 3.6 100 10:59 30.03.2021
895 Rain 27 1012 83 10000 4.12 90 10:37 30.03.2021
896 Clouds 27 1012 83 10000 4.12 90 10:18 30.03.2021
897 Clouds 27 1012 83 10000 4.63 90 09:38 30.03.2021
898 Clouds 27 1012 83 10000 4.63 90 09:20 30.03.2021
899 Clouds 27 1011 83 10000 4.12 90 08:39 30.03.2021
900 Clouds 27 1011 83 10000 3.6 90 07:53 30.03.2021
901 Rain 27 1011 83 10000 2.57 100 07:22 30.03.2021
902 Clouds 28 1011 78 10000 5.14 90 05:53 30.03.2021
903 Rain 28 1010 78 10000 4.12 100 05:19 30.03.2021
904 Rain 30 1012 70 10000 7.2 80 00:58 30.03.2021
905 Rain 29 1013 74 10000 5.66 90 23:51 29.03.2021
906 Clouds 29 1013 74 10000 4.63 80 22:54 29.03.2021
907 Clouds 28 1013 78 10000 3.09 110 22:32 29.03.2021
908 Rain 27 1014 83 10000 6.17 90 21:51 29.03.2021
909 Clouds 28 1013 74 10000 4.63 90 21:31 29.03.2021
910 Rain 27 1013 83 10000 3.6 90 20:50 29.03.2021
911 Clouds 27 1013 78 10000 4.63 90 20:28 29.03.2021
912 Clouds 26 1013 83 10000 3.6 90 19:50 29.03.2021
913 Clouds 26 1012 78 10000 2.57 110 19:25 29.03.2021
914 Clouds 26 1012 83 10000 3.6 100 18:51 29.03.2021
915 Clouds 26 1012 83 10000 4.12 90 18:27 29.03.2021
916 Clouds 26 1012 83 10000 4.63 90 17:52 29.03.2021
917 Clouds 26 1012 83 10000 4.12 90 17:32 29.03.2021
918 Clouds 26 1012 83 10000 3.09 100 16:45 29.03.2021
919 Clouds 26 1012 83 10000 3.6 100 16:24 29.03.2021
920 Clouds 26 1013 83 10000 4.12 90 15:37 29.03.2021
921 Clouds 26 1013 83 10000 4.12 90 15:18 29.03.2021
922 Clouds 26 1013 83 10000 3.6 100 14:46 29.03.2021
923 Clouds 27 1013 78 10000 4.12 90 13:55 29.03.2021
924 Clouds 27 1014 78 10000 5.14 90 13:33 29.03.2021
925 Clouds 27 1014 83 10000 4.12 90 12:55 29.03.2021
926 Clouds 27 1014 83 10000 4.12 90 12:36 29.03.2021
927 Rain 27 1014 78 10000 5.14 90 11:43 29.03.2021
928 Clouds 27 1014 83 10000 4.63 90 11:24 29.03.2021
929 Clouds 27 1014 83 10000 4.12 90 10:43 29.03.2021
930 Clouds 27 1014 83 10000 5.14 100 10:18 29.03.2021
931 Clouds 27 1014 83 10000 4.63 90 09:25 29.03.2021
932 Clouds 27 1013 83 10000 4.12 90 08:30 29.03.2021
933 Rain 27 1013 83 10000 5.66 90 07:52 29.03.2021
934 Rain 27 1012 89 10000 4.63 90 06:53 29.03.2021
935 Clouds 28 1011 78 10000 6.17 90 05:19 29.03.2021
936 Clouds 28 1012 78 10000 10.29 80 02:27 29.03.2021
937 Clouds 29 1014 74 10000 9.26 80 00:26 29.03.2021
938 Clouds 28 1014 78 10000 7.2 80 23:55 28.03.2021
939 Clouds 29 1014 79 10000 8.75 80 23:24 28.03.2021
940 Clouds 29 1014 74 10000 9.77 80 22:42 28.03.2021
941 Clouds 28 1015 78 10000 8.75 80 22:24 28.03.2021
942 Clouds 27 1015 83 10000 7.2 90 21:45 28.03.2021
943 Clouds 27 1014 83 10000 5.66 90 21:24 28.03.2021
944 Clouds 27 1014 83 10000 5.14 90 20:51 28.03.2021
945 Clouds 27 1014 78 10000 6.69 80 20:33 28.03.2021
946 Clouds 27 1014 78 10000 6.17 80 19:47 28.03.2021
947 Clouds 27 1013 83 10000 6.17 90 19:25 28.03.2021
948 Clouds 27 1013 78 10000 5.14 100 18:59 28.03.2021
949 Clouds 27 1013 83 10000 5.14 90 18:33 28.03.2021
950 Rain 27 1013 78 10000 5.14 90 17:56 28.03.2021
951 Clouds 27 1013 83 10000 5.66 90 17:34 28.03.2021
952 Clouds 27 1013 83 10000 5.14 90 16:55 28.03.2021
953 Clouds 26 1013 83 10000 4.63 100 16:24 28.03.2021
954 Clouds 27 1013 83 10000 7.2 90 15:48 28.03.2021
955 Clouds 26 1013 83 10000 4.12 100 15:22 28.03.2021
956 Clouds 27 1014 83 10000 4.12 100 14:38 28.03.2021
957 Rain 27 1014 83 10000 4.12 100 13:52 28.03.2021
958 Rain 27 1014 83 10000 4.63 90 13:33 28.03.2021
959 Clouds 27 1014 83 10000 5.14 90 12:53 28.03.2021
960 Drizzle 27 1014 83 10000 5.66 100 12:33 28.03.2021
961 Clouds 28 1014 78 10000 5.66 100 11:49 28.03.2021
962 Rain 27 1014 83 10000 4.63 100 11:26 28.03.2021
963 Rain 27 1015 83 10000 5.14 90 10:45 28.03.2021
964 Clouds 27 1014 83 10000 3.6 90 10:27 28.03.2021
965 Clouds 27 1014 83 10000 3.6 90 09:49 28.03.2021
966 Clouds 27 1014 83 10000 4.63 100 09:25 28.03.2021
967 Clouds 27 1014 83 10000 3.6 100 08:47 28.03.2021
968 Clouds 27 1013 83 10000 4.12 90 07:52 28.03.2021
969 Clouds 28 1013 78 10000 3.6 100 07:33 28.03.2021
970 Clouds 29 1012 74 10000 7.2 80 04:54 28.03.2021
971 Clouds 30 1013 74 10000 9.26 70 01:38 28.03.2021
972 Clouds 30 1013 74 10000 9.26 70 00:22 28.03.2021
973 Clouds 30 1013 74 10000 8.23 80 23:44 27.03.2021
974 Clouds 30 1014 74 10000 8.23 80 23:19 27.03.2021
975 Clouds 29 1014 74 10000 8.75 80 22:37 27.03.2021
976 Clouds 29 1014 74 10000 9.77 80 21:59 27.03.2021
977 Clouds 29 1014 74 10000 9.77 80 21:38 27.03.2021
978 Clouds 29 1014 74 10000 9.77 80 21:19 27.03.2021
979 Clouds 28 1014 78 10000 9.77 80 20:44 27.03.2021
980 Clouds 28 1014 78 10000 8.23 80 20:24 27.03.2021
981 Clouds 28 1014 78 10000 6.69 80 19:42 27.03.2021
982 Clouds 27 1014 83 10000 5.14 90 19:23 27.03.2021
983 Clouds 27 1014 78 10000 4.12 90 18:49 27.03.2021
984 Clouds 27 1013 83 10000 4.12 90 18:28 27.03.2021
985 Clouds 26 1013 89 10000 3.6 100 17:54 27.03.2021
986 Clouds 27 1013 83 10000 4.12 90 17:24 27.03.2021
987 Clouds 26 1013 89 10000 3.09 90 16:49 27.03.2021
988 Rain 26 1013 89 10000 2.57 100 16:29 27.03.2021
989 Rain 27 1013 83 10000 3.6 90 15:50 27.03.2021
990 Rain 27 1013 83 10000 4.12 90 15:24 27.03.2021
991 Rain 27 1013 83 10000 3.09 90 14:49 27.03.2021
992 Clouds 27 1014 83 10000 3.09 100 13:51 27.03.2021
993 Clouds 27 1014 83 10000 3.6 90 13:24 27.03.2021
994 Rain 27 1014 83 10000 4.63 90 12:53 27.03.2021
995 Rain 27 1015 83 10000 3.09 100 11:59 27.03.2021
996 Rain 27 1015 83 10000 3.09 100 11:41 27.03.2021
997 Rain 27 1015 83 10000 3.09 100 11:20 27.03.2021
998 Rain 27 1015 83 10000 2.06 90 10:43 27.03.2021
999 Rain 27 1015 78 10000 2.06 100 10:22 27.03.2021
1000 Clouds 26 1015 83 10000 2.06 110 09:28 27.03.2021
1001 Clouds 26 1015 78 10000 1.54 110 08:43 27.03.2021
1002 Clouds 26 1015 78 10000 2.57 100 08:20 27.03.2021
1003 Clouds 26 1014 73 10000 2.06 100 07:32 27.03.2021
1004 Clouds 26 1014 73 10000 2.06 100 06:43 27.03.2021
1005 Clouds 28 1013 69 10000 3.09 100 04:57 27.03.2021
1006 Clouds 28 1013 65 10000 5.66 90 04:39 27.03.2021
1007 Clouds 29 1015 70 10000 6.69 80 00:49 27.03.2021
1008 Clouds 29 1016 70 10000 6.17 90 00:27 27.03.2021
1009 Clouds 29 1016 65 10000 7.2 80 23:48 26.03.2021
1010 Clouds 29 1016 70 10000 6.69 80 22:53 26.03.2021
1011 Clouds 29 1016 70 10000 5.66 80 22:34 26.03.2021
1012 Clouds 28 1016 74 10000 7.2 90 21:25 26.03.2021
1013 Clouds 28 1016 74 10000 7.2 80 20:58 26.03.2021
1014 Clouds 28 1016 78 10000 6.17 90 20:32 26.03.2021
1015 Clouds 28 1016 74 10000 6.17 90 19:54 26.03.2021
1016 Clouds 27 1016 78 10000 3.6 100 19:35 26.03.2021
1017 Clouds 27 1015 78 10000 4.63 90 18:59 26.03.2021
1018 Clouds 26 1015 83 10000 3.09 110 18:41 26.03.2021
1019 Clouds 26 1015 83 10000 3.09 110 18:18 26.03.2021
1020 Clouds 26 1015 83 10000 3.09 100 17:44 26.03.2021
1021 Clouds 26 1014 83 10000 3.6 100 16:54 26.03.2021
1022 Clear 26 1014 78 10000 3.6 100 16:31 26.03.2021
1023 Clouds 27 1014 78 10000 4.63 90 15:43 26.03.2021
1024 Clouds 27 1014 78 10000 4.63 90 14:57 26.03.2021
1025 Clouds 27 1015 78 10000 4.12 90 14:20 26.03.2021
1026 Clouds 27 1015 78 10000 4.63 100 13:34 26.03.2021
1027 Clouds 27 1015 78 10000 5.14 90 12:48 26.03.2021
1028 Clouds 27 1015 78 10000 4.12 90 11:50 26.03.2021
1029 Clouds 27 1016 78 10000 4.63 100 11:31 26.03.2021
1030 Clouds 27 1016 78 10000 4.12 90 10:45 26.03.2021
1031 Rain 27 1017 78 10000 3.09 90 10:24 26.03.2021
1032 Rain 27 1017 78 10000 4.63 90 09:41 26.03.2021
1033 Rain 27 1016 78 10000 3.6 90 08:51 26.03.2021
1034 Rain 27 1016 78 10000 4.63 90 08:31 26.03.2021
1035 Rain 27 1015 83 10000 4.12 90 07:58 26.03.2021
1036 Clouds 27 1015 83 9000 4.12 90 07:22 26.03.2021
1037 Clouds 27 1015 78 10000 5.66 90 06:57 26.03.2021
1038 Clouds 28 1014 74 10000 8.23 70 05:33 26.03.2021
1039 Clouds 29 1014 74 10000 8.75 70 04:43 26.03.2021
1040 Clouds 30 1014 74 10000 10.8 70 01:36 26.03.2021
1041 Clouds 29 1015 74 10000 9.77 70 00:23 26.03.2021
1042 Clouds 30 1016 70 10000 8.75 80 23:42 25.03.2021
1043 Clouds 30 1016 74 10000 9.26 80 22:50 25.03.2021
1044 Clouds 30 1016 74 10000 9.26 80 22:50 25.03.2021
1045 Clouds 30 1017 74 10000 9.77 80 22:27 25.03.2021
1046 Clouds 29 1017 74 10000 9.26 80 21:49 25.03.2021
1047 Clouds 29 1017 74 10000 7.72 80 21:29 25.03.2021
1048 Clouds 28 1017 78 10000 7.2 80 20:41 25.03.2021
1049 Clouds 28 1017 78 10000 7.2 80 20:23 25.03.2021
1050 Clouds 28 1017 78 10000 5.14 90 19:43 25.03.2021
1051 Clouds 28 1017 78 10000 4.12 90 19:24 25.03.2021
1052 Clouds 27 1017 83 10000 4.63 90 18:46 25.03.2021
1053 Rain 27 1016 83 10000 4.63 90 18:26 25.03.2021
1054 Rain 26 1016 89 10000 2.57 100 17:42 25.03.2021
1055 Rain 27 1016 83 10000 3.6 100 17:23 25.03.2021
1056 Rain 27 1016 83 10000 2.57 100 16:38 25.03.2021
1057 Clouds 27 1016 83 10000 2.57 100 16:19 25.03.2021
1058 Clouds 27 1016 83 10000 2.57 100 15:42 25.03.2021
1059 Clouds 27 1016 83 10000 2.57 100 15:19 25.03.2021
1060 Clouds 27 1016 89 10000 3.6 90 14:42 25.03.2021
1061 Clouds 27 1017 83 10000 3.09 90 13:40 25.03.2021
1062 Clouds 27 1017 83 10000 3.09 90 13:22 25.03.2021
1063 Clouds 26 1017 89 10000 2.57 90 12:41 25.03.2021
1064 Clouds 26 1017 89 10000 2.57 90 12:20 25.03.2021
1065 Clouds 27 1017 83 10000 3.6 80 11:48 25.03.2021
1066 Clouds 27 1017 89 10000 3.09 90 11:26 25.03.2021
1067 Clouds 27 1017 89 10000 3.6 90 10:50 25.03.2021
1068 Rain 27 1018 89 10000 3.09 90 10:24 25.03.2021
1069 Rain 27 1017 89 10000 2.57 90 09:55 25.03.2021
1070 Rain 27 1017 83 10000 3.6 90 09:36 25.03.2021
1071 Rain 27 1017 89 10000 3.09 90 08:43 25.03.2021
1072 Clouds 28 1016 83 10000 3.6 90 07:58 25.03.2021
1073 Clouds 28 1015 83 10000 5.66 80 06:59 25.03.2021
1074 Clouds 28 1015 83 10000 6.17 80 06:25 25.03.2021
1075 Clouds 28 1014 83 10000 6.17 80 05:47 25.03.2021
1076 Clouds 30 1013 74 10000 7.72 70 02:43 25.03.2021
1077 Clouds 30 1014 79 10000 9.26 70 00:21 25.03.2021
1078 Clouds 30 1014 79 10000 9.26 70 00:21 25.03.2021
1079 Clouds 30 1015 79 10000 8.23 70 23:50 24.03.2021
1080 Clouds 30 1015 79 10000 8.23 70 23:25 24.03.2021
1081 Clouds 30 1015 79 10000 8.23 70 22:43 24.03.2021
1082 Clouds 30 1015 79 10000 7.2 70 22:20 24.03.2021
1083 Clouds 30 1016 79 10000 7.2 70 21:42 24.03.2021
1084 Clouds 30 1016 79 10000 7.2 70 21:21 24.03.2021
1085 Clouds 29 1016 79 10000 7.2 70 20:41 24.03.2021
1086 Clouds 29 1016 79 10000 7.2 70 20:19 24.03.2021
1087 Clouds 28 1015 83 10000 5.66 70 19:35 24.03.2021
1088 Clouds 27 1015 89 10000 5.14 70 18:58 24.03.2021
1089 Clouds 27 1015 89 10000 5.14 70 18:39 24.03.2021
1090 Clouds 27 1015 89 10000 5.14 70 18:19 24.03.2021
1091 Clouds 27 1014 89 10000 4.12 80 17:40 24.03.2021
1092 Clouds 27 1014 89 10000 4.12 80 17:22 24.03.2021
1093 Clouds 27 1014 89 10000 3.6 80 16:41 24.03.2021
1094 Clouds 27 1014 89 10000 3.6 80 16:22 24.03.2021
1095 Clouds 27 1014 89 10000 5.14 70 15:43 24.03.2021
1096 Clouds 27 1014 89 10000 5.14 70 15:23 24.03.2021
1097 Clouds 27 1014 89 10000 5.66 70 14:42 24.03.2021
1098 Clouds 27 1014 89 10000 5.14 70 14:23 24.03.2021
1099 Clouds 27 1014 89 10000 5.14 70 14:23 24.03.2021
1100 Clouds 28 1015 83 10000 5.66 60 13:45 24.03.2021
1101 Clouds 28 1015 83 10000 4.63 60 13:24 24.03.2021
1102 Clouds 28 1015 78 10000 6.17 70 12:41 24.03.2021
1103 Clouds 28 1015 78 10000 6.17 70 12:20 24.03.2021
1104 Clouds 28 1015 83 10000 6.17 70 11:41 24.03.2021
1105 Clouds 28 1015 83 10000 6.17 70 10:53 24.03.2021
1106 Clouds 28 1016 83 10000 5.66 70 10:32 24.03.2021
1107 Clouds 28 1016 83 10000 5.66 70 09:58 24.03.2021
1108 Clouds 28 1015 83 10000 4.63 70 09:36 24.03.2021
1109 Clouds 28 1015 83 10000 4.63 70 09:18 24.03.2021
1110 Clouds 28 1015 83 10000 4.63 70 08:43 24.03.2021
1111 Clouds 28 1014 83 10000 4.63 70 07:50 24.03.2021
1112 Rain 28 1014 83 10000 4.63 70 07:25 24.03.2021
1113 Rain 27 1014 89 10000 2.57 90 06:46 24.03.2021
1114 Clouds 29 1013 79 10000 4.12 40 02:41 24.03.2021
1115 Clouds 30 1013 79 10000 4.12 40 00:42 24.03.2021
1116 Clouds 30 1014 79 10000 4.12 40 23:52 23.03.2021
1117 Clouds 29 1014 79 10000 4.63 50 23:20 23.03.2021
1118 Clouds 29 1015 79 10000 4.63 40 22:50 23.03.2021
1119 Clouds 29 1015 79 10000 4.12 50 22:25 23.03.2021
1120 Clouds 29 1015 79 10000 4.12 30 21:46 23.03.2021
1121 Clouds 28 1015 78 10000 3.09 20 21:27 23.03.2021
1122 Clouds 29 1015 79 10000 3.6 40 20:46 23.03.2021
1123 Clouds 29 1015 79 10000 4.12 40 20:25 23.03.2021
1124 Clouds 28 1015 83 10000 4.63 50 19:48 23.03.2021
1125 Clouds 28 1014 83 10000 4.63 50 19:26 23.03.2021
1126 Clouds 27 1014 89 10000 3.6 60 18:46 23.03.2021
1127 Rain 27 1014 89 10000 3.09 70 18:22 23.03.2021
1128 Rain 27 1014 89 10000 5.14 50 17:48 23.03.2021
1129 Clouds 26 1013 94 10000 2.57 70 17:21 23.03.2021
1130 Clouds 26 1013 89 10000 2.57 80 16:42 23.03.2021
1131 Clouds 26 1013 89 10000 2.57 80 16:19 23.03.2021
1132 Clouds 27 1013 89 10000 4.12 70 15:40 23.03.2021
1133 Clouds 27 1013 89 10000 4.63 60 14:55 23.03.2021
1134 Clouds 27 1013 89 10000 4.63 60 14:21 23.03.2021
1135 Clouds 27 1014 89 10000 4.12 60 13:55 23.03.2021
1136 Clouds 27 1014 89 10000 3.6 60 13:37 23.03.2021
1137 Clouds 27 1014 89 10000 3.6 60 13:18 23.03.2021
1138 Clouds 26 1014 94 10000 2.57 80 12:41 23.03.2021
1139 Rain 26 1014 94 10000 2.57 80 12:20 23.03.2021
1140 Rain 26 1014 94 10000 2.06 100 11:44 23.03.2021
1141 Rain 27 1015 89 10000 4.63 60 10:44 23.03.2021
1142 Rain 27 1015 83 10000 3.6 40 10:25 23.03.2021
1143 Rain 26 1015 89 10000 5.14 70 09:58 23.03.2021
1144 Rain 26 1015 94 10000 2.57 90 09:38 23.03.2021
1145 Rain 26 1015 94 10000 2.57 90 09:19 23.03.2021
1146 Rain 26 1014 94 10000 1.54 80 08:39 23.03.2021
1147 Clouds 26 1014 94 10000 1.54 80 08:21 23.03.2021
1148 Rain 26 1014 94 10000 1.03 100 07:28 23.03.2021
1149 Rain 27 1014 89 10000 1.03 100 06:59 23.03.2021
1150 Rain 27 1013 89 10000 1.54 50 06:24 23.03.2021
1151 Clouds 28 1012 78 8000 1.54 350 03:21 23.03.2021
1152 Rain 29 1013 79 10000 2.57 20 01:34 23.03.2021
1153 Clouds 29 1014 84 10000 2.06 20 23:33 22.03.2021
1154 Rain 28 1014 83 10000 1.54 330 22:46 22.03.2021
1155 Rain 28 1014 83 10000 4.12 40 22:23 22.03.2021
1156 Rain 28 1014 83 10000 3.6 40 21:52 22.03.2021
1157 Rain 28 1014 83 10000 2.57 70 21:29 22.03.2021
1158 Rain 27 1014 83 10000 4.63 30 20:57 22.03.2021
1159 Rain 29 1014 79 10000 3.6 40 20:37 22.03.2021
1160 Clouds 29 1014 79 10000 3.6 40 20:18 22.03.2021
1161 Clouds 28 1013 78 10000 3.6 40 19:40 22.03.2021
1162 Clouds 28 1013 78 10000 3.6 40 19:21 22.03.2021
1163 Rain 27 1013 83 10000 3.09 40 18:45 22.03.2021
1164 Rain 27 1013 83 10000 3.6 50 18:27 22.03.2021
1165 Rain 27 1012 83 10000 2.57 40 17:51 22.03.2021
1166 Rain 27 1012 83 10000 3.6 40 17:24 22.03.2021
1167 Rain 26 1012 89 10000 2.06 90 16:58 22.03.2021
1168 Rain 26 1012 89 10000 2.06 110 16:40 22.03.2021
1169 Rain 26 1012 89 10000 3.6 70 15:55 22.03.2021
1170 Rain 27 1011 83 10000 4.12 60 15:37 22.03.2021
1171 Rain 27 1011 83 10000 4.12 60 15:18 22.03.2021
1172 Rain 27 1011 83 10000 4.12 60 15:18 22.03.2021
1173 Rain 26 1012 89 10000 2.06 90 14:44 22.03.2021
1174 Rain 26 1012 89 10000 2.57 40 14:24 22.03.2021
1175 Rain 26 1012 89 10000 2.57 100 13:38 22.03.2021
1176 Clouds 26 1012 89 10000 2.57 100 13:18 22.03.2021
1177 Clouds 26 1012 89 10000 4.12 90 12:41 22.03.2021
1178 Clouds 26 1012 89 10000 4.12 90 12:19 22.03.2021
1179 Clouds 26 1013 89 10000 3.09 90 11:44 22.03.2021
1180 Clouds 26 1013 89 10000 3.09 90 11:21 22.03.2021
1181 Clouds 25 1013 94 10000 2.57 90 10:43 22.03.2021
1182 Clouds 25 1013 94 10000 2.57 90 10:24 22.03.2021
1183 Clouds 25 1013 94 10000 1.54 100 09:39 22.03.2021
1184 Clouds 25 1013 94 10000 1.54 100 09:21 22.03.2021
1185 Clouds 25 1013 94 10000 3.09 90 08:42 22.03.2021
1186 Clouds 25 1013 94 10000 1.03 70 08:24 22.03.2021
1187 Clouds 26 1013 89 10000 1.03 100 07:44 22.03.2021
1188 Clouds 26 1012 89 10000 1.03 100 06:52 22.03.2021
1189 Clouds 28 1012 78 10000 2.06 100 05:43 22.03.2021
1190 Clouds 28 1012 78 10000 2.57 330 01:58 22.03.2021
1191 Clouds 29 1012 74 10000 1.03 360 00:27 22.03.2021
1192 Clouds 28 1013 78 10000 1.03 320 23:53 21.03.2021
1193 Rain 26 1013 94 10000 1.54 150 23:19 21.03.2021
1194 Rain 26 1014 89 10000 3.09 310 22:55 21.03.2021
1195 Rain 25 1014 100 10000 1.03 200 21:56 21.03.2021
1196 Rain 25 1014 94 6000 3.09 190 21:38 21.03.2021
1197 Rain 25 1014 94 6000 3.09 190 21:20 21.03.2021
1198 Clouds 27 1014 89 10000 0.51 190 20:41 21.03.2021
1199 Clouds 27 1014 89 10000 0.51 190 20:22 21.03.2021
1200 Clouds 26 1013 89 10000 1.03 220 19:50 21.03.2021
1201 Clouds 26 1013 89 10000 1.03 220 19:50 21.03.2021
1202 Rain 26 1013 89 10000 0.51 320 19:21 21.03.2021
1203 Rain 25 1013 94 10000 0.51 170 18:46 21.03.2021
1204 Clouds 25 1012 94 10000 0.51 80 18:27 21.03.2021
1205 Clouds 25 1012 88 10000 0.51 200 17:45 21.03.2021
1206 Rain 26 1012 83 10000 1.03 300 17:19 21.03.2021
1207 Rain 27 1012 78 10000 1.54 360 16:54 21.03.2021
1208 Rain 27 1012 78 10000 1.54 360 16:28 21.03.2021
1209 Rain 27 1012 78 10000 1.54 20 15:49 21.03.2021
1210 Rain 26 1012 83 10000 1.54 50 15:23 21.03.2021
1211 Rain 27 1012 78 10000 2.06 20 14:58 21.03.2021
1212 Rain 26 1012 83 10000 1.54 80 14:39 21.03.2021
1213 Rain 26 1012 83 10000 1.54 80 14:20 21.03.2021
1214 Rain 27 1012 78 10000 2.06 50 13:51 21.03.2021
1215 Clouds 25 1012 88 10000 2.57 70 12:46 21.03.2021
1216 Rain 26 1012 83 10000 1.54 110 12:26 21.03.2021
1217 Rain 26 1012 83 10000 2.06 90 11:47 21.03.2021
1218 Rain 26 1013 83 10000 3.6 40 11:27 21.03.2021
1219 Rain 26 1013 89 10000 2.06 90 10:50 21.03.2021
1220 Rain 26 1013 89 10000 1.54 90 10:32 21.03.2021
1221 Rain 26 1013 89 10000 2.06 100 09:55 21.03.2021
1222 Rain 26 1013 89 10000 2.57 70 09:37 21.03.2021
1223 Rain 26 1013 89 10000 2.57 70 09:18 21.03.2021
1224 Rain 26 1012 89 10000 2.06 110 08:37 21.03.2021
1225 Clouds 26 1012 89 10000 2.06 110 08:19 21.03.2021
1226 Rain 26 1012 89 10000 2.06 110 07:29 21.03.2021
1227 Clouds 27 1011 83 10000 2.57 90 06:21 21.03.2021
1228 Clouds 28 1010 78 10000 4.63 60 04:56 21.03.2021
1229 Rain 30 1011 74 10000 4.12 50 00:58 21.03.2021
1230 Rain 29 1012 79 10000 4.12 50 00:39 21.03.2021
1231 Rain 29 1012 79 10000 4.12 50 00:20 21.03.2021
1232 Rain 28 1012 78 10000 4.63 60 23:45 20.03.2021
1233 Rain 28 1012 83 10000 5.14 60 23:20 20.03.2021
1234 Rain 28 1013 83 10000 5.66 50 22:24 20.03.2021
1235 Rain 28 1013 78 10000 5.14 70 21:51 20.03.2021
1236 Rain 28 1013 83 10000 5.66 50 21:33 20.03.2021
1237 Clouds 27 1013 89 10000 5.14 60 20:58 20.03.2021
1238 Clouds 26 1013 94 10000 3.6 90 20:39 20.03.2021
1239 Clouds 26 1013 94 10000 3.6 90 20:21 20.03.2021
1240 Clouds 26 1013 94 10000 3.6 90 20:21 20.03.2021
1241 Clouds 26 1012 94 10000 3.09 90 19:41 20.03.2021
1242 Clouds 26 1012 94 10000 3.09 90 19:22 20.03.2021
1243 Clouds 26 1011 89 10000 2.57 100 18:45 20.03.2021
1244 Clouds 26 1011 89 10000 2.57 100 18:45 20.03.2021
1245 Clouds 25 1011 94 10000 2.57 100 18:21 20.03.2021
1246 Clouds 25 1011 94 10000 3.09 100 17:44 20.03.2021
1247 Clouds 25 1011 94 10000 2.06 100 17:23 20.03.2021
1248 Clouds 25 1011 94 10000 2.06 100 16:44 20.03.2021
1249 Rain 25 1010 94 10000 2.57 100 16:20 20.03.2021
1250 Rain 25 1011 94 10000 3.09 100 15:49 20.03.2021
1251 Clouds 24 1011 100 10000 1.54 100 15:29 20.03.2021
1252 Clouds 24 1011 94 10000 1.03 90 14:41 20.03.2021
1253 Rain 24 1011 94 10000 1.03 90 14:20 20.03.2021
1254 Rain 24 1011 94 10000 0.51 250 13:31 20.03.2021
1255 Rain 25 1012 94 10000 2.06 120 12:41 20.03.2021
1256 Rain 25 1012 94 10000 2.06 120 12:23 20.03.2021
1257 Rain 25 1012 94 10000 2.06 120 12:23 20.03.2021
1258 Rain 25 1012 94 10000 2.06 100 11:43 20.03.2021
1259 Rain 25 1012 94 10000 1.54 110 11:22 20.03.2021
1260 Rain 26 1012 83 10000 2.06 100 10:46 20.03.2021
1261 Rain 26 1012 83 10000 3.09 100 10:24 20.03.2021
1262 Rain 26 1012 83 10000 3.09 90 09:48 20.03.2021
1263 Clouds 27 1012 78 10000 3.6 90 09:23 20.03.2021
1264 Clouds 27 1012 78 10000 3.09 100 08:53 20.03.2021
1265 Clouds 27 1012 78 10000 2.57 100 08:19 20.03.2021
1266 Clouds 27 1012 78 10000 3.09 110 07:48 20.03.2021
1267 Clouds 26 1011 83 10000 1.54 100 07:29 20.03.2021
1268 Clouds 27 1011 78 10000 3.6 100 06:40 20.03.2021
1269 Clouds 27 1010 78 10000 2.57 100 05:28 20.03.2021
1270 Rain 28 1010 74 10000 5.66 80 03:44 20.03.2021
1271 Rain 29 1010 74 10000 6.69 90 01:43 20.03.2021
1272 Clouds 29 1012 74 10000 7.2 80 23:48 19.03.2021
1273 Clouds 28 1012 74 10000 4.63 110 23:20 19.03.2021
1274 Clouds 28 1012 74 10000 4.63 110 22:43 19.03.2021
1275 Clouds 29 1012 70 10000 4.63 110 22:24 19.03.2021
1276 Clouds 29 1012 70 10000 6.17 90 21:51 19.03.2021
1277 Clouds 28 1013 78 10000 5.14 90 21:20 19.03.2021
1278 Clouds 28 1013 74 10000 5.14 100 20:46 19.03.2021
1279 Clouds 28 1013 74 10000 3.09 110 20:26 19.03.2021
1280 Clouds 27 1013 78 10000 4.63 100 19:50 19.03.2021
1281 Clouds 27 1013 78 10000 2.57 110 19:23 19.03.2021
1282 Clouds 27 1012 78 10000 3.6 100 18:49 19.03.2021
1283 Clouds 26 1012 83 10000 2.57 110 18:30 19.03.2021
1284 Clouds 25 1012 88 10000 1.54 80 17:58 19.03.2021
1285 Clouds 25 1012 88 10000 1.54 80 17:58 19.03.2021
1286 Clouds 25 1011 88 10000 1.54 120 17:38 19.03.2021
1287 Rain 25 1011 88 10000 1.54 120 17:18 19.03.2021
1288 Rain 25 1011 88 10000 2.06 100 16:44 19.03.2021
1289 Clouds 25 1012 88 10000 4.63 90 16:25 19.03.2021
1290 Clouds 25 1012 83 10000 3.6 100 15:34 19.03.2021
1291 Clouds 25 1011 83 10000 4.12 100 14:53 19.03.2021
1292 Rain 25 1012 88 10000 4.12 110 14:33 19.03.2021
1293 Clouds 25 1012 88 10000 3.6 100 13:51 19.03.2021
1294 Rain 25 1013 88 10000 3.6 90 13:19 19.03.2021
1295 Rain 25 1013 83 10000 4.12 100 12:42 19.03.2021
1296 Rain 25 1013 83 10000 4.12 100 12:18 19.03.2021
1297 Clouds 26 1013 89 10000 2.57 100 11:33 19.03.2021
1298 Rain 25 1013 88 10000 2.57 100 10:43 19.03.2021
1299 Rain 25 1014 88 10000 2.06 100 10:22 19.03.2021
1300 Rain 26 1014 83 10000 2.57 110 09:44 19.03.2021
1301 Rain 25 1013 88 10000 1.54 110 09:24 19.03.2021
1302 Rain 25 1013 88 10000 1.54 100 08:51 19.03.2021
1303 Rain 25 1014 88 10000 1.54 130 08:26 19.03.2021
1304 Rain 25 1014 88 10000 1.54 130 07:44 19.03.2021
1305 Clouds 26 1013 83 10000 1.03 150 07:24 19.03.2021
1306 Clouds 27 1012 74 10000 4.63 90 05:27 19.03.2021
1307 Rain 29 1012 70 10000 6.69 80 01:58 19.03.2021
1308 Clouds 29 1013 70 10000 7.2 80 23:55 18.03.2021
1309 Clouds 29 1013 70 10000 8.23 80 23:29 18.03.2021
1310 Clouds 29 1013 70 10000 7.72 70 22:46 18.03.2021
1311 Clouds 29 1013 70 10000 7.72 70 22:25 18.03.2021
1312 Clouds 28 1013 74 10000 8.23 80 21:44 18.03.2021
1313 Clouds 28 1013 74 10000 8.23 70 21:25 18.03.2021
1314 Clouds 28 1013 74 10000 6.69 80 20:39 18.03.2021
1315 Clouds 28 1013 74 10000 6.69 80 20:20 18.03.2021
1316 Clouds 27 1013 78 10000 5.14 80 19:42 18.03.2021
1317 Clouds 27 1013 78 10000 5.14 80 19:22 18.03.2021
1318 Clouds 26 1013 83 10000 5.14 90 18:41 18.03.2021
1319 Clouds 26 1013 83 10000 3.6 90 17:55 18.03.2021
1320 Clouds 26 1012 78 10000 3.6 90 17:27 18.03.2021
1321 Clouds 25 1012 83 10000 3.09 90 16:54 18.03.2021
1322 Clouds 26 1012 78 10000 3.6 100 16:35 18.03.2021
1323 Clouds 26 1012 78 10000 3.6 100 15:58 18.03.2021
1324 Clouds 26 1012 78 10000 3.6 100 15:40 18.03.2021
1325 Clouds 26 1012 78 10000 3.6 100 15:18 18.03.2021
1326 Clouds 26 1013 78 10000 4.63 80 14:41 18.03.2021
1327 Clouds 26 1013 78 10000 4.63 80 14:18 18.03.2021
1328 Clouds 26 1013 83 10000 5.14 80 13:37 18.03.2021
1329 Clouds 26 1013 83 10000 5.14 80 13:19 18.03.2021
1330 Clouds 26 1013 78 10000 5.66 90 12:37 18.03.2021
1331 Clouds 26 1013 78 10000 5.66 90 12:18 18.03.2021
1332 Clouds 26 1013 78 10000 6.17 90 11:43 18.03.2021
1333 Rain 26 1014 78 10000 5.66 90 10:58 18.03.2021
1334 Rain 26 1013 83 10000 5.14 90 10:39 18.03.2021
1335 Rain 26 1013 83 10000 5.14 90 10:20 18.03.2021
1336 Rain 26 1013 89 10000 5.66 90 09:38 18.03.2021
1337 Rain 26 1013 89 10000 5.66 90 09:20 18.03.2021
1338 Rain 26 1013 83 10000 4.12 90 08:43 18.03.2021
1339 Rain 26 1013 89 10000 4.63 100 08:23 18.03.2021
1340 Rain 27 1013 78 10000 4.63 90 07:45 18.03.2021
1341 Rain 26 1012 89 10000 4.12 90 06:43 18.03.2021
1342 Rain 26 1012 89 10000 5.66 90 06:23 18.03.2021
1343 Rain 26 1012 89 10000 4.63 100 05:25 18.03.2021
1344 Rain 28 1012 83 10000 6.69 80 00:40 18.03.2021
1345 Rain 28 1013 74 10000 4.12 60 23:19 17.03.2021
1346 Rain 27 1013 83 10000 4.63 100 22:38 17.03.2021
1347 Rain 27 1013 83 10000 4.63 100 22:20 17.03.2021
1348 Rain 29 1013 84 10000 4.12 60 21:50 17.03.2021
1349 Rain 28 1013 83 10000 4.12 50 21:31 17.03.2021
1350 Rain 28 1013 83 10000 4.63 60 20:48 17.03.2021
1351 Rain 27 1013 89 10000 4.63 50 20:26 17.03.2021
1352 Rain 27 1013 83 10000 5.14 70 19:58 17.03.2021
1353 Rain 27 1013 83 10000 5.14 70 19:39 17.03.2021
1354 Rain 27 1013 83 10000 5.14 70 19:19 17.03.2021
1355 Rain 26 1013 89 10000 4.12 60 18:44 17.03.2021
1356 Rain 24 1013 94 10000 2.06 100 18:25 17.03.2021
1357 Rain 26 1012 89 10000 5.14 60 17:32 17.03.2021
1358 Rain 26 1012 89 10000 5.14 60 17:32 17.03.2021
1359 Rain 27 1012 83 10000 5.14 60 16:57 17.03.2021
1360 Rain 26 1012 89 10000 5.14 60 16:38 17.03.2021
1361 Clouds 26 1012 89 10000 5.14 60 16:19 17.03.2021
1362 Clouds 27 1011 83 10000 5.66 70 15:41 17.03.2021
1363 Clouds 27 1012 83 10000 5.14 60 14:57 17.03.2021
1364 Clouds 27 1012 89 10000 5.14 60 14:36 17.03.2021
1365 Rain 27 1012 89 10000 5.14 60 14:18 17.03.2021
1366 Rain 27 1012 89 10000 5.14 60 14:18 17.03.2021
1367 Rain 27 1012 83 10000 6.17 70 13:52 17.03.2021
1368 Rain 27 1012 83 10000 6.17 60 13:22 17.03.2021
1369 Clouds 27 1013 83 10000 4.63 70 12:36 17.03.2021
1370 Rain 27 1013 83 10000 4.63 70 12:18 17.03.2021
1371 Rain 27 1013 83 10000 4.63 70 12:18 17.03.2021
1372 Rain 25 1013 88 10000 6.17 90 11:37 17.03.2021
1373 Rain 25 1013 88 10000 6.17 90 11:18 17.03.2021
1374 Rain 27 1013 83 10000 6.69 70 10:40 17.03.2021
1375 Clouds 27 1013 83 10000 5.66 90 09:59 17.03.2021
1376 Rain 26 1013 89 10000 5.14 80 09:41 17.03.2021
1377 Rain 26 1013 89 10000 5.14 80 09:20 17.03.2021
1378 Clouds 27 1013 83 10000 4.63 90 08:44 17.03.2021
1379 Rain 27 1013 83 10000 4.12 90 08:25 17.03.2021
1380 Rain 27 1013 78 10000 2.57 100 07:37 17.03.2021
1381 Rain 27 1013 78 10000 2.57 100 06:48 17.03.2021
1382 Clouds 28 1011 74 10000 4.12 90 04:28 17.03.2021
1383 Clouds 29 1011 70 10000 4.12 80 03:31 17.03.2021
1384 Clouds 30 1013 70 10000 6.17 70 00:44 17.03.2021
1385 Clouds 29 1013 74 10000 6.17 80 00:24 17.03.2021
1386 Clouds 28 1014 78 10000 5.66 80 23:25 16.03.2021
1387 Clouds 28 1014 78 10000 5.14 90 22:44 16.03.2021
1388 Clouds 28 1014 78 10000 5.14 90 22:44 16.03.2021
1389 Clouds 28 1014 78 10000 4.12 100 22:25 16.03.2021
1390 Clouds 28 1015 78 10000 4.63 100 21:43 16.03.2021
1391 Rain 28 1015 74 10000 5.66 90 21:25 16.03.2021
1392 Rain 27 1015 78 10000 4.63 90 20:56 16.03.2021
1393 Rain 26 1015 83 10000 3.6 100 20:19 16.03.2021
1394 Rain 26 1015 83 10000 3.6 100 20:19 16.03.2021
1395 Rain 26 1015 83 10000 3.6 90 19:46 16.03.2021
1396 Clouds 25 1014 88 10000 3.6 80 19:27 16.03.2021
1397 Clouds 24 1014 94 10000 0.51 130 18:52 16.03.2021
1398 Clouds 24 1014 94 10000 1.03 160 18:30 16.03.2021
1399 Clouds 24 1014 94 10000 2.57 80 17:51 16.03.2021
1400 Rain 25 1014 88 10000 3.09 90 17:33 16.03.2021
1401 Rain 25 1013 88 10000 4.12 150 16:54 16.03.2021
1402 Rain 25 1013 88 10000 4.12 150 16:54 16.03.2021
1403 Rain 25 1013 88 10000 4.12 150 16:54 16.03.2021
1404 Rain 25 1013 88 10000 4.12 150 16:54 16.03.2021
1405 Rain 25 1013 88 10000 4.12 150 16:54 16.03.2021
1406 Clouds 24 1014 94 10000 1.03 190 16:31 16.03.2021
1407 Clouds 24 1013 94 10000 1.54 180 15:58 16.03.2021
1408 Clouds 24 1014 94 10000 1.03 170 15:37 16.03.2021
1409 Clouds 24 1014 94 10000 1.03 170 15:19 16.03.2021
1410 Clouds 24 1014 94 10000 1.03 170 15:19 16.03.2021
1411 Rain 24 1014 100 10000 1.54 190 14:42 16.03.2021
1412 Rain 24 1014 100 10000 1.54 190 14:22 16.03.2021
1413 Rain 24 1014 100 10000 1.03 190 13:58 16.03.2021
1414 Rain 24 1014 94 10000 0.51 40 13:29 16.03.2021
1415 Rain 25 1015 88 10000 1.03 150 12:56 16.03.2021
1416 Drizzle 25 1015 88 10000 1.54 110 12:37 16.03.2021
1417 Rain 25 1014 88 10000 1.54 80 11:56 16.03.2021
1418 Rain 25 1015 88 10000 3.09 100 11:34 16.03.2021
1419 Rain 25 1015 88 10000 5.11 75 10:49 16.03.2021
1420 Rain 25 1015 88 10000 5.14 80 10:21 16.03.2021
1421 Rain 25 1015 94 10000 2.06 110 09:40 16.03.2021
1422 Rain 25 1015 94 10000 2.06 110 09:20 16.03.2021
1423 Rain 25 1015 78 10000 5.66 90 08:53 16.03.2021
1424 Rain 26 1014 89 10000 2.06 90 08:35 16.03.2021
1425 Rain 26 1014 89 10000 1.54 110 07:51 16.03.2021
1426 Rain 26 1014 89 10000 1.54 90 07:24 16.03.2021
1427 Rain 26 1014 89 10000 1.54 90 07:24 16.03.2021
1428 Rain 27 1013 78 10000 2.06 100 06:38 16.03.2021
1429 Rain 28 1013 74 10000 3.09 90 05:36 16.03.2021
1430 Clouds 29 1013 74 10000 4.12 50 02:46 16.03.2021
1431 Clear 29 1013 74 10000 4.12 50 02:25 16.03.2021
1432 Rain 28 1014 78 10000 6.17 60 00:38 16.03.2021
1433 Rain 29 1015 74 10000 5.66 70 23:53 15.03.2021
1434 Rain 29 1015 74 10000 5.66 70 23:19 15.03.2021
1435 Rain 28 1015 74 10000 5.14 70 22:42 15.03.2021
1436 Rain 28 1015 74 10000 5.14 70 22:24 15.03.2021
1437 Rain 28 1015 78 10000 4.63 60 21:48 15.03.2021
1438 Rain 27 1015 89 10000 4.12 90 21:27 15.03.2021
1439 Rain 26 1015 94 10000 3.6 90 20:48 15.03.2021
1440 Rain 25 1015 94 10000 1.54 80 20:28 15.03.2021
1441 Rain 24 1015 100 10000 0.51 40 19:58 15.03.2021
1442 Rain 24 1015 94 10000 0.51 120 19:39 15.03.2021
1443 Rain 24 1015 94 10000 0.51 120 19:21 15.03.2021
1444 Rain 23 1015 94 10000 2.06 70 18:42 15.03.2021
1445 Rain 23 1015 94 10000 2.06 70 18:22 15.03.2021
1446 Rain 23 1014 94 10000 2.06 100 17:52 15.03.2021
1447 Rain 22 1014 94 10000 3.09 100 17:22 15.03.2021
1448 Rain 22 1014 100 10000 1.54 60 16:49 15.03.2021
1449 Rain 23 1014 88 10000 4.12 80 16:18 15.03.2021
1450 Rain 25 1013 88 10000 2.06 100 15:39 15.03.2021
1451 Rain 25 1013 88 10000 2.06 100 15:20 15.03.2021
1452 Rain 25 1014 94 10000 2.06 100 14:41 15.03.2021
1453 Rain 25 1014 94 10000 2.06 100 14:20 15.03.2021
1454 Rain 25 1014 94 10000 2.06 90 13:45 15.03.2021
1455 Rain 26 1014 89 10000 1.54 120 13:24 15.03.2021
1456 Rain 25 1014 94 10000 1.54 120 12:46 15.03.2021
1457 Rain 25 1015 94 10000 1.54 120 12:18 15.03.2021
1458 Rain 26 1015 89 10000 1.54 110 11:46 15.03.2021
1459 Rain 25 1015 94 10000 1.03 130 11:26 15.03.2021
1460 Rain 25 1015 88 10000 0.51 90 10:44 15.03.2021
1461 Clear 25 1015 88 10000 1.03 120 10:24 15.03.2021
1462 Clear 26 1015 89 10000 1.03 110 09:48 15.03.2021
1463 Clear 26 1015 89 10000 1.03 140 09:29 15.03.2021
1464 Clouds 26 1015 89 10000 1.03 110 08:46 15.03.2021
1465 Rain 26 1014 89 10000 1.54 110 08:25 15.03.2021
1466 Rain 26 1014 89 10000 2.06 90 07:42 15.03.2021
1467 Rain 26 1014 89 10000 2.06 90 07:22 15.03.2021
1468 Clouds 28 1013 78 10000 3.09 100 05:42 15.03.2021
1469 Clouds 28 1013 78 10000 5.14 70 03:21 15.03.2021
1470 Clouds 30 1014 70 10000 4.63 90 00:42 15.03.2021
1471 Clouds 29 1014 74 10000 5.14 60 23:24 14.03.2021
1472 Clouds 29 1015 79 10000 5.14 50 22:50 14.03.2021
1473 Clear 29 1015 79 10000 4.63 60 22:28 14.03.2021
1474 Clear 29 1015 74 10000 4.63 60 21:56 14.03.2021
1475 Clear 29 1015 79 10000 4.12 50 21:24 14.03.2021
1476 Clear 29 1015 79 10000 3.09 60 20:59 14.03.2021
1477 Clouds 29 1015 79 10000 3.6 70 20:40 14.03.2021
1478 Clouds 29 1015 79 10000 3.6 70 20:22 14.03.2021
1479 Clear 27 1015 89 10000 1.03 90 19:41 14.03.2021
1480 Clouds 27 1015 89 10000 1.03 90 19:19 14.03.2021
1481 Clouds 26 1014 89 10000 3.09 100 18:37 14.03.2021
1482 Clouds 24 1014 94 10000 1.54 90 17:54 14.03.2021
1483 Clouds 25 1013 94 10000 2.06 110 17:36 14.03.2021
1484 Clouds 25 1013 94 10000 2.06 110 17:18 14.03.2021
1485 Clouds 26 1013 89 10000 2.06 90 16:40 14.03.2021
1486 Rain 26 1013 89 10000 2.06 90 16:20 14.03.2021
1487 Rain 25 1013 94 10000 2.57 90 15:45 14.03.2021
1488 Rain 25 1013 94 10000 1.54 100 14:52 14.03.2021
1489 Rain 24 1014 100 10000 1.54 100 14:31 14.03.2021
1490 Clouds 24 1014 94 10000 1.54 80 13:53 14.03.2021
1491 Clouds 24 1014 94 10000 1.03 110 13:34 14.03.2021
1492 Clouds 25 1014 88 10000 1.03 100 12:56 14.03.2021
1493 Clouds 25 1014 88 10000 1.03 100 12:56 14.03.2021
1494 Clouds 26 1014 83 10000 1.54 100 12:37 14.03.2021
1495 Clouds 26 1014 83 10000 1.54 100 12:18 14.03.2021
1496 Clouds 24 1014 94 10000 2.57 90 11:38 14.03.2021
1497 Clouds 24 1014 94 10000 2.57 90 11:18 14.03.2021
1498 Clouds 24 1015 94 10000 1.54 70 10:38 14.03.2021
1499 Clouds 24 1015 94 10000 1.54 70 10:19 14.03.2021
1500 Clouds 25 1015 88 10000 1.03 120 09:55 14.03.2021
1501 Clouds 25 1015 88 10000 1.03 120 09:36 14.03.2021
1502 Clouds 25 1015 88 10000 1.03 120 09:36 14.03.2021
1503 Clouds 25 1015 88 10000 1.03 120 09:18 14.03.2021
1504 Clouds 26 1014 83 10000 1.54 110 08:36 14.03.2021
1505 Clouds 26 1014 83 10000 1.54 120 07:52 14.03.2021
1506 Clouds 27 1014 78 10000 1.54 120 07:22 14.03.2021
1507 Clouds 28 1013 74 10000 2.06 40 05:33 14.03.2021
1508 Clouds 28 1013 74 10000 2.06 40 05:33 14.03.2021
1509 Clouds 29 1013 70 10000 3.09 40 00:59 14.03.2021
1510 Clouds 29 1013 70 10000 3.6 40 00:20 14.03.2021
1511 Clouds 29 1013 70 10000 3.6 40 00:20 14.03.2021
1512 Clouds 30 1014 70 10000 3.6 40 23:57 13.03.2021
1513 Clouds 29 1014 74 10000 3.6 40 23:36 13.03.2021
1514 Clouds 29 1014 70 10000 4.12 40 22:55 13.03.2021
1515 Clouds 29 1014 70 10000 4.12 40 22:36 13.03.2021
1516 Clouds 29 1014 74 10000 4.63 50 21:49 13.03.2021
1517 Clouds 29 1014 74 10000 4.63 50 21:27 13.03.2021
1518 Clouds 28 1014 78 10000 4.12 50 20:53 13.03.2021
1519 Clouds 28 1014 78 10000 4.12 50 20:31 13.03.2021
1520 Clouds 27 1014 78 10000 3.6 50 19:54 13.03.2021
1521 Clouds 25 1013 94 10000 2.06 70 19:31 13.03.2021
1522 Clear 25 1013 88 10000 2.57 100 18:44 13.03.2021
1523 Clouds 25 1013 88 10000 3.09 90 18:23 13.03.2021
1524 Clear 24 1013 94 10000 3.09 80 17:59 13.03.2021
1525 Clouds 25 1013 88 10000 3.09 100 17:40 13.03.2021
1526 Clouds 25 1013 88 10000 3.09 100 17:21 13.03.2021
1527 Clouds 25 1012 88 10000 3.09 80 16:43 13.03.2021
1528 Clouds 25 1012 88 10000 3.6 100 16:19 13.03.2021
1529 Clouds 25 1012 94 10000 2.57 100 15:39 13.03.2021
1530 Clouds 25 1012 94 10000 2.57 80 14:47 13.03.2021
1531 Clouds 25 1013 94 10000 2.06 90 14:28 13.03.2021
1532 Clouds 25 1013 88 10000 2.57 80 13:47 13.03.2021
1533 Clouds 25 1013 88 10000 2.57 80 13:24 13.03.2021
1534 Clouds 25 1013 88 10000 2.57 80 13:24 13.03.2021
1535 Clouds 25 1013 94 10000 2.57 90 12:43 13.03.2021
1536 Clouds 25 1013 94 10000 2.57 100 12:20 13.03.2021
1537 Clouds 25 1013 94 10000 3.64 6 11:46 13.03.2021
1538 Clouds 25 1013 94 10000 2.06 90 11:28 13.03.2021
1539 Clouds 25 1013 94 10000 1.54 90 10:49 13.03.2021
1540 Clouds 24 1014 100 10000 2.06 80 10:25 13.03.2021
1541 Clouds 25 1014 94 10000 1.54 100 09:42 13.03.2021
1542 Clouds 25 1013 94 10000 1.54 100 08:58 13.03.2021
1543 Clouds 25 1013 94 10000 0.51 90 08:39 13.03.2021
1544 Clouds 25 1013 94 10000 0.51 90 08:19 13.03.2021
1545 Clouds 25 1012 94 10000 1.54 100 07:39 13.03.2021
1546 Clouds 28 1012 83 10000 2.57 330 05:45 13.03.2021
1547 Clouds 29 1012 74 10000 1.54 40 02:43 13.03.2021
1548 Rain 25 1013 100 2200 4.12 300 00:44 13.03.2021
1549 Rain 28 1013 78 10000 1.54 360 23:49 12.03.2021
1550 Rain 28 1013 78 10000 2.06 350 23:30 12.03.2021
1551 Rain 27 1014 83 10000 4.63 320 22:42 12.03.2021
1552 Rain 27 1014 83 10000 4.63 320 22:22 12.03.2021
1553 Rain 28 1014 78 10000 2.06 300 21:42 12.03.2021
1554 Rain 28 1014 78 10000 2.06 300 21:21 12.03.2021
1555 Rain 28 1014 78 10000 2.57 290 20:55 12.03.2021
1556 Rain 28 1013 78 10000 2.06 310 20:31 12.03.2021
1557 Rain 27 1013 83 10000 3.09 300 19:54 12.03.2021
1558 Rain 27 1013 83 10000 3.6 300 19:34 12.03.2021
1559 Clouds 25 1013 88 10000 1.03 90 18:54 12.03.2021
1560 Clouds 25 1013 88 10000 0.51 210 18:33 12.03.2021
1561 Clouds 26 1012 83 10000 2.57 290 17:46 12.03.2021
1562 Clouds 26 1012 83 10000 2.57 290 17:46 12.03.2021
1563 Clouds 26 1012 89 10000 3.09 290 17:27 12.03.2021
1564 Clouds 26 1012 89 10000 2.57 290 16:51 12.03.2021
1565 Clouds 26 1012 83 10000 3.09 310 16:29 12.03.2021
1566 Clouds 26 1012 89 10000 2.06 310 15:45 12.03.2021
1567 Clear 26 1012 83 10000 2.06 320 15:21 12.03.2021
1568 Clouds 26 1012 89 10000 1.03 250 14:42 12.03.2021
1569 Clouds 26 1012 89 10000 1.03 250 14:19 12.03.2021
1570 Clear 26 1013 83 10000 2.06 20 13:40 12.03.2021
1571 Clouds 26 1013 83 10000 2.06 20 13:20 12.03.2021
1572 Clouds 26 1013 89 10000 2.57 20 12:50 12.03.2021
1573 Rain 26 1013 89 10000 3.09 20 12:30 12.03.2021
1574 Clouds 26 1013 89 10000 2.57 20 11:57 12.03.2021
1575 Clouds 27 1013 83 10000 3.6 20 11:30 12.03.2021
1576 Clouds 27 1013 78 10000 2.57 30 10:57 12.03.2021
1577 Clouds 27 1014 78 10000 2.57 20 10:28 12.03.2021
1578 Clouds 26 1014 83 10000 1.54 80 09:58 12.03.2021
1579 Clouds 25 1014 83 10000 1.54 90 09:28 12.03.2021
1580 Clouds 25 1013 83 10000 1.03 110 08:51 12.03.2021
1581 Clouds 26 1013 78 10000 1.54 110 08:33 12.03.2021
1582 Rain 26 1013 83 10000 1.03 110 07:41 12.03.2021
1583 Rain 26 1013 83 10000 1.03 110 07:18 12.03.2021
1584 Rain 27 1012 78 10000 1.54 90 06:39 12.03.2021
1585 Rain 29 1011 65 10000 3.6 230 03:28 12.03.2021
1586 Rain 29 1013 65 10000 2.06 280 00:52 12.03.2021
1587 Rain 29 1013 61 10000 4.93 349 23:40 11.03.2021
1588 Clouds 28 1013 69 10000 1.54 210 22:58 11.03.2021
1589 Clouds 29 1014 70 10000 2.06 210 22:36 11.03.2021
1590 Clouds 28 1014 74 10000 2.57 200 21:58 11.03.2021
1591 Clouds 28 1014 74 10000 1.54 200 21:39 11.03.2021
1592 Clouds 28 1014 74 10000 1.54 200 21:20 11.03.2021
1593 Clouds 28 1014 74 10000 1.54 200 20:44 11.03.2021
1594 Clouds 27 1014 78 10000 2.06 200 20:21 11.03.2021
1595 Clouds 27 1013 78 10000 1.54 210 19:46 11.03.2021
1596 Clouds 27 1014 67 10000 1.87 305 19:27 11.03.2021
1597 Rain 25 1012 88 10000 2.06 190 18:49 11.03.2021
1598 Rain 25 1012 88 10000 2.06 190 18:31 11.03.2021
1599 Clouds 25 1012 88 10000 2.06 190 17:45 11.03.2021
1600 Clouds 26 1012 83 10000 2.06 210 17:24 11.03.2021
1601 Clouds 26 1012 89 10000 2.57 290 16:29 11.03.2021
1602 Clouds 26 1012 89 10000 2.57 290 15:49 11.03.2021
1603 Clouds 26 1012 89 10000 2.57 300 15:26 11.03.2021
1604 Clouds 26 1012 89 10000 2.57 300 14:49 11.03.2021
1605 Clouds 26 1012 89 10000 2.57 300 14:20 11.03.2021
1606 Clouds 26 1012 89 10000 2.06 330 13:59 11.03.2021
1607 Clouds 26 1013 89 10000 2.57 330 13:38 11.03.2021
1608 Clouds 26 1013 89 10000 2.57 330 13:18 11.03.2021
1609 Clouds 26 1013 89 10000 2.06 360 12:43 11.03.2021
1610 Clouds 26 1013 89 10000 2.57 350 12:25 11.03.2021
1611 Clouds 25 1013 94 10000 0.51 60 11:43 11.03.2021
1612 Clouds 25 1013 94 10000 1.03 100 11:25 11.03.2021
1613 Clouds 24 1014 100 10000 1.03 90 10:42 11.03.2021
1614 Clouds 24 1014 100 10000 1.03 130 10:20 11.03.2021
1615 Clouds 24 1014 94 10000 1.03 100 09:44 11.03.2021
1616 Clouds 24 1014 94 10000 1.03 110 09:23 11.03.2021
1617 Clouds 24 1013 94 10000 0.51 90 08:47 11.03.2021
1618 Clouds 24 1013 94 10000 0.51 110 08:19 11.03.2021
1619 Clouds 25 1013 88 10000 1.03 160 07:29 11.03.2021
1620 Clouds 26 1012 83 10000 1.03 130 06:50 11.03.2021
1621 Clouds 26 1012 83 10000 2.06 90 06:30 11.03.2021
1622 -273 0 0 0 0 0 03:45 11.03.2021
1623 Rain 27 1013 89 10000 4.63 50 01:18 11.03.2021
1624 Rain 28 1013 78 10000 2.06 190 23:32 10.03.2021
1625 Rain 28 1013 78 10000 2.06 190 23:32 10.03.2021
1626 Rain 27 1013 83 10000 1.54 250 22:59 10.03.2021
1627 Rain 26 1013 94 1700 1.54 220 22:33 10.03.2021
1628 Rain 26 1013 89 10000 2.06 190 21:47 10.03.2021
1629 Rain 26 1013 83 10000 5.66 270 21:25 10.03.2021
1630 Rain 27 1013 78 10000 1.54 310 20:48 10.03.2021
1631 Clouds 26 1013 89 10000 3.09 340 20:30 10.03.2021
1632 Clouds 26 1013 89 10000 3.09 340 20:30 10.03.2021
1633 Clouds 27 1013 83 10000 2.57 290 19:54 10.03.2021
1634 Clouds 27 1012 83 10000 2.57 280 19:30 10.03.2021
1635 Rain 26 1012 89 10000 3.09 290 18:47 10.03.2021
1636 Rain 26 1012 89 10000 3.09 290 18:47 10.03.2021
1637 Rain 26 1012 89 10000 2.57 300 18:28 10.03.2021
1638 Clouds 26 1012 89 10000 3.09 310 17:57 10.03.2021
1639 Clouds 26 1012 89 10000 3.09 310 17:57 10.03.2021
1640 Clouds 26 1012 89 10000 3.09 310 17:39 10.03.2021
1641 Clouds 26 1012 89 10000 3.09 310 17:19 10.03.2021
1642 Rain 26 1011 83 10000 3.6 320 16:45 10.03.2021
1643 Rain 26 1011 89 10000 3.09 300 16:25 10.03.2021
1644 Rain 26 1011 83 10000 3.6 310 15:48 10.03.2021
1645 Rain 26 1010 83 10000 4.12 310 15:25 10.03.2021
1646 Rain 26 1010 83 10000 4.12 330 14:57 10.03.2021
1647 Rain 26 1011 89 10000 2.06 10 14:22 10.03.2021
1648 Rain 25 1011 88 10000 1.03 120 13:53 10.03.2021
1649 Clouds 25 1011 88 10000 2.57 310 13:31 10.03.2021
1650 Rain 25 1012 94 10000 3.09 10 12:47 10.03.2021
1651 Clouds 26 1012 89 10000 5.14 350 12:23 10.03.2021
1652 Rain 27 1012 78 10000 2.57 10 11:47 10.03.2021
1653 Clouds 27 1012 78 10000 3.6 360 11:21 10.03.2021
1654 Clouds 27 1012 78 10000 3.09 360 10:50 10.03.2021
1655 Clouds 27 1012 78 10000 2.57 10 10:31 10.03.2021
1656 Clouds 26 1012 83 10000 2.06 40 09:52 10.03.2021
1657 Clouds 25 1012 94 10000 1.54 90 09:32 10.03.2021
1658 Clouds 25 1012 94 10000 2.06 90 08:59 10.03.2021
1659 Clouds 25 1012 94 10000 1.54 110 08:40 10.03.2021
1660 Clouds 25 1012 94 10000 1.54 110 08:21 10.03.2021
1661 Clouds 25 1011 94 10000 1.54 120 07:41 10.03.2021
1662 Clouds 25 1011 94 10000 1.54 120 07:19 10.03.2021
1663 Clouds 25 1011 94 10000 1.54 110 06:46 10.03.2021
1664 Rain 26 1009 83 10000 2.57 280 02:42 10.03.2021
1665 Rain 27 1010 78 10000 3.6 250 23:53 09.03.2021
1666 Rain 28 1010 74 10000 3.6 250 23:26 09.03.2021
1667 Rain 28 1010 69 10000 3.6 250 22:47 09.03.2021
1668 Rain 28 1010 69 10000 3.09 240 22:28 09.03.2021
1669 Rain 28 1010 74 10000 2.57 230 21:56 09.03.2021
1670 Rain 28 1010 78 10000 2.57 230 21:37 09.03.2021
1671 Rain 28 1010 78 10000 2.57 230 21:18 09.03.2021
1672 Rain 27 1010 78 10000 2.57 240 20:43 09.03.2021
1673 Rain 27 1010 78 10000 3.09 240 20:21 09.03.2021
1674 Rain 27 1010 89 10000 2.06 220 19:53 09.03.2021
1675 Rain 25 1009 94 10000 1.54 190 19:27 09.03.2021
1676 Rain 25 1009 94 10000 2.06 200 18:51 09.03.2021
1677 Rain 26 1009 89 10000 3.09 260 18:28 09.03.2021
1678 Rain 26 1008 83 10000 4.63 270 17:53 09.03.2021
1679 Rain 25 1008 94 10000 2.06 210 17:33 09.03.2021
1680 Rain 25 1008 94 10000 3.09 230 16:55 09.03.2021
1681 Rain 25 1007 94 10000 1.54 220 16:37 09.03.2021
1682 Clouds 25 1007 94 10000 1.54 220 16:18 09.03.2021
1683 Rain 25 1007 94 10000 5.14 270 15:43 09.03.2021
1684 Rain 25 1007 94 10000 2.57 260 15:20 09.03.2021
1685 Clouds 25 1007 94 10000 1.54 200 14:28 09.03.2021
1686 Clouds 25 1008 94 10000 1.54 190 13:57 09.03.2021
1687 Clouds 25 1008 94 10000 2.06 230 13:36 09.03.2021
1688 Clouds 25 1008 94 10000 2.06 230 13:18 09.03.2021
1689 Clouds 25 1008 94 10000 2.06 190 12:39 09.03.2021
1690 Clouds 25 1008 94 10000 2.06 190 12:18 09.03.2021
1691 Clouds 25 1008 94 10000 2.06 110 11:41 09.03.2021
1692 Clouds 25 1008 94 10000 2.06 110 11:20 09.03.2021
1693 Rain 26 1009 89 10000 2.57 330 10:47 09.03.2021
1694 Rain 26 1009 89 10000 4.12 320 10:23 09.03.2021
1695 Rain 26 1008 89 10000 1.03 220 09:58 09.03.2021
1696 Rain 26 1008 89 10000 1.03 220 09:39 09.03.2021
1697 Rain 26 1008 89 10000 1.03 220 09:21 09.03.2021
1698 Rain 26 1007 89 10000 1.54 200 08:35 09.03.2021
1699 Rain 26 1007 89 10000 1.54 200 08:35 09.03.2021
1700 Rain 26 1007 89 10000 1.54 190 07:50 09.03.2021
1701 Rain 26 1006 89 10000 1.03 200 07:31 09.03.2021
1702 Rain 26 1006 83 10000 1.54 200 06:59 09.03.2021
1703 Rain 27 1005 83 10000 2.57 240 05:54 09.03.2021
1704 Rain 27 1005 78 10000 2.57 230 03:51 09.03.2021
1705 Rain 28 1006 78 10000 4.12 230 00:18 09.03.2021
1706 Rain 26 1006 94 9000 6.69 260 23:42 08.03.2021
1707 Rain 26 1006 94 9000 6.69 260 23:21 08.03.2021
1708 Rain 27 1006 83 10000 4.63 250 22:43 08.03.2021
1709 Clouds 28 1006 83 10000 4.63 260 22:25 08.03.2021
1710 Clouds 28 1006 83 10000 2.57 230 21:50 08.03.2021
1711 Clouds 28 1006 83 10000 5.66 260 21:30 08.03.2021
1712 Clouds 28 1006 83 10000 5.14 270 20:45 08.03.2021
1713 Rain 28 1006 83 10000 6.17 280 20:24 08.03.2021
1714 Rain 27 1006 89 10000 6.17 280 19:54 08.03.2021
1715 Rain 27 1006 89 10000 6.17 270 19:27 08.03.2021
1716 Rain 27 1005 83 10000 5.14 270 18:38 08.03.2021
1717 Rain 27 1005 83 10000 5.14 270 18:19 08.03.2021
1718 Rain 26 1005 89 10000 5.66 260 17:46 08.03.2021
1719 Rain 27 1004 74 10000 4.63 250 17:24 08.03.2021
1720 Rain 26 1004 78 10000 4.63 250 16:44 08.03.2021
1721 Rain 26 1004 73 10000 2.57 230 16:25 08.03.2021
1722 Rain 25 1004 73 10000 1.54 220 15:45 08.03.2021
1723 Rain 26 1004 69 10000 3.6 230 15:23 08.03.2021
1724 Rain 25 1005 78 10000 3.6 230 14:22 08.03.2021
1725 Rain 25 1005 78 10000 5.14 230 13:58 08.03.2021
1726 Rain 24 1005 83 10000 3.6 220 13:24 08.03.2021
1727 Rain 25 1006 88 10000 5.14 240 12:58 08.03.2021
1728 Rain 24 1006 94 8000 5.14 230 12:36 08.03.2021
1729 Rain 24 1006 94 8000 5.14 230 12:36 08.03.2021
1730 Rain 25 1006 94 9000 4.12 240 11:55 08.03.2021
1731 Rain 25 1006 94 10000 6.69 240 11:34 08.03.2021
1732 Rain 26 1007 89 10000 7.72 250 10:57 08.03.2021
1733 Rain 26 1007 89 10000 6.69 240 10:39 08.03.2021
1734 Rain 26 1007 89 10000 6.69 240 10:18 08.03.2021
1735 Rain 27 1006 89 10000 5.14 260 09:29 08.03.2021
1736 Rain 27 1006 89 10000 4.12 260 08:52 08.03.2021
1737 Rain 25 1006 94 10000 1.54 200 08:25 08.03.2021
1738 Rain 24 1006 94 10000 1.54 210 07:22 08.03.2021
1739 Rain 26 1005 94 8000 7.72 290 05:46 08.03.2021
1740 Rain 29 1005 74 10000 3.6 260 02:57 08.03.2021
1741 Clouds 29 1006 79 10000 3.6 260 00:43 08.03.2021
1742 Clouds 29 1007 84 10000 3.6 260 23:53 07.03.2021
1743 Rain 29 1007 79 10000 3.09 260 23:22 07.03.2021
1744 Rain 29 1007 79 10000 3.6 260 22:49 07.03.2021
1745 Rain 29 1007 79 10000 2.06 230 22:28 07.03.2021
1746 Rain 28 1008 83 10000 2.06 210 21:53 07.03.2021
1747 Rain 28 1008 83 10000 2.06 220 21:33 07.03.2021
1748 Rain 28 1008 83 10000 2.06 230 20:59 07.03.2021
1749 Rain 28 1008 83 10000 1.54 220 20:40 07.03.2021
1750 Rain 28 1008 83 10000 1.54 220 20:19 07.03.2021
1751 Rain 28 1008 83 10000 1.54 220 20:19 07.03.2021
1752 Rain 26 1008 94 10000 1.03 210 19:40 07.03.2021
1753 Rain 26 1008 94 10000 1.03 210 19:22 07.03.2021
1754 Rain 25 1007 100 10000 1.03 220 18:54 07.03.2021
1755 Rain 25 1007 94 10000 0.51 100 18:21 07.03.2021
1756 Rain 26 1007 89 10000 0.51 240 17:59 07.03.2021
1757 Rain 26 1007 89 10000 0.51 180 17:38 07.03.2021
1758 Rain 26 1007 89 10000 0.51 180 17:18 07.03.2021
1759 Rain 26 1007 89 10000 1.54 200 16:43 07.03.2021
1760 Rain 26 1006 89 10000 2.06 210 16:21 07.03.2021
1761 Rain 26 1006 89 10000 2.06 210 16:21 07.03.2021
1762 Rain 26 1006 89 10000 2.06 200 15:49 07.03.2021
1763 Rain 27 1006 83 10000 2.06 200 15:31 07.03.2021
1764 Rain 27 1006 83 10000 2.06 220 14:47 07.03.2021
1765 Rain 27 1007 89 10000 2.06 220 14:28 07.03.2021
1766 Rain 27 1007 83 10000 1.54 220 13:45 07.03.2021
1767 Rain 27 1007 83 10000 2.57 230 13:26 07.03.2021
1768 Rain 26 1008 89 10000 1.54 210 12:48 07.03.2021
1769 Rain 26 1008 89 10000 1.54 220 12:29 07.03.2021
1770 Rain 26 1008 89 10000 1.54 220 11:52 07.03.2021
1771 Rain 26 1008 89 10000 1.54 210 11:23 07.03.2021
1772 Rain 26 1009 89 10000 1.54 220 10:51 07.03.2021
1773 Rain 26 1009 89 10000 1.54 210 10:33 07.03.2021
1774 Rain 26 1009 94 10000 1.54 210 09:52 07.03.2021
1775 Rain 26 1009 89 10000 1.54 210 09:26 07.03.2021
1776 Rain 26 1009 94 10000 1.54 200 08:48 07.03.2021
1777 Rain 26 1008 94 10000 1.54 200 08:25 07.03.2021
1778 Rain 26 1008 94 10000 1.03 200 07:51 07.03.2021
1779 Rain 27 1007 89 10000 6.69 290 02:44 07.03.2021
1780 Rain 28 1007 78 10000 5.66 270 01:45 07.03.2021
1781 Rain 28 1009 78 10000 3.6 280 23:56 06.03.2021
1782 Rain 27 1009 78 10000 3.6 290 23:37 06.03.2021
1783 Rain 27 1009 89 10000 6.17 270 22:52 06.03.2021
1784 Rain 27 1010 89 10000 1.54 250 22:30 06.03.2021
1785 Rain 26 1010 94 7000 3.6 260 21:59 06.03.2021
1786 Haze 26 1010 89 5000 7.2 270 21:25 06.03.2021
1787 Clouds 28 1010 83 10000 6.17 270 20:55 06.03.2021
1788 Clouds 28 1010 83 10000 5.14 260 20:36 06.03.2021
1789 Clouds 28 1009 83 10000 5.14 260 19:50 06.03.2021
1790 Clouds 28 1009 78 10000 3.6 250 19:23 06.03.2021
1791 Clouds 27 1009 89 10000 3.6 280 18:57 06.03.2021
1792 Clouds 27 1009 89 10000 4.63 290 18:38 06.03.2021
1793 Rain 27 1009 89 10000 4.63 290 18:18 06.03.2021
1794 Rain 27 1009 83 10000 5.14 290 17:45 06.03.2021
1795 Clouds 27 1008 83 10000 5.14 270 17:25 06.03.2021
1796 Clouds 27 1008 83 10000 4.63 260 16:52 06.03.2021
1797 Clouds 27 1008 83 10000 4.63 260 16:29 06.03.2021
1798 Clouds 27 1008 89 10000 4.63 270 15:54 06.03.2021
1799 Clouds 27 1008 83 10000 2.57 250 15:32 06.03.2021
1800 Clouds 27 1008 83 10000 2.57 240 14:54 06.03.2021
1801 Clouds 27 1008 89 10000 4.63 270 14:30 06.03.2021
1802 Clouds 27 1008 89 10000 4.63 270 14:30 06.03.2021
1803 Clouds 27 1009 78 10000 5.66 270 13:42 06.03.2021
1804 Clouds 27 1009 78 10000 5.66 270 13:21 06.03.2021
1805 Clouds 27 1010 83 10000 5.14 270 12:44 06.03.2021
1806 Clouds 27 1010 83 10000 4.12 270 12:20 06.03.2021
1807 Clouds 27 1010 83 10000 4.12 270 12:20 06.03.2021
1808 Clouds 27 1010 83 10000 4.12 270 12:20 06.03.2021
1809 Clouds 27 1010 83 10000 4.63 260 11:56 06.03.2021
1810 Clouds 27 1011 78 10000 5.14 270 11:22 06.03.2021
1811 Clouds 27 1011 74 10000 5.66 270 10:49 06.03.2021
1812 Clouds 27 1011 83 10000 5.14 260 10:24 06.03.2021
1813 Clouds 28 1011 74 10000 5.66 270 09:49 06.03.2021
1814 Clouds 28 1011 74 10000 5.66 270 09:20 06.03.2021
1815 Clouds 28 1010 78 10000 5.66 260 08:51 06.03.2021
1816 Clouds 28 1010 78 10000 5.66 270 07:59 06.03.2021
1817 Clouds 28 1010 78 10000 5.66 270 07:41 06.03.2021
1818 Clouds 28 1010 78 10000 5.66 270 07:20 06.03.2021
1819 Clouds 29 1009 74 10000 5.66 270 05:38 06.03.2021
1820 Clouds 30 1009 74 10000 4.12 280 02:38 06.03.2021
1821 Clouds 29 1010 79 10000 4.12 270 00:56 06.03.2021
1822 Clouds 29 1011 79 10000 3.6 270 23:54 05.03.2021
1823 Clouds 29 1011 79 10000 4.12 270 23:29 05.03.2021
1824 Clouds 29 1011 79 10000 3.6 270 22:49 05.03.2021
1825 Clouds 29 1011 79 10000 3.09 280 22:23 05.03.2021
1826 Clouds 29 1011 79 10000 2.57 280 21:54 05.03.2021
1827 Clouds 28 1011 83 10000 2.57 280 21:35 05.03.2021
1828 Clouds 28 1011 78 10000 2.57 270 20:58 05.03.2021
1829 Clouds 28 1011 83 10000 2.57 290 20:40 05.03.2021
1830 Clouds 28 1011 83 10000 2.57 290 20:21 05.03.2021
1831 Clouds 27 1011 89 10000 2.06 290 19:36 05.03.2021
1832 Clouds 27 1011 89 10000 2.06 290 19:18 05.03.2021
1833 Clouds 24 1010 100 10000 0.51 130 18:42 05.03.2021
1834 Clouds 24 1010 100 10000 0.51 130 18:23 05.03.2021
1835 Clouds 24 1010 100 10000 0.51 140 17:37 05.03.2021
1836 Clouds 24 1010 100 10000 0.51 170 16:51 05.03.2021
1837 Clouds 24 1009 100 10000 0.51 130 16:26 05.03.2021
1838 Clouds 24 1009 100 10000 0.51 120 15:59 05.03.2021
1839 Clouds 24 1010 100 10000 0.51 140 15:41 05.03.2021
1840 Clouds 24 1010 100 10000 0.51 140 15:22 05.03.2021
1841 Clouds 25 1010 100 10000 0.51 110 14:38 05.03.2021
1842 Clouds 25 1010 94 10000 1.03 130 13:59 05.03.2021
1843 Clouds 25 1011 94 10000 0.51 110 13:22 05.03.2021
1844 Clouds 25 1011 94 10000 1.03 90 12:55 05.03.2021
1845 Clouds 25 1011 94 10000 0.51 100 11:58 05.03.2021
1846 Clouds 25 1012 94 10000 1.03 100 11:37 05.03.2021
1847 Rain 25 1012 94 10000 1.03 100 11:18 05.03.2021
1848 Rain 25 1012 94 10000 0.51 130 10:40 05.03.2021
1849 Clouds 25 1012 94 10000 0.51 130 10:22 05.03.2021
1850 Clouds 25 1012 94 10000 0.51 130 09:47 05.03.2021
1851 Clouds 25 1012 94 10000 0.51 180 09:26 05.03.2021
1852 Clouds 25 1011 94 10000 0.51 120 08:41 05.03.2021
1853 Clouds 25 1011 94 10000 0.51 120 08:22 05.03.2021
1854 Clouds 25 1011 94 10000 0.51 120 07:43 05.03.2021
1855 Clouds 27 1010 83 10000 0.51 190 06:56 05.03.2021
1856 Clouds 27 1010 83 10000 1.03 300 06:31 05.03.2021
1857 Clouds 28 1010 78 10000 4.12 250 01:52 05.03.2021
1858 Rain 29 1010 79 10000 3.09 260 00:34 05.03.2021
1859 Clouds 27 1011 83 10000 3.09 260 23:31 04.03.2021
1860 Rain 27 1011 83 10000 5.14 280 22:38 04.03.2021
1861 Rain 27 1011 83 10000 5.14 260 21:56 04.03.2021
1862 Rain 27 1011 89 10000 6.17 260 21:37 04.03.2021
1863 Rain 27 1011 89 10000 6.17 260 21:18 04.03.2021
1864 Rain 27 1011 89 10000 5.66 290 20:41 04.03.2021
1865 Rain 27 1011 89 10000 5.66 290 20:21 04.03.2021
1866 Rain 28 1011 83 10000 4.63 290 19:53 04.03.2021
1867 Rain 28 1010 83 10000 4.63 290 19:27 04.03.2021
1868 Rain 27 1010 83 10000 4.12 290 18:54 04.03.2021
1869 Rain 27 1010 83 10000 4.12 290 18:30 04.03.2021
1870 Rain 27 1010 83 10000 4.12 300 17:57 04.03.2021
1871 Rain 27 1009 89 10000 3.6 320 17:39 04.03.2021
1872 Rain 27 1009 89 10000 3.6 320 17:18 04.03.2021
1873 Rain 27 1009 89 10000 2.57 10 16:42 04.03.2021
1874 Rain 27 1009 89 10000 2.57 10 16:23 04.03.2021
1875 Clouds 27 1009 83 10000 3.09 340 15:45 04.03.2021
1876 Rain 27 1009 83 10000 2.57 330 15:24 04.03.2021
1877 Rain 27 1009 83 10000 2.57 340 14:40 04.03.2021
1878 Rain 27 1010 83 10000 1.03 20 13:59 04.03.2021
1879 Rain 26 1010 94 10000 1.03 60 13:40 04.03.2021
1880 Rain 26 1010 94 10000 1.03 60 13:19 04.03.2021
1881 Rain 26 1011 94 10000 0.51 100 12:41 04.03.2021
1882 Rain 26 1011 94 10000 0.51 200 11:51 04.03.2021
1883 Rain 25 1011 100 10000 0.51 130 11:32 04.03.2021
1884 Rain 25 1011 100 10000 1.03 100 10:58 04.03.2021
1885 Rain 25 1011 100 10000 0.51 150 10:36 04.03.2021
1886 Rain 25 1012 100 10000 0.51 130 09:51 04.03.2021
1887 Rain 26 1011 89 10000 1.03 80 09:26 04.03.2021
1888 Rain 26 1011 89 10000 0.51 100 08:49 04.03.2021
1889 Rain 25 1011 94 10000 1.54 90 08:24 04.03.2021
1890 Rain 27 1011 83 10000 0.51 140 07:35 04.03.2021
1891 Clouds 27 1010 83 10000 1.54 50 06:28 04.03.2021
1892 Clouds 28 1010 78 10000 1.54 40 05:52 04.03.2021
1893 Clouds 28 1010 78 10000 2.06 10 02:20 04.03.2021
1894 Clouds 29 1011 79 10000 3.09 40 23:36 03.03.2021
1895 Clouds 28 1012 78 10000 3.09 40 22:29 03.03.2021
1896 Clouds 28 1012 78 10000 3.09 50 21:58 03.03.2021
1897 Clouds 28 1012 78 10000 2.06 70 21:39 03.03.2021
1898 Clouds 28 1012 78 10000 2.06 70 21:21 03.03.2021
1899 Clouds 27 1012 83 10000 1.54 80 20:43 03.03.2021
1900 Clouds 26 1012 94 10000 0.51 100 20:24 03.03.2021
1901 Clouds 25 1012 100 10000 1.03 90 19:47 03.03.2021
1902 Clouds 24 1012 100 10000 0.51 110 19:28 03.03.2021
1903 Clouds 24 1012 94 10000 1.03 80 18:48 03.03.2021
1904 Clouds 23 1012 100 10000 1.03 180 18:30 03.03.2021
1905 Clouds 23 1012 100 10000 0.51 190 17:56 03.03.2021
1906 Clouds 23 1012 100 10000 0.51 140 17:20 03.03.2021
1907 Clouds 23 1011 100 10000 1.03 180 16:50 03.03.2021
1908 Clouds 23 1011 100 10000 0.51 180 16:27 03.03.2021
1909 Clouds 23 1011 100 10000 0.51 160 15:49 03.03.2021
1910 Clouds 23 1011 100 10000 1.03 180 15:28 03.03.2021
1911 Clouds 23 1011 100 10000 1.03 180 14:34 03.03.2021
1912 Clouds 23 1012 100 10000 1.03 180 13:59 03.03.2021
1913 Clouds 23 1012 100 10000 1.03 180 13:37 03.03.2021
1914 Clouds 23 1012 100 10000 1.03 180 13:18 03.03.2021
1915 Clouds 23 1012 100 10000 1.03 190 12:40 03.03.2021
1916 Clouds 23 1012 100 10000 1.03 190 12:22 03.03.2021
1917 Clouds 23 1012 100 10000 1.03 190 11:43 03.03.2021
1918 Clouds 24 1013 94 10000 1.03 190 11:21 03.03.2021
1919 Clouds 24 1013 94 10000 1.03 190 10:43 03.03.2021
1920 Clouds 24 1013 94 10000 1.54 190 10:20 03.03.2021
1921 Clouds 24 1013 100 10000 0.51 180 09:40 03.03.2021
1922 Clouds 24 1012 100 10000 0.51 100 08:49 03.03.2021
1923 Clouds 24 1012 100 10000 1.03 80 08:23 03.03.2021
1924 Clouds 25 1012 94 10000 1.03 200 07:52 03.03.2021
1925 Clouds 25 1012 94 10000 1.03 200 06:55 03.03.2021
1926 Clouds 26 1012 94 10000 0.51 160 06:18 03.03.2021
1927 Rain 27 1011 83 10000 1.54 100 05:29 03.03.2021
1928 Clouds 28 1011 78 10000 1.54 10 04:35 03.03.2021
1929 Clouds 28 1011 74 10000 2.57 50 03:52 03.03.2021
1930 Clouds 29 1012 79 10000 3.09 50 00:18 03.03.2021
1931 Clouds 28 1012 78 10000 3.09 40 23:31 02.03.2021
1932 Clouds 29 1012 79 10000 4.12 60 22:43 02.03.2021
1933 Clouds 28 1013 78 10000 1.03 190 22:20 02.03.2021
1934 Clouds 29 1013 74 10000 1.54 220 21:41 02.03.2021
1935 Clouds 29 1013 74 10000 1.54 220 21:22 02.03.2021
1936 Clouds 28 1013 78 10000 1.03 240 20:49 02.03.2021
1937 Clear 28 1013 78 10000 0.51 190 20:23 02.03.2021
1938 Clear 27 1013 83 10000 1.03 210 19:57 02.03.2021
1939 Clear 27 1013 89 10000 0.51 140 19:39 02.03.2021
1940 Clouds 27 1013 89 10000 0.51 140 19:20 02.03.2021
1941 Clouds 25 1012 94 10000 1.03 200 18:41 02.03.2021
1942 Clouds 25 1012 94 10000 1.03 200 18:21 02.03.2021
1943 Clouds 24 1012 100 10000 0.51 170 17:49 02.03.2021
1944 Clouds 25 1012 94 10000 1.54 210 17:30 02.03.2021
1945 Clouds 25 1012 94 10000 0.51 200 16:56 02.03.2021
1946 Clouds 25 1012 94 10000 1.03 200 16:23 02.03.2021
1947 Clouds 25 1012 94 10000 0.51 190 15:51 02.03.2021
1948 Clouds 25 1012 94 10000 1.03 220 15:25 02.03.2021
1949 Clouds 25 1012 94 10000 1.03 190 14:24 02.03.2021
1950 Clouds 25 1012 94 10000 1.03 190 13:54 02.03.2021
1951 Clouds 25 1012 94 10000 1.54 210 13:36 02.03.2021
1952 Clouds 25 1012 94 10000 1.54 210 13:18 02.03.2021
1953 Rain 26 1013 89 10000 1.03 200 12:29 02.03.2021
1954 Rain 26 1013 89 250 1.03 200 11:54 02.03.2021
1955 Rain 26 1013 89 250 1.03 200 11:54 02.03.2021
1956 Rain 27 1013 83 10000 1.54 220 11:34 02.03.2021
1957 Clouds 27 1013 83 10000 2.06 230 10:58 02.03.2021
1958 Clouds 26 1013 89 10000 1.03 190 10:32 02.03.2021
1959 Clouds 26 1013 89 10000 1.54 200 09:57 02.03.2021
1960 Clouds 26 1012 89 10000 1.54 210 09:39 02.03.2021
1961 Clouds 26 1012 89 10000 1.54 210 09:18 02.03.2021
1962 Clouds 26 1012 89 10000 1.54 210 08:38 02.03.2021
1963 Clouds 27 1012 83 10000 1.03 200 07:52 02.03.2021
1964 Clouds 27 1011 83 10000 1.03 210 06:59 02.03.2021
1965 Clouds 28 1011 74 10000 2.06 230 05:54 02.03.2021
1966 Clouds 28 1011 74 10000 2.06 230 05:34 02.03.2021
1967 Clouds 28 1010 74 10000 3.09 240 04:58 02.03.2021
1968 Clouds 29 1011 70 10000 4.63 250 01:44 02.03.2021
1969 Clouds 29 1011 74 10000 4.12 260 01:22 02.03.2021
1970 Clouds 28 1012 74 10000 4.12 250 23:45 01.03.2021
1971 Clouds 29 1012 74 10000 3.6 250 23:21 01.03.2021
1972 Clouds 28 1013 74 10000 3.6 250 22:40 01.03.2021
1973 Clouds 28 1013 74 10000 3.6 250 22:21 01.03.2021
1974 Clouds 28 1013 74 9000 4.12 250 21:43 01.03.2021
1975 Clouds 28 1013 74 10000 4.12 260 21:23 01.03.2021
1976 Clouds 28 1013 78 10000 3.6 250 20:46 01.03.2021
1977 Clouds 28 1013 78 10000 3.6 250 20:46 01.03.2021
1978 Clouds 28 1012 78 10000 3.09 260 20:27 01.03.2021
1979 Clouds 27 1012 83 10000 1.03 220 19:45 01.03.2021
1980 Clouds 26 1012 83 10000 1.03 210 19:27 01.03.2021
1981 Clouds 25 1012 88 10000 1.54 210 18:44 01.03.2021
1982 Clouds 25 1011 88 10000 1.54 200 18:24 01.03.2021
1983 Clouds 25 1011 88 10000 1.03 200 17:49 01.03.2021
1984 Clouds 26 1011 83 10000 1.54 220 17:24 01.03.2021
1985 Clouds 26 1011 83 10000 1.54 220 16:48 01.03.2021
1986 Clouds 25 1011 88 10000 1.54 220 16:30 01.03.2021
1987 Clouds 26 1010 83 10000 1.54 220 15:58 01.03.2021
1988 Clouds 26 1010 83 10000 2.57 230 15:38 01.03.2021
1989 Clouds 26 1010 83 10000 2.57 230 15:18 01.03.2021
1990 Clouds 26 1010 83 10000 2.06 230 14:40 01.03.2021
1991 Clouds 26 1010 83 10000 2.06 230 14:21 01.03.2021
1992 Clouds 26 1011 83 10000 1.54 220 13:38 01.03.2021
1993 Clouds 26 1011 83 10000 1.54 220 13:20 01.03.2021
1994 Clouds 26 1011 83 10000 2.06 220 12:42 01.03.2021
1995 Rain 26 1011 83 10000 1.54 220 12:24 01.03.2021
1996 Rain 26 1011 83 10000 1.54 220 11:56 01.03.2021
1997 Rain 26 1011 83 10000 2.06 220 11:26 01.03.2021
1998 Rain 27 1011 83 10000 3.09 230 10:42 01.03.2021
1999 Rain 27 1011 83 10000 3.6 230 10:22 01.03.2021
2000 Rain 27 1011 78 10000 4.12 240 09:50 01.03.2021
2001 Rain 27 1011 78 10000 4.12 240 09:31 01.03.2021
2002 Rain 27 1011 83 10000 3.09 230 08:56 01.03.2021
2003 Rain 27 1011 83 10000 3.6 230 08:32 01.03.2021
2004 Rain 27 1010 83 10000 3.09 230 07:32 01.03.2021
2005 Clouds 28 1009 78 10000 4.12 240 06:25 01.03.2021
2006 Clouds 29 1008 79 10000 6.17 260 02:38 01.03.2021
2007 Clouds 28 1010 83 10000 6.17 260 23:47 28.02.2021
2008 Clouds 28 1010 78 10000 5.14 280 22:57 28.02.2021
2009 Clouds 28 1010 78 10000 3.09 290 22:37 28.02.2021
2010 Clouds 28 1010 78 10000 3.09 290 22:18 28.02.2021
2011 Clouds 28 1011 78 10000 3.09 280 21:37 28.02.2021
2012 Clouds 28 1011 78 10000 3.09 280 21:18 28.02.2021
2013 Clouds 27 1010 83 10000 4.12 270 20:39 28.02.2021
2014 Clouds 27 1010 83 10000 4.12 270 20:18 28.02.2021
2015 Clouds 27 1010 83 10000 3.6 270 19:46 28.02.2021
2016 Clouds 27 1010 78 10000 3.6 260 19:24 28.02.2021
2017 Clouds 26 1009 83 10000 2.57 240 18:44 28.02.2021
2018 Clouds 26 1009 83 10000 2.57 240 18:25 28.02.2021
2019 Clouds 26 1009 83 10000 2.57 240 17:51 28.02.2021
2020 Clouds 25 1009 88 10000 2.06 240 17:28 28.02.2021
2021 Clouds 25 1009 88 10000 2.06 230 16:56 28.02.2021
2022 Clouds 25 1008 88 10000 1.54 220 16:38 28.02.2021
2023 Clouds 25 1008 88 10000 1.54 220 16:18 28.02.2021
2024 Clouds 24 1008 94 10000 1.54 200 15:40 28.02.2021
2025 Clouds 24 1008 94 10000 1.54 200 15:22 28.02.2021
2026 Clouds 25 1008 88 10000 1.54 200 14:52 28.02.2021
2027 Clear 25 1008 88 10000 1.54 210 14:28 28.02.2021
2028 Clear 25 1008 88 10000 1.54 210 13:52 28.02.2021
2029 Clouds 26 1008 83 10000 1.54 210 13:21 28.02.2021
2030 Clouds 26 1009 83 10000 2.06 220 12:56 28.02.2021
2031 Clouds 26 1009 83 10000 2.06 230 12:38 28.02.2021
2032 Clouds 26 1009 83 10000 2.06 230 12:19 28.02.2021
2033 Clouds 26 1009 83 10000 2.06 220 11:44 28.02.2021
2034 Clouds 26 1009 83 10000 2.57 220 11:25 28.02.2021
2035 Clouds 27 1009 83 10000 3.6 240 10:54 28.02.2021
2036 Clouds 27 1009 78 10000 2.57 230 10:28 28.02.2021
2037 Clouds 27 1009 83 10000 2.57 240 09:51 28.02.2021
2038 Clouds 27 1009 83 10000 2.57 240 09:51 28.02.2021
2039 Clouds 27 1009 78 10000 2.57 230 09:32 28.02.2021
2040 Clouds 27 1008 83 10000 2.57 230 08:50 28.02.2021
2041 Clouds 27 1008 83 10000 3.09 230 08:31 28.02.2021
2042 Clouds 27 1008 78 10000 3.09 230 07:54 28.02.2021
2043 Clouds 27 1008 83 10000 3.6 230 07:36 28.02.2021
2044 Clouds 27 1007 83 10000 3.6 230 06:43 28.02.2021
2045 Clouds 28 1006 78 10000 4.12 230 05:24 28.02.2021
2046 Clouds 29 1006 79 10000 5.14 250 03:40 28.02.2021
2047 Rain 28 1007 83 10000 7.2 280 01:44 28.02.2021
2048 Rain 29 1007 84 10000 8.75 280 00:50 28.02.2021
2049 Rain 29 1007 84 10000 8.75 270 00:26 28.02.2021
2050 Rain 28 1008 83 10000 8.23 270 23:45 27.02.2021
2051 Rain 27 1008 89 10000 8.23 270 23:19 27.02.2021
2052 Rain 27 1008 89 10000 10.29 270 22:45 27.02.2021
2053 Rain 26 1008 94 10000 6.69 270 22:19 27.02.2021
2054 Rain 25 1008 94 2200 8.75 280 21:42 27.02.2021
2055 Rain 25 1008 94 2200 8.75 280 21:42 27.02.2021
2056 Rain 27 1008 89 10000 8.75 290 21:24 27.02.2021
2057 Rain 27 1008 89 10000 7.72 290 20:49 27.02.2021
2058 Rain 28 1008 83 10000 6.69 300 20:27 27.02.2021
2059 Rain 27 1008 89 10000 7.2 300 19:46 27.02.2021
2060 Rain 26 1008 94 3000 7.2 310 19:27 27.02.2021
2061 Rain 27 1007 83 10000 6.17 300 18:46 27.02.2021
2062 Rain 27 1007 83 10000 5.66 290 18:22 27.02.2021
2063 Rain 27 1007 83 10000 5.14 290 17:58 27.02.2021
2064 Rain 27 1007 83 10000 5.14 290 17:38 27.02.2021
2065 Clouds 27 1007 83 10000 5.14 290 17:18 27.02.2021
2066 Clouds 27 1007 83 10000 5.66 280 16:48 27.02.2021
2067 Clouds 26 1007 89 10000 5.66 270 16:26 27.02.2021
2068 Clouds 26 1007 89 10000 5.66 260 15:43 27.02.2021
2069 Clouds 27 1007 78 10000 5.66 250 15:18 27.02.2021
2070 Clouds 26 1007 83 10000 5.66 260 14:40 27.02.2021
2071 Clouds 26 1007 83 10000 5.66 260 14:20 27.02.2021
2072 Clouds 26 1008 83 10000 5.14 250 13:39 27.02.2021
2073 Clouds 26 1008 83 10000 5.14 250 13:18 27.02.2021
2074 Clouds 26 1008 83 10000 6.69 260 12:40 27.02.2021
2075 Rain 26 1008 83 10000 6.69 260 12:22 27.02.2021
2076 Rain 26 1008 83 10000 5.14 240 11:43 27.02.2021
2077 Clouds 26 1008 83 10000 5.14 240 11:24 27.02.2021
2078 Clouds 26 1009 89 10000 6.69 250 10:47 27.02.2021
2079 Clouds 27 1009 83 10000 9.26 260 10:28 27.02.2021
2080 Clouds 26 1009 83 10000 9.26 260 09:51 27.02.2021
2081 Rain 27 1008 89 10000 9.26 260 09:26 27.02.2021
2082 Rain 27 1008 83 10000 6.17 250 08:42 27.02.2021
2083 Clouds 27 1008 83 10000 6.17 250 08:21 27.02.2021
2084 Clouds 28 1007 83 10000 8.75 260 07:42 27.02.2021
2085 Rain 28 1006 83 10000 9.26 270 05:18 27.02.2021
2086 Rain 29 1007 84 10000 8.75 300 00:56 27.02.2021
2087 Rain 29 1006 84 10000 6.69 290 23:55 26.02.2021
2088 Rain 28 1007 89 10000 7.2 300 23:30 26.02.2021
2089 Rain 28 1008 83 10000 6.17 300 22:59 26.02.2021
2090 Rain 25 1008 94 10000 3.09 270 22:30 26.02.2021
2091 Rain 26 1008 89 10000 4.63 300 21:47 26.02.2021
2092 Rain 25 1008 94 5000 4.63 290 21:28 26.02.2021
2093 Rain 27 1008 89 10000 6.69 300 20:44 26.02.2021
2094 Rain 27 1008 89 10000 6.69 300 20:44 26.02.2021
2095 Rain 27 1008 89 10000 6.69 300 20:22 26.02.2021
2096 Rain 26 1007 94 10000 7.72 290 19:50 26.02.2021
2097 Rain 25 1007 94 4400 8.75 310 19:25 26.02.2021
2098 Rain 27 1006 83 10000 5.66 300 18:42 26.02.2021
2099 Rain 27 1006 83 10000 5.66 300 18:23 26.02.2021
2100 Rain 27 1006 83 10000 4.63 310 17:42 26.02.2021
2101 Rain 27 1006 83 10000 4.63 310 17:24 26.02.2021
2102 Rain 27 1006 83 10000 6.17 300 16:52 26.02.2021
2103 Rain 27 1006 83 10000 6.17 300 16:32 26.02.2021
2104 Rain 26 1006 89 10000 6.69 300 15:57 26.02.2021
2105 Rain 27 1006 83 10000 6.17 280 15:38 26.02.2021
2106 Rain 27 1006 83 10000 6.17 280 15:20 26.02.2021
2107 Rain 27 1006 83 10000 5.66 290 14:45 26.02.2021
2108 Rain 27 1006 83 10000 6.17 280 14:25 26.02.2021
2109 Rain 27 1006 83 10000 6.17 270 13:44 26.02.2021
2110 Rain 27 1006 83 10000 6.17 280 13:24 26.02.2021
2111 Rain 27 1006 89 10000 6.69 280 12:39 26.02.2021
2112 Rain 27 1007 83 10000 7.2 290 11:55 26.02.2021
2113 Rain 27 1007 83 10000 7.2 280 11:37 26.02.2021
2114 Clouds 27 1007 83 10000 6.17 280 10:48 26.02.2021
2115 Rain 27 1007 83 10000 6.17 280 09:58 26.02.2021
2116 Clouds 27 1007 89 10000 5.66 280 09:39 26.02.2021
2117 Rain 27 1007 89 10000 5.66 280 09:20 26.02.2021
2118 Rain 26 1007 89 10000 6.17 280 08:26 26.02.2021
2119 Rain 26 1006 89 10000 6.69 280 07:49 26.02.2021
2120 Rain 24 1006 100 10000 1.54 220 06:43 26.02.2021
2121 Clouds 26 1006 89 10000 5.66 290 05:31 26.02.2021
2122 Rain 24 1004 100 10000 0.51 180 03:48 26.02.2021
2123 Rain 28 1005 78 10000 3.6 310 02:35 26.02.2021
2124 Clouds 29 1005 74 10000 3.6 290 23:57 25.02.2021
2125 Clouds 28 1006 78 10000 3.6 290 23:28 25.02.2021
2126 Clouds 28 1006 78 10000 4.12 260 22:50 25.02.2021
2127 Clouds 28 1006 78 10000 4.12 260 22:50 25.02.2021
2128 Clouds 28 1006 78 10000 2.57 270 22:19 25.02.2021
2129 Clouds 28 1006 78 10000 3.09 260 21:41 25.02.2021
2130 Clouds 28 1006 78 10000 3.09 260 21:23 25.02.2021
2131 Clouds 27 1006 78 10000 2.57 240 20:41 25.02.2021
2132 Clouds 27 1006 78 10000 2.57 240 20:22 25.02.2021
2133 Clouds 27 1006 78 10000 2.06 240 19:52 25.02.2021
2134 Clouds 26 1005 83 10000 1.03 200 19:22 25.02.2021
2135 Rain 26 1005 89 10000 1.03 210 18:57 25.02.2021
2136 Rain 26 1004 83 10000 1.54 220 18:24 25.02.2021
2137 Rain 26 1004 83 10000 1.03 220 17:47 25.02.2021
2138 Rain 26 1003 83 10000 2.06 220 17:25 25.02.2021
2139 Rain 26 1003 83 10000 1.54 220 16:43 25.02.2021
2140 Clouds 26 1003 83 10000 1.54 210 16:24 25.02.2021
2141 Clouds 26 1003 83 10000 2.06 230 15:30 25.02.2021
2142 Clouds 26 1003 83 10000 1.54 220 14:49 25.02.2021
2143 Clouds 26 1003 83 10000 2.57 240 14:22 25.02.2021
2144 Clouds 26 1003 89 10000 1.54 220 13:50 25.02.2021
2145 Clouds 26 1004 89 10000 1.54 210 13:25 25.02.2021
2146 Clouds 26 1004 89 10000 1.54 210 12:47 25.02.2021
2147 Clouds 26 1004 89 10000 1.03 190 12:21 25.02.2021
2148 Clouds 26 1004 89 10000 1.54 200 11:45 25.02.2021
2149 Clouds 26 1004 89 10000 1.03 200 11:19 25.02.2021
2150 Clouds 26 1004 89 10000 1.54 220 10:38 25.02.2021
2151 Clouds 25 1004 94 10000 1.03 200 09:58 25.02.2021
2152 Clouds 26 1004 89 10000 1.03 210 09:38 25.02.2021
2153 Rain 26 1004 89 9000 1.54 230 08:50 25.02.2021
2154 Clouds 26 1003 83 10000 2.06 210 08:22 25.02.2021
2155 Clouds 26 1003 89 10000 2.06 230 07:50 25.02.2021
2156 Clouds 27 1003 83 10000 2.57 230 07:19 25.02.2021
2157 Clouds 27 1001 83 10000 4.12 230 05:57 25.02.2021
2158 Rain 28 1000 83 10000 8.23 270 01:52 25.02.2021
2159 Rain 29 1001 79 10000 7.72 270 01:33 25.02.2021
2160 Clouds 28 1002 83 10000 7.72 280 00:37 25.02.2021
2161 Rain 28 1002 83 10000 7.2 270 23:46 24.02.2021
2162 Rain 28 1002 83 10000 8.75 280 22:58 24.02.2021
2163 Rain 28 1002 83 10000 9.26 280 22:30 24.02.2021
2164 Rain 27 1002 89 10000 9.26 280 21:56 24.02.2021
2165 Rain 27 1003 89 10000 9.26 270 21:34 24.02.2021
2166 Rain 27 1002 89 10000 9.26 270 20:51 24.02.2021
2167 Rain 27 1002 89 10000 10.29 280 20:29 24.02.2021
2168 Rain 27 1002 89 10000 8.75 280 19:51 24.02.2021
2169 Rain 27 1002 89 10000 9.77 280 19:21 24.02.2021
2170 Rain 27 1002 89 10000 9.26 290 18:54 24.02.2021
2171 Rain 26 1002 89 9000 11.32 290 18:31 24.02.2021
2172 Rain 26 1001 89 2500 12.86 270 17:42 24.02.2021
2173 Rain 26 1001 89 2500 12.86 270 17:23 24.02.2021
2174 Rain 27 1002 89 10000 10.8 280 16:48 24.02.2021
2175 Rain 26 1001 89 5000 10.29 260 16:21 24.02.2021
2176 Rain 27 1001 89 10000 12.35 280 15:55 24.02.2021
2177 Rain 25 1001 94 2700 12.86 270 15:32 24.02.2021
2178 Rain 27 1002 83 10000 9.26 290 14:47 24.02.2021
2179 Rain 27 1002 83 10000 9.26 280 14:28 24.02.2021
2180 Rain 27 1002 89 10000 9.77 290 13:43 24.02.2021
2181 Rain 27 1002 89 10000 7.2 300 13:23 24.02.2021
2182 Haze 27 1003 89 5000 6.17 300 12:57 24.02.2021
2183 Rain 26 1004 94 10000 4.63 310 12:35 24.02.2021
2184 Rain 25 1004 100 5000 3.09 30 11:53 24.02.2021
2185 Rain 25 1005 94 4800 3.09 30 11:30 24.02.2021
2186 Rain 25 1005 88 10000 1.54 10 10:40 24.02.2021
2187 Rain 25 1005 88 10000 1.54 10 10:20 24.02.2021
2188 Rain 25 1006 94 8000 4.63 340 09:26 24.02.2021
2189 Rain 24 1006 94 10000 4.12 100 08:45 24.02.2021
2190 Rain 24 1006 88 10000 3.09 100 08:24 24.02.2021
2191 Rain 24 1006 88 10000 3.09 100 08:24 24.02.2021
2192 Rain 23 1006 94 10000 1.03 100 07:37 24.02.2021
2193 Rain 23 1006 94 10000 1.03 100 07:18 24.02.2021
2194 Rain 25 1006 94 2300 2.06 290 05:22 24.02.2021
2195 Rain 25 1007 94 10000 1.54 250 00:47 24.02.2021
2196 Rain 24 1008 94 2100 6.17 290 23:38 23.02.2021
2197 Rain 24 1008 100 1400 7.2 350 22:43 23.02.2021
2198 Rain 24 1007 94 5000 5.66 100 22:21 23.02.2021
2199 Rain 24 1007 94 9000 5.66 100 21:47 23.02.2021
2200 Rain 24 1008 94 10000 4.12 90 21:24 23.02.2021
2201 Rain 24 1008 94 10000 3.09 100 20:49 23.02.2021
2202 Rain 24 1008 94 10000 2.06 110 20:30 23.02.2021
2203 Rain 24 1008 94 10000 2.06 110 20:30 23.02.2021
2204 Rain 24 1008 94 10000 1.03 140 19:49 23.02.2021
2205 Rain 24 1008 94 10000 1.54 120 19:29 23.02.2021
2206 Rain 23 1008 100 10000 1.54 90 18:59 23.02.2021
2207 Rain 23 1008 100 8000 1.03 100 18:40 23.02.2021
2208 Rain 23 1008 100 8000 1.03 100 18:20 23.02.2021
2209 Rain 23 1008 100 10000 1.54 70 17:39 23.02.2021
2210 Rain 24 1008 94 8000 1.03 110 16:58 23.02.2021
2211 Clouds 24 1008 94 10000 1.54 240 16:39 23.02.2021
2212 Rain 24 1008 94 10000 1.54 240 16:20 23.02.2021
2213 Rain 24 1007 94 10000 1.54 200 15:41 23.02.2021
2214 Rain 24 1007 94 10000 1.54 200 15:21 23.02.2021
2215 Rain 24 1008 94 10000 1.54 210 14:45 23.02.2021
2216 Rain 24 1008 94 10000 1.54 220 14:26 23.02.2021
2217 Rain 25 1009 88 10000 2.57 240 13:47 23.02.2021
2218 Rain 25 1009 88 10000 2.57 240 13:47 23.02.2021
2219 Rain 25 1009 83 10000 5.66 260 13:26 23.02.2021
2220 Rain 25 1009 83 10000 5.14 260 12:52 23.02.2021
2221 Rain 25 1009 83 10000 4.12 250 12:22 23.02.2021
2222 Rain 24 1009 94 10000 2.06 220 11:51 23.02.2021
2223 Rain 24 1010 94 10000 2.06 210 11:23 23.02.2021
2224 Rain 24 1010 94 10000 2.57 220 10:53 23.02.2021
2225 Rain 24 1010 94 10000 3.09 210 10:35 23.02.2021
2226 Rain 23 1010 94 10000 3.6 220 09:45 23.02.2021
2227 Rain 23 1010 94 10000 3.6 220 09:45 23.02.2021
2228 Rain 24 1010 94 4700 6.17 240 09:25 23.02.2021
2229 Rain 25 1009 94 10000 8.23 250 08:54 23.02.2021
2230 Rain 25 1010 88 10000 5.14 250 08:25 23.02.2021
2231 Rain 25 1009 78 10000 4.63 240 07:58 23.02.2021
2232 Rain 25 1008 88 10000 1.03 20 05:40 23.02.2021
2233 Rain 26 1008 89 10000 1.03 50 04:58 23.02.2021
2234 Rain 24 1008 94 8000 7.2 250 02:34 23.02.2021
2235 Rain 25 1009 94 10000 5.66 70 00:20 23.02.2021
2236 Rain 25 1009 94 10000 3.6 90 23:52 22.02.2021
2237 Rain 25 1010 94 10000 5.66 70 23:20 22.02.2021
2238 Rain 26 1010 89 10000 5.66 80 22:41 22.02.2021
2239 Rain 26 1010 89 10000 5.66 80 22:20 22.02.2021
2240 Rain 25 1010 94 10000 4.63 80 21:41 22.02.2021
2241 Rain 25 1010 94 10000 4.63 80 21:22 22.02.2021
2242 Rain 25 1010 94 10000 4.12 80 20:51 22.02.2021
2243 Rain 24 1010 100 10000 3.09 90 20:27 22.02.2021
2244 Rain 24 1010 94 10000 1.54 100 19:51 22.02.2021
2245 Rain 23 1010 100 10000 2.06 90 19:31 22.02.2021
2246 Rain 23 1009 94 10000 3.6 100 18:56 22.02.2021
2247 Rain 23 1009 100 8000 5.66 80 18:37 22.02.2021
2248 Rain 23 1009 100 8000 5.66 80 18:18 22.02.2021
2249 Rain 23 1009 100 10000 1.54 90 17:24 22.02.2021
2250 Rain 23 1008 100 10000 1.03 130 16:54 22.02.2021
2251 Rain 24 1008 94 8000 2.06 100 16:31 22.02.2021
2252 Rain 24 1008 94 5000 3.6 70 15:42 22.02.2021
2253 Rain 24 1008 94 5000 3.6 70 15:21 22.02.2021
2254 Rain 27 1008 78 7736 5.61 112 14:44 22.02.2021
2255 Rain 27 1008 78 7422 6.33 116 14:22 22.02.2021
2256 Rain 27 1008 78 7422 6.33 116 13:45 22.02.2021
2257 Rain 27 1009 77 10000 5.86 102 12:56 22.02.2021
2258 Rain 27 1010 76 10000 5.8 108 12:23 22.02.2021
2259 Rain 27 1010 76 10000 5.8 108 11:57 22.02.2021
2260 Rain 24 1009 100 10000 1.03 140 11:32 22.02.2021
2261 Rain 24 1009 100 10000 1.03 140 10:59 22.02.2021
2262 Rain 24 1009 100 10000 1.03 140 10:41 22.02.2021
2263 Rain 24 1009 100 10000 1.03 140 10:20 22.02.2021
2264 Rain 24 1009 100 10000 1.03 140 10:20 22.02.2021
2265 Rain 25 1009 100 10000 1.54 340 09:38 22.02.2021
2266 Rain 25 1009 100 10000 1.54 340 09:19 22.02.2021
2267 Rain 24 1009 100 5000 1.54 160 08:49 22.02.2021
2268 Rain 24 1009 100 9000 0.51 120 08:21 22.02.2021
2269 Rain 24 1009 100 10000 0.51 90 07:46 22.02.2021
2270 Rain 24 1008 100 10000 1.03 240 07:22 22.02.2021
2271 Rain 24 1008 100 2800 4.12 120 06:26 22.02.2021
2272 Rain 25 1007 94 10000 1.03 100 04:27 22.02.2021
2273 Rain 27 1007 83 10000 3.09 90 03:22 22.02.2021
2274 Rain 27 1008 78 10000 3.09 130 00:54 22.02.2021
2275 Rain 28 1008 78 10000 2.57 150 00:29 22.02.2021
2276 Rain 28 1008 78 10000 3.6 150 23:55 21.02.2021
2277 Rain 28 1008 78 10000 2.57 110 23:23 21.02.2021
2278 Rain 26 1008 89 4300 2.06 160 22:28 21.02.2021
2279 Rain 28 1008 69 10000 2.06 120 21:52 21.02.2021
2280 Rain 28 1008 74 10000 3.09 110 21:33 21.02.2021
2281 Rain 28 1008 74 10000 2.57 130 20:57 21.02.2021
2282 Rain 28 1008 74 10000 3.09 120 20:23 21.02.2021
2283 Rain 27 1008 78 10000 3.09 120 19:59 21.02.2021
2284 Clouds 26 1007 83 10000 2.06 130 19:40 21.02.2021
2285 Clouds 26 1007 83 10000 2.06 130 19:21 21.02.2021
2286 Rain 26 1007 83 7000 2.57 120 18:28 21.02.2021
2287 Rain 26 1006 83 10000 2.57 140 17:52 21.02.2021
2288 Drizzle 25 1006 88 10000 1.54 130 17:24 21.02.2021
2289 Clouds 24 1006 94 10000 1.54 130 16:52 21.02.2021
2290 Clouds 24 1006 94 10000 1.03 70 16:31 21.02.2021
2291 Clouds 24 1006 94 10000 1.54 170 15:36 21.02.2021
2292 Clouds 24 1006 94 10000 1.54 170 15:18 21.02.2021
2293 Clouds 25 1005 88 10000 1.03 180 14:39 21.02.2021
2294 Clouds 25 1005 88 10000 1.03 180 14:18 21.02.2021
2295 Rain 26 1006 83 10000 2.06 120 13:30 21.02.2021
2296 Rain 26 1006 83 10000 2.06 140 12:56 21.02.2021
2297 Rain 25 1007 88 10000 1.03 130 12:27 21.02.2021
2298 Rain 26 1007 78 10000 2.06 140 11:43 21.02.2021
2299 Clouds 26 1007 83 10000 3.09 150 10:52 21.02.2021
2300 Clouds 25 1007 88 10000 2.57 140 10:22 21.02.2021
2301 Rain 25 1007 88 10000 2.06 130 09:52 21.02.2021
2302 Rain 25 1007 88 10000 3.09 140 09:26 21.02.2021
2303 Clouds 26 1006 78 10000 3.6 130 08:43 21.02.2021
2304 Clouds 26 1006 78 10000 3.6 130 08:19 21.02.2021
2305 Clouds 26 1005 83 10000 2.06 120 07:30 21.02.2021
2306 Rain 26 1005 83 10000 2.57 120 06:46 21.02.2021
2307 Rain 28 1005 78 10000 5.14 90 02:45 21.02.2021
2308 Rain 28 1005 78 10000 3.09 90 02:24 21.02.2021
2309 Rain 28 1006 78 10000 5.14 80 00:36 21.02.2021
2310 Rain 28 1006 78 10000 5.14 80 00:18 21.02.2021
2311 Rain 28 1007 78 10000 5.14 80 22:59 20.02.2021
2312 Rain 27 1007 83 10000 6.17 80 22:38 20.02.2021
2313 Rain 27 1007 78 10000 3.09 90 21:59 20.02.2021
2314 Rain 26 1007 83 10000 2.06 110 21:41 20.02.2021
2315 Rain 26 1007 83 10000 2.06 110 21:18 20.02.2021
2316 Rain 25 1007 88 10000 1.03 80 20:42 20.02.2021
2317 Rain 25 1007 88 10000 1.03 80 20:20 20.02.2021
2318 Rain 24 1006 94 10000 1.54 140 19:48 20.02.2021
2319 Rain 24 1005 88 10000 3.09 100 18:58 20.02.2021
2320 Rain 23 1005 94 10000 3.09 100 18:37 20.02.2021
2321 Rain 23 1005 94 10000 3.09 100 18:18 20.02.2021
2322 Rain 23 1005 100 10000 2.06 90 17:36 20.02.2021
2323 Rain 23 1005 100 10000 1.03 170 16:50 20.02.2021
2324 Rain 23 1005 100 10000 1.54 140 16:27 20.02.2021
2325 Rain 23 1006 100 10000 1.03 110 15:44 20.02.2021
2326 Rain 23 1005 100 10000 2.06 100 14:53 20.02.2021
2327 Rain 24 1006 94 10000 1.54 60 14:29 20.02.2021
2328 Rain 24 1006 94 10000 2.06 80 13:59 20.02.2021
2329 Rain 23 1006 100 10000 1.03 90 13:40 20.02.2021
2330 Rain 23 1006 100 10000 1.03 90 13:21 20.02.2021
2331 Rain 24 1007 94 5000 3.09 100 12:46 20.02.2021
2332 Rain 22 1007 100 10000 1.03 170 11:56 20.02.2021
2333 Rain 22 1007 100 10000 1.03 90 11:36 20.02.2021
2334 Rain 22 1008 100 9000 0.51 140 10:53 20.02.2021
2335 Rain 22 1008 100 10000 0.51 190 10:29 20.02.2021
2336 Rain 23 1008 100 10000 0.51 200 09:48 20.02.2021
2337 Rain 23 1008 100 10000 1.03 190 08:56 20.02.2021
2338 Rain 23 1007 100 10000 1.03 170 08:27 20.02.2021
2339 Rain 23 1007 100 10000 0.51 150 07:50 20.02.2021
2340 Rain 24 1007 94 8000 4.63 300 02:32 20.02.2021
2341 Rain 24 1007 94 8000 4.63 300 02:32 20.02.2021
2342 Rain 24 1007 100 8000 1.03 360 01:59 20.02.2021
2343 Mist 24 1007 94 5000 2.57 310 01:18 20.02.2021
2344 Rain 23 1008 100 2300 7.2 260 00:39 20.02.2021
2345 Rain 24 1009 100 3500 2.06 40 23:41 19.02.2021
2346 Rain 24 1009 100 2200 5.14 240 22:48 19.02.2021
2347 Rain 26 1008 89 10000 5.66 330 22:25 19.02.2021
2348 Rain 27 1009 78 10000 6.17 290 21:44 19.02.2021
2349 Rain 27 1009 78 10000 6.17 310 21:23 19.02.2021
2350 Rain 27 1009 83 10000 7.2 330 20:42 19.02.2021
2351 Rain 27 1008 83 10000 5.66 340 20:24 19.02.2021
2352 Rain 27 1008 83 10000 6.17 340 19:47 19.02.2021
2353 Rain 27 1008 83 10000 5.14 340 19:20 19.02.2021
2354 Rain 27 1008 83 10000 5.14 320 18:50 19.02.2021
2355 Rain 27 1008 83 10000 4.63 340 18:26 19.02.2021
2356 Rain 26 1008 83 10000 6.17 330 17:39 19.02.2021
2357 Rain 26 1007 89 10000 6.69 330 16:43 19.02.2021
2358 Rain 26 1007 89 10000 4.63 330 16:22 19.02.2021
2359 Rain 26 1007 89 10000 4.12 340 15:55 19.02.2021
2360 Rain 25 1007 94 10000 5.14 350 15:30 19.02.2021
2361 Rain 25 1008 94 10000 5.14 350 14:49 19.02.2021
2362 Rain 25 1008 88 10000 3.6 360 14:29 19.02.2021
2363 Rain 24 1008 94 10000 1.54 80 13:56 19.02.2021
2364 Rain 24 1008 94 10000 3.09 350 13:36 19.02.2021
2365 Rain 24 1009 94 10000 6.69 330 12:53 19.02.2021
2366 Rain 25 1009 94 10000 4.63 330 12:27 19.02.2021
2367 Rain 25 1009 94 10000 4.63 330 11:57 19.02.2021
2368 Rain 25 1010 94 10000 2.06 310 11:32 19.02.2021
2369 Rain 25 1010 94 10000 2.57 310 10:55 19.02.2021
2370 Rain 24 1010 100 9000 1.03 100 10:32 19.02.2021
2371 Rain 23 1010 100 10000 0.51 150 09:52 19.02.2021
2372 Rain 23 1010 100 6000 1.03 70 09:27 19.02.2021
2373 Rain 23 1010 100 10000 2.57 100 08:55 19.02.2021
2374 Rain 23 1010 100 4900 2.06 90 08:28 19.02.2021
2375 Rain 24 1010 100 10000 1.54 100 07:54 19.02.2021
2376 Rain 24 1009 100 10000 1.03 120 07:35 19.02.2021
2377 Rain 25 1009 94 10000 1.54 170 06:58 19.02.2021
2378 Rain 25 1008 94 10000 2.57 260 06:29 19.02.2021
2379 Rain 25 1008 88 10000 4.12 290 04:41 19.02.2021
2380 Rain 25 1009 88 8000 8.23 310 01:49 19.02.2021
2381 Rain 26 1010 94 10000 5.66 300 00:38 19.02.2021
2382 Rain 26 1010 94 10000 6.69 290 23:56 18.02.2021
2383 Rain 26 1010 89 10000 7.2 290 23:35 18.02.2021
2384 Rain 25 1011 94 6000 7.72 290 22:51 18.02.2021
2385 Rain 25 1011 100 9000 6.17 310 22:30 18.02.2021
2386 Rain 26 1011 94 7000 5.14 290 21:55 18.02.2021
2387 Rain 25 1011 100 4500 4.12 290 21:27 18.02.2021
2388 Rain 25 1011 94 6000 8.23 280 20:44 18.02.2021
2389 Rain 24 1011 100 1700 11.83 270 20:24 18.02.2021
2390 Rain 26 1010 94 10000 8.23 270 19:48 18.02.2021
2391 Rain 26 1010 94 10000 4.12 310 19:30 18.02.2021
2392 Rain 26 1010 94 10000 7.72 280 18:55 18.02.2021
2393 Rain 25 1010 94 9000 9.26 290 18:32 18.02.2021
2394 Rain 24 1010 100 1300 8.23 300 17:59 18.02.2021
2395 Rain 27 1009 89 10000 6.69 320 17:41 18.02.2021
2396 Rain 27 1009 89 10000 6.69 320 17:19 18.02.2021
2397 Rain 27 1009 83 10000 6.17 310 16:41 18.02.2021
2398 Rain 27 1009 83 10000 6.17 310 16:21 18.02.2021
2399 Rain 27 1010 89 10000 7.2 310 15:39 18.02.2021
2400 Rain 27 1010 89 10000 7.2 310 15:21 18.02.2021
2401 Rain 28 1010 83 10000 7.2 320 14:49 18.02.2021
2402 Rain 28 1010 78 10000 6.69 300 14:29 18.02.2021
2403 Rain 28 1010 78 10000 6.17 310 13:46 18.02.2021
2404 Rain 28 1011 78 10000 6.17 320 13:20 18.02.2021
2405 Rain 28 1011 78 10000 5.66 320 12:47 18.02.2021
2406 Rain 28 1011 78 10000 5.14 330 12:23 18.02.2021
2407 Rain 28 1011 78 10000 5.66 320 11:46 18.02.2021
2408 Rain 27 1012 83 10000 6.17 350 11:27 18.02.2021
2409 Rain 28 1012 78 10000 5.66 330 10:47 18.02.2021
2410 Rain 28 1012 78 10000 5.14 340 10:29 18.02.2021
2411 Rain 28 1012 78 10000 5.14 340 09:49 18.02.2021
2412 Rain 27 1012 89 10000 4.12 350 09:24 18.02.2021
2413 Rain 27 1012 83 10000 5.66 330 08:47 18.02.2021
2414 Rain 27 1012 89 10000 5.66 320 08:25 18.02.2021
2415 Rain 27 1011 83 10000 4.63 330 07:34 18.02.2021
2416 Clouds 27 1011 83 10000 5.66 330 06:53 18.02.2021
2417 Clouds 28 1011 78 10000 5.66 330 02:54 18.02.2021
2418 Clouds 29 1012 79 10000 2.57 330 23:55 17.02.2021
2419 Clouds 28 1012 83 10000 5.66 340 23:24 17.02.2021
2420 Clouds 29 1013 79 10000 2.57 350 22:52 17.02.2021
2421 Rain 29 1013 74 10000 1.54 330 22:26 17.02.2021
2422 Rain 29 1013 74 10000 2.06 350 21:54 17.02.2021
2423 Rain 28 1013 78 10000 1.03 360 21:22 17.02.2021
2424 Rain 28 1013 83 10000 1.54 10 20:48 17.02.2021
2425 Rain 27 1013 89 10000 1.54 340 20:29 17.02.2021
2426 Rain 27 1013 89 10000 1.54 360 19:49 17.02.2021
2427 Rain 25 1013 100 10000 0.51 80 19:31 17.02.2021
2428 Clouds 25 1013 100 10000 0.51 180 18:45 17.02.2021
2429 Rain 25 1012 100 10000 0.51 120 18:25 17.02.2021
2430 Rain 25 1012 100 10000 1.03 100 17:41 17.02.2021
2431 Rain 25 1012 100 10000 1.03 100 17:41 17.02.2021
2432 Rain 25 1012 100 10000 1.03 100 17:19 17.02.2021
2433 Rain 25 1012 100 10000 1.03 120 16:46 17.02.2021
2434 Rain 25 1012 100 10000 2.57 100 16:25 17.02.2021
2435 Rain 25 1011 100 3900 1.03 130 15:44 17.02.2021
2436 Rain 25 1012 100 10000 0.51 140 15:25 17.02.2021
2437 Rain 25 1012 94 10000 0.51 190 14:48 17.02.2021
2438 Clouds 25 1012 94 10000 1.03 100 14:29 17.02.2021
2439 Clouds 25 1012 94 10000 0.51 90 13:48 17.02.2021
2440 Clouds 25 1012 94 10000 1.03 100 13:29 17.02.2021
2441 Clouds 25 1012 94 10000 0.51 100 12:47 17.02.2021
2442 Clouds 25 1013 94 10000 0.51 100 12:24 17.02.2021
2443 Clouds 25 1013 94 10000 1.03 100 11:44 17.02.2021
2444 Clouds 25 1014 94 10000 1.03 170 11:22 17.02.2021
2445 Clouds 25 1014 94 10000 1.03 180 10:49 17.02.2021
2446 Clouds 25 1014 94 10000 0.51 150 10:31 17.02.2021
2447 Clouds 25 1013 94 10000 0.51 140 09:52 17.02.2021
2448 Rain 25 1013 94 10000 1.03 90 09:29 17.02.2021
2449 Rain 26 1013 89 10000 1.54 80 08:45 17.02.2021
2450 Rain 26 1013 89 10000 0.51 100 08:22 17.02.2021
2451 Rain 28 1012 78 10000 1.54 30 07:34 17.02.2021
2452 Rain 28 1012 78 10000 2.06 10 06:35 17.02.2021
2453 Clouds 29 1012 74 10000 2.57 40 02:44 17.02.2021
2454 Clouds 29 1012 74 10000 3.09 40 02:22 17.02.2021
2455 Clouds 29 1013 79 10000 3.6 10 00:35 17.02.2021
2456 Clouds 29 1013 79 10000 3.6 40 23:57 16.02.2021
2457 Clouds 29 1013 79 10000 2.57 40 23:38 16.02.2021
2458 Clouds 28 1013 78 10000 2.57 50 22:45 16.02.2021
2459 Clouds 28 1013 74 10000 1.54 350 22:25 16.02.2021
2460 Clouds 28 1013 74 10000 1.54 350 22:25 16.02.2021
2461 Clouds 28 1013 78 10000 1.03 320 21:57 16.02.2021
2462 Clouds 27 1013 89 10000 1.54 100 21:39 16.02.2021
2463 Clouds 27 1013 89 10000 1.54 100 21:20 16.02.2021
2464 Clouds 25 1013 100 10000 1.03 260 20:42 16.02.2021
2465 Clouds 25 1013 100 10000 1.03 260 20:20 16.02.2021
2466 Rain 25 1014 94 10000 1.54 100 19:44 16.02.2021
2467 Rain 25 1013 94 10000 2.06 90 19:25 16.02.2021
2468 Rain 24 1013 100 3200 4.12 120 18:41 16.02.2021
2469 Mist 24 1013 100 3200 4.12 120 18:22 16.02.2021
2470 Clouds 25 1012 94 10000 1.03 100 17:53 16.02.2021
2471 Clouds 25 1012 94 10000 0.51 110 17:27 16.02.2021
2472 Clouds 24 1012 100 10000 1.03 130 16:52 16.02.2021
2473 Rain 24 1012 100 10000 1.03 90 16:29 16.02.2021
2474 Rain 25 1011 94 10000 0.51 170 15:47 16.02.2021
2475 Rain 25 1011 94 10000 0.51 150 15:29 16.02.2021
2476 Rain 25 1011 94 10000 1.03 90 14:55 16.02.2021
2477 Rain 25 1011 94 10000 1.03 100 14:36 16.02.2021
2478 Rain 25 1011 94 10000 1.03 100 14:18 16.02.2021
2479 Rain 25 1012 94 10000 1.03 50 13:37 16.02.2021
2480 Rain 26 1012 89 10000 1.03 90 12:47 16.02.2021
2481 Clouds 26 1012 89 10000 1.54 100 12:26 16.02.2021
2482 Clouds 26 1013 89 10000 1.54 100 11:55 16.02.2021
2483 Clouds 26 1013 89 10000 1.54 100 11:55 16.02.2021
2484 Clouds 26 1013 89 10000 2.06 80 11:37 16.02.2021
2485 Clouds 26 1013 89 10000 2.06 80 11:18 16.02.2021
2486 Clouds 26 1013 89 10000 1.54 110 10:45 16.02.2021
2487 Clouds 26 1013 89 10000 1.54 110 10:25 16.02.2021
2488 Clouds 26 1013 83 10000 1.54 100 09:48 16.02.2021
2489 Clouds 26 1013 83 10000 1.54 100 09:26 16.02.2021
2490 Clouds 27 1013 74 10000 2.06 40 08:48 16.02.2021
2491 Clouds 27 1012 83 10000 2.57 50 08:26 16.02.2021
2492 Clouds 27 1012 78 10000 3.6 30 07:32 16.02.2021
2493 Clear 28 1010 74 10000 3.6 80 06:24 16.02.2021
2494 Clear 30 1010 70 10000 2.57 280 01:52 16.02.2021
2495 Clear 29 1011 74 10000 2.06 300 23:47 15.02.2021
2496 Clear 29 1011 74 10000 2.06 280 23:24 15.02.2021
2497 Clear 29 1011 74 10000 3.09 280 22:46 15.02.2021
2498 Clear 29 1011 74 10000 3.09 280 22:23 15.02.2021
2499 Clear 28 1011 78 10000 2.06 270 21:42 15.02.2021
2500 Clear 28 1011 78 10000 2.06 270 21:23 15.02.2021
2501 Clear 27 1011 83 10000 2.06 310 20:49 15.02.2021
2502 Clear 27 1011 83 10000 0.51 260 20:29 15.02.2021
2503 Clouds 26 1011 89 10000 1.03 110 19:48 15.02.2021
2504 Clouds 25 1011 94 10000 1.03 140 19:24 15.02.2021
2505 Clouds 25 1011 94 10000 1.03 140 19:24 15.02.2021
2506 Clouds 25 1011 94 10000 1.03 110 18:47 15.02.2021
2507 Clouds 25 1010 94 10000 1.54 190 18:26 15.02.2021
2508 Clouds 25 1010 94 10000 0.51 100 17:44 15.02.2021
2509 Clouds 26 1010 89 10000 2.06 350 17:26 15.02.2021
2510 Clouds 26 1010 89 10000 4.12 330 16:57 15.02.2021
2511 Clouds 25 1009 94 10000 1.03 130 16:28 15.02.2021
2512 Clouds 24 1009 94 10000 1.03 120 15:57 15.02.2021
2513 Clouds 24 1009 100 10000 1.54 190 15:38 15.02.2021
2514 Clouds 24 1009 100 10000 1.54 190 15:18 15.02.2021
2515 Clouds 25 1009 94 10000 1.54 190 14:38 15.02.2021
2516 Clouds 25 1009 94 10000 1.54 190 14:19 15.02.2021
2517 Clouds 25 1009 94 10000 1.54 200 13:47 15.02.2021
2518 Rain 25 1009 94 10000 1.54 180 13:19 15.02.2021
2519 Rain 25 1010 94 10000 1.03 80 12:45 15.02.2021
2520 Rain 25 1010 94 2700 2.57 240 12:21 15.02.2021
2521 Rain 25 1010 94 10000 1.03 190 11:42 15.02.2021
2522 Rain 25 1010 94 10000 1.03 190 11:19 15.02.2021
2523 Rain 26 1010 94 10000 1.54 140 10:47 15.02.2021
2524 Rain 26 1010 89 4900 2.06 300 10:24 15.02.2021
2525 Clouds 26 1010 89 10000 0.51 190 09:55 15.02.2021
2526 Clouds 26 1010 89 10000 1.03 170 09:33 15.02.2021
2527 Clouds 26 1009 89 10000 1.54 190 08:45 15.02.2021
2528 Clouds 28 1009 74 10000 1.03 340 07:39 15.02.2021
2529 Clouds 28 1009 74 10000 1.54 290 06:53 15.02.2021
2530 Clouds 28 1008 74 10000 2.06 270 06:34 15.02.2021
2531 Clouds 30 1008 70 10000 3.09 260 02:29 15.02.2021
2532 Clouds 30 1009 74 10000 3.6 260 00:41 15.02.2021
2533 Clouds 29 1010 74 10000 3.6 260 23:33 14.02.2021
2534 Clouds 29 1010 74 10000 3.6 260 22:54 14.02.2021
2535 Clear 29 1010 74 10000 3.6 260 22:36 14.02.2021
2536 Clear 29 1010 74 10000 3.6 260 22:18 14.02.2021
2537 Clear 29 1010 74 10000 3.6 260 22:18 14.02.2021
2538 Clouds 29 1010 79 10000 2.06 240 21:42 14.02.2021
2539 Clouds 29 1010 79 10000 2.06 240 21:21 14.02.2021
2540 Clear 28 1010 78 10000 2.57 260 20:39 14.02.2021
2541 Clear 28 1010 78 10000 2.57 260 20:20 14.02.2021
2542 Clouds 27 1010 83 10000 0.51 220 19:40 14.02.2021
2543 Rain 26 1009 89 10000 1.54 270 18:49 14.02.2021
2544 Rain 26 1009 89 10000 4.63 280 18:29 14.02.2021
2545 Rain 26 1009 83 10000 3.09 260 17:49 14.02.2021
2546 Rain 26 1009 83 10000 2.57 250 17:30 14.02.2021
2547 Rain 26 1008 89 10000 3.6 280 16:43 14.02.2021
2548 Rain 26 1008 89 10000 3.6 270 16:24 14.02.2021
2549 Rain 25 1008 94 10000 3.09 270 15:46 14.02.2021
2550 Rain 25 1008 94 10000 1.03 200 15:26 14.02.2021
2551 Rain 24 1008 94 10000 2.06 190 14:42 14.02.2021
2552 Rain 24 1009 94 10000 1.54 170 14:20 14.02.2021
2553 Rain 24 1009 94 10000 1.54 190 13:38 14.02.2021
2554 Rain 24 1009 94 10000 1.54 190 13:20 14.02.2021
2555 Rain 26 1010 83 10000 3.09 240 12:23 14.02.2021
2556 Rain 25 1010 94 10000 1.03 190 11:52 14.02.2021
2557 Rain 25 1010 94 10000 1.54 170 11:26 14.02.2021
2558 Rain 26 1010 89 10000 4.12 320 10:57 14.02.2021
2559 Rain 25 1010 94 10000 1.03 220 09:59 14.02.2021
2560 Rain 25 1010 94 10000 1.54 200 09:40 14.02.2021
2561 Rain 25 1010 94 10000 1.54 200 09:21 14.02.2021
2562 Rain 25 1010 94 10000 1.54 200 08:43 14.02.2021
2563 Rain 27 1009 83 10000 4.12 290 07:58 14.02.2021
2564 Clouds 28 1009 74 10000 2.57 280 06:54 14.02.2021
2565 Clouds 29 1008 74 10000 2.06 320 05:43 14.02.2021
2566 Clear 29 1008 74 10000 3.09 280 03:33 14.02.2021
2567 Rain 29 1009 74 10000 3.6 280 02:29 14.02.2021
2568 Rain 30 1010 70 10000 3.6 310 00:48 14.02.2021
2569 Rain 29 1010 70 10000 3.09 310 00:29 14.02.2021
2570 Rain 29 1010 74 10000 3.09 310 23:41 13.02.2021
2571 Rain 29 1010 74 10000 3.09 310 23:21 13.02.2021
2572 Rain 29 1011 74 10000 3.09 320 22:43 13.02.2021
2573 Rain 29 1011 74 10000 2.57 340 22:20 13.02.2021
2574 Rain 29 1011 70 10000 2.06 330 21:42 13.02.2021
2575 Rain 29 1011 74 10000 2.06 330 21:21 13.02.2021
2576 Rain 28 1011 83 10000 1.03 60 20:30 13.02.2021
2577 Rain 28 1011 83 10000 1.03 50 19:56 13.02.2021
2578 Rain 26 1011 94 10000 1.54 110 19:37 13.02.2021
2579 Rain 26 1011 94 10000 1.54 110 19:18 13.02.2021
2580 Rain 24 1010 94 10000 0.51 100 18:40 13.02.2021
2581 Rain 23 1010 100 10000 0.51 120 17:57 13.02.2021
2582 Rain 23 1010 100 10000 0.51 110 17:38 13.02.2021
2583 Rain 23 1010 100 10000 0.51 110 17:19 13.02.2021
2584 Rain 24 1010 100 10000 0.51 130 16:42 13.02.2021
2585 Rain 24 1010 100 10000 0.51 130 16:18 13.02.2021
2586 Rain 24 1009 100 10000 0.51 160 15:29 13.02.2021
2587 Rain 24 1010 100 10000 1.03 170 14:50 13.02.2021
2588 Rain 24 1010 100 10000 0.51 170 14:30 13.02.2021
2589 Clouds 24 1010 100 10000 1.54 190 13:44 13.02.2021
2590 Clouds 24 1010 100 10000 0.51 170 13:24 13.02.2021
2591 Clouds 24 1010 100 10000 0.51 140 12:41 13.02.2021
2592 Clouds 24 1010 100 10000 0.51 140 12:18 13.02.2021
2593 Clouds 25 1011 94 10000 1.03 170 11:41 13.02.2021
2594 Clouds 25 1011 94 10000 1.03 170 11:19 13.02.2021
2595 Clouds 25 1011 94 10000 1.54 100 10:44 13.02.2021
2596 Rain 26 1011 89 10000 1.03 360 10:23 13.02.2021
2597 Clouds 25 1011 94 10000 1.54 190 09:52 13.02.2021
2598 Rain 26 1011 83 10000 2.57 160 09:29 13.02.2021
2599 Clouds 26 1011 83 10000 1.03 190 08:53 13.02.2021
2600 Clouds 26 1011 83 10000 1.03 200 08:30 13.02.2021
2601 Clouds 26 1010 83 10000 1.03 190 07:45 13.02.2021
2602 Clear 28 1010 69 10000 2.57 260 06:35 13.02.2021
2603 Clear 29 1009 65 10000 2.57 260 05:18 13.02.2021
2604 Clouds 29 1009 65 10000 2.06 300 03:44 13.02.2021
2605 Clouds 30 1010 66 10000 2.06 320 01:25 13.02.2021
2606 Rain 29 1011 70 10000 2.57 290 00:19 13.02.2021
2607 Rain 29 1011 74 10000 1.54 320 23:45 12.02.2021
2608 Rain 28 1011 74 10000 1.54 300 23:19 12.02.2021
2609 Rain 29 1012 70 10000 1.54 320 22:32 12.02.2021
2610 Rain 28 1012 74 10000 2.06 50 21:59 12.02.2021
2611 Rain 28 1012 74 10000 1.54 340 21:40 12.02.2021
2612 Rain 28 1012 74 10000 1.54 340 21:21 12.02.2021
2613 Rain 28 1012 74 10000 1.03 40 20:41 12.02.2021
2614 Rain 28 1012 74 10000 1.03 40 20:41 12.02.2021
2615 Rain 28 1012 74 10000 1.03 40 20:23 12.02.2021
2616 Rain 27 1012 78 10000 0.51 350 19:54 12.02.2021
2617 Clouds 26 1012 89 10000 1.03 190 19:29 12.02.2021
2618 Rain 23 1011 94 10000 1.03 180 18:35 12.02.2021
2619 Clouds 23 1011 94 10000 1.03 180 17:56 12.02.2021
2620 Clouds 23 1011 100 10000 1.03 180 17:35 12.02.2021
2621 Clouds 23 1011 100 10000 1.03 180 16:53 12.02.2021
2622 Clouds 23 1011 100 10000 1.54 170 16:18 12.02.2021
2623 Clouds 23 1011 94 10000 1.03 180 15:41 12.02.2021
2624 Clouds 23 1011 94 10000 1.03 180 15:19 12.02.2021
2625 Clouds 23 1011 100 10000 1.03 180 14:34 12.02.2021
2626 Clouds 23 1011 100 10000 1.54 190 13:49 12.02.2021
2627 Clouds 23 1011 100 10000 1.54 190 13:29 12.02.2021
2628 Clouds 23 1011 100 10000 1.03 180 12:53 12.02.2021
2629 Clouds 23 1012 100 10000 1.03 180 12:35 12.02.2021
2630 Clouds 23 1012 100 10000 0.51 160 11:47 12.02.2021
2631 Clouds 24 1013 94 10000 0.51 170 11:21 12.02.2021
2632 Clouds 24 1013 94 10000 0.51 190 10:48 12.02.2021
2633 Clouds 24 1013 94 10000 0.51 140 09:59 12.02.2021
2634 Clouds 24 1013 94 10000 0.51 170 09:39 12.02.2021
2635 Clouds 24 1013 94 10000 0.51 170 09:21 12.02.2021
2636 Clouds 25 1013 88 10000 0.51 170 08:44 12.02.2021
2637 Clouds 25 1012 94 10000 0.51 180 08:21 12.02.2021
2638 Clouds 25 1012 94 10000 0.51 140 07:51 12.02.2021
2639 Clouds 26 1012 89 10000 1.03 170 07:21 12.02.2021
2640 Clouds 29 1011 70 10000 0.51 230 06:18 12.02.2021
2641 Clouds 29 1011 65 10000 1.03 60 05:27 12.02.2021
2642 Clouds 28 1012 69 10000 1.54 90 01:59 12.02.2021
2643 Rain 24 1013 88 9000 2.06 160 23:58 11.02.2021
2644 Rain 24 1013 83 6000 3.09 140 23:23 11.02.2021
2645 Rain 24 1013 83 4300 3.6 170 22:58 11.02.2021
2646 Rain 26 1013 83 10000 2.57 170 22:40 11.02.2021
2647 Rain 26 1013 83 10000 2.57 170 22:21 11.02.2021
2648 Clouds 29 1013 74 10000 2.57 30 21:39 11.02.2021
2649 Rain 29 1013 74 10000 2.57 30 21:20 11.02.2021
2650 Rain 29 1013 70 10000 2.06 50 20:46 11.02.2021
2651 Clouds 29 1013 74 10000 1.54 50 20:23 11.02.2021
2652 Clouds 28 1013 78 10000 1.03 100 19:50 11.02.2021
2653 Clouds 27 1013 89 10000 0.51 100 19:32 11.02.2021
2654 Clouds 24 1013 100 10000 1.03 190 18:58 11.02.2021
2655 Clouds 24 1012 100 10000 1.03 180 18:30 11.02.2021
2656 Clouds 24 1012 94 10000 0.51 150 17:55 11.02.2021
2657 Clouds 24 1012 94 10000 0.51 150 17:22 11.02.2021
2658 Clouds 24 1012 94 10000 1.03 160 16:59 11.02.2021
2659 Clouds 24 1011 94 10000 0.51 120 16:41 11.02.2021
2660 Clouds 24 1011 94 10000 0.51 120 16:21 11.02.2021
2661 Clouds 24 1011 94 10000 0.51 110 15:43 11.02.2021
2662 Rain 25 1011 88 10000 1.03 110 15:25 11.02.2021
2663 Rain 25 1012 83 10000 1.54 120 14:47 11.02.2021
2664 Clouds 25 1012 88 10000 2.06 100 14:28 11.02.2021
2665 Clouds 25 1013 94 10000 0.51 160 13:41 11.02.2021
2666 Clouds 25 1013 94 10000 0.51 160 13:19 11.02.2021
2667 Clouds 25 1013 94 10000 0.51 160 12:51 11.02.2021
2668 Rain 25 1013 94 10000 1.03 140 12:26 11.02.2021
2669 Rain 25 1013 94 10000 1.03 150 11:46 11.02.2021
2670 Rain 26 1014 83 10000 1.03 320 11:22 11.02.2021
2671 Rain 25 1014 94 10000 1.03 150 10:44 11.02.2021
2672 Rain 25 1014 94 10000 0.51 180 10:26 11.02.2021
2673 Rain 25 1014 94 10000 0.51 180 09:53 11.02.2021
2674 Clouds 25 1014 94 10000 0.51 180 09:22 11.02.2021
2675 Clouds 25 1013 94 10000 0.51 190 08:51 11.02.2021
2676 Clouds 26 1013 89 10000 0.51 110 08:23 11.02.2021
2677 Clouds 28 1012 78 10000 0.51 190 06:58 11.02.2021
2678 Clouds 28 1012 78 10000 1.03 170 06:35 11.02.2021
2679 Clouds 29 1011 70 10000 2.57 50 04:55 11.02.2021
2680 Clouds 30 1012 70 10000 3.6 50 02:29 11.02.2021
2681 Clouds 29 1013 74 10000 5.14 50 00:47 11.02.2021
2682 Clouds 29 1013 74 10000 5.66 60 00:19 11.02.2021
2683 Clouds 30 1013 66 10000 4.12 50 23:39 10.02.2021
2684 Clouds 30 1013 70 10000 4.63 60 22:52 10.02.2021
2685 Clouds 29 1013 74 10000 4.12 50 22:28 10.02.2021
2686 Clouds 29 1013 74 10000 4.63 60 21:57 10.02.2021
2687 Clouds 29 1014 70 10000 5.14 60 21:37 10.02.2021
2688 Clouds 29 1014 70 10000 5.14 60 21:37 10.02.2021
2689 Clouds 29 1014 70 10000 5.14 60 21:18 10.02.2021
2690 Clouds 29 1014 74 10000 4.63 70 20:40 10.02.2021
2691 Clouds 29 1014 74 10000 4.63 70 20:20 10.02.2021
2692 Clouds 28 1014 78 10000 4.63 70 19:43 10.02.2021
2693 Clouds 28 1014 78 10000 2.06 90 19:22 10.02.2021
2694 Clouds 26 1013 89 10000 1.54 100 18:40 10.02.2021
2695 Clouds 26 1013 89 10000 1.54 100 18:21 10.02.2021
2696 Clouds 26 1013 83 10000 2.06 100 17:50 10.02.2021
2697 Clouds 26 1012 83 10000 2.06 100 17:22 10.02.2021
2698 Clouds 26 1012 83 10000 2.06 100 16:50 10.02.2021
2699 Clouds 26 1012 89 10000 1.54 110 16:29 10.02.2021
2700 Clouds 26 1012 89 10000 2.06 110 15:45 10.02.2021
2701 Rain 26 1012 89 10000 2.06 100 15:22 10.02.2021
2702 Rain 25 1012 94 10000 1.54 100 14:41 10.02.2021
2703 Clouds 25 1012 94 10000 1.54 100 14:18 10.02.2021
2704 Clouds 25 1013 94 10000 0.51 80 13:40 10.02.2021
2705 Clouds 25 1013 94 10000 0.51 80 13:21 10.02.2021
2706 Rain 25 1013 94 10000 0.51 150 12:44 10.02.2021
2707 Rain 24 1013 100 10000 1.03 160 12:26 10.02.2021
2708 Rain 25 1014 94 10000 0.51 90 11:41 10.02.2021
2709 Rain 25 1014 94 10000 0.51 90 11:23 10.02.2021
2710 Rain 25 1014 94 10000 0.51 90 10:43 10.02.2021
2711 Rain 25 1014 94 10000 1.03 90 10:19 10.02.2021
2712 Rain 25 1014 94 10000 0.51 150 09:40 10.02.2021
2713 Rain 25 1014 94 10000 0.51 150 09:21 10.02.2021
2714 Rain 26 1014 89 10000 1.03 160 08:43 10.02.2021
2715 Clouds 27 1013 83 10000 1.03 130 07:53 10.02.2021
2716 Rain 27 1013 83 10000 1.54 100 06:59 10.02.2021
2717 Clouds 29 1011 70 10000 4.63 60 03:43 10.02.2021
2718 Clouds 30 1013 70 10000 1.54 250 00:31 10.02.2021
2719 Clouds 29 1014 74 10000 3.6 50 23:35 09.02.2021
2720 Clouds 30 1014 70 10000 3.6 50 22:54 09.02.2021
2721 Clouds 29 1014 74 10000 3.6 60 22:24 09.02.2021
2722 Clouds 29 1014 74 10000 3.6 50 21:52 09.02.2021
2723 Clouds 29 1014 79 10000 3.09 50 21:33 09.02.2021
2724 Clouds 28 1014 78 10000 3.09 50 20:50 09.02.2021
2725 Clouds 28 1014 78 10000 2.57 80 20:27 09.02.2021
2726 Clouds 28 1014 83 10000 2.06 90 19:58 09.02.2021
2727 Clouds 27 1014 89 10000 1.03 90 19:36 09.02.2021
2728 Rain 26 1014 89 10000 1.54 110 18:58 09.02.2021
2729 Rain 26 1014 89 10000 1.54 110 18:58 09.02.2021
2730 Rain 26 1014 89 10000 1.54 110 18:58 09.02.2021
2731 Rain 26 1014 89 10000 1.54 110 18:58 09.02.2021
2732 Rain 24 1014 100 10000 2.06 90 18:36 09.02.2021
2733 Rain 24 1013 100 10000 0.51 110 17:57 09.02.2021
2734 Rain 24 1013 100 10000 0.51 180 17:37 09.02.2021
2735 Rain 24 1013 100 10000 0.51 180 17:19 09.02.2021
2736 Rain 24 1013 100 10000 0.51 180 16:41 09.02.2021
2737 Rain 24 1013 100 10000 0.51 180 16:18 09.02.2021
2738 Rain 24 1013 100 10000 0.51 180 15:48 09.02.2021
2739 Rain 25 1013 94 10000 0.51 180 15:25 09.02.2021
2740 Rain 25 1013 94 10000 1.03 180 14:53 09.02.2021
2741 Rain 25 1013 100 10000 1.03 180 14:27 09.02.2021
2742 Rain 25 1013 94 10000 0.51 160 13:50 09.02.2021
2743 Rain 25 1013 94 10000 0.51 180 13:25 09.02.2021
2744 Rain 25 1014 94 10000 0.51 180 12:49 09.02.2021
2745 Rain 25 1014 94 10000 0.51 230 12:31 09.02.2021
2746 Rain 25 1014 94 10000 0.51 70 11:55 09.02.2021
2747 Rain 25 1014 94 10000 0.51 90 11:36 09.02.2021
2748 Rain 25 1014 94 10000 0.51 90 11:18 09.02.2021
2749 Rain 26 1015 89 10000 1.03 90 10:41 09.02.2021
2750 Clouds 26 1015 89 10000 1.03 90 10:18 09.02.2021
2751 Clouds 26 1014 89 10000 1.03 100 09:42 09.02.2021
2752 Clouds 26 1014 89 10000 1.03 100 09:23 09.02.2021
2753 Clouds 26 1014 89 10000 1.54 80 08:37 09.02.2021
2754 Clouds 26 1014 89 10000 1.54 80 08:18 09.02.2021
2755 Rain 29 1013 74 10000 2.57 350 05:55 09.02.2021
2756 Rain 29 1013 74 10000 3.09 10 03:50 09.02.2021
2757 Clouds 29 1013 74 10000 3.09 10 02:31 09.02.2021
2758 Rain 29 1014 79 10000 3.6 30 00:33 09.02.2021
2759 Rain 29 1014 79 10000 4.63 40 23:54 08.02.2021
2760 Rain 29 1014 79 10000 3.6 40 23:20 08.02.2021
2761 Rain 29 1014 79 10000 3.6 40 22:43 08.02.2021
2762 Rain 30 1015 74 10000 3.09 30 22:23 08.02.2021
2763 Rain 29 1015 79 10000 3.09 20 21:53 08.02.2021
2764 Rain 29 1015 74 10000 3.09 20 21:31 08.02.2021
2765 Rain 28 1015 78 10000 3.6 20 20:57 08.02.2021
2766 Rain 28 1015 83 10000 3.09 20 20:36 08.02.2021
2767 Rain 28 1015 83 10000 3.09 20 20:18 08.02.2021
2768 Rain 28 1014 78 10000 3.09 20 19:41 08.02.2021
2769 Clouds 28 1014 78 10000 3.09 20 19:22 08.02.2021
2770 Clouds 27 1014 83 10000 3.09 20 18:46 08.02.2021
2771 Clouds 27 1014 83 10000 3.09 30 18:19 08.02.2021
2772 Clouds 27 1013 83 10000 2.57 40 17:43 08.02.2021
2773 Rain 27 1013 83 10000 2.06 20 17:24 08.02.2021
2774 Rain 27 1013 83 10000 2.57 20 16:43 08.02.2021
2775 Rain 27 1013 83 10000 2.57 20 16:43 08.02.2021
2776 Rain 26 1013 89 10000 3.6 40 16:21 08.02.2021
2777 Rain 26 1013 89 10000 4.63 50 15:42 08.02.2021
2778 Clouds 26 1013 89 10000 4.63 50 15:20 08.02.2021
2779 Rain 26 1013 89 10000 4.63 70 14:52 08.02.2021
2780 Drizzle 25 1013 94 10000 4.63 80 14:31 08.02.2021
2781 Clouds 26 1013 94 10000 6.17 70 13:56 08.02.2021
2782 Clouds 25 1014 94 10000 3.09 90 13:32 08.02.2021
2783 Rain 24 1014 94 10000 1.54 120 12:53 08.02.2021
2784 Rain 25 1014 88 8000 2.06 50 12:35 08.02.2021
2785 Clouds 26 1014 89 10000 3.6 70 11:47 08.02.2021
2786 Clouds 26 1014 94 10000 2.06 110 11:22 08.02.2021
2787 Clouds 25 1014 94 10000 1.54 90 10:44 08.02.2021
2788 Rain 25 1014 94 10000 1.54 120 10:24 08.02.2021
2789 Rain 25 1014 94 10000 1.54 120 10:24 08.02.2021
2790 Rain 25 1014 94 8000 2.06 70 09:51 08.02.2021
2791 Rain 24 1014 94 10000 1.54 130 09:30 08.02.2021
2792 Rain 28 1013 78 10000 2.57 40 08:41 08.02.2021
2793 Clouds 28 1013 78 10000 2.57 40 08:18 08.02.2021
2794 Rain 28 1012 78 10000 4.12 40 07:22 08.02.2021
2795 Rain 28 1012 78 10000 4.12 40 05:53 08.02.2021
2796 Clouds 29 1011 79 10000 4.63 10 02:28 08.02.2021
2797 Clouds 30 1012 70 10000 5.66 50 00:56 08.02.2021
2798 Clouds 29 1013 74 10000 6.17 60 00:21 08.02.2021
2799 Clouds 30 1013 74 10000 6.69 50 23:46 07.02.2021
2800 Clouds 29 1013 74 10000 6.17 50 23:20 07.02.2021
2801 Clouds 29 1013 74 10000 6.17 60 22:44 07.02.2021
2802 Clouds 29 1013 79 10000 6.17 70 22:25 07.02.2021
2803 Clouds 29 1013 74 10000 6.17 60 21:52 07.02.2021
2804 Clouds 29 1013 74 10000 6.17 70 21:26 07.02.2021
2805 Clouds 29 1013 79 10000 6.17 80 20:53 07.02.2021
2806 Clouds 29 1013 74 10000 5.66 60 20:33 07.02.2021
2807 Clouds 28 1013 78 10000 5.14 60 19:55 07.02.2021
2808 Clouds 27 1013 83 10000 2.57 90 19:30 07.02.2021
2809 Clear 26 1013 89 10000 1.54 100 18:55 07.02.2021
2810 Clear 25 1012 88 10000 1.03 70 18:35 07.02.2021
2811 Clear 26 1012 89 10000 1.54 120 17:59 07.02.2021
2812 Clear 26 1012 89 10000 2.06 110 17:40 07.02.2021
2813 Clear 26 1012 89 10000 2.06 110 17:19 07.02.2021
2814 Clouds 25 1011 94 10000 1.54 100 16:45 07.02.2021
2815 Rain 25 1011 88 10000 2.57 80 16:22 07.02.2021
2816 Rain 25 1011 88 10000 2.57 80 16:22 07.02.2021
2817 Rain 25 1011 94 10000 2.57 90 15:47 07.02.2021
2818 Rain 25 1011 94 10000 2.06 100 15:28 07.02.2021
2819 Rain 25 1011 94 10000 2.06 100 14:47 07.02.2021
2820 Rain 25 1011 94 10000 2.57 110 14:29 07.02.2021
2821 Rain 25 1012 94 10000 2.06 110 13:56 07.02.2021
2822 Rain 25 1012 94 10000 2.06 120 13:34 07.02.2021
2823 Rain 25 1012 94 10000 2.57 140 12:45 07.02.2021
2824 Clouds 25 1012 88 10000 1.03 130 12:22 07.02.2021
2825 Rain 25 1013 94 10000 3.09 70 11:50 07.02.2021
2826 Clouds 26 1013 83 10000 2.06 100 11:27 07.02.2021
2827 Clear 26 1013 83 10000 2.06 110 10:49 07.02.2021
2828 Clear 26 1013 83 10000 2.06 110 10:49 07.02.2021
2829 Clear 26 1012 83 10000 1.54 110 10:25 07.02.2021
2830 Clear 26 1012 83 10000 1.54 110 09:48 07.02.2021
2831 Clear 25 1012 88 10000 1.54 110 09:21 07.02.2021
2832 Clear 26 1012 89 10000 1.54 110 08:26 07.02.2021
2833 Rain 26 1011 89 10000 1.54 140 07:32 07.02.2021
2834 Clouds 28 1010 74 10000 5.14 80 05:57 07.02.2021
2835 Clouds 30 1009 70 10000 4.63 60 03:52 07.02.2021
2836 Clouds 30 1010 70 10000 5.14 60 01:37 07.02.2021
2837 Clouds 30 1010 70 10000 6.17 60 00:35 07.02.2021
2838 Clouds 29 1010 74 10000 5.14 60 23:46 06.02.2021
2839 Clouds 29 1011 74 10000 5.14 50 22:41 06.02.2021
2840 Rain 29 1011 74 10000 5.14 60 21:42 06.02.2021
2841 Clouds 29 1011 74 10000 5.14 60 21:22 06.02.2021
2842 Clouds 29 1011 74 10000 3.6 60 20:52 06.02.2021
2843 Clouds 29 1011 74 10000 4.63 80 20:25 06.02.2021
2844 Clear 28 1011 78 10000 3.6 80 19:57 06.02.2021
2845 Clear 27 1011 83 10000 2.57 90 19:32 06.02.2021
2846 Clouds 26 1010 89 10000 1.54 100 18:52 06.02.2021
2847 Clouds 25 1010 88 10000 1.54 120 18:32 06.02.2021
2848 Clouds 24 1009 94 10000 1.03 120 17:49 06.02.2021
2849 Rain 24 1009 94 10000 1.03 110 17:22 06.02.2021
2850 Rain 24 1009 94 10000 1.03 110 17:22 06.02.2021
2851 Rain 24 1009 94 10000 1.03 120 16:59 06.02.2021
2852 Rain 25 1009 88 10000 1.54 110 16:40 06.02.2021
2853 Clouds 25 1009 88 10000 1.54 110 16:22 06.02.2021
2854 Clouds 25 1009 88 10000 2.57 90 15:45 06.02.2021
2855 Clouds 25 1009 94 10000 2.57 90 15:21 06.02.2021
2856 Clouds 25 1010 94 10000 2.57 90 14:45 06.02.2021
2857 Clouds 25 1010 94 10000 2.57 90 14:45 06.02.2021
2858 Clouds 24 1009 94 10000 1.03 60 14:25 06.02.2021
2859 Clear 24 1010 94 10000 0.51 80 13:49 06.02.2021
2860 Clear 24 1010 94 10000 0.51 80 13:49 06.02.2021
2861 Rain 24 1010 94 10000 0.51 200 13:21 06.02.2021
2862 Rain 24 1011 94 10000 0.51 170 12:22 06.02.2021
2863 Rain 24 1011 94 10000 0.51 120 11:48 06.02.2021
2864 Rain 24 1011 94 10000 1.03 200 11:22 06.02.2021
2865 Rain 25 1011 88 10000 1.03 180 10:57 06.02.2021
2866 Rain 25 1011 88 10000 1.03 190 10:30 06.02.2021
2867 Rain 25 1011 94 10000 1.03 190 09:58 06.02.2021
2868 Rain 25 1011 94 10000 0.51 220 09:37 06.02.2021
2869 Rain 25 1011 94 10000 0.51 220 09:18 06.02.2021
2870 Rain 26 1010 89 10000 0.51 130 08:33 06.02.2021
2871 Clouds 27 1010 78 10000 0.51 130 07:59 06.02.2021
2872 Rain 28 1009 74 10000 2.57 100 05:43 06.02.2021
2873 Clouds 30 1008 70 10000 4.63 60 03:56 06.02.2021
2874 Rain 30 1009 70 10000 5.66 50 01:42 06.02.2021
2875 Clouds 30 1009 70 10000 6.17 70 00:47 06.02.2021
2876 Clouds 30 1009 66 10000 6.17 70 00:19 06.02.2021
2877 Clouds 31 1010 66 10000 5.66 60 23:42 05.02.2021
2878 Clouds 30 1010 66 10000 6.69 70 23:24 05.02.2021
2879 Clouds 31 1010 62 10000 6.17 70 22:47 05.02.2021
2880 Clouds 30 1010 62 10000 4.12 80 22:20 05.02.2021
2881 Clouds 30 1011 62 10000 3.6 80 21:44 05.02.2021
2882 Clouds 29 1011 70 10000 4.12 80 21:25 05.02.2021
2883 Clouds 29 1011 70 10000 2.06 100 20:43 05.02.2021
2884 Clouds 28 1011 74 10000 2.57 100 19:51 05.02.2021
2885 Clouds 27 1011 78 10000 1.54 130 19:19 05.02.2021
2886 Clouds 26 1011 94 10000 0.51 110 18:53 05.02.2021
2887 Clouds 24 1010 94 10000 1.03 160 18:20 05.02.2021
2888 Clouds 24 1010 94 10000 0.51 170 17:44 05.02.2021
2889 Clouds 24 1010 100 10000 1.03 190 17:21 05.02.2021
2890 Clouds 23 1010 100 10000 1.03 160 16:48 05.02.2021
2891 Clouds 23 1010 94 10000 1.03 160 16:23 05.02.2021
2892 Clouds 23 1010 94 10000 0.51 160 15:54 05.02.2021
2893 Clouds 23 1010 94 10000 0.51 150 15:26 05.02.2021
2894 Clouds 23 1010 94 10000 1.03 170 14:40 05.02.2021
2895 Clouds 23 1010 94 10000 1.03 170 14:22 05.02.2021
2896 Clouds 23 1010 94 10000 1.03 170 13:58 05.02.2021
2897 Clouds 23 1010 94 10000 1.03 190 13:35 05.02.2021
2898 Clouds 23 1011 94 10000 1.54 180 12:49 05.02.2021
2899 Clouds 23 1011 94 10000 1.03 180 12:27 05.02.2021
2900 Clouds 24 1012 88 10000 1.03 150 11:41 05.02.2021
2901 Clouds 24 1012 88 10000 1.03 150 11:21 05.02.2021
2902 Clouds 24 1012 88 10000 1.03 150 11:21 05.02.2021
2903 Clouds 23 1012 94 10000 1.03 150 10:54 05.02.2021
2904 Clouds 24 1012 88 10000 1.03 120 10:27 05.02.2021
2905 Clouds 24 1012 88 10000 0.51 140 09:47 05.02.2021
2906 Clouds 24 1012 94 10000 0.51 150 09:27 05.02.2021
2907 Clouds 24 1011 88 10000 1.03 180 08:52 05.02.2021
2908 Clouds 25 1011 83 10000 1.03 180 08:20 05.02.2021
2909 Clouds 26 1011 78 6000 1.03 150 07:36 05.02.2021
2910 Clouds 27 1011 74 10000 1.03 120 06:49 05.02.2021
2911 Clouds 29 1010 65 10000 3.09 50 05:37 05.02.2021
2912 Clouds 29 1010 70 10000 1.54 10 02:52 05.02.2021
2913 Clouds 29 1010 70 10000 1.54 10 02:24 05.02.2021
2914 Clouds 29 1011 70 10000 3.09 40 00:40 05.02.2021
2915 Clouds 29 1011 70 10000 3.09 40 00:20 05.02.2021
2916 Clouds 30 1012 66 10000 3.09 30 23:55 04.02.2021
2917 Clouds 29 1012 70 10000 2.57 30 23:36 04.02.2021
2918 Clouds 29 1012 70 10000 2.57 30 23:18 04.02.2021
2919 Clouds 29 1012 70 10000 3.09 40 22:46 04.02.2021
2920 Clouds 29 1012 70 10000 2.57 40 22:25 04.02.2021
2921 Clouds 29 1012 70 10000 2.06 40 21:42 04.02.2021
2922 Clouds 29 1012 70 10000 2.06 40 21:19 04.02.2021
2923 Clouds 28 1012 74 10000 2.06 50 20:46 04.02.2021
2924 Clouds 28 1012 78 10000 1.54 60 20:26 04.02.2021
2925 Clouds 27 1012 83 10000 1.54 90 19:42 04.02.2021
2926 Clouds 26 1012 89 10000 1.03 100 18:51 04.02.2021
2927 Clouds 24 1012 94 10000 1.03 90 18:25 04.02.2021
2928 Clouds 24 1012 94 10000 1.03 90 17:53 04.02.2021
2929 Clouds 25 1011 88 10000 1.54 100 17:25 04.02.2021
2930 Clouds 25 1011 88 10000 1.54 90 16:56 04.02.2021
2931 Clouds 25 1011 88 10000 1.54 90 16:38 04.02.2021
2932 Clouds 25 1011 88 10000 1.54 90 16:18 04.02.2021
2933 Clouds 25 1011 88 10000 2.06 80 15:39 04.02.2021
2934 Clouds 25 1011 88 10000 2.06 80 15:20 04.02.2021
2935 Clouds 25 1011 88 10000 2.06 80 14:42 04.02.2021
2936 Clouds 25 1011 88 10000 2.06 80 14:20 04.02.2021
2937 Clouds 25 1012 88 10000 1.54 100 13:45 04.02.2021
2938 Clouds 26 1012 83 10000 1.54 80 13:20 04.02.2021
2939 Clouds 26 1012 83 10000 1.54 70 12:52 04.02.2021
2940 Clouds 26 1013 83 10000 1.54 90 11:54 04.02.2021
2941 Clouds 27 1013 83 10000 1.54 60 11:34 04.02.2021
2942 Clouds 27 1013 83 10000 3.09 60 10:53 04.02.2021
2943 Clouds 26 1013 83 10000 2.06 90 10:32 04.02.2021
2944 Clouds 26 1013 83 10000 2.57 80 09:45 04.02.2021
2945 Clouds 27 1013 74 10000 3.09 50 09:19 04.02.2021
2946 Clouds 27 1013 78 10000 3.6 30 08:50 04.02.2021
2947 Clouds 28 1012 74 10000 3.6 50 08:25 04.02.2021
2948 Clouds 28 1012 78 10000 3.09 50 07:50 04.02.2021
2949 Clouds 28 1012 74 10000 3.6 50 07:32 04.02.2021
2950 Clouds 28 1012 74 10000 3.09 40 06:43 04.02.2021
2951 Clouds 29 1011 74 10000 3.09 40 05:31 04.02.2021
2952 Rain 30 1012 66 10000 4.63 40 02:29 04.02.2021
2953 Clouds 30 1012 70 10000 4.63 40 00:59 04.02.2021
2954 Clouds 30 1013 74 10000 4.12 40 23:52 03.02.2021
2955 Rain 29 1013 70 10000 3.6 40 23:27 03.02.2021
2956 Rain 29 1014 70 10000 3.6 20 22:36 03.02.2021
2957 Rain 29 1014 70 10000 3.6 20 22:18 03.02.2021
2958 Rain 29 1014 74 10000 4.12 40 21:41 03.02.2021
2959 Rain 29 1014 74 10000 4.12 40 21:21 03.02.2021
2960 Rain 29 1014 74 10000 4.12 50 20:48 03.02.2021
2961 Rain 29 1014 74 10000 3.6 50 20:28 03.02.2021
2962 Rain 28 1014 78 10000 3.6 50 19:52 03.02.2021
2963 Rain 28 1014 74 10000 3.6 50 19:23 03.02.2021
2964 Rain 27 1013 78 10000 4.12 50 18:51 03.02.2021
2965 Clouds 27 1013 78 10000 3.6 60 18:22 03.02.2021
2966 Clouds 27 1013 78 10000 3.6 50 17:57 03.02.2021
2967 Clouds 27 1013 78 10000 3.6 50 17:37 03.02.2021
2968 Rain 27 1013 78 10000 3.6 50 17:18 03.02.2021
2969 Rain 27 1012 78 10000 3.09 50 16:36 03.02.2021
2970 Rain 27 1012 78 10000 2.57 30 15:50 03.02.2021
2971 Rain 27 1012 78 10000 2.57 40 15:30 03.02.2021
2972 Rain 27 1012 78 10000 2.57 40 14:59 03.02.2021
2973 Rain 27 1012 78 10000 2.57 20 14:40 03.02.2021
2974 Rain 27 1013 74 10000 2.57 350 13:56 03.02.2021
2975 Rain 27 1013 69 10000 2.57 360 13:29 03.02.2021
2976 Rain 27 1013 74 10000 3.6 360 12:55 03.02.2021
2977 Rain 27 1014 69 10000 3.6 350 12:36 03.02.2021
2978 Rain 27 1014 69 10000 3.6 350 12:18 03.02.2021
2979 Rain 27 1014 78 10000 2.57 20 11:38 03.02.2021
2980 Clear 27 1014 78 10000 3.09 10 10:59 03.02.2021
2981 Clear 27 1014 78 10000 3.09 20 10:23 03.02.2021
2982 Clear 27 1014 78 10000 3.6 10 09:53 03.02.2021
2983 Clouds 27 1015 74 10000 4.12 20 09:34 03.02.2021
2984 Clear 27 1015 78 10000 3.09 350 08:55 03.02.2021
2985 Clear 26 1014 78 10000 4.12 10 08:36 03.02.2021
2986 Clear 27 1014 69 10000 5.14 20 07:43 03.02.2021
2987 Clear 27 1014 78 10000 5.14 20 06:42 03.02.2021
2988 Rain 28 1013 74 10000 4.63 360 04:55 03.02.2021
2989 Rain 28 1013 74 10000 4.63 360 04:34 03.02.2021
2990 Clear 28 1012 78 10000 4.63 360 03:40 03.02.2021
2991 Clouds 29 1012 70 10000 3.6 360 02:37 03.02.2021
2992 Rain 29 1013 70 10000 3.09 350 00:56 03.02.2021
2993 Clouds 28 1013 74 10000 3.6 10 23:59 02.02.2021
2994 Clouds 28 1013 74 10000 2.57 300 23:40 02.02.2021
2995 Clouds 28 1013 74 10000 2.57 300 23:22 02.02.2021
2996 Clouds 27 1013 74 10000 4.12 10 22:37 02.02.2021
2997 Clouds 27 1013 74 10000 4.12 10 22:18 02.02.2021
2998 Clouds 29 1013 70 10000 4.12 310 21:39 02.02.2021
2999 Rain 29 1013 70 10000 4.12 310 21:19 02.02.2021
3000 Rain 29 1013 74 10000 4.12 320 20:44 02.02.2021
3001 Rain 28 1013 78 10000 4.12 320 20:20 02.02.2021
3002 Rain 28 1013 74 10000 4.12 330 19:48 02.02.2021
3003 Rain 28 1013 74 10000 4.12 320 19:30 02.02.2021
3004 Rain 27 1012 78 10000 4.63 330 18:46 02.02.2021
3005 Clouds 27 1012 74 10000 4.63 340 18:26 02.02.2021
3006 Clouds 27 1012 78 10000 5.14 330 17:51 02.02.2021
3007 Clouds 27 1011 78 10000 4.12 330 17:24 02.02.2021
3008 Clouds 27 1011 78 10000 4.63 330 16:57 02.02.2021
3009 Clouds 27 1011 78 10000 4.12 340 16:38 02.02.2021
3010 Clouds 27 1011 78 10000 4.63 340 15:59 02.02.2021
3011 Clouds 27 1011 78 10000 3.6 330 15:41 02.02.2021
3012 Clouds 27 1011 78 10000 3.6 330 15:21 02.02.2021
3013 Clouds 26 1011 89 10000 4.12 330 14:41 02.02.2021
3014 Clouds 26 1011 89 10000 4.12 330 14:19 02.02.2021
3015 Rain 25 1011 88 10000 4.12 330 13:46 02.02.2021
3016 Rain 23 1011 100 10000 1.03 190 13:28 02.02.2021
3017 Rain 25 1012 94 3300 6.17 10 12:57 02.02.2021
3018 Clouds 27 1012 83 10000 4.63 330 12:27 02.02.2021
3019 Clouds 27 1012 78 10000 4.12 320 11:41 02.02.2021
3020 Rain 27 1012 78 10000 4.12 320 11:20 02.02.2021
3021 Rain 27 1012 83 10000 3.6 330 10:51 02.02.2021
3022 Clouds 27 1012 78 10000 3.6 330 10:26 02.02.2021
3023 Clouds 27 1012 83 10000 3.6 310 09:46 02.02.2021
3024 Rain 27 1012 89 10000 3.6 310 09:25 02.02.2021
3025 Rain 25 1012 94 10000 1.03 160 08:45 02.02.2021
3026 Rain 24 1011 100 10000 1.54 90 07:58 02.02.2021
3027 Rain 25 1011 94 10000 0.51 130 07:27 02.02.2021
3028 Rain 26 1010 89 10000 1.03 150 06:41 02.02.2021
3029 Clouds 27 1010 89 10000 0.51 170 05:51 02.02.2021
3030 Clouds 27 1010 78 10000 3.09 90 04:36 02.02.2021
3031 Clouds 27 1009 78 10000 3.6 90 02:25 02.02.2021
3032 Rain 29 1010 70 10000 4.12 270 00:49 02.02.2021
3033 Rain 29 1010 70 10000 3.6 280 00:18 02.02.2021
3034 Rain 28 1010 74 10000 4.12 260 23:18 01.02.2021
3035 Rain 27 1011 83 10000 2.06 340 22:39 01.02.2021
3036 Rain 27 1011 83 10000 2.06 340 22:20 01.02.2021
3037 Rain 26 1012 89 10000 2.06 70 21:46 01.02.2021
3038 Drizzle 26 1012 89 10000 1.54 50 21:22 01.02.2021
3039 Clouds 26 1012 78 10000 2.06 340 20:43 01.02.2021
3040 Clouds 26 1012 83 10000 3.6 330 20:24 01.02.2021
3041 Clouds 26 1011 83 10000 2.06 320 19:48 01.02.2021
3042 Clouds 25 1011 88 10000 2.06 290 19:21 01.02.2021
3043 Clouds 25 1011 94 10000 1.54 230 18:56 01.02.2021
3044 Clouds 23 1010 100 10000 0.51 80 18:37 01.02.2021
3045 Clouds 23 1010 100 10000 0.51 80 18:19 01.02.2021
3046 Clouds 24 1010 100 10000 0.51 170 17:41 01.02.2021
3047 Clouds 24 1010 100 10000 0.51 170 17:19 01.02.2021
3048 Rain 24 1009 100 10000 1.03 140 16:33 01.02.2021
3049 Clouds 24 1009 94 10000 1.03 180 15:56 01.02.2021
3050 Clouds 23 1009 100 10000 0.51 150 15:37 01.02.2021
3051 Clouds 23 1009 100 10000 0.51 150 15:19 01.02.2021
3052 Clouds 23 1009 100 10000 1.03 190 14:46 01.02.2021
3053 Rain 23 1009 100 10000 1.54 190 13:56 01.02.2021
3054 Rain 23 1010 100 10000 1.03 170 13:38 01.02.2021
3055 Rain 23 1010 100 10000 1.03 170 13:38 01.02.2021
3056 Rain 23 1010 100 10000 1.03 170 13:38 01.02.2021
3057 Clouds 23 1010 100 10000 1.03 170 13:20 01.02.2021
3058 Clouds 23 1010 100 10000 1.03 160 12:44 01.02.2021
3059 Clouds 23 1010 100 10000 1.03 190 12:23 01.02.2021
3060 Clouds 24 1010 94 10000 1.03 180 11:42 01.02.2021
3061 Clouds 24 1010 94 10000 1.03 180 11:20 01.02.2021
3062 Clouds 24 1010 94 10000 1.54 190 10:46 01.02.2021
3063 Clouds 24 1011 94 10000 1.03 190 10:20 01.02.2021
3064 Clouds 24 1011 94 10000 0.51 160 09:44 01.02.2021
3065 Clouds 24 1011 94 10000 1.54 200 09:24 01.02.2021
3066 Rain 25 1011 88 10000 1.03 60 08:51 01.02.2021
3067 Clear 26 1011 89 10000 1.03 160 07:53 01.02.2021
3068 Clouds 28 1010 74 10000 2.57 70 06:34 01.02.2021
3069 Clouds 27 1009 78 10000 2.57 40 04:21 01.02.2021
3070 Clouds 28 1010 69 10000 3.09 270 01:31 01.02.2021
3071 Rain 25 1011 94 10000 4.63 90 23:42 31.01.2021
3072 Rain 26 1011 89 10000 3.09 90 22:44 31.01.2021
3073 Clouds 28 1011 74 10000 2.57 250 22:24 31.01.2021
3074 Clouds 27 1012 78 10000 2.57 250 21:52 31.01.2021
3075 Rain 27 1012 83 10000 3.09 270 21:25 31.01.2021
3076 Clouds 27 1012 83 10000 2.57 280 20:50 31.01.2021
3077 Clouds 27 1012 83 10000 2.57 280 20:50 31.01.2021
3078 Clouds 28 1012 74 10000 2.06 230 20:22 31.01.2021
3079 Clouds 27 1012 83 10000 1.03 170 19:56 31.01.2021
3080 Clouds 26 1012 89 10000 0.51 210 19:37 31.01.2021
3081 Clouds 26 1012 89 10000 0.51 210 19:19 31.01.2021
3082 Clouds 23 1011 100 10000 1.03 180 18:41 31.01.2021
3083 Clouds 23 1011 100 10000 1.03 180 18:21 31.01.2021
3084 Clouds 23 1011 100 10000 0.51 200 17:47 31.01.2021
3085 Clouds 23 1010 100 10000 1.03 190 17:23 31.01.2021
3086 Clouds 23 1010 100 10000 0.51 140 16:50 31.01.2021
3087 Clouds 23 1010 100 10000 0.51 140 16:50 31.01.2021
3088 Clouds 23 1010 100 10000 1.54 190 16:31 31.01.2021
3089 Clouds 23 1010 100 10000 1.54 190 15:52 31.01.2021
3090 Clouds 23 1010 100 10000 1.54 190 15:34 31.01.2021
3091 Clouds 23 1010 94 10000 0.51 170 14:42 31.01.2021
3092 Clouds 23 1010 94 10000 0.51 170 14:22 31.01.2021
3093 Clouds 23 1011 94 10000 1.03 120 13:52 31.01.2021
3094 Clouds 23 1011 94 10000 1.03 120 13:52 31.01.2021
3095 Clouds 23 1011 94 10000 1.03 180 13:34 31.01.2021
3096 Clouds 23 1011 94 10000 1.54 190 12:48 31.01.2021
3097 Clouds 23 1011 94 10000 1.54 210 12:22 31.01.2021
3098 Clouds 23 1011 100 10000 1.54 180 11:44 31.01.2021
3099 Clouds 24 1012 94 10000 1.54 180 11:24 31.01.2021
3100 Clouds 24 1012 94 10000 0.51 120 10:54 31.01.2021
3101 Clouds 24 1012 94 10000 1.54 150 10:34 31.01.2021
3102 Clouds 24 1012 94 10000 1.03 180 09:50 31.01.2021
3103 Clouds 24 1012 94 10000 1.03 120 09:23 31.01.2021
3104 Clouds 25 1012 88 10000 5.14 300 08:33 31.01.2021
3105 Clouds 26 1011 89 10000 1.03 170 06:56 31.01.2021
3106 Clouds 27 1010 83 10000 2.06 90 05:31 31.01.2021
3107 Rain 28 1011 74 10000 3.09 50 00:46 31.01.2021
3108 Rain 27 1011 83 10000 2.57 30 00:21 31.01.2021
3109 Rain 29 1011 74 10000 1.54 10 23:30 30.01.2021
3110 Rain 29 1011 70 10000 2.06 350 22:56 30.01.2021
3111 Clouds 28 1011 74 10000 1.54 20 22:29 30.01.2021
3112 Clouds 29 1011 70 10000 1.54 320 21:40 30.01.2021
3113 Clouds 29 1011 70 10000 1.54 320 21:40 30.01.2021
3114 Rain 29 1011 70 10000 1.54 320 21:20 30.01.2021
3115 Rain 29 1012 70 10000 1.54 330 20:44 30.01.2021
3116 Rain 28 1012 69 10000 1.03 350 20:26 30.01.2021
3117 Rain 28 1012 74 10000 1.03 90 19:44 30.01.2021
3118 Rain 27 1011 78 10000 0.51 110 19:25 30.01.2021
3119 Rain 25 1011 94 10000 0.51 150 18:41 30.01.2021
3120 Clouds 25 1011 94 10000 0.51 150 18:21 30.01.2021
3121 Clouds 24 1011 94 10000 0.51 120 17:54 30.01.2021
3122 Clouds 24 1010 94 10000 1.03 100 17:19 30.01.2021
3123 Clouds 24 1010 94 10000 1.54 90 16:44 30.01.2021
3124 Clouds 25 1010 83 10000 2.06 90 16:24 30.01.2021
3125 Clouds 25 1010 88 10000 3.09 40 15:51 30.01.2021
3126 Clouds 25 1010 94 10000 1.03 190 15:25 30.01.2021
3127 Clouds 25 1010 94 10000 1.03 150 14:59 30.01.2021
3128 Clouds 25 1010 88 10000 0.51 250 14:40 30.01.2021
3129 Clouds 25 1010 88 10000 0.51 250 14:19 30.01.2021
3130 Rain 25 1011 88 10000 1.54 100 13:25 30.01.2021
3131 Rain 25 1011 88 10000 1.54 90 12:48 30.01.2021
3132 Rain 26 1011 83 10000 2.06 110 12:28 30.01.2021
3133 Rain 26 1012 83 10000 2.06 110 11:54 30.01.2021
3134 Rain 26 1012 83 10000 1.54 90 11:24 30.01.2021
3135 Rain 26 1012 83 10000 2.06 100 10:43 30.01.2021
3136 Rain 26 1012 89 10000 1.54 110 09:43 30.01.2021
3137 Rain 26 1012 89 10000 1.03 110 09:25 30.01.2021
3138 Rain 26 1012 89 10000 1.03 110 08:47 30.01.2021
3139 Clouds 26 1012 83 10000 1.03 110 07:44 30.01.2021
3140 Clouds 27 1011 83 10000 0.51 150 06:35 30.01.2021
3141 Rain 29 1010 74 10000 2.57 20 03:57 30.01.2021
3142 Rain 29 1010 70 10000 2.57 10 03:33 30.01.2021
3143 Clouds 29 1010 74 10000 3.09 40 02:23 30.01.2021
3144 Clouds 30 1011 70 10000 3.09 40 01:26 30.01.2021
3145 Rain 29 1011 70 10000 4.63 40 00:35 30.01.2021
3146 Clouds 29 1011 74 10000 4.12 40 23:55 29.01.2021
3147 Rain 28 1011 78 10000 1.03 50 23:28 29.01.2021
3148 Rain 26 1012 83 10000 4.12 70 22:55 29.01.2021
3149 Clouds 28 1012 78 10000 3.09 40 22:37 29.01.2021
3150 Rain 29 1012 79 10000 3.6 40 21:59 29.01.2021
3151 Rain 29 1012 74 10000 4.12 50 21:28 29.01.2021
3152 Rain 29 1012 74 10000 3.09 30 20:43 29.01.2021
3153 Clouds 28 1012 74 10000 4.12 20 20:24 29.01.2021
3154 Clouds 28 1011 78 10000 3.6 70 19:40 29.01.2021
3155 Rain 28 1011 78 10000 3.6 70 19:21 29.01.2021
3156 Rain 26 1011 89 10000 2.57 90 18:55 29.01.2021
3157 Clouds 25 1010 94 10000 2.57 90 17:50 29.01.2021
3158 Clouds 25 1010 94 10000 2.57 90 17:23 29.01.2021
3159 Clouds 25 1010 94 10000 2.57 90 17:23 29.01.2021
3160 Clouds 25 1010 88 10000 2.06 90 16:54 29.01.2021
3161 Clouds 25 1010 88 10000 2.57 90 16:28 29.01.2021
3162 Clouds 25 1010 94 10000 2.57 90 15:55 29.01.2021
3163 Clouds 25 1010 94 10000 2.06 100 15:37 29.01.2021
3164 Clear 25 1010 94 10000 2.06 100 15:19 29.01.2021
3165 Clouds 25 1010 94 10000 2.06 110 14:23 29.01.2021
3166 Clouds 25 1011 94 10000 1.54 100 13:50 29.01.2021
3167 Rain 26 1011 83 10000 3.6 50 13:31 29.01.2021
3168 Clouds 25 1011 94 10000 1.03 100 12:43 29.01.2021
3169 Clouds 26 1011 89 10000 1.54 110 12:19 29.01.2021
3170 Clouds 25 1012 94 10000 1.54 90 11:44 29.01.2021
3171 Rain 26 1012 89 10000 2.06 100 11:18 29.01.2021
3172 Rain 26 1012 89 10000 2.57 100 10:46 29.01.2021
3173 Rain 26 1012 89 10000 2.06 100 10:22 29.01.2021
3174 Rain 26 1012 89 10000 2.57 110 09:39 29.01.2021
3175 Rain 26 1011 89 10000 2.06 100 08:50 29.01.2021
3176 Rain 26 1011 89 10000 2.06 100 08:27 29.01.2021
3177 Rain 26 1011 89 10000 1.54 120 07:48 29.01.2021
3178 Rain 26 1011 89 2400 1.03 140 07:29 29.01.2021
3179 Rain 26 1011 83 10000 6.17 80 06:48 29.01.2021
3180 Clouds 30 1010 70 10000 6.17 80 04:53 29.01.2021
3181 Clouds 30 1011 66 10000 7.2 80 00:52 29.01.2021
3182 Clouds 31 1012 62 10000 7.2 70 00:23 29.01.2021
3183 Clouds 31 1012 66 10000 7.72 70 23:57 28.01.2021
3184 Clouds 30 1012 70 10000 8.75 70 23:39 28.01.2021
3185 Clouds 30 1012 70 10000 8.75 70 23:20 28.01.2021
3186 Clouds 30 1012 70 10000 7.2 70 22:41 28.01.2021
3187 Clouds 30 1012 70 10000 7.2 70 22:21 28.01.2021
3188 Clouds 30 1012 70 10000 6.69 80 21:42 28.01.2021
3189 Clouds 29 1012 70 10000 6.69 80 21:23 28.01.2021
3190 Clouds 29 1012 70 10000 6.17 80 20:46 28.01.2021
3191 Clouds 29 1012 70 10000 6.17 80 20:19 28.01.2021
3192 Clouds 28 1013 74 10000 5.66 70 19:54 28.01.2021
3193 Clouds 28 1012 74 10000 5.14 70 19:32 28.01.2021
3194 Clouds 27 1012 83 10000 4.12 80 18:53 28.01.2021
3195 Clouds 26 1012 83 10000 2.57 90 18:34 28.01.2021
3196 Clouds 26 1011 83 10000 2.57 100 17:54 28.01.2021
3197 Clouds 26 1011 83 10000 3.6 80 17:35 28.01.2021
3198 Clouds 26 1011 83 10000 2.57 100 16:59 28.01.2021
3199 Clouds 26 1011 83 10000 3.09 90 16:40 28.01.2021
3200 Clouds 26 1011 83 10000 3.09 90 16:20 28.01.2021
3201 Clouds 26 1011 89 10000 2.57 90 15:32 28.01.2021
3202 Clouds 26 1011 83 10000 3.09 100 14:49 28.01.2021
3203 Clouds 26 1012 89 10000 2.57 100 14:26 28.01.2021
3204 Clouds 25 1012 94 10000 2.06 100 13:58 28.01.2021
3205 Clouds 25 1012 94 10000 1.54 90 13:23 28.01.2021
3206 Clouds 25 1012 94 10000 2.06 90 12:50 28.01.2021
3207 Rain 24 1013 100 10000 1.03 70 12:28 28.01.2021
3208 Rain 24 1013 94 10000 2.06 110 11:55 28.01.2021
3209 Rain 25 1014 88 10000 2.57 80 11:37 28.01.2021
3210 Clouds 25 1014 88 10000 2.57 80 11:18 28.01.2021
3211 Clouds 27 1014 83 10000 2.57 100 10:41 28.01.2021
3212 Rain 27 1014 83 10000 2.57 100 10:22 28.01.2021
3213 Rain 26 1013 89 10000 1.54 110 09:38 28.01.2021
3214 Clouds 26 1013 89 10000 1.54 110 09:19 28.01.2021
3215 Clouds 26 1013 89 10000 2.57 110 08:44 28.01.2021
3216 Clouds 26 1013 89 10000 1.54 110 07:50 28.01.2021
3217 Rain 26 1012 89 10000 2.06 110 07:18 28.01.2021
3218 Rain 27 1012 83 7000 4.63 50 06:46 28.01.2021
3219 Clouds 30 1011 62 10000 6.69 70 04:30 28.01.2021
3220 Clouds 31 1011 62 10000 6.69 60 02:45 28.01.2021
3221 Clouds 31 1012 62 10000 8.23 70 00:35 28.01.2021
3222 Clouds 32 1013 58 10000 7.72 60 23:25 27.01.2021
3223 Clouds 31 1013 62 10000 8.75 70 22:44 27.01.2021
3224 Clouds 32 1014 62 10000 7.2 60 22:26 27.01.2021
3225 Clouds 31 1013 66 10000 7.72 70 21:59 27.01.2021
3226 Clouds 31 1013 66 10000 7.72 70 21:40 27.01.2021
3227 Clouds 31 1013 66 10000 7.72 70 21:40 27.01.2021
3228 Clouds 31 1013 66 10000 7.72 70 21:22 27.01.2021
3229 Clouds 29 1013 70 10000 7.72 70 20:41 27.01.2021
3230 Clouds 29 1013 70 10000 8.23 70 19:58 27.01.2021
3231 Clouds 29 1013 70 10000 7.72 60 19:39 27.01.2021
3232 Clouds 29 1013 70 10000 7.72 60 19:20 27.01.2021
3233 Clouds 28 1013 74 10000 7.72 70 18:42 27.01.2021
3234 Clouds 28 1013 74 10000 7.72 70 18:22 27.01.2021
3235 Clouds 27 1012 78 10000 4.12 90 17:45 27.01.2021
3236 Clouds 27 1012 78 10000 7.72 80 17:21 27.01.2021
3237 Clouds 27 1012 78 10000 6.69 70 16:47 27.01.2021
3238 Clouds 27 1012 78 10000 7.2 70 16:28 27.01.2021
3239 Clouds 27 1012 78 10000 7.2 70 16:28 27.01.2021
3240 Clouds 27 1012 78 10000 7.2 70 15:50 27.01.2021
3241 Clouds 28 1012 74 10000 7.2 60 15:30 27.01.2021
3242 Clouds 27 1012 78 10000 7.72 70 14:42 27.01.2021
3243 Clouds 27 1012 78 10000 7.72 70 14:21 27.01.2021
3244 Clouds 27 1012 78 10000 8.23 70 13:43 27.01.2021
3245 Clouds 27 1013 83 10000 8.23 70 12:48 27.01.2021
3246 Clouds 27 1013 83 10000 7.72 70 12:26 27.01.2021
3247 Clouds 27 1013 83 10000 6.69 80 11:55 27.01.2021
3248 Clouds 27 1014 83 10000 6.17 80 11:36 27.01.2021
3249 Clouds 27 1014 83 10000 6.17 80 11:18 27.01.2021
3250 Clouds 27 1014 83 10000 6.17 80 10:36 27.01.2021
3251 Clouds 27 1014 83 10000 6.17 80 10:18 27.01.2021
3252 Clouds 27 1014 83 10000 5.66 90 09:36 27.01.2021
3253 Clouds 27 1014 78 10000 4.63 90 08:48 27.01.2021
3254 Clouds 26 1014 89 10000 3.6 90 07:59 27.01.2021
3255 Rain 26 1013 89 10000 4.12 80 07:40 27.01.2021
3256 Rain 28 1013 74 10000 6.17 80 06:48 27.01.2021
3257 Rain 28 1012 74 10000 9.26 80 05:58 27.01.2021
3258 Rain 30 1012 66 10000 8.23 80 05:35 27.01.2021
3259 Clouds 31 1013 66 10000 7.2 70 02:46 27.01.2021
3260 Clouds 31 1013 66 10000 7.2 60 02:21 27.01.2021
3261 Clouds 30 1013 66 10000 7.2 60 01:46 27.01.2021
3262 Clouds 31 1014 66 10000 8.23 70 00:29 27.01.2021
3263 Clouds 30 1014 66 10000 8.23 70 23:40 26.01.2021
3264 Clouds 30 1014 66 10000 8.23 70 23:21 26.01.2021
3265 Clouds 30 1014 70 10000 8.23 70 22:40 26.01.2021
3266 Clouds 30 1014 70 10000 8.23 70 22:19 26.01.2021
3267 Clouds 30 1014 66 10000 7.72 70 21:52 26.01.2021
3268 Clouds 30 1014 70 10000 7.2 70 21:25 26.01.2021
3269 Clouds 29 1014 70 10000 7.2 70 20:54 26.01.2021
3270 Clouds 29 1014 70 10000 6.17 60 20:36 26.01.2021
3271 Clouds 29 1014 70 10000 6.17 60 20:18 26.01.2021
3272 Clouds 29 1014 70 10000 6.17 60 20:18 26.01.2021
3273 Clouds 28 1014 74 10000 6.69 60 19:40 26.01.2021
3274 Clouds 28 1014 74 10000 6.69 60 19:19 26.01.2021
3275 Clouds 27 1014 78 10000 6.69 60 18:42 26.01.2021
3276 Rain 27 1014 78 10000 6.69 60 18:23 26.01.2021
3277 Rain 27 1013 78 10000 5.66 60 17:48 26.01.2021
3278 Clouds 25 1013 88 10000 5.14 80 17:23 26.01.2021
3279 Clouds 26 1013 83 10000 6.69 70 16:52 26.01.2021
3280 Clouds 26 1013 78 10000 7.2 60 16:21 26.01.2021
3281 Clouds 27 1013 78 10000 6.92 53 15:53 26.01.2021
3282 Clouds 27 1013 78 10000 6.92 53 15:35 26.01.2021
3283 Clouds 27 1013 78 10000 7.28 52 14:49 26.01.2021
3284 Clouds 27 1013 78 10000 7.28 52 14:30 26.01.2021
3285 Clouds 27 1013 78 10000 7.65 49 13:51 26.01.2021
3286 Clouds 27 1014 78 10000 6.69 60 13:28 26.01.2021
3287 Rain 27 1014 78 10000 6.69 60 12:46 26.01.2021
3288 Rain 27 1014 78 10000 6.69 60 12:46 26.01.2021
3289 Clouds 27 1014 78 10000 6.69 60 12:25 26.01.2021
3290 Clouds 27 1014 78 10000 7.65 52 11:59 26.01.2021
3291 Clouds 28 1014 78 10000 7.72 70 11:39 26.01.2021
3292 Clouds 28 1014 78 10000 7.72 70 10:55 26.01.2021
3293 Clouds 28 1014 78 10000 7.72 70 10:33 26.01.2021
3294 Clouds 28 1014 78 10000 7.72 70 10:33 26.01.2021
3295 Clouds 28 1014 78 10000 7.2 60 09:49 26.01.2021
3296 Clouds 28 1014 78 10000 6.17 60 09:30 26.01.2021
3297 Clouds 28 1014 78 10000 7.2 60 08:53 26.01.2021
3298 Clouds 28 1013 78 10000 6.17 60 08:34 26.01.2021
3299 Clouds 27 1013 83 10000 6.17 70 07:50 26.01.2021
3300 Rain 28 1012 78 10000 5.66 60 06:24 26.01.2021
3301 Rain 29 1012 74 10000 6.69 60 05:44 26.01.2021
3302 Clouds 29 1012 74 10000 5.14 60 05:23 26.01.2021
3303 Clouds 30 1012 70 10000 5.66 50 02:46 26.01.2021
3304 Clouds 30 1012 70 10000 6.69 60 00:57 26.01.2021
3305 Clouds 30 1013 70 10000 6.17 50 23:40 25.01.2021
3306 Clouds 30 1013 70 10000 6.17 50 23:18 25.01.2021
3307 Clouds 29 1013 74 10000 5.66 50 22:39 25.01.2021
3308 Clouds 29 1013 74 10000 5.14 50 21:52 25.01.2021
3309 Clouds 28 1013 78 10000 5.66 50 21:33 25.01.2021
3310 Clouds 29 1013 74 10000 7.2 50 20:52 25.01.2021
3311 Clouds 28 1013 78 10000 6.17 50 20:33 25.01.2021
3312 Clouds 28 1013 78 10000 6.69 50 19:52 25.01.2021
3313 Clouds 28 1013 78 10000 6.17 40 19:32 25.01.2021
3314 Clouds 28 1012 78 10000 5.66 50 18:49 25.01.2021
3315 Clouds 28 1012 78 10000 6.17 50 18:28 25.01.2021
3316 Clouds 28 1012 78 10000 6.69 50 17:58 25.01.2021
3317 Clouds 27 1011 78 10000 6.17 50 17:40 25.01.2021
3318 Clouds 27 1011 78 10000 6.17 50 17:22 25.01.2021
3319 Clouds 28 1011 78 10000 6.17 50 16:41 25.01.2021
3320 Clouds 28 1011 78 10000 6.17 50 16:22 25.01.2021
3321 Clouds 27 1011 78 10000 5.66 50 15:49 25.01.2021
3322 Clouds 27 1011 83 10000 5.66 60 15:29 25.01.2021
3323 Clouds 28 1011 78 10000 6.17 50 14:50 25.01.2021
3324 Clouds 28 1011 78 10000 6.17 50 14:19 25.01.2021
3325 Clouds 28 1012 78 10000 6.69 50 13:54 25.01.2021
3326 Clouds 28 1012 78 10000 6.69 60 13:28 25.01.2021
3327 Clouds 28 1012 78 10000 7.2 60 12:46 25.01.2021
3328 Rain 28 1013 78 10000 7.2 50 12:24 25.01.2021
3329 Rain 28 1013 74 10000 7.2 50 11:48 25.01.2021
3330 Rain 28 1013 78 10000 6.17 60 11:19 25.01.2021
3331 Rain 28 1014 78 10000 6.17 60 10:41 25.01.2021
3332 Rain 28 1014 78 10000 6.17 60 10:19 25.01.2021
3333 Rain 28 1013 78 10000 6.17 60 09:45 25.01.2021
3334 Rain 28 1013 78 10000 5.66 60 09:27 25.01.2021
3335 Rain 28 1013 74 10000 5.66 60 08:29 25.01.2021
3336 Rain 28 1012 74 10000 5.66 60 07:32 25.01.2021
3337 Clouds 28 1011 74 10000 6.17 60 06:55 25.01.2021
3338 Rain 29 1011 70 10000 5.66 60 04:18 25.01.2021
3339 Clouds 30 1011 66 10000 5.66 50 01:32 25.01.2021
3340 Clouds 30 1012 70 10000 5.66 60 23:44 24.01.2021
3341 Rain 30 1012 70 10000 5.66 50 23:19 24.01.2021
3342 Rain 29 1013 74 10000 6.17 50 22:43 24.01.2021
3343 Rain 29 1013 79 10000 5.14 40 22:21 24.01.2021
3344 Rain 29 1013 74 10000 6.17 50 21:48 24.01.2021
3345 Clouds 30 1012 66 10000 5.14 50 21:24 24.01.2021
3346 Clouds 29 1013 65 10000 5.66 40 20:46 24.01.2021
3347 Clouds 29 1012 70 10000 5.66 50 20:22 24.01.2021
3348 Clouds 29 1012 70 10000 5.66 40 19:52 24.01.2021
3349 Clouds 29 1012 70 10000 5.66 50 19:27 24.01.2021
3350 Clouds 28 1012 74 10000 5.66 50 18:58 24.01.2021
3351 Clouds 27 1011 74 10000 5.66 50 18:39 24.01.2021
3352 Clouds 27 1011 74 10000 5.66 50 18:20 24.01.2021
3353 Clouds 27 1011 78 10000 5.66 60 17:50 24.01.2021
3354 Rain 27 1011 78 10000 5.14 50 17:28 24.01.2021
3355 Rain 27 1011 78 10000 5.14 50 16:58 24.01.2021
3356 Rain 27 1011 78 10000 5.14 50 16:38 24.01.2021
3357 Rain 27 1011 78 10000 5.14 50 16:18 24.01.2021
3358 Rain 27 1011 78 10000 5.14 50 15:43 24.01.2021
3359 Rain 27 1011 78 10000 5.66 50 15:18 24.01.2021
3360 Rain 28 1011 69 10000 5.66 50 14:39 24.01.2021
3361 Clouds 28 1011 74 10000 6.17 60 13:48 24.01.2021
3362 Clouds 28 1011 74 10000 6.17 60 13:48 24.01.2021
3363 Clouds 27 1012 78 10000 4.63 30 13:27 24.01.2021
3364 Clouds 27 1012 78 10000 6.17 60 12:50 24.01.2021
3365 Clouds 28 1012 74 10000 6.69 60 12:20 24.01.2021
3366 Clouds 28 1012 74 10000 6.69 60 12:20 24.01.2021
3367 Clouds 28 1013 74 10000 6.69 60 11:52 24.01.2021
3368 Clouds 28 1013 74 10000 6.69 50 11:24 24.01.2021
3369 Clouds 28 1013 74 10000 6.17 60 10:49 24.01.2021
3370 Clouds 28 1013 74 10000 6.69 60 10:26 24.01.2021
3371 Clouds 28 1013 74 10000 6.69 60 09:23 24.01.2021
3372 Clouds 28 1012 74 10000 6.69 60 08:58 24.01.2021
3373 Clouds 28 1012 74 10000 7.2 60 08:23 24.01.2021
3374 Clouds 30 1011 66 10000 5.14 50 02:52 24.01.2021
3375 Clouds 30 1012 66 10000 4.12 40 01:52 24.01.2021
3376 Clouds 30 1012 66 10000 4.63 50 00:26 24.01.2021
3377 Clouds 30 1012 62 10000 4.12 40 23:53 23.01.2021
3378 Clouds 30 1013 62 10000 4.63 40 23:27 23.01.2021
3379 Clouds 30 1013 62 10000 4.12 40 22:55 23.01.2021
3380 Clouds 29 1013 65 10000 3.09 40 22:37 23.01.2021
3381 Clouds 30 1013 66 10000 3.09 30 21:53 23.01.2021
3382 Clouds 29 1013 70 10000 3.6 30 21:22 23.01.2021
3383 Clouds 29 1013 65 10000 3.6 20 20:48 23.01.2021
3384 Clouds 29 1013 65 10000 3.6 20 20:48 23.01.2021
3385 Clouds 29 1013 70 10000 3.6 20 20:25 23.01.2021
3386 Clouds 28 1013 74 10000 4.63 40 19:47 23.01.2021
3387 Clouds 28 1013 74 10000 4.63 40 19:24 23.01.2021
3388 Clouds 28 1013 74 10000 4.63 40 18:51 23.01.2021
3389 Rain 28 1012 74 10000 4.12 40 18:26 23.01.2021
3390 Rain 27 1012 78 10000 4.12 40 17:55 23.01.2021
3391 Rain 27 1012 78 10000 4.12 40 17:27 23.01.2021
3392 Rain 28 1012 74 10000 3.09 30 16:51 23.01.2021
3393 Rain 27 1012 78 10000 5.14 50 16:31 23.01.2021
3394 Rain 27 1012 78 10000 5.14 50 15:48 23.01.2021
3395 Clouds 28 1012 78 10000 5.14 50 15:26 23.01.2021
3396 Clouds 28 1012 78 10000 4.12 50 14:35 23.01.2021
3397 Rain 27 1012 78 10000 4.63 50 13:56 23.01.2021
3398 Rain 27 1013 78 10000 4.12 50 13:36 23.01.2021
3399 Rain 28 1013 74 10000 4.63 50 12:57 23.01.2021
3400 Rain 28 1013 74 10000 5.14 60 12:37 23.01.2021
3401 Clouds 28 1013 74 10000 5.14 60 12:18 23.01.2021
3402 Clouds 28 1014 74 10000 5.14 50 11:33 23.01.2021
3403 Clouds 28 1014 78 10000 5.14 50 10:52 23.01.2021
3404 Clouds 28 1014 78 10000 6.17 60 10:22 23.01.2021
3405 Clouds 28 1014 78 10000 5.66 60 09:49 23.01.2021
3406 Clouds 28 1013 78 10000 6.69 60 08:57 23.01.2021
3407 Clouds 28 1013 78 10000 6.69 60 08:37 23.01.2021
3408 Clouds 27 1013 83 10000 2.57 90 07:37 23.01.2021
3409 Clouds 29 1012 74 10000 5.14 70 05:32 23.01.2021
3410 Clouds 32 1013 62 10000 6.69 60 00:54 23.01.2021
3411 Clouds 31 1013 70 10000 7.2 50 23:51 22.01.2021
3412 Clouds 31 1013 66 10000 6.69 70 23:30 22.01.2021
3413 Clouds 31 1014 66 10000 6.69 70 22:40 22.01.2021
3414 Clouds 29 1014 74 10000 6.17 70 21:47 22.01.2021
3415 Clouds 29 1014 74 10000 5.14 70 21:29 22.01.2021
3416 Clouds 30 1014 74 10000 5.14 70 20:59 22.01.2021
3417 Clouds 28 1014 78 10000 4.12 90 20:38 22.01.2021
3418 Clouds 28 1014 78 10000 4.63 80 19:56 22.01.2021
3419 Clouds 28 1014 78 10000 2.57 90 19:25 22.01.2021
3420 Clouds 27 1014 78 10000 2.57 90 18:59 22.01.2021
3421 Clouds 26 1014 83 10000 2.06 100 18:39 22.01.2021
3422 Clouds 26 1014 83 10000 2.06 100 18:20 22.01.2021
3423 Clouds 26 1014 83 10000 2.06 100 17:43 22.01.2021
3424 Clouds 26 1013 83 10000 1.54 110 17:20 22.01.2021
3425 Clouds 25 1013 88 10000 1.03 90 16:39 22.01.2021
3426 Clouds 25 1013 88 10000 1.03 90 16:19 22.01.2021
3427 Clouds 25 1013 88 10000 1.03 170 15:28 22.01.2021
3428 Clouds 26 1013 83 10000 1.54 110 14:51 22.01.2021
3429 Clouds 26 1013 83 10000 2.06 90 14:29 22.01.2021
3430 Clouds 26 1013 83 10000 1.54 100 13:46 22.01.2021
3431 Clouds 27 1014 83 10000 2.57 100 13:27 22.01.2021
3432 Clouds 26 1014 83 10000 3.09 100 12:44 22.01.2021
3433 Rain 26 1015 83 10000 2.57 90 12:20 22.01.2021
3434 Rain 26 1015 83 10000 2.57 90 11:45 22.01.2021
3435 Rain 27 1016 78 10000 2.57 90 10:49 22.01.2021
3436 Clouds 26 1016 83 10000 2.57 90 10:29 22.01.2021
3437 Rain 26 1016 89 10000 3.09 80 09:46 22.01.2021
3438 Clouds 27 1015 78 10000 1.54 100 08:59 22.01.2021
3439 Clouds 27 1015 78 10000 1.54 110 08:32 22.01.2021
3440 Clouds 27 1015 78 10000 1.03 120 08:00 22.01.2021
3441 Clouds 29 1014 70 10000 3.09 70 06:24 22.01.2021
3442 Clouds 30 1013 70 10000 3.6 40 02:29 22.01.2021
3443 Rain 30 1013 70 10000 3.09 30 00:30 22.01.2021
3444 Clouds 30 1014 66 10000 3.09 10 23:50 21.01.2021
3445 Rain 29 1014 70 10000 3.09 40 23:22 21.01.2021
3446 Rain 30 1014 70 10000 3.09 20 22:48 21.01.2021
3447 Clouds 30 1014 70 10000 3.6 30 21:59 21.01.2021
3448 Clouds 29 1014 74 10000 3.6 40 21:40 21.01.2021
3449 Clouds 29 1014 74 10000 3.6 40 21:19 21.01.2021
3450 Clouds 30 1014 70 10000 3.09 30 20:46 21.01.2021
3451 Clouds 29 1014 74 10000 3.09 40 20:21 21.01.2021
3452 Clouds 28 1014 78 10000 3.6 60 19:50 21.01.2021
3453 Clouds 27 1013 83 10000 2.57 90 19:26 21.01.2021
3454 Clouds 27 1013 78 10000 1.54 80 18:47 21.01.2021
3455 Clouds 26 1013 89 10000 1.03 110 18:22 21.01.2021
3456 Clouds 25 1013 88 10000 0.51 120 17:58 21.01.2021
3457 Clouds 25 1013 88 10000 1.03 100 17:22 21.01.2021
3458 Clouds 26 1013 83 10000 2.57 110 16:59 21.01.2021
3459 Clouds 25 1012 88 10000 2.06 90 16:40 21.01.2021
3460 Clouds 25 1012 88 10000 2.06 90 16:22 21.01.2021
3461 Clouds 25 1012 94 10000 1.54 120 15:47 21.01.2021
3462 Clouds 25 1012 88 10000 1.54 80 15:26 21.01.2021
3463 Clouds 24 1013 94 10000 0.51 70 14:46 21.01.2021
3464 Clouds 24 1013 94 10000 0.51 70 14:24 21.01.2021
3465 Clouds 24 1013 94 10000 1.03 80 13:43 21.01.2021
3466 Clouds 24 1013 94 10000 1.03 80 13:43 21.01.2021
3467 Clouds 25 1013 88 10000 1.54 100 13:23 21.01.2021
3468 Clouds 25 1013 88 10000 1.54 100 13:23 21.01.2021
3469 Clouds 25 1013 88 10000 0.51 110 12:44 21.01.2021
3470 Clouds 26 1013 83 10000 1.03 90 12:24 21.01.2021
3471 Clouds 26 1013 83 10000 2.06 110 11:52 21.01.2021
3472 Clouds 27 1014 83 10000 3.6 50 11:30 21.01.2021
3473 Clouds 27 1014 83 10000 3.6 50 11:30 21.01.2021
3474 Clouds 27 1014 83 10000 4.12 40 10:52 21.01.2021
3475 Clouds 27 1014 89 10000 4.12 50 10:33 21.01.2021
3476 Clouds 27 1014 83 10000 4.12 50 09:48 21.01.2021
3477 Clouds 27 1014 89 10000 5.66 60 09:30 21.01.2021
3478 Clouds 27 1013 78 10000 4.12 70 08:57 21.01.2021
3479 Clouds 28 1013 74 10000 5.14 60 08:27 21.01.2021
3480 Clouds 28 1013 78 10000 5.66 70 07:45 21.01.2021
3481 Clouds 28 1013 74 10000 5.14 70 07:23 21.01.2021
3482 Clouds 28 1013 74 10000 3.6 90 05:50 21.01.2021
3483 Clouds 29 1012 74 10000 4.12 60 04:28 21.01.2021
3484 Clouds 30 1012 70 10000 4.12 20 01:25 21.01.2021
3485 Clouds 29 1013 79 10000 5.14 40 00:40 21.01.2021
3486 Clouds 30 1013 74 10000 4.12 60 23:39 20.01.2021
3487 Clouds 30 1013 74 10000 4.12 60 23:21 20.01.2021
3488 Clouds 29 1013 74 10000 5.14 50 22:48 20.01.2021
3489 Clouds 29 1013 74 10000 4.12 40 22:28 20.01.2021
3490 Clouds 29 1013 74 10000 4.12 50 21:43 20.01.2021
3491 Clouds 29 1013 74 10000 3.6 40 21:22 20.01.2021
3492 Clouds 29 1013 70 10000 4.12 60 20:50 20.01.2021
3493 Clouds 28 1013 74 10000 4.63 80 20:20 20.01.2021
3494 Clouds 27 1013 78 10000 5.66 50 19:46 20.01.2021
3495 Rain 27 1013 83 10000 3.09 80 19:27 20.01.2021
3496 Clouds 27 1013 83 10000 3.09 80 18:42 20.01.2021
3497 Clouds 26 1012 89 10000 3.09 90 18:19 20.01.2021
3498 Clouds 26 1011 89 10000 3.6 90 17:42 20.01.2021
3499 Clouds 26 1011 89 10000 3.6 90 17:23 20.01.2021
3500 Clouds 25 1011 88 10000 2.06 80 16:44 20.01.2021
3501 Clouds 25 1011 88 10000 2.06 100 15:55 20.01.2021
3502 Clouds 25 1011 88 10000 1.54 100 15:36 20.01.2021
3503 Clouds 25 1011 88 10000 2.06 100 14:51 20.01.2021
3504 Clouds 25 1011 88 10000 3.09 80 14:28 20.01.2021
3505 Clouds 25 1011 88 10000 3.6 80 13:59 20.01.2021
3506 Clouds 25 1011 94 10000 3.09 80 13:36 20.01.2021
3507 Clouds 26 1012 89 10000 3.09 80 12:48 20.01.2021
3508 Clouds 26 1012 89 10000 3.6 60 12:21 20.01.2021
3509 Clouds 26 1013 89 10000 3.6 90 11:39 20.01.2021
3510 Clouds 26 1013 89 10000 3.6 90 11:18 20.01.2021
3511 Clouds 26 1013 89 10000 2.57 90 10:43 20.01.2021
3512 Rain 25 1013 94 10000 2.57 100 10:18 20.01.2021
3513 Rain 25 1013 94 10000 3.09 100 09:31 20.01.2021
3514 Clouds 25 1013 94 10000 2.57 100 08:59 20.01.2021
3515 Clouds 25 1013 94 10000 3.09 100 08:34 20.01.2021
3516 Clouds 25 1013 94 10000 3.6 90 07:59 20.01.2021
3517 Clouds 25 1013 94 10000 3.6 90 07:37 20.01.2021
3518 Clouds 25 1013 94 10000 2.06 90 06:39 20.01.2021
3519 Rain 26 1012 94 10000 1.54 200 03:30 20.01.2021
3520 Rain 29 1012 74 10000 2.57 330 01:20 20.01.2021
3521 Clouds 29 1012 74 10000 4.12 330 00:46 20.01.2021
3522 Rain 29 1013 74 10000 3.6 350 23:49 19.01.2021
3523 Rain 29 1013 74 10000 3.6 340 23:27 19.01.2021
3524 Rain 29 1013 74 10000 3.6 360 22:57 19.01.2021
3525 Rain 29 1014 74 10000 3.6 350 22:37 19.01.2021
3526 Rain 29 1014 74 10000 3.6 350 22:19 19.01.2021
3527 Rain 29 1014 74 10000 3.6 350 21:50 19.01.2021
3528 Rain 29 1014 74 10000 3.09 350 21:26 19.01.2021
3529 Rain 29 1014 79 10000 3.09 360 20:44 19.01.2021
3530 Rain 29 1014 74 10000 3.6 10 20:24 19.01.2021
3531 Rain 29 1014 74 10000 3.09 10 19:54 19.01.2021
3532 Rain 28 1014 78 10000 3.09 20 19:29 19.01.2021
3533 Rain 28 1013 78 10000 3.09 20 18:49 19.01.2021
3534 Rain 28 1013 78 10000 2.57 10 18:27 19.01.2021
3535 Rain 28 1013 78 10000 2.57 360 17:46 19.01.2021
3536 Clouds 28 1013 78 10000 2.57 10 17:27 19.01.2021
3537 Clouds 28 1012 78 10000 2.06 360 16:50 19.01.2021
3538 Clouds 28 1012 78 10000 2.06 20 16:29 19.01.2021
3539 Clouds 28 1012 78 10000 3.09 10 15:59 19.01.2021
3540 Clouds 28 1012 78 10000 3.6 20 15:40 19.01.2021
3541 Clouds 28 1012 78 10000 3.09 20 14:57 19.01.2021
3542 Clouds 28 1012 78 10000 3.09 20 14:39 19.01.2021
3543 Clouds 28 1012 78 10000 3.09 20 14:20 19.01.2021
3544 Clouds 28 1013 78 10000 3.09 30 13:40 19.01.2021
3545 Clouds 28 1013 78 10000 3.09 30 13:21 19.01.2021
3546 Clouds 28 1013 78 10000 2.57 20 12:47 19.01.2021
3547 Clouds 28 1013 78 10000 2.57 20 12:28 19.01.2021
3548 Clouds 28 1013 78 10000 3.09 40 11:43 19.01.2021
3549 Clouds 28 1014 78 10000 3.6 40 11:23 19.01.2021
3550 Clouds 27 1014 83 10000 2.57 70 10:50 19.01.2021
3551 Clouds 27 1014 83 10000 2.57 90 10:31 19.01.2021
3552 Rain 27 1014 83 10000 1.54 90 09:52 19.01.2021
3553 Rain 27 1014 83 10000 1.03 110 09:24 19.01.2021
3554 Rain 27 1014 83 10000 2.06 40 08:51 19.01.2021
3555 Clouds 26 1014 89 10000 2.06 80 08:18 19.01.2021
3556 Clouds 27 1013 83 10000 2.06 80 07:28 19.01.2021
3557 Clouds 28 1013 78 10000 2.06 60 05:42 19.01.2021
3558 Clouds 28 1013 78 10000 5.14 70 02:27 19.01.2021
3559 Clouds 29 1013 70 10000 2.57 70 00:47 19.01.2021
3560 Clouds 25 1014 83 10000 3.6 110 23:57 18.01.2021
3561 Rain 26 1015 78 10000 4.12 40 23:29 18.01.2021
3562 Rain 27 1015 74 10000 4.12 360 22:50 18.01.2021
3563 Clouds 28 1015 74 10000 4.63 40 22:24 18.01.2021
3564 Clouds 30 1015 66 10000 3.6 50 21:49 18.01.2021
3565 Clouds 30 1015 74 10000 4.63 50 21:24 18.01.2021
3566 Clouds 30 1015 70 10000 3.09 80 20:58 18.01.2021
3567 Clouds 29 1015 74 10000 2.57 80 20:35 18.01.2021
3568 Clouds 28 1015 78 10000 2.06 90 19:55 18.01.2021
3569 Clouds 27 1015 83 10000 1.03 110 19:36 18.01.2021
3570 Clouds 26 1015 89 10000 1.03 100 18:57 18.01.2021
3571 Clouds 25 1014 88 10000 1.03 90 18:38 18.01.2021
3572 Clouds 25 1014 88 10000 1.03 90 18:19 18.01.2021
3573 Clouds 25 1014 88 10000 1.03 100 17:39 18.01.2021
3574 Clouds 25 1013 88 10000 1.54 100 16:55 18.01.2021
3575 Clouds 24 1013 94 10000 1.54 90 16:35 18.01.2021
3576 Clouds 24 1013 94 10000 2.06 80 15:58 18.01.2021
3577 Clouds 24 1013 88 10000 2.06 80 15:40 18.01.2021
3578 Clouds 24 1013 88 10000 2.06 80 15:19 18.01.2021
3579 Clouds 24 1013 88 10000 2.06 90 14:42 18.01.2021
3580 Clouds 25 1014 88 10000 1.54 90 14:24 18.01.2021
3581 Clouds 25 1014 88 10000 1.54 80 13:45 18.01.2021
3582 Clouds 25 1014 88 10000 1.54 100 13:25 18.01.2021
3583 Clouds 25 1014 88 10000 1.03 90 12:49 18.01.2021
3584 Clouds 25 1014 88 10000 1.54 90 12:19 18.01.2021
3585 Clouds 25 1015 88 10000 2.06 90 11:48 18.01.2021
3586 Clouds 25 1015 88 10000 1.03 110 11:27 18.01.2021
3587 Clouds 25 1015 83 10000 0.51 70 10:53 18.01.2021
3588 Clouds 26 1016 83 10000 1.03 110 10:34 18.01.2021
3589 Clouds 25 1015 83 10000 2.06 100 09:43 18.01.2021
3590 Clouds 25 1015 83 10000 1.54 90 09:19 18.01.2021
3591 Clouds 26 1015 78 10000 1.54 100 08:43 18.01.2021
3592 Clouds 26 1015 78 10000 1.54 110 07:55 18.01.2021
3593 Clouds 27 1015 74 10000 1.54 110 06:44 18.01.2021
3594 Clouds 29 1014 65 10000 4.12 50 04:55 18.01.2021
3595 Clouds 28 1014 69 10000 4.12 50 04:29 18.01.2021
3596 Clouds 29 1014 70 10000 3.6 30 03:53 18.01.2021
3597 Clouds 29 1014 70 10000 3.09 50 03:30 18.01.2021
3598 Clouds 29 1014 70 10000 3.09 30 02:59 18.01.2021
3599 Clouds 30 1014 62 10000 3.6 40 02:20 18.01.2021
3600 Clouds 30 1014 66 10000 3.6 50 00:41 18.01.2021
3601 Clouds 30 1014 66 10000 3.6 50 00:19 18.01.2021
3602 Clouds 29 1015 70 10000 3.09 50 23:41 17.01.2021
3603 Clouds 29 1015 70 10000 3.09 50 23:19 17.01.2021
3604 Clouds 30 1015 66 10000 3.6 40 22:24 17.01.2021
3605 Clouds 29 1015 70 10000 3.6 40 21:45 17.01.2021
3606 Clouds 27 1015 71 10000 3.36 54 21:27 17.01.2021
3607 Clouds 27 1015 71 10000 3.36 54 20:55 17.01.2021
3608 Clouds 27 1015 71 10000 3.36 54 20:37 17.01.2021
3609 Rain 27 1015 71 10000 3.1 56 20:18 17.01.2021
3610 Rain 27 1015 71 10000 3.1 56 19:40 17.01.2021
3611 Clouds 24 1014 94 10000 1.03 190 18:57 17.01.2021
3612 Rain 24 1014 94 10000 1.03 190 18:30 17.01.2021
3613 Rain 24 1014 94 10000 1.03 190 17:52 17.01.2021
3614 Rain 25 1014 88 10000 1.54 120 17:34 17.01.2021
3615 Rain 24 1013 94 10000 1.03 90 16:56 17.01.2021
3616 Rain 24 1013 94 10000 1.54 70 16:37 17.01.2021
3617 Rain 24 1013 94 10000 1.54 70 16:18 17.01.2021
3618 Rain 24 1013 94 10000 0.51 80 15:37 17.01.2021
3619 Rain 24 1013 94 10000 0.51 80 15:19 17.01.2021
3620 Rain 25 1013 88 10000 1.54 120 14:40 17.01.2021
3621 Clouds 25 1013 88 10000 1.54 120 14:21 17.01.2021
3622 Clouds 24 1014 94 10000 1.03 190 13:43 17.01.2021
3623 Clouds 25 1014 88 10000 1.54 90 13:24 17.01.2021
3624 Clouds 25 1014 88 10000 1.54 80 12:45 17.01.2021
3625 Rain 24 1014 94 10000 2.06 90 12:25 17.01.2021
3626 Rain 24 1015 94 10000 0.51 150 11:26 17.01.2021
3627 Rain 24 1015 94 10000 0.51 200 10:54 17.01.2021
3628 Rain 24 1015 94 10000 0.51 80 10:36 17.01.2021
3629 Rain 24 1015 94 10000 0.51 80 10:18 17.01.2021
3630 Rain 25 1015 83 10000 1.03 90 08:59 17.01.2021
3631 Rain 25 1014 83 10000 0.51 120 08:41 17.01.2021
3632 Clouds 29 1013 65 10000 2.06 350 04:36 17.01.2021
3633 Clouds 29 1013 70 10000 2.06 10 03:44 17.01.2021
3634 Clouds 30 1014 66 10000 2.06 10 01:29 17.01.2021
3635 Clouds 29 1014 70 10000 3.09 30 00:21 17.01.2021
3636 Clouds 30 1014 70 10000 3.6 30 23:52 16.01.2021
3637 Clouds 30 1014 66 10000 3.09 30 23:24 16.01.2021
3638 Clouds 30 1014 66 10000 3.6 60 22:54 16.01.2021
3639 Clouds 29 1014 74 10000 3.6 50 22:19 16.01.2021
3640 Clouds 29 1014 74 10000 3.6 50 21:46 16.01.2021
3641 Clouds 30 1014 70 10000 3.6 50 21:23 16.01.2021
3642 Clouds 29 1014 74 10000 3.09 50 20:48 16.01.2021
3643 Clouds 28 1014 78 10000 3.6 50 20:24 16.01.2021
3644 Clouds 28 1014 78 10000 3.09 50 19:49 16.01.2021
3645 Clouds 27 1014 89 10000 1.54 80 19:29 16.01.2021
3646 Clouds 25 1014 94 10000 0.51 190 18:46 16.01.2021
3647 Clouds 24 1014 94 10000 0.51 160 18:27 16.01.2021
3648 Clouds 23 1014 100 10000 1.03 80 17:50 16.01.2021
3649 Clouds 23 1014 94 10000 1.03 80 17:30 16.01.2021
3650 Clouds 23 1013 94 10000 1.03 100 16:51 16.01.2021
3651 Clouds 23 1013 94 10000 2.06 80 16:33 16.01.2021
3652 Clouds 23 1013 94 10000 2.06 80 15:55 16.01.2021
3653 Clouds 23 1013 94 10000 1.03 70 15:36 16.01.2021
3654 Clouds 23 1014 94 10000 1.54 80 14:31 16.01.2021
3655 Clouds 24 1014 88 10000 0.51 90 13:50 16.01.2021
3656 Clouds 25 1014 88 10000 1.54 100 13:30 16.01.2021
3657 Clouds 26 1014 83 10000 1.54 100 12:47 16.01.2021
3658 Clouds 25 1015 83 10000 2.57 90 12:21 16.01.2021
3659 Clouds 25 1015 83 10000 2.06 90 11:54 16.01.2021
3660 Clouds 26 1015 83 10000 2.57 90 11:25 16.01.2021
3661 Clouds 26 1016 83 10000 2.57 90 10:50 16.01.2021
3662 Clouds 26 1016 83 10000 1.54 90 10:28 16.01.2021
3663 Clouds 26 1015 83 10000 2.57 90 09:40 16.01.2021
3664 Clouds 26 1015 83 10000 2.57 90 09:19 16.01.2021
3665 Clouds 27 1015 78 10000 2.06 110 07:51 16.01.2021
3666 Rain 27 1014 78 10000 3.6 90 06:44 16.01.2021
3667 Rain 27 1014 78 10000 3.6 90 06:44 16.01.2021
3668 Clouds 29 1013 74 10000 5.14 60 04:40 16.01.2021
3669 Clouds 30 1013 70 10000 4.63 60 02:56 16.01.2021
3670 Clouds 30 1014 70 10000 4.63 50 01:44 16.01.2021
3671 Clouds 30 1014 70 10000 5.14 50 00:38 16.01.2021
3672 Clouds 30 1014 70 10000 5.14 50 00:19 16.01.2021
3673 Rain 26 1014 94 10000 3.09 100 23:24 15.01.2021
3674 Clouds 29 1014 74 10000 4.63 50 22:26 15.01.2021
3675 Clouds 29 1014 74 10000 4.63 60 21:47 15.01.2021
3676 Clouds 29 1015 74 10000 5.14 80 21:22 15.01.2021
3677 Clouds 28 1015 83 10000 2.57 20 20:42 15.01.2021
3678 Clouds 28 1015 83 10000 2.57 20 20:22 15.01.2021
3679 Clouds 27 1015 83 10000 2.57 90 19:41 15.01.2021
3680 Clouds 27 1015 83 10000 2.57 90 19:23 15.01.2021
3681 Clouds 26 1015 83 10000 2.06 90 18:44 15.01.2021
3682 Clouds 26 1015 83 10000 2.06 90 18:44 15.01.2021
3683 Clouds 26 1014 83 10000 4.12 90 18:19 15.01.2021
3684 Clouds 25 1014 94 10000 2.57 90 17:52 15.01.2021
3685 Rain 25 1014 88 10000 1.03 100 17:26 15.01.2021
3686 Rain 26 1014 83 10000 1.03 110 16:58 15.01.2021
3687 Rain 26 1014 83 10000 1.54 110 16:26 15.01.2021
3688 Rain 26 1014 83 10000 1.54 110 15:44 15.01.2021
3689 Rain 26 1013 83 10000 1.54 110 15:23 15.01.2021
3690 Rain 26 1013 83 10000 2.57 100 14:56 15.01.2021
3691 Rain 26 1013 83 10000 3.6 80 14:37 15.01.2021
3692 Clouds 26 1013 83 10000 3.6 80 14:18 15.01.2021
3693 Clouds 26 1014 89 10000 4.12 80 13:40 15.01.2021
3694 Clouds 26 1014 89 10000 4.12 80 13:19 15.01.2021
3695 Clouds 26 1014 89 10000 4.63 80 12:37 15.01.2021
3696 Clouds 26 1014 89 10000 4.63 80 12:19 15.01.2021
3697 Clouds 27 1015 78 10000 4.63 90 11:42 15.01.2021
3698 Clouds 27 1015 83 10000 4.63 80 10:58 15.01.2021
3699 Clouds 27 1015 78 10000 4.63 90 10:39 15.01.2021
3700 Clouds 27 1015 78 10000 4.63 90 10:19 15.01.2021
3701 Clouds 27 1015 78 10000 4.12 80 09:47 15.01.2021
3702 Clouds 27 1015 78 10000 4.12 80 09:47 15.01.2021
3703 Clouds 27 1015 78 10000 4.63 90 09:27 15.01.2021
3704 Clouds 27 1015 78 10000 3.09 90 08:27 15.01.2021
3705 Clouds 27 1015 78 10000 3.6 100 07:42 15.01.2021
3706 Clouds 27 1014 78 10000 3.6 90 07:21 15.01.2021
3707 Clouds 28 1014 74 10000 4.12 100 06:28 15.01.2021
3708 Clouds 30 1014 66 10000 6.69 70 02:28 15.01.2021
3709 Clouds 30 1015 66 10000 7.2 70 00:37 15.01.2021
3710 Clouds 29 1016 70 10000 7.2 70 23:30 14.01.2021
3711 Clouds 30 1016 70 10000 6.69 70 22:50 14.01.2021
3712 Clouds 29 1016 70 10000 7.2 80 22:27 14.01.2021
3713 Clouds 28 1016 78 10000 6.17 60 21:56 14.01.2021
3714 Clouds 29 1016 70 10000 6.17 70 21:38 14.01.2021
3715 Clouds 29 1016 70 10000 6.17 70 21:19 14.01.2021
3716 Clouds 29 1016 70 10000 6.69 70 20:42 14.01.2021
3717 Clouds 28 1016 78 10000 5.14 80 19:57 14.01.2021
3718 Clouds 28 1016 74 10000 4.12 80 19:36 14.01.2021
3719 Clouds 28 1016 74 10000 4.12 80 19:36 14.01.2021
3720 Clouds 26 1016 83 10000 3.09 90 18:57 14.01.2021
3721 Clouds 26 1016 83 10000 3.09 90 18:57 14.01.2021
3722 Clouds 26 1016 83 10000 3.09 100 18:36 14.01.2021
3723 Clouds 25 1016 88 10000 2.57 100 17:55 14.01.2021
3724 Clouds 25 1015 88 10000 2.06 90 17:29 14.01.2021
3725 Clouds 26 1015 83 10000 2.57 90 16:54 14.01.2021
3726 Clouds 25 1015 88 10000 3.09 80 16:30 14.01.2021
3727 Clouds 25 1015 88 10000 3.09 90 15:54 14.01.2021
3728 Clouds 25 1015 88 10000 2.57 90 15:28 14.01.2021
3729 Clouds 25 1015 88 10000 2.06 90 14:44 14.01.2021
3730 Rain 26 1016 83 10000 3.09 90 14:22 14.01.2021
3731 Clouds 26 1016 83 10000 3.09 90 13:54 14.01.2021
3732 Rain 26 1016 83 10000 2.06 100 13:23 14.01.2021
3733 Rain 26 1016 83 10000 3.09 90 12:56 14.01.2021
3734 Rain 26 1016 83 10000 3.09 90 12:21 14.01.2021
3735 Rain 26 1017 89 10000 3.09 100 11:54 14.01.2021
3736 Rain 26 1017 83 10000 4.12 80 11:27 14.01.2021
3737 Rain 26 1017 89 10000 4.12 90 10:58 14.01.2021
3738 Rain 25 1017 88 10000 5.14 80 10:38 14.01.2021
3739 Rain 25 1017 88 10000 5.14 80 10:18 14.01.2021
3740 Rain 26 1017 89 10000 6.69 60 09:42 14.01.2021
3741 Rain 26 1017 89 10000 6.69 60 09:20 14.01.2021
3742 Rain 27 1017 83 10000 4.63 90 08:30 14.01.2021
3743 Clouds 27 1017 83 10000 3.6 90 07:53 14.01.2021
3744 Clouds 27 1017 83 10000 4.63 90 07:30 14.01.2021
3745 Clouds 28 1016 74 10000 7.72 70 06:30 14.01.2021
3746 Clouds 29 1015 70 10000 8.23 80 04:24 14.01.2021
3747 Clouds 30 1016 70 10000 9.26 70 23:57 13.01.2021
3748 Clouds 29 1017 74 10000 6.17 90 23:24 13.01.2021
3749 Clouds 30 1017 70 10000 9.26 80 22:43 13.01.2021
3750 Clouds 30 1017 70 10000 8.75 70 22:20 13.01.2021
3751 Clouds 30 1017 70 10000 7.72 80 21:42 13.01.2021
3752 Rain 29 1017 74 10000 8.23 80 21:19 13.01.2021
3753 Rain 29 1017 74 10000 7.2 80 20:43 13.01.2021
3754 Clouds 29 1017 70 10000 5.66 90 20:21 13.01.2021
3755 Clouds 28 1017 74 10000 6.69 80 19:46 13.01.2021
3756 Rain 27 1017 78 10000 4.12 90 19:23 13.01.2021
3757 Clouds 27 1017 78 10000 4.12 90 18:44 13.01.2021
3758 Clouds 27 1017 78 10000 3.09 90 18:22 13.01.2021
3759 Clouds 26 1016 78 10000 3.09 90 17:41 13.01.2021
3760 Clouds 26 1016 78 10000 3.09 90 17:18 13.01.2021
3761 Clouds 26 1016 78 10000 3.6 90 16:36 13.01.2021
3762 Clouds 26 1016 78 10000 3.6 90 16:18 13.01.2021
3763 Clouds 27 1015 74 10000 4.12 90 15:40 13.01.2021
3764 Clouds 26 1015 83 10000 3.6 90 14:56 13.01.2021
3765 Clouds 26 1016 83 10000 3.09 90 14:21 13.01.2021
3766 Clouds 27 1016 78 10000 5.14 90 13:38 13.01.2021
3767 Clouds 27 1016 78 10000 5.14 90 13:18 13.01.2021
3768 Clouds 27 1016 78 10000 5.14 90 13:18 13.01.2021
3769 Clouds 27 1016 78 10000 4.63 80 12:43 13.01.2021
3770 Clouds 27 1017 78 10000 6.17 80 12:22 13.01.2021
3771 Clouds 27 1017 78 10000 5.66 80 11:47 13.01.2021
3772 Clouds 27 1017 78 10000 6.69 80 11:26 13.01.2021
3773 Clouds 27 1018 78 10000 7.2 80 10:46 13.01.2021
3774 Clouds 27 1018 78 10000 6.69 70 10:25 13.01.2021
3775 Clouds 27 1018 78 10000 7.2 70 09:40 13.01.2021
3776 Clouds 27 1017 78 10000 8.23 70 08:57 13.01.2021
3777 Clouds 27 1017 78 10000 7.2 70 08:34 13.01.2021
3778 Clouds 27 1017 78 10000 6.69 80 07:56 13.01.2021
3779 Clouds 27 1017 78 10000 5.14 90 07:27 13.01.2021
3780 Rain 29 1016 74 10000 7.2 70 04:22 13.01.2021
3781 Rain 29 1016 74 10000 9.26 70 03:54 13.01.2021
3782 Rain 29 1016 74 10000 5.66 80 03:33 13.01.2021
3783 Rain 27 1016 83 10000 5.66 80 02:53 13.01.2021
3784 Clouds 30 1017 66 10000 8.75 70 00:38 13.01.2021
3785 Clouds 29 1017 70 10000 9.77 70 23:33 12.01.2021
3786 Rain 30 1017 70 10000 8.75 70 22:47 12.01.2021
3787 Rain 30 1017 70 10000 9.77 80 22:25 12.01.2021
3788 Rain 29 1017 70 10000 9.26 80 21:53 12.01.2021
3789 Rain 29 1017 70 10000 9.26 70 21:35 12.01.2021
3790 Rain 29 1017 70 10000 9.26 70 21:35 12.01.2021
3791 Clouds 29 1017 70 10000 8.75 70 20:56 12.01.2021
3792 Clouds 28 1017 74 10000 7.2 80 20:37 12.01.2021
3793 Clouds 28 1017 74 10000 7.2 80 20:19 12.01.2021
3794 Clouds 28 1017 74 10000 8.23 70 19:37 12.01.2021
3795 Clouds 28 1017 74 10000 8.23 70 18:52 12.01.2021
3796 Clouds 27 1017 78 10000 6.69 80 18:25 12.01.2021
3797 Clouds 26 1016 83 10000 5.14 80 17:55 12.01.2021
3798 Clouds 26 1016 83 10000 4.63 90 17:31 12.01.2021
3799 Clouds 26 1016 83 10000 4.63 90 17:31 12.01.2021
3800 Clouds 26 1015 78 10000 3.6 90 16:44 12.01.2021
3801 Clouds 26 1015 78 10000 3.6 80 16:25 12.01.2021
3802 Clouds 26 1015 78 10000 3.6 90 15:45 12.01.2021
3803 Clouds 25 1016 73 10000 4.12 80 15:22 12.01.2021
3804 Rain 25 1016 73 10000 4.12 100 14:47 12.01.2021
3805 Rain 27 1016 78 10000 6.17 80 14:26 12.01.2021
3806 Rain 27 1016 78 10000 6.17 70 13:53 12.01.2021
3807 Rain 27 1017 78 10000 6.69 80 13:29 12.01.2021
3808 Clouds 27 1017 78 10000 7.2 70 12:29 12.01.2021
3809 Clouds 27 1017 74 10000 7.72 60 11:42 12.01.2021
3810 Clouds 27 1017 78 10000 7.2 70 10:55 12.01.2021
3811 Clouds 27 1017 78 10000 7.72 70 10:26 12.01.2021
3812 Clouds 27 1017 78 10000 7.2 60 09:58 12.01.2021
3813 Clouds 27 1017 78 10000 7.2 60 09:38 12.01.2021
3814 Clouds 27 1017 78 10000 7.2 60 09:18 12.01.2021
3815 Clouds 27 1017 83 10000 7.2 70 08:26 12.01.2021
3816 Clouds 28 1016 74 10000 6.17 70 07:37 12.01.2021
3817 Clouds 28 1016 74 10000 6.69 60 06:50 12.01.2021
3818 Rain 29 1015 70 10000 7.2 60 05:34 12.01.2021
3819 Clouds 29 1015 70 10000 7.2 60 03:28 12.01.2021
3820 Clouds 29 1015 70 10000 7.2 60 03:28 12.01.2021
3821 Rain 30 1015 70 10000 6.17 60 02:21 12.01.2021
3822 Rain 30 1015 70 10000 6.69 60 01:31 12.01.2021
3823 Rain 29 1016 74 10000 6.17 60 23:58 11.01.2021
3824 Rain 29 1016 74 10000 5.66 60 23:37 11.01.2021
3825 Rain 29 1016 74 10000 5.66 60 23:18 11.01.2021
3826 Rain 29 1016 74 10000 5.14 50 22:45 11.01.2021
3827 Rain 29 1016 74 10000 5.66 50 22:26 11.01.2021
3828 Rain 29 1017 74 10000 5.14 50 21:43 11.01.2021
3829 Rain 29 1017 70 10000 5.14 50 21:24 11.01.2021
3830 Clouds 28 1017 74 10000 4.63 50 20:49 11.01.2021
3831 Rain 29 1016 74 10000 4.63 60 20:29 11.01.2021
3832 Rain 28 1016 78 10000 5.14 60 19:57 11.01.2021
3833 Rain 27 1016 83 10000 3.09 90 19:34 11.01.2021
3834 Clouds 27 1016 78 10000 4.12 60 18:46 11.01.2021
3835 Clouds 25 1015 94 10000 2.57 90 18:27 11.01.2021
3836 Clouds 25 1015 94 10000 2.06 100 17:56 11.01.2021
3837 Clouds 25 1015 94 10000 1.54 110 17:38 11.01.2021
3838 Clouds 25 1015 94 10000 1.54 110 17:19 11.01.2021
3839 Clouds 25 1014 94 10000 2.06 100 16:40 11.01.2021
3840 Clouds 25 1014 94 10000 2.06 100 16:40 11.01.2021
3841 Rain 25 1014 94 10000 2.06 100 16:21 11.01.2021
3842 Rain 25 1014 94 10000 2.57 110 15:49 11.01.2021
3843 Rain 25 1014 88 10000 2.06 110 15:27 11.01.2021
3844 Rain 24 1014 94 10000 2.06 100 14:40 11.01.2021
3845 Rain 25 1015 88 10000 3.09 90 13:53 11.01.2021
3846 Rain 26 1015 83 10000 4.63 60 13:27 11.01.2021
3847 Rain 27 1015 83 10000 3.6 50 12:52 11.01.2021
3848 Rain 27 1015 83 10000 3.6 50 12:52 11.01.2021
3849 Rain 26 1015 89 10000 3.09 90 12:32 11.01.2021
3850 Rain 26 1015 83 10000 3.09 80 11:56 11.01.2021
3851 Rain 27 1016 78 10000 5.14 70 11:34 11.01.2021
3852 Rain 27 1016 83 10000 5.14 70 10:51 11.01.2021
3853 Rain 27 1015 83 10000 4.63 70 10:25 11.01.2021
3854 Rain 26 1015 89 10000 2.57 90 09:43 11.01.2021
3855 Clouds 26 1015 89 10000 2.57 100 09:21 11.01.2021
3856 Clouds 26 1015 83 10000 2.57 90 08:45 11.01.2021
3857 Clouds 26 1015 83 10000 2.06 80 08:18 11.01.2021
3858 Clouds 27 1015 78 10000 4.12 60 07:28 11.01.2021
3859 Clouds 27 1014 83 10000 4.63 90 06:58 11.01.2021
3860 Rain 29 1013 74 10000 4.63 80 03:57 11.01.2021
3861 Rain 29 1014 74 10000 6.17 70 01:46 11.01.2021
3862 Clouds 29 1014 74 10000 5.14 50 00:34 11.01.2021
3863 Clouds 30 1015 70 10000 5.66 70 23:35 10.01.2021
3864 Rain 29 1015 70 10000 5.66 60 22:48 10.01.2021
3865 Rain 29 1015 74 10000 5.66 80 22:24 10.01.2021
3866 Rain 29 1015 74 10000 5.66 80 22:24 10.01.2021
3867 Rain 29 1015 74 10000 5.14 70 21:46 10.01.2021
3868 Rain 28 1015 78 10000 5.14 80 21:21 10.01.2021
3869 Rain 28 1015 78 10000 6.17 70 20:56 10.01.2021
3870 Rain 27 1015 83 10000 6.17 70 20:33 10.01.2021
3871 Clouds 27 1014 83 10000 5.66 80 19:44 10.01.2021
3872 Clouds 27 1014 83 10000 5.14 80 19:26 10.01.2021
3873 Clouds 27 1014 83 10000 5.14 80 19:26 10.01.2021
3874 Clouds 26 1014 83 10000 3.6 90 18:56 10.01.2021
3875 Clouds 25 1014 88 10000 3.09 90 18:37 10.01.2021
3876 Clouds 25 1014 88 10000 3.09 90 18:18 10.01.2021
3877 Rain 24 1013 88 10000 2.57 80 17:21 10.01.2021
3878 Rain 25 1013 88 10000 3.09 80 16:33 10.01.2021
3879 Rain 25 1013 88 10000 3.09 80 16:33 10.01.2021
3880 Rain 25 1012 88 10000 3.6 90 15:57 10.01.2021
3881 Rain 25 1012 88 10000 1.54 110 15:25 10.01.2021
3882 Rain 25 1012 88 10000 1.54 100 14:50 10.01.2021
3883 Rain 25 1013 88 8000 2.06 90 14:32 10.01.2021
3884 Rain 25 1013 88 10000 1.03 110 13:55 10.01.2021
3885 Rain 25 1013 88 10000 1.03 110 13:37 10.01.2021
3886 Rain 25 1013 88 10000 1.03 110 13:18 10.01.2021
3887 Rain 26 1014 83 10000 2.06 100 12:47 10.01.2021
3888 Rain 26 1014 83 10000 2.06 100 12:27 10.01.2021
3889 Rain 25 1014 83 10000 0.51 150 11:39 10.01.2021
3890 Rain 25 1014 83 10000 0.51 150 11:18 10.01.2021
3891 Rain 26 1014 78 10000 1.54 100 10:36 10.01.2021
3892 Rain 26 1014 78 10000 1.54 100 10:18 10.01.2021
3893 Clouds 26 1014 78 10000 2.06 100 09:27 10.01.2021
3894 Clear 26 1014 73 10000 1.54 120 08:21 10.01.2021
3895 Clear 26 1013 73 10000 3.09 100 07:29 10.01.2021
3896 Clear 27 1013 61 10000 4.12 90 06:20 10.01.2021
3897 Clouds 28 1012 61 10000 5.14 90 05:36 10.01.2021
3898 Clouds 29 1012 61 10000 5.66 90 02:58 10.01.2021
3899 Clouds 29 1013 65 10000 4.63 80 01:22 10.01.2021
3900 Clouds 29 1013 65 10000 2.57 110 23:49 09.01.2021
3901 Clouds 29 1014 65 10000 4.63 80 23:30 09.01.2021
3902 Clouds 29 1014 65 10000 4.12 90 22:48 09.01.2021
3903 Clouds 29 1014 65 10000 3.6 90 22:19 09.01.2021
3904 Clouds 29 1014 65 10000 4.63 80 21:57 09.01.2021
3905 Clouds 29 1014 65 10000 4.63 90 21:38 09.01.2021
3906 Clouds 29 1014 65 10000 4.63 90 21:18 09.01.2021
3907 Clouds 28 1014 74 10000 3.09 100 20:44 09.01.2021
3908 Clouds 26 1014 83 10000 2.06 110 19:45 09.01.2021
3909 Clear 26 1014 83 10000 1.54 110 19:22 09.01.2021
3910 Clouds 25 1014 88 10000 1.54 120 18:52 09.01.2021
3911 Rain 24 1014 94 7000 1.54 120 18:33 09.01.2021
3912 Rain 24 1013 94 10000 1.54 130 17:48 09.01.2021
3913 Rain 24 1013 88 10000 2.06 150 17:30 09.01.2021
3914 Clouds 24 1012 88 10000 1.03 140 16:36 09.01.2021
3915 Clear 25 1012 83 10000 1.03 110 15:52 09.01.2021
3916 Clouds 26 1012 78 10000 2.06 120 15:33 09.01.2021
3917 Clouds 26 1013 78 10000 2.06 100 14:41 09.01.2021
3918 Clouds 26 1013 78 10000 2.06 100 14:20 09.01.2021
3919 Clouds 26 1013 78 10000 3.09 100 13:49 09.01.2021
3920 Clouds 26 1013 83 10000 2.06 100 13:30 09.01.2021
3921 Clouds 26 1013 83 10000 2.06 100 13:30 09.01.2021
3922 Clouds 26 1013 83 10000 3.6 90 12:49 09.01.2021
3923 Clouds 26 1014 83 10000 1.03 130 12:24 09.01.2021
3924 Clouds 25 1014 83 10000 1.54 160 11:56 09.01.2021
3925 Clouds 26 1014 78 10000 1.54 110 11:30 09.01.2021
3926 Clouds 26 1015 78 10000 1.54 130 10:52 09.01.2021
3927 Clouds 26 1015 78 10000 1.54 110 10:33 09.01.2021
3928 Clouds 26 1015 78 10000 1.54 110 09:53 09.01.2021
3929 Clouds 26 1015 78 10000 1.03 130 09:29 09.01.2021
3930 Clouds 27 1015 74 10000 2.06 110 08:35 09.01.2021
3931 Clouds 27 1014 74 10000 3.09 100 06:58 09.01.2021
3932 Clouds 27 1014 74 10000 3.6 100 06:39 09.01.2021
3933 Clouds 29 1013 61 10000 4.12 100 04:47 09.01.2021
3934 Clouds 29 1013 61 10000 4.63 90 03:21 09.01.2021
3935 Clouds 29 1014 61 10000 5.14 100 02:30 09.01.2021
3936 Clouds 29 1014 65 10000 5.14 100 01:45 09.01.2021
3937 Clouds 29 1014 65 8000 3.09 120 00:35 09.01.2021
3938 Clouds 29 1015 70 10000 4.12 100 23:57 08.01.2021
3939 Clouds 30 1015 66 10000 4.63 90 22:57 08.01.2021
3940 Clouds 29 1015 65 10000 3.6 100 22:18 08.01.2021
3941 Clouds 29 1016 61 10000 3.09 100 21:35 08.01.2021
3942 Clouds 28 1016 65 10000 3.6 90 20:42 08.01.2021
3943 Clouds 28 1016 69 10000 2.57 100 20:23 08.01.2021
3944 Clouds 27 1016 74 10000 2.06 110 19:44 08.01.2021
3945 Clouds 26 1016 78 10000 2.06 120 19:21 08.01.2021
3946 Clouds 24 1015 88 10000 1.03 120 18:34 08.01.2021
3947 Clouds 24 1015 88 10000 1.03 120 18:34 08.01.2021
3948 Clouds 23 1015 88 10000 1.03 140 17:55 08.01.2021
3949 Clouds 24 1014 83 10000 1.54 130 17:30 08.01.2021
3950 Clouds 24 1014 83 10000 1.54 120 16:51 08.01.2021
3951 Clouds 24 1014 88 10000 1.54 130 15:57 08.01.2021
3952 Clouds 24 1014 88 10000 1.03 160 15:38 08.01.2021
3953 Clouds 25 1014 78 10000 1.03 120 14:41 08.01.2021
3954 Clouds 25 1014 78 10000 1.03 120 14:22 08.01.2021
3955 Clouds 25 1014 83 10000 2.06 110 13:22 08.01.2021
3956 Clouds 26 1014 78 10000 2.06 110 12:53 08.01.2021
3957 Clouds 25 1014 83 10000 2.06 110 12:23 08.01.2021
3958 Clouds 25 1014 83 10000 2.06 110 12:23 08.01.2021
3959 Clouds 25 1015 83 10000 2.06 120 11:59 08.01.2021
3960 Clouds 25 1015 83 10000 1.54 120 11:39 08.01.2021
3961 Clouds 25 1015 83 10000 1.54 120 11:39 08.01.2021
3962 Clouds 25 1015 83 10000 1.54 120 11:19 08.01.2021
3963 Clouds 26 1015 78 10000 1.54 130 10:42 08.01.2021
3964 Clouds 25 1015 83 10000 1.54 110 09:54 08.01.2021
3965 Clouds 25 1015 78 10000 1.54 110 09:36 08.01.2021
3966 Clouds 25 1015 78 10000 1.54 110 09:18 08.01.2021
3967 Clouds 27 1015 74 10000 1.54 110 07:30 08.01.2021
3968 Clouds 27 1015 74 10000 3.09 100 06:46 08.01.2021
3969 Rain 29 1015 79 10000 5.66 80 00:44 08.01.2021
3970 Rain 29 1015 74 10000 5.66 60 23:43 07.01.2021
3971 Rain 29 1015 70 10000 6.17 80 22:55 07.01.2021
3972 Rain 29 1016 70 10000 6.17 70 22:36 07.01.2021
3973 Clouds 29 1016 70 10000 5.14 80 21:50 07.01.2021
3974 Clouds 28 1016 69 10000 3.09 100 21:30 07.01.2021
3975 Clouds 28 1016 74 10000 4.12 90 20:52 07.01.2021
3976 Clouds 28 1016 74 10000 3.6 100 20:34 07.01.2021
3977 Clouds 27 1016 83 10000 3.6 90 19:47 07.01.2021
3978 Clouds 27 1016 83 10000 3.09 90 19:24 07.01.2021
3979 Clouds 26 1016 89 10000 2.06 100 18:46 07.01.2021
3980 Clouds 25 1016 94 10000 1.54 110 18:20 07.01.2021
3981 Clouds 24 1015 94 10000 0.51 120 17:34 07.01.2021
3982 Clouds 25 1015 94 10000 1.54 120 16:56 07.01.2021
3983 Clouds 25 1015 94 10000 2.06 110 16:32 07.01.2021
3984 Rain 25 1015 94 10000 1.54 120 15:52 07.01.2021
3985 Rain 25 1015 94 10000 2.57 120 15:30 07.01.2021
3986 Rain 25 1015 94 10000 2.06 120 14:31 07.01.2021
3987 Rain 24 1015 94 2000 1.54 160 13:50 07.01.2021
3988 Rain 25 1015 94 10000 1.03 140 13:30 07.01.2021
3989 Rain 25 1015 88 10000 0.51 130 12:55 07.01.2021
3990 Rain 26 1016 88 10000 1.5 110 12:23 07.01.2021
3991 Rain 26 1016 88 10000 2.1 100 11:39 07.01.2021
3992 Clouds 26 1016 88 10000 2.1 100 10:56 07.01.2021
3993 Clouds 25 1016 88 10000 2.6 90 10:37 07.01.2021
3994 Clouds 26 1017 83 10000 3.6 90 09:57 07.01.2021
3995 Clouds 27 1017 83 10000 2.1 90 09:38 07.01.2021
3996 Clouds 27 1016 83 10000 2.6 90 08:40 07.01.2021
3997 Clear 27 1016 83 10000 3.6 80 08:21 07.01.2021
3998 Clear 27 1016 83 10000 3.1 90 07:40 07.01.2021
3999 Rain 29 1015 74 10000 5.1 70 05:52 07.01.2021
4000 Clear 30 1015 74 10000 4.6 50 01:34 07.01.2021
4001 Clouds 29 1015 74 10000 4.6 50 23:58 06.01.2021
4002 Clouds 30 1015 74 10000 5.1 60 22:51 06.01.2021
4003 Clouds 29 1016 74 10000 4.6 50 22:20 06.01.2021
4004 Clouds 28 1016 78 10000 4.6 50 21:41 06.01.2021
4005 Clouds 28 1016 78 10000 4.6 50 21:41 06.01.2021
4006 Clouds 28 1016 78 10000 5.1 50 21:22 06.01.2021
4007 Clouds 28 1016 78 10000 5.1 50 20:42 06.01.2021
4008 Clouds 28 1016 78 10000 5.1 50 20:22 06.01.2021
4009 Clouds 27 1016 83 10000 5.7 60 19:42 06.01.2021
4010 Clouds 27 1016 83 10000 5.7 60 19:24 06.01.2021
4011 Clouds 27 1015 83 10000 5.1 60 18:45 06.01.2021
4012 Clear 27 1015 83 10000 5.1 60 18:27 06.01.2021
4013 Clear 27 1015 83 10000 5.1 60 17:45 06.01.2021
4014 Clear 27 1015 83 10000 5.1 60 17:26 06.01.2021
4015 Clear 27 1015 83 10000 5.7 50 16:56 06.01.2021
4016 Clear 27 1014 83 10000 5.1 50 16:20 06.01.2021
4017 Clear 27 1014 83 10000 5.1 50 16:20 06.01.2021
4018 Clear 27 1014 83 10000 5.1 50 15:58 06.01.2021
4019 Clear 27 1014 83 10000 4.6 60 15:33 06.01.2021
4020 Clear 27 1014 83 10000 5.1 60 14:56 06.01.2021
4021 Clear 27 1014 83 10000 5.1 50 14:30 06.01.2021
4022 Clear 27 1014 83 10000 5.1 50 14:30 06.01.2021
4023 Clouds 27 1015 83 10000 4.6 50 13:47 06.01.2021
4024 Clouds 27 1015 83 10000 5.7 60 13:24 06.01.2021
4025 Clouds 27 1015 83 10000 5.7 60 12:53 06.01.2021
4026 Clouds 27 1015 83 10000 5.1 60 12:29 06.01.2021
4027 Rain 25 1016 83 10000 2.1 60 11:41 06.01.2021
4028 Clouds 27 1016 88 10000 5.1 60 11:21 06.01.2021
4029 Clouds 27 1017 83 10000 5.1 50 10:31 06.01.2021
4030 Clear 27 1017 83 10000 5.1 50 09:52 06.01.2021
4031 Clear 27 1016 83 10000 5.7 50 09:22 06.01.2021
4032 Clear 27 1016 83 10000 6.2 50 08:41 06.01.2021
4033 Clear 27 1016 83 10000 6.2 60 07:59 06.01.2021
4034 Rain 28 1015 78 10000 5.7 60 07:18 06.01.2021
4035 Clouds 28 1014 78 10000 5.1 50 05:51 06.01.2021
4036 Clouds 28 1014 78 10000 6.2 40 04:35 06.01.2021
4037 Clouds 30 1014 70 10000 7.2 50 02:47 06.01.2021
4038 Clouds 30 1014 70 10000 7.2 50 02:26 06.01.2021
4039 Clouds 29 1014 74 10000 6.7 50 01:23 06.01.2021
4040 Clouds 29 1014 74 10000 6.2 50 23:32 05.01.2021
4041 Clouds 28 1014 78 10000 6.7 50 22:45 05.01.2021
4042 Clouds 29 1015 74 10000 6.2 50 22:21 05.01.2021
4043 Clouds 29 1015 74 10000 6.2 50 21:57 05.01.2021
4044 Clouds 28 1015 78 10000 6.2 50 20:58 05.01.2021
4045 Clouds 28 1015 78 10000 5.7 50 20:28 05.01.2021
4046 Clouds 27 1014 78 10000 5.7 60 19:45 05.01.2021
4047 Clouds 27 1014 78 10000 5.7 60 19:23 05.01.2021
4048 Clouds 26 1014 83 10000 6.2 60 18:45 05.01.2021
4049 Clouds 26 1014 83 10000 6.2 60 18:25 05.01.2021
4050 Clouds 26 1013 83 10000 6.2 40 17:50 05.01.2021
4051 Clouds 26 1013 83 10000 6.2 40 17:31 05.01.2021
4052 Clouds 26 1013 83 10000 6.7 60 16:53 05.01.2021
4053 Clouds 26 1013 83 10000 6.7 60 16:22 05.01.2021
4054 Clouds 26 1012 78 10000 7.7 60 15:51 05.01.2021
4055 Rain 26 1012 78 10000 7.7 60 15:26 05.01.2021
4056 Rain 26 1012 78 10000 6.7 60 14:46 05.01.2021
4057 Rain 26 1013 83 10000 7.2 50 13:53 05.01.2021
4058 Rain 26 1013 83 10000 5.7 60 13:32 05.01.2021
4059 Clouds 26 1013 88 10000 7.2 60 12:50 05.01.2021
4060 Clouds 26 1013 88 10000 7.2 60 12:29 05.01.2021
4061 Clouds 26 1014 83 10000 7.2 70 11:41 05.01.2021
4062 Clouds 26 1014 78 10000 6.7 60 11:23 05.01.2021
4063 Clouds 26 1014 78 10000 6.7 60 11:22 05.01.2021
4064 Clouds 26 1014 78 10000 6.7 60 11:20 05.01.2021
4065 Rain 26 1014 83 10000 7.2 40 10:43 05.01.2021
4066 Clouds 27 1014 78 10000 6.7 60 09:58 05.01.2021
4067 Clouds 27 1014 78 10000 6.7 60 09:37 05.01.2021
4068 Clouds 27 1014 78 10000 5.7 60 08:41 05.01.2021
4069 Clouds 27 1014 78 10000 6.7 60 08:18 05.01.2021
4070 Rain 28 1012 69 10000 7.2 60 05:29 05.01.2021
4071 Clouds 29 1013 66 10000 7.7 50 02:36 05.01.2021
4072 Clouds 29 1013 66 10000 8.7 70 00:22 05.01.2021
4073 Clouds 29 1013 66 10000 9.3 70 23:39 04.01.2021
4074 Clouds 29 1014 70 10000 8.7 70 23:19 04.01.2021
4075 Clouds 29 1014 70 10000 8.7 70 22:42 04.01.2021
4076 Clouds 29 1014 66 10000 8.2 70 21:57 04.01.2021
4077 Clouds 27 1014 78 10000 6.7 60 21:38 04.01.2021
4078 Rain 27 1014 74 10000 7.2 60 20:56 04.01.2021
4079 Rain 27 1014 74 10000 7.2 60 20:32 04.01.2021
4080 Rain 27 1014 74 10000 7.2 60 20:32 04.01.2021
4081 Clouds 27 1014 74 10000 7.7 70 19:55 04.01.2021
4082 Clouds 27 1014 74 10000 7.7 70 19:29 04.01.2021
4083 Clouds 27 1013 74 10000 8.2 70 18:58 04.01.2021
4084 Clouds 26 1013 78 10000 7.2 70 18:29 04.01.2021
4085 Clouds 26 1013 78 10000 6.7 50 17:44 04.01.2021
4086 Clouds 26 1013 78 10000 6.7 50 17:26 04.01.2021
4087 Clouds 26 1012 74 10000 7.2 70 16:48 04.01.2021
4088 Clouds 26 1012 74 10000 7.2 70 16:27 04.01.2021
4089 Clouds 26 1012 78 10000 7.2 70 15:51 04.01.2021
4090 Clouds 26 1012 78 10000 7.7 70 15:32 04.01.2021
4091 Clouds 26 1012 78 10000 7.7 70 14:48 04.01.2021
4092 Clouds 26 1013 78 10000 6.2 70 13:51 04.01.2021
4093 Clouds 26 1013 78 10000 7.7 70 13:26 04.01.2021
4094 Clouds 26 1014 74 10000 8.2 60 12:44 04.01.2021
4095 Clouds 26 1014 78 10000 7.2 70 11:58 04.01.2021
4096 Clouds 26 1015 78 10000 6.7 70 11:22 04.01.2021
4097 Clouds 26 1015 78 10000 6.7 70 10:53 04.01.2021
4098 Clouds 25 1015 83 10000 2.6 110 10:29 04.01.2021
4099 Clouds 27 1015 74 10000 5.7 70 09:53 04.01.2021
4100 Clouds 27 1015 74 10000 5.7 80 09:22 04.01.2021
4101 Clouds 27 1015 74 10000 6.7 80 08:46 04.01.2021
4102 Clouds 27 1015 74 10000 6.7 70 07:58 04.01.2021
4103 Clouds 27 1015 74 10000 6.7 70 07:37 04.01.2021
4104 Clouds 28 1014 69 10000 7.7 70 05:33 04.01.2021
4105 Clouds 29 1014 70 10000 7.7 60 03:40 04.01.2021
4106 Clouds 29 1014 70 10000 7.7 60 00:47 04.01.2021
4107 Clouds 29 1015 70 10000 7.7 60 23:49 03.01.2021
4108 Clouds 29 1015 70 10000 7.7 60 23:49 03.01.2021
4109 Clouds 29 1015 74 10000 7.7 60 23:21 03.01.2021
4110 Clouds 29 1015 74 10000 7.7 60 22:52 03.01.2021
4111 Clouds 29 1015 74 10000 8.7 60 22:30 03.01.2021
4112 Clouds 29 1015 70 10000 8.2 60 21:48 03.01.2021
4113 Clouds 29 1015 70 10000 8.2 60 21:26 03.01.2021
4114 Clouds 29 1015 70 10000 8.2 60 21:26 03.01.2021
4115 Clouds 28 1015 78 10000 7.7 60 20:45 03.01.2021
4116 Clear 28 1015 78 10000 7.7 60 20:26 03.01.2021
4117 Clear 28 1016 78 10000 6.7 60 19:55 03.01.2021
4118 Clear 28 1015 74 10000 7.7 70 19:34 03.01.2021
4119 Clear 28 1015 74 10000 7.2 60 18:56 03.01.2021
4120 Clouds 27 1015 83 10000 6.2 60 18:38 03.01.2021
4121 Clouds 27 1015 83 10000 7.2 70 17:59 03.01.2021
4122 Clouds 27 1014 78 10000 7.7 60 17:40 03.01.2021
4123 Clouds 27 1014 83 10000 7.2 60 17:22 03.01.2021
4124 Clouds 27 1014 78 10000 7.2 60 16:42 03.01.2021
4125 Clouds 27 1014 83 10000 7.2 60 16:19 03.01.2021
4126 Clouds 27 1014 78 10000 7.7 70 15:45 03.01.2021
4127 Clouds 27 1014 78 10000 7.7 70 15:23 03.01.2021
4128 Clouds 27 1014 83 10000 7.7 60 14:45 03.01.2021
4129 Clouds 27 1014 83 10000 7.7 60 14:24 03.01.2021
4130 Clouds 27 1014 83 10000 8.2 70 13:39 03.01.2021
4131 Clouds 27 1015 83 10000 7.7 60 13:21 03.01.2021
4132 Clouds 27 1015 83 10000 7.7 60 11:57 03.01.2021
4133 Clouds 27 1016 78 10000 7.7 70 11:39 03.01.2021
4134 Clouds 27 1016 78 10000 7.7 70 11:21 03.01.2021
4135 Clouds 27 1016 83 10000 8.7 60 10:34 03.01.2021
4136 Clouds 27 1016 83 10000 6.7 70 09:52 03.01.2021
4137 Clear 27 1016 78 10000 8.2 70 09:28 03.01.2021
4138 Clear 27 1015 78 10000 8.2 70 08:32 03.01.2021
4139 Clouds 28 1015 78 10000 7.2 60 06:57 03.01.2021
4140 Clouds 30 1013 70 10000 8.2 60 03:30 03.01.2021
4141 Clear 30 1013 70 10000 8.2 60 02:26 03.01.2021
4142 Clouds 29 1014 74 10000 7.2 50 00:33 03.01.2021
4143 Clouds 29 1014 70 10000 8.7 60 23:52 02.01.2021
4144 Clouds 29 1014 74 10000 7.2 60 23:19 02.01.2021
4145 Clouds 29 1014 79 10000 7.7 60 22:47 02.01.2021
4146 Clouds 29 1014 79 10000 7.7 60 22:29 02.01.2021
4147 Clouds 29 1014 74 10000 8.7 60 21:48 02.01.2021
4148 Clouds 29 1014 74 10000 8.7 60 21:28 02.01.2021
4149 Clouds 28 1015 74 10000 8.2 60 20:45 02.01.2021
4150 Clouds 28 1015 78 10000 8.2 60 20:25 02.01.2021
4151 Clouds 27 1015 83 10000 7.7 60 19:46 02.01.2021
4152 Clouds 27 1014 78 10000 8.7 60 19:20 02.01.2021
4153 Clouds 27 1014 78 10000 8.7 60 19:20 02.01.2021
4154 Rain 27 1014 78 10000 8.7 60 18:47 02.01.2021
4155 Clouds 27 1014 78 10000 8.7 60 18:29 02.01.2021
4156 Clouds 26 1013 88 10000 5.1 50 17:46 02.01.2021
4157 Rain 26 1013 88 10000 5.1 50 17:26 02.01.2021
4158 Rain 26 1013 88 10000 5.1 30 16:42 02.01.2021
4159 Rain 27 1013 78 10000 8.7 60 16:21 02.01.2021
4160 Rain 27 1013 78 10000 8.7 60 15:43 02.01.2021
4161 Rain 27 1013 78 10000 8.7 60 15:25 02.01.2021
4162 Rain 27 1013 78 10000 8.2 60 14:37 02.01.2021
4163 Rain 27 1013 78 10000 8.2 60 14:18 02.01.2021
4164 Rain 26 1013 88 10000 7.7 60 13:39 02.01.2021
4165 Rain 27 1013 78 10000 8.7 50 12:54 02.01.2021
4166 Rain 25 1013 88 7000 9.8 60 12:32 02.01.2021
4167 Rain 27 1014 78 10000 7.7 50 11:49 02.01.2021
4168 Rain 27 1014 78 10000 8.7 50 11:22 02.01.2021
4169 Rain 27 1014 88 10000 6.7 40 10:52 02.01.2021
4170 Rain 27 1014 88 10000 6.7 40 10:30 02.01.2021
4171 Rain 26 1014 88 10000 7.7 50 09:54 02.01.2021
4172 Rain 26 1014 88 10000 6.7 50 09:23 02.01.2021
4173 Rain 26 1014 88 10000 6.7 50 08:50 02.01.2021
4174 Clouds 27 1014 78 10000 8.2 50 08:28 02.01.2021
4175 Clouds 27 1013 83 10000 8.2 60 07:47 02.01.2021
4176 Clouds 27 1013 83 10000 8.2 60 07:22 02.01.2021
4177 Rain 26 1013 88 10000 8.2 70 06:42 02.01.2021
4178 Clouds 27 1012 78 10000 7.2 50 05:45 02.01.2021
4179 Clouds 28 1012 78 10000 8.2 60 00:58 02.01.2021
4180 Clouds 29 1012 74 10000 7.7 60 00:37 02.01.2021
4181 Clouds 28 1012 74 10000 7.7 60 23:54 01.01.2021
4182 Clouds 29 1013 74 10000 7.7 50 23:21 01.01.2021
4183 Clouds 29 1013 74 10000 8.2 60 22:47 01.01.2021
4184 Clouds 29 1013 74 10000 8.2 60 22:47 01.01.2021
4185 Clouds 29 1013 74 10000 8.2 60 22:24 01.01.2021
4186 Clouds 28 1013 78 10000 7.7 60 21:44 01.01.2021
4187 Clouds 28 1013 74 10000 7.2 60 21:22 01.01.2021
4188 Clouds 28 1013 74 10000 7.2 60 21:22 01.01.2021
4189 Clouds 28 1013 74 10000 7.2 60 20:53 01.01.2021
4190 Clouds 28 1013 74 10000 7.7 60 20:22 01.01.2021
4191 Clouds 27 1013 78 10000 7.2 60 19:43 01.01.2021
4192 Clouds 27 1013 78 10000 7.2 60 19:24 01.01.2021
4193 Clouds 27 1012 83 10000 6.7 60 18:57 01.01.2021
4194 Clouds 27 1012 78 10000 7.7 60 18:39 01.01.2021
4195 Rain 27 1012 78 10000 7.2 60 17:59 01.01.2021
4196 Rain 27 1012 78 10000 7.2 60 17:41 01.01.2021
4197 Clouds 27 1012 78 10000 6.7 60 17:18 01.01.2021
4198 Clouds 26 1011 83 10000 5.1 60 16:37 01.01.2021
4199 Rain 26 1011 83 10000 5.1 50 15:46 01.01.2021
4200 Rain 26 1011 78 10000 6.2 70 14:57 01.01.2021
4201 Rain 25 1012 88 10000 3.6 80 14:39 01.01.2021
4202 Rain 25 1012 88 10000 5.1 60 13:52 01.01.2021
4203 Rain 25 1012 88 10000 4.6 50 13:33 01.01.2021
4204 Rain 24 1013 88 10000 5.7 40 12:43 01.01.2021
4205 Rain 25 1013 88 10000 7.2 20 12:20 01.01.2021
4206 Rain 25 1014 88 10000 6.2 40 11:39 01.01.2021
4207 Rain 25 1014 88 10000 6.7 80 11:18 01.01.2021
4208 Rain 27 1013 83 10000 6.2 70 10:43 01.01.2021
4209 Rain 27 1013 83 10000 6.2 70 10:43 01.01.2021
4210 Rain 26 1013 88 10000 3.6 90 09:48 01.01.2021
4211 Rain 26 1013 88 10000 2.6 90 09:21 01.01.2021
4212 Rain 26 1013 88 6000 5.7 50 08:30 01.01.2021
4213 Rain 27 1011 78 10000 4.6 80 04:53 01.01.2021
4214 Rain 25 1011 88 10000 3.1 100 02:56 01.01.2021
4215 Rain 26 1012 88 9000 5.7 50 01:37 01.01.2021
4216 Clouds 30 1012 74 10000 4.6 50 00:28 01.01.2021
4217 Clouds 28 1012 78 10000 4.1 40 23:37 31.12.2020
4218 Clouds 29 1013 74 10000 2.6 30 23:19 31.12.2020
4219 Clouds 28 1013 78 10000 3.6 30 22:40 31.12.2020
4220 Rain 28 1013 78 10000 5.7 60 22:20 31.12.2020
4221 Rain 28 1013 78 10000 6.2 60 21:47 31.12.2020
4222 Rain 28 1013 78 10000 6.2 60 21:25 31.12.2020
4223 Rain 27 1014 83 10000 1.5 330 20:54 31.12.2020
4224 Clouds 26 1014 88 10000 1 110 20:18 31.12.2020
4225 Rain 25 1013 88 10000 3.1 60 19:47 31.12.2020
4226 Rain 25 1013 88 10000 3.1 60 19:28 31.12.2020
4227 Clear 25 1013 88 10000 1.5 70 18:50 31.12.2020
4228 Rain 25 1013 88 10000 1.5 70 18:24 31.12.2020
4229 Rain 26 1012 88 10000 2.6 60 17:44 31.12.2020
4230 Rain 25 1012 88 10000 1.5 80 17:23 31.12.2020
4231 Rain 25 1012 88 10000 4.6 60 16:43 31.12.2020
4232 Rain 25 1012 88 10000 4.6 60 16:25 31.12.2020
4233 Rain 26 1012 78 10000 6.2 70 15:49 31.12.2020
4234 Clear 27 1012 78 10000 4.1 60 15:22 31.12.2020
4235 Clear 27 1012 78 10000 4.1 60 14:57 31.12.2020
4236 Clear 27 1012 78 10000 5.1 70 14:39 31.12.2020
4237 Clear 27 1013 78 10000 4.6 70 14:21 31.12.2020
4238 Clear 26 1013 88 10000 4.6 70 13:39 31.12.2020
4239 Clear 26 1013 88 10000 4.6 70 13:39 31.12.2020
4240 Clouds 26 1013 88 10000 4.6 70 13:20 31.12.2020
4241 Rain 26 1013 88 10000 4.6 70 12:53 31.12.2020
4242 Rain 27 1013 83 10000 5.1 60 12:35 31.12.2020
4243 Rain 27 1014 78 10000 5.7 70 11:52 31.12.2020
4244 Rain 27 1014 78 10000 5.7 70 11:32 31.12.2020
4245 Clouds 27 1014 83 10000 5.7 60 10:49 31.12.2020
4246 Clouds 27 1014 83 10000 5.7 60 10:29 31.12.2020
4247 Clouds 27 1014 78 10000 6.2 70 09:57 31.12.2020
4248 Clouds 27 1014 83 10000 6.2 70 09:35 31.12.2020
4249 Clouds 26 1013 88 10000 3.6 70 08:51 31.12.2020
4250 Clouds 26 1013 88 10000 3.6 70 08:32 31.12.2020
4251 Clouds 27 1013 78 10000 3.1 50 07:59 31.12.2020
4252 Clouds 27 1013 78 10000 3.1 50 07:29 31.12.2020
4253 Clouds 28 1013 74 10000 3.6 40 05:45 31.12.2020
4254 Clouds 28 1013 78 10000 4.1 50 04:30 31.12.2020
4255 Clouds 29 1013 70 10000 4.6 40 02:45 31.12.2020
4256 Clouds 29 1013 70 10000 4.6 40 02:25 31.12.2020
4257 Clouds 29 1013 79 10000 3.6 20 01:44 31.12.2020
4258 Clouds 29 1014 74 10000 4.1 30 01:24 31.12.2020
4259 Clouds 28 1014 78 10000 4.1 30 00:44 31.12.2020
4260 Clouds 28 1014 83 10000 3.1 40 23:48 30.12.2020
4261 Clouds 29 1014 79 10000 2.6 30 23:19 30.12.2020
4262 Clouds 28 1014 78 10000 3.6 40 22:47 30.12.2020
4263 Clouds 28 1014 78 10000 3.6 40 22:47 30.12.2020
4264 Clouds 28 1014 78 10000 3.6 40 22:29 30.12.2020
4265 Clouds 28 1014 83 10000 5.1 60 21:39 30.12.2020
4266 Clouds 28 1014 83 10000 5.1 60 21:39 30.12.2020
4267 Clouds 27 1015 83 10000 5.1 60 21:20 30.12.2020
4268 Clouds 27 1014 83 10000 2.1 40 20:48 30.12.2020
4269 Rain 26 1014 88 10000 4.6 50 20:20 30.12.2020
4270 Rain 27 1014 83 10000 3.6 20 19:40 30.12.2020
4271 Clouds 25 1014 94 10000 1 110 19:21 30.12.2020
4272 Clouds 25 1014 94 10000 1.5 90 18:46 30.12.2020
4273 Clouds 25 1014 94 10000 1.5 90 18:27 30.12.2020
4274 Clouds 25 1013 94 10000 1.5 50 17:50 30.12.2020
4275 Clouds 25 1013 94 10000 1 170 17:32 30.12.2020
4276 Clouds 25 1013 94 10000 1.5 200 16:52 30.12.2020
4277 Rain 25 1012 94 10000 2.1 210 16:27 30.12.2020
4278 Rain 27 1012 83 10000 2.1 340 15:45 30.12.2020
4279 Clouds 27 1013 83 10000 2.6 350 15:24 30.12.2020
4280 Clouds 27 1013 83 10000 2.1 40 14:43 30.12.2020
4281 Clouds 27 1013 83 10000 2.1 360 14:22 30.12.2020
4282 Clouds 27 1013 83 10000 2.6 340 13:26 30.12.2020
4283 Clouds 27 1013 78 10000 2.1 320 12:28 30.12.2020
4284 Clouds 27 1014 83 10000 2.6 330 11:50 30.12.2020
4285 Clouds 27 1014 83 10000 2.6 330 11:24 30.12.2020
4286 Clouds 27 1014 83 10000 2.6 330 10:59 30.12.2020
4287 Clouds 28 1014 78 10000 2.1 320 10:39 30.12.2020
4288 Clouds 28 1014 78 10000 2.1 330 10:20 30.12.2020
4289 Clouds 27 1014 83 10000 1 10 09:46 30.12.2020
4290 Clouds 27 1014 88 10000 2.6 340 08:55 30.12.2020
4291 Clouds 28 1013 78 10000 2.1 360 07:59 30.12.2020
4292 Clouds 28 1013 78 10000 2.1 360 07:28 30.12.2020
4293 Clouds 28 1013 78 10000 2.6 330 06:42 30.12.2020
4294 Clouds 28 1012 78 10000 3.1 320 05:50 30.12.2020
4295 Clouds 28 1012 78 10000 3.1 320 05:30 30.12.2020
4296 Clear 29 1012 74 10000 2.6 310 03:44 30.12.2020
4297 Clear 29 1012 74 10000 2.1 330 03:24 30.12.2020
4298 Clear 29 1012 74 10000 2.1 330 02:36 30.12.2020
4299 Clear 29 1012 79 10000 2.1 10 01:47 30.12.2020
4300 Clouds 29 1012 79 10000 2.1 10 01:29 30.12.2020
4301 Clouds 29 1013 79 10000 2.1 340 00:45 30.12.2020
4302 Clouds 29 1013 79 10000 2.1 340 00:26 30.12.2020
4303 Clouds 28 1013 83 10000 5.1 50 23:50 29.12.2020
4304 Clouds 28 1013 83 10000 5.1 50 23:32 29.12.2020
4305 Clouds 29 1013 79 10000 3.1 350 22:49 29.12.2020
4306 Clouds 29 1013 79 10000 3.1 350 22:31 29.12.2020
4307 Clouds 29 1013 79 10000 2.6 30 21:56 29.12.2020
4308 Clouds 29 1013 79 10000 2.6 40 21:36 29.12.2020
4309 Clouds 29 1013 79 10000 1 190 20:57 29.12.2020
4310 Clouds 28 1013 78 10000 2.1 200 20:39 29.12.2020
4311 Clear 28 1013 83 10000 2.1 200 20:20 29.12.2020
4312 Clear 27 1013 88 10000 1 210 19:42 29.12.2020
4313 Clear 25 1013 100 10000 0.5 230 19:21 29.12.2020
4314 Clear 24 1013 100 10000 1 190 18:49 29.12.2020
4315 Clear 24 1013 100 10000 1 190 18:28 29.12.2020
4316 Clear 23 1012 100 10000 1 190 17:45 29.12.2020
4317 Clear 23 1012 100 10000 1.5 190 17:21 29.12.2020
4318 Clear 23 1012 100 10000 1 190 16:52 29.12.2020
4319 Clear 23 1011 100 10000 0.5 140 16:25 29.12.2020
4320 Clear 23 1011 100 10000 0.5 180 15:38 29.12.2020
4321 Clear 24 1011 94 10000 0.5 170 15:19 29.12.2020
4322 Clear 24 1012 94 10000 0.5 170 14:40 29.12.2020
4323 Rain 24 1012 94 10000 1.5 200 14:20 29.12.2020
4324 Rain 24 1012 94 10000 1.5 190 13:48 29.12.2020
4325 Rain 24 1012 94 10000 1 180 13:23 29.12.2020
4326 Rain 24 1013 94 10000 1 190 12:42 29.12.2020
4327 Rain 24 1013 94 10000 1 190 12:23 29.12.2020
4328 Rain 24 1013 94 10000 0.5 220 11:56 29.12.2020
4329 Rain 24 1013 94 10000 1 120 11:31 29.12.2020
4330 Rain 24 1013 94 10000 1 180 10:37 29.12.2020
4331 Clouds 24 1013 94 10000 0.5 130 09:50 29.12.2020
4332 Clouds 24 1013 94 10000 0.5 130 09:25 29.12.2020
4333 Clouds 25 1013 88 10000 0.5 190 08:54 29.12.2020
4334 Clouds 25 1012 88 10000 0.5 160 08:32 29.12.2020
4335 Clouds 26 1012 83 10000 1 110 07:26 29.12.2020
4336 Clouds 28 1012 74 10000 3.6 80 06:45 29.12.2020
4337 Clouds 28 1011 74 10000 4.1 80 05:25 29.12.2020
4338 Clouds 29 1012 70 10000 5.7 50 00:55 29.12.2020
4339 Clouds 29 1012 70 10000 4.6 50 00:21 29.12.2020
4340 Clouds 29 1013 70 10000 5.1 60 23:36 28.12.2020
4341 Clouds 29 1013 70 10000 5.7 80 22:28 28.12.2020
4342 Clouds 28 1013 74 10000 4.1 60 21:46 28.12.2020
4343 Clouds 28 1013 74 10000 4.1 60 21:27 28.12.2020
4344 Clouds 28 1013 74 10000 4.6 80 20:43 28.12.2020
4345 Clouds 28 1013 74 10000 4.6 80 20:23 28.12.2020
4346 Clouds 26 1013 83 10000 2.6 90 19:50 28.12.2020
4347 Rain 26 1013 83 10000 2.6 90 19:25 28.12.2020
4348 Clouds 25 1013 88 10000 3.1 100 18:59 28.12.2020
4349 Clear 24 1013 94 10000 2.1 90 18:28 28.12.2020
4350 Clear 25 1012 83 10000 2.6 100 17:47 28.12.2020
4351 Rain 24 1012 88 10000 2.6 90 17:29 28.12.2020
4352 Rain 25 1011 83 10000 2.1 100 16:50 28.12.2020
4353 Rain 25 1011 83 10000 2.1 100 16:28 28.12.2020
4354 Rain 24 1011 88 10000 2.1 100 15:53 28.12.2020
4355 Rain 25 1011 88 10000 2.6 100 15:30 28.12.2020
4356 Rain 25 1011 88 10000 2.6 100 14:28 28.12.2020
4357 Rain 24 1012 94 10000 2.1 100 13:38 28.12.2020
4358 Rain 25 1012 88 10000 1.5 100 13:19 28.12.2020
4359 Clouds 25 1012 88 10000 2.1 100 12:25 28.12.2020
4360 Clouds 24 1013 100 10000 0.5 180 11:47 28.12.2020
4361 Clouds 24 1013 100 10000 0.5 180 11:47 28.12.2020
4362 Clouds 24 1013 100 10000 0.5 180 11:26 28.12.2020
4363 Clouds 25 1013 94 10000 1 170 10:52 28.12.2020
4364 Clouds 24 1013 100 10000 0.5 160 10:28 28.12.2020
4365 Clouds 24 1013 88 10000 1 100 09:49 28.12.2020
4366 Clouds 25 1012 83 10000 1 130 09:21 28.12.2020
4367 Clouds 25 1012 83 10000 1 130 08:55 28.12.2020
4368 Clear 27 1011 74 10000 1 110 06:51 28.12.2020
4369 Clear 28 1011 69 10000 1.5 350 04:44 28.12.2020
4370 Clear 27 1012 83 10000 2.1 90 02:59 28.12.2020
4371 Clear 27 1012 78 10000 1.5 70 01:46 28.12.2020
4372 Rain 26 1013 83 10000 2.1 90 23:50 27.12.2020
4373 Rain 26 1013 83 9000 2.1 60 23:20 27.12.2020
4374 Clear 28 1013 69 10000 2.6 40 21:58 27.12.2020
4375 Clear 28 1013 69 10000 2.6 40 21:27 27.12.2020
4376 Clear 28 1013 69 10000 3.1 50 20:53 27.12.2020
4377 Clear 27 1013 78 10000 2.1 80 19:48 27.12.2020
4378 Clouds 27 1013 78 10000 2.1 80 19:22 27.12.2020
4379 Clouds 24 1013 94 10000 1.5 120 18:47 27.12.2020
4380 Clouds 22 1012 94 10000 0.5 110 18:20 27.12.2020
4381 Clouds 22 1012 94 10000 0.5 120 17:49 27.12.2020
4382 Clouds 22 1012 94 10000 0.5 120 17:30 27.12.2020
4383 Clouds 22 1011 94 10000 0.5 160 16:43 27.12.2020
4384 Clouds 22 1011 94 10000 0.5 160 15:59 27.12.2020
4385 Clouds 22 1011 94 10000 1 170 15:19 27.12.2020
4386 Clouds 22 1011 100 10000 0.5 140 14:41 27.12.2020
4387 Clouds 22 1012 100 10000 1 180 14:22 27.12.2020
4388 Clouds 23 1012 94 10000 1 150 13:22 27.12.2020
4389 Clouds 23 1013 94 10000 1 170 12:47 27.12.2020
4390 Clouds 23 1013 94 10000 1 180 11:56 27.12.2020
4391 Clouds 23 1013 94 10000 1 210 11:37 27.12.2020
4392 Clouds 23 1014 94 10000 1 170 10:52 27.12.2020
4393 Clouds 24 1014 94 10000 0.5 150 10:24 27.12.2020
4394 Clouds 24 1013 94 10000 1 190 09:47 27.12.2020
4395 Clouds 25 1013 83 10000 0.5 90 08:39 27.12.2020
4396 Clouds 25 1013 83 10000 0.5 240 08:20 27.12.2020
4397 Clouds 26 1012 78 10000 1 130 07:26 27.12.2020
4398 Clouds 28 1011 74 10000 2.1 30 05:44 27.12.2020
4399 Clouds 28 1011 74 10000 2.1 80 04:25 27.12.2020
4400 Clouds 29 1011 70 10000 1.5 180 03:20 27.12.2020
4401 Clouds 28 1011 74 10000 2.1 320 01:34 27.12.2020
4402 Clouds 28 1011 74 10000 2.1 320 01:34 27.12.2020
4403 Clouds 28 1012 74 10000 2.1 350 00:20 27.12.2020
4404 Clouds 28 1013 74 10000 2.1 20 23:27 26.12.2020
4405 Clouds 28 1013 74 10000 2.1 40 22:50 26.12.2020
4406 Clouds 28 1013 74 10000 2.1 10 22:21 26.12.2020
4407 Clouds 28 1013 74 10000 2.1 10 21:59 26.12.2020
4408 Clouds 28 1013 69 10000 1.5 20 21:40 26.12.2020
4409 Clouds 27 1013 78 10000 2.1 40 21:19 26.12.2020
4410 Clouds 27 1013 78 10000 1.5 40 20:41 26.12.2020
4411 Clouds 27 1013 74 10000 1.5 20 20:18 26.12.2020
4412 Clouds 26 1013 78 10000 1.5 60 19:26 26.12.2020
4413 Clouds 24 1013 94 10000 0.5 220 18:50 26.12.2020
4414 Clouds 23 1012 100 10000 0.5 190 18:28 26.12.2020
4415 Clouds 21 1011 100 10000 1 180 17:41 26.12.2020
4416 Clouds 21 1011 100 10000 1.5 190 17:20 26.12.2020
4417 Clouds 21 1011 100 10000 1 180 16:36 26.12.2020
4418 Clouds 21 1011 100 10000 1 170 15:27 26.12.2020
4419 Clouds 21 1011 100 10000 1 180 14:51 26.12.2020
4420 Clouds 21 1011 100 10000 1 180 14:28 26.12.2020
4421 Clouds 21 1011 100 10000 0.5 160 13:47 26.12.2020
4422 Clouds 21 1011 100 10000 0.5 160 13:28 26.12.2020
4423 Clouds 21 1012 100 10000 0.5 160 12:45 26.12.2020
4424 Clouds 21 1012 100 10000 0.5 160 12:22 26.12.2020
4425 Clouds 22 1012 94 10000 0.5 110 11:51 26.12.2020
4426 Clouds 22 1013 94 10000 0.5 110 11:22 26.12.2020
4427 Clouds 22 1013 94 10000 0.5 110 10:54 26.12.2020
4428 Clouds 22 1013 100 10000 1 180 10:27 26.12.2020
4429 Clouds 22 1013 100 10000 0.5 170 09:50 26.12.2020
4430 Clouds 23 1012 94 10000 0.5 150 09:25 26.12.2020
4431 Clouds 23 1012 94 10000 1 160 08:29 26.12.2020
4432 Clouds 25 1011 83 10000 1 210 07:50 26.12.2020
4433 Clouds 27 1011 74 10000 0.5 190 06:29 26.12.2020
4434 Rain 26 1010 83 10000 2.6 40 02:49 26.12.2020
4435 Rain 27 1011 74 10000 1.5 80 00:44 26.12.2020
4436 Rain 27 1011 74 10000 1.5 80 00:24 26.12.2020
4437 Clouds 27 1011 78 10000 3.1 80 23:39 25.12.2020
4438 Clouds 27 1011 74 10000 3.6 40 23:21 25.12.2020
4439 Clouds 27 1011 74 10000 3.1 20 22:40 25.12.2020
4440 Clouds 27 1011 78 10000 2.6 20 21:50 25.12.2020
4441 Clouds 28 1011 74 10000 2.6 10 21:32 25.12.2020
4442 Clouds 27 1011 74 10000 1.5 180 20:48 25.12.2020
4443 Rain 27 1011 74 10000 1.5 180 20:28 25.12.2020
4444 Rain 26 1011 83 10000 1 190 19:44 25.12.2020
4445 Clouds 25 1011 88 10000 0.5 130 18:58 25.12.2020
4446 Clouds 24 1010 94 10000 0.5 170 18:38 25.12.2020
4447 Clouds 23 1009 94 10000 1 220 17:35 25.12.2020
4448 Clouds 23 1009 94 10000 0.5 210 16:58 25.12.2020
4449 Clouds 23 1009 94 10000 1 150 16:32 25.12.2020
4450 Clouds 22 1009 100 10000 0.5 170 15:57 25.12.2020
4451 Clouds 22 1009 100 10000 0.5 160 15:35 25.12.2020
4452 Clouds 22 1009 94 10000 0.5 130 14:46 25.12.2020
4453 Clouds 22 1009 94 10000 0.5 130 14:25 25.12.2020
4454 Clouds 22 1009 94 10000 1 160 13:43 25.12.2020
4455 Clouds 22 1009 94 10000 1 160 13:25 25.12.2020
4456 Clouds 22 1010 94 10000 0.5 210 12:29 25.12.2020
4457 Clouds 23 1011 94 10000 1 190 11:50 25.12.2020
4458 Clouds 23 1011 94 10000 1 190 11:25 25.12.2020
4459 Clouds 23 1011 88 10000 1 160 10:49 25.12.2020
4460 Clouds 23 1011 88 10000 1 160 10:22 25.12.2020
4461 Clouds 24 1011 88 10000 1 170 09:27 25.12.2020
4462 Clouds 24 1011 88 10000 1 170 09:27 25.12.2020
4463 Clouds 25 1010 83 10000 1 150 08:45 25.12.2020
4464 Clouds 26 1010 78 10000 2.1 160 07:45 25.12.2020
4465 Clouds 26 1009 78 10000 2.1 130 06:44 25.12.2020
4466 Clear 28 1008 69 10000 3.6 140 02:36 25.12.2020
4467 Clouds 29 1009 66 10000 3.1 120 00:38 25.12.2020
4468 Clouds 28 1009 65 10000 5.1 90 23:40 24.12.2020
4469 Clouds 28 1009 69 10000 4.6 90 23:21 24.12.2020
4470 Clouds 28 1009 69 10000 5.1 90 22:26 24.12.2020
4471 Clouds 27 1009 78 10000 4.6 80 21:53 24.12.2020
4472 Clouds 27 1009 78 10000 4.6 80 21:25 24.12.2020
4473 Clouds 26 1010 78 10000 2.6 110 19:56 24.12.2020
4474 Clouds 23 1009 88 10000 2.1 90 18:22 24.12.2020
4475 Clouds 23 1008 88 10000 3.1 90 17:42 24.12.2020
4476 Clouds 23 1008 88 10000 2.6 100 17:21 24.12.2020
4477 Clouds 24 1008 83 10000 3.6 120 16:25 24.12.2020
4478 Clouds 24 1008 83 10000 1 220 15:49 24.12.2020
4479 Rain 24 1008 83 10000 1 220 15:26 24.12.2020
4480 Rain 23 1008 88 10000 3.1 100 14:57 24.12.2020
4481 Rain 23 1008 88 10000 3.1 100 14:57 24.12.2020
4482 Rain 24 1008 83 10000 4.1 130 14:38 24.12.2020
4483 Rain 23 1009 88 10000 4.1 140 14:19 24.12.2020
4484 Rain 23 1009 88 10000 2.6 140 13:39 24.12.2020
4485 Rain 23 1009 88 10000 1.5 140 13:18 24.12.2020
4486 Rain 22 1010 100 10000 1.5 100 12:40 24.12.2020
4487 Rain 23 1010 88 10000 2.6 110 12:18 24.12.2020
4488 Rain 22 1010 100 7000 2.6 120 11:38 24.12.2020
4489 Rain 23 1010 94 10000 2.1 120 11:19 24.12.2020
4490 Rain 23 1011 94 8000 3.1 90 10:43 24.12.2020
4491 Rain 23 1011 94 10000 3.1 100 10:20 24.12.2020
4492 Rain 23 1010 94 3800 2.1 100 09:50 24.12.2020
4493 Rain 23 1010 94 6000 3.1 100 08:50 24.12.2020
4494 Clouds 24 1010 88 10000 4.1 100 07:55 24.12.2020
4495 Clouds 23 1010 94 10000 3.6 90 07:37 24.12.2020
4496 Clouds 23 1009 94 10000 3.6 90 06:27 24.12.2020
4497 Rain 22 1009 94 10000 4.1 80 03:50 24.12.2020
4498 Rain 22 1009 100 10000 3.1 90 01:51 24.12.2020
4499 Rain 22 1010 94 10000 2.1 60 01:20 24.12.2020
4500 Rain 22 1010 94 10000 1 50 00:31 24.12.2020
4501 Rain 22 1011 88 3600 1 310 00:00 24.12.2020
4502 Rain 22 1011 88 3800 1 330 23:39 23.12.2020
4503 Rain 22 1011 94 4500 1.5 250 23:20 23.12.2020
4504 Rain 23 1011 88 10000 1.5 220 22:43 23.12.2020
4505 Rain 24 1011 83 10000 2.1 240 22:23 23.12.2020
4506 Clouds 25 1011 73 10000 1 80 21:43 23.12.2020
4507 Rain 25 1011 78 10000 0.5 180 21:21 23.12.2020
4508 Rain 24 1011 78 10000 1 90 20:45 23.12.2020
4509 Rain 24 1010 78 10000 0.5 260 20:25 23.12.2020
4510 Rain 24 1010 73 10000 1 240 19:45 23.12.2020
4511 Rain 23 1010 78 10000 1 170 19:23 23.12.2020
4512 Rain 23 1010 78 10000 1 170 18:56 23.12.2020
4513 Rain 23 1010 78 10000 1 190 18:35 23.12.2020
4514 Rain 22 1009 73 10000 1 170 17:44 23.12.2020
4515 Clouds 22 1009 78 10000 1 200 17:24 23.12.2020
4516 Clouds 22 1009 78 10000 1 200 16:56 23.12.2020
4517 Clouds 22 1009 83 10000 1 190 16:36 23.12.2020
4518 Clouds 22 1009 83 10000 1 190 16:36 23.12.2020
4519 Clouds 22 1009 78 10000 0.5 160 16:18 23.12.2020
4520 Clouds 22 1009 78 10000 1 190 15:39 23.12.2020
4521 Clouds 21 1009 83 10000 0.5 210 15:21 23.12.2020
4522 Clouds 21 1009 83 10000 0.5 90 14:46 23.12.2020
4523 Clouds 21 1009 83 10000 0.5 90 14:25 23.12.2020
4524 Drizzle 22 1009 83 10000 1.5 190 13:47 23.12.2020
4525 Drizzle 23 1010 78 10000 0.5 210 13:21 23.12.2020
4526 Drizzle 23 1010 78 10000 0.5 210 12:58 23.12.2020
4527 Drizzle 24 1010 73 10000 0.5 170 12:37 23.12.2020
4528 Clouds 24 1010 78 10000 0.5 80 12:18 23.12.2020
4529 Clouds 25 1011 73 10000 2.6 120 11:43 23.12.2020
4530 Clouds 25 1011 73 10000 1 140 10:57 23.12.2020
4531 Clouds 25 1011 73 10000 1 140 10:57 23.12.2020
4532 Clouds 25 1011 73 10000 1.5 140 10:39 23.12.2020
4533 Clouds 25 1011 73 10000 2.1 140 09:45 23.12.2020
4534 Clouds 25 1011 73 10000 2.1 140 09:25 23.12.2020
4535 Clouds 25 1011 73 10000 2.1 130 08:42 23.12.2020
4536 Clouds 25 1011 73 10000 2.1 130 07:51 23.12.2020
4537 Haze 25 1011 73 4800 2.1 120 06:59 23.12.2020
4538 Clouds 25 1011 73 10000 2.1 130 06:37 23.12.2020
4539 Rain 25 1010 78 3900 1 110 05:25 23.12.2020
4540 Clouds 26 1010 74 10000 1.5 120 03:56 23.12.2020
4541 Clouds 27 1011 65 10000 4.6 60 00:33 23.12.2020
4542 Clouds 28 1011 65 10000 2.6 90 23:45 22.12.2020
4543 Clouds 27 1012 65 10000 3.1 100 23:23 22.12.2020
4544 Clouds 27 1012 65 10000 3.6 90 22:43 22.12.2020
4545 Clouds 27 1012 65 10000 3.6 90 22:24 22.12.2020
4546 Clouds 26 1012 69 10000 3.1 100 21:54 22.12.2020
4547 Clouds 26 1012 74 10000 3.1 90 21:21 22.12.2020
4548 Clouds 26 1012 74 10000 3.1 90 20:54 22.12.2020
4549 Clouds 27 1012 69 10000 1 90 20:35 22.12.2020
4550 Clouds 26 1012 74 10000 1 120 19:56 22.12.2020
4551 Clouds 25 1012 78 10000 1.5 80 19:38 22.12.2020
4552 Clouds 25 1011 78 10000 1 260 19:19 22.12.2020
4553 Clouds 23 1010 88 10000 0.5 210 18:43 22.12.2020
4554 Clouds 23 1010 88 10000 0.5 210 18:24 22.12.2020
4555 Clouds 22 1010 94 10000 1 190 17:38 22.12.2020
4556 Clouds 23 1010 83 10000 0.5 150 17:18 22.12.2020
4557 Clouds 23 1010 88 10000 0.5 180 16:47 22.12.2020
4558 Clouds 23 1010 88 10000 0.5 170 16:21 22.12.2020
4559 Clouds 23 1010 88 10000 0.5 210 15:46 22.12.2020
4560 Clouds 23 1010 88 10000 0.5 210 15:28 22.12.2020
4561 Clouds 23 1011 83 10000 1 90 14:57 22.12.2020
4562 Clouds 23 1011 83 10000 1 90 14:38 22.12.2020
4563 Clouds 23 1011 83 10000 1 190 14:18 22.12.2020
4564 Clouds 23 1011 88 10000 1 190 13:42 22.12.2020
4565 Clouds 23 1011 88 10000 1 160 13:18 22.12.2020
4566 Clouds 23 1012 88 10000 1 170 12:43 22.12.2020
4567 Clouds 23 1012 88 10000 1 170 12:25 22.12.2020
4568 Clouds 24 1012 78 10000 1 140 11:56 22.12.2020
4569 Clouds 23 1012 83 10000 1 160 11:38 22.12.2020
4570 Clouds 24 1012 78 10000 1.5 90 11:19 22.12.2020
4571 Clouds 24 1013 78 10000 0.5 120 10:46 22.12.2020
4572 Clouds 24 1012 78 10000 1 130 10:23 22.12.2020
4573 Clouds 24 1012 78 10000 1 130 09:55 22.12.2020
4574 Clouds 24 1012 78 10000 1 190 09:21 22.12.2020
4575 Clouds 24 1012 78 10000 1 120 08:48 22.12.2020
4576 Clouds 24 1012 78 10000 1 120 08:27 22.12.2020
4577 Clouds 25 1012 69 10000 0.5 200 07:47 22.12.2020
4578 Clouds 25 1011 73 10000 1 130 06:38 22.12.2020
4579 Clouds 27 1011 65 10000 3.1 120 05:39 22.12.2020
4580 Clouds 28 1011 65 10000 3.6 110 02:39 22.12.2020
4581 Clouds 28 1012 65 10000 6.2 70 00:44 22.12.2020
4582 Clouds 28 1013 65 10000 6.2 60 23:52 21.12.2020
4583 Clouds 28 1013 65 10000 2.6 200 23:24 21.12.2020
4584 Clouds 28 1013 65 10000 3.6 90 22:37 21.12.2020
4585 Clouds 28 1013 69 10000 1.5 90 22:19 21.12.2020
4586 Clouds 27 1013 69 10000 3.1 130 21:48 21.12.2020
4587 Clouds 27 1013 69 10000 3.1 130 21:30 21.12.2020
4588 Clouds 27 1013 69 10000 2.6 120 20:46 21.12.2020
4589 Clouds 27 1013 69 10000 2.6 110 20:23 21.12.2020
4590 Clouds 27 1013 69 10000 2.6 110 19:55 21.12.2020
4591 Clouds 26 1013 74 10000 1.5 110 19:36 21.12.2020
4592 Clouds 25 1013 78 10000 1 80 19:18 21.12.2020
4593 Clouds 24 1012 83 10000 0.5 120 18:45 21.12.2020
4594 Clouds 24 1012 83 10000 0.5 120 18:27 21.12.2020
4595 Clouds 21 1012 94 10000 0.5 160 17:43 21.12.2020
4596 Clouds 22 1012 88 10000 1 140 17:24 21.12.2020
4597 Clouds 23 1011 83 10000 1.5 140 16:45 21.12.2020
4598 Clouds 24 1012 78 10000 1.5 130 16:24 21.12.2020
4599 Clouds 23 1012 88 10000 1.5 150 15:43 21.12.2020
4600 Clouds 21 1012 94 10000 0.5 150 15:18 21.12.2020
4601 Clouds 22 1012 88 10000 1 90 14:54 21.12.2020
4602 Clouds 22 1012 94 10000 1 180 14:20 21.12.2020
4603 Clouds 22 1013 88 10000 1.5 200 13:42 21.12.2020
4604 Clouds 22 1013 88 10000 0.5 170 13:22 21.12.2020
4605 Clouds 22 1013 88 10000 1 150 12:43 21.12.2020
4606 Clouds 22 1013 88 10000 1 150 12:23 21.12.2020
4607 Clouds 24 1013 78 10000 1 130 11:43 21.12.2020
4608 Clouds 25 1013 73 10000 2.1 130 11:23 21.12.2020
4609 Clouds 25 1013 73 10000 2.1 130 10:58 21.12.2020
4610 Clouds 24 1013 78 10000 1 140 10:40 21.12.2020
4611 Clouds 25 1014 73 10000 2.1 120 09:59 21.12.2020
4612 Clouds 23 1013 83 10000 0.5 150 09:40 21.12.2020
4613 Clouds 23 1013 83 10000 0.5 170 09:22 21.12.2020
4614 Clouds 23 1013 83 10000 0.5 250 08:30 21.12.2020
4615 Clouds 25 1013 73 10000 1.5 110 07:31 21.12.2020
4616 Clouds 27 1012 65 10000 2.1 310 05:40 21.12.2020
4617 Clouds 27 1011 65 10000 2.1 330 04:31 21.12.2020
4618 Rain 27 1012 65 10000 3.6 270 00:37 21.12.2020
4619 Clouds 27 1013 65 10000 2.1 260 23:51 20.12.2020
4620 Clouds 28 1013 61 10000 2.1 280 23:21 20.12.2020
4621 Clouds 27 1013 61 10000 1.5 350 22:45 20.12.2020
4622 Clouds 27 1013 61 10000 1.5 350 22:26 20.12.2020
4623 Clouds 27 1013 61 10000 2.1 20 21:58 20.12.2020
4624 Clouds 27 1013 61 10000 2.1 360 21:38 20.12.2020
4625 Clouds 27 1013 61 10000 1.5 30 21:18 20.12.2020
4626 Clouds 27 1013 65 10000 1 20 20:44 20.12.2020
4627 Clouds 26 1013 69 10000 1 190 20:21 20.12.2020
4628 Clouds 25 1013 78 10000 0.5 160 19:43 20.12.2020
4629 Clouds 23 1013 88 10000 1 180 19:22 20.12.2020
4630 Clouds 22 1012 94 10000 0.5 160 18:54 20.12.2020
4631 Clouds 22 1012 94 10000 0.5 160 18:36 20.12.2020
4632 Clouds 21 1012 94 10000 1 170 17:47 20.12.2020
4633 Clouds 21 1012 94 10000 1 170 17:28 20.12.2020
4634 Clouds 21 1011 94 10000 0.5 190 16:49 20.12.2020
4635 Clouds 21 1011 94 10000 0.5 190 16:30 20.12.2020
4636 Clouds 21 1011 88 10000 0.5 170 15:52 20.12.2020
4637 Clouds 21 1011 88 10000 0.5 180 15:30 20.12.2020
4638 Clouds 21 1011 94 10000 1 190 14:58 20.12.2020
4639 Clouds 21 1011 94 10000 0.5 140 14:36 20.12.2020
4640 Clouds 21 1011 94 10000 0.5 170 13:57 20.12.2020
4641 Clouds 21 1011 94 10000 0.5 170 13:37 20.12.2020
4642 Clouds 21 1012 94 10000 0.5 150 13:18 20.12.2020
4643 Clouds 21 1012 94 10000 1 170 12:44 20.12.2020
4644 Clouds 21 1012 94 10000 1 170 12:21 20.12.2020
4645 Clouds 21 1012 94 10000 1 180 11:45 20.12.2020
4646 Clouds 21 1012 94 10000 1 180 11:26 20.12.2020
4647 Clouds 22 1012 88 10000 1 190 10:49 20.12.2020
4648 Clouds 22 1012 88 10000 0.5 140 10:21 20.12.2020
4649 Clouds 22 1012 88 10000 1 180 09:46 20.12.2020
4650 Clouds 22 1012 88 10000 1 180 09:46 20.12.2020
4651 Clouds 22 1012 88 10000 1 180 09:28 20.12.2020
4652 Clouds 22 1011 88 10000 0.5 120 08:59 20.12.2020
4653 Clouds 22 1011 88 10000 1 180 08:40 20.12.2020
4654 Clouds 24 1010 73 10000 1 130 07:34 20.12.2020
4655 Clouds 25 1010 69 10000 1.5 210 06:28 20.12.2020
4656 Clouds 27 1009 65 10000 2.6 220 02:37 20.12.2020
4657 Clouds 27 1010 65 10000 4.6 260 00:53 20.12.2020
4658 Clouds 28 1010 65 10000 2.6 240 23:36 19.12.2020
4659 Clouds 27 1010 65 10000 2.1 200 23:18 19.12.2020
4660 Clouds 27 1010 65 10000 2.1 190 22:41 19.12.2020
4661 Clouds 27 1010 69 10000 2.1 180 22:20 19.12.2020
4662 Clouds 28 1010 65 10000 1.5 210 21:44 19.12.2020
4663 Clouds 28 1010 65 10000 1.5 210 21:25 19.12.2020
4664 Clouds 26 1010 69 10000 2.1 210 20:55 19.12.2020
4665 Clouds 26 1010 69 10000 2.1 220 20:24 19.12.2020
4666 Clouds 26 1010 69 10000 2.6 220 19:56 19.12.2020
4667 Clouds 25 1010 73 10000 2.1 210 19:38 19.12.2020
4668 Clouds 24 1009 78 10000 1 200 19:19 19.12.2020
4669 Clouds 24 1009 78 10000 1.5 200 18:33 19.12.2020
4670 Clouds 24 1009 78 10000 1 200 17:55 19.12.2020
4671 Clouds 24 1008 78 10000 1.5 190 17:30 19.12.2020
4672 Clouds 24 1008 78 10000 2.1 200 16:57 19.12.2020
4673 Clouds 24 1008 78 10000 2.1 210 16:38 19.12.2020
4674 Clouds 24 1008 78 10000 2.1 200 16:19 19.12.2020
4675 Clouds 24 1008 78 10000 2.6 200 15:47 19.12.2020
4676 Clouds 24 1008 78 10000 3.1 210 15:18 19.12.2020
4677 Clouds 24 1007 83 10000 3.1 210 14:35 19.12.2020
4678 Rain 24 1008 88 10000 2.6 200 13:42 19.12.2020
4679 Rain 24 1008 88 10000 2.6 200 13:22 19.12.2020
4680 Rain 24 1008 88 10000 2.6 200 12:55 19.12.2020
4681 Rain 24 1008 94 10000 2.1 200 12:37 19.12.2020
4682 Rain 24 1008 94 10000 2.1 200 12:37 19.12.2020
4683 Rain 24 1009 94 10000 1.5 200 12:19 19.12.2020
4684 Rain 24 1009 94 10000 1 200 11:42 19.12.2020
4685 Rain 23 1009 100 10000 1 190 10:48 19.12.2020
4686 Rain 23 1009 100 10000 1 190 10:29 19.12.2020
4687 Rain 23 1009 100 10000 0.5 140 10:00 19.12.2020
4688 Rain 24 1009 94 10000 1 200 09:40 19.12.2020
4689 Rain 24 1009 94 10000 1 220 08:57 19.12.2020
4690 Rain 24 1009 94 3900 3.1 220 08:18 19.12.2020
4691 Rain 26 1009 88 8000 4.1 290 07:19 19.12.2020
4692 Rain 26 1009 88 10000 4.1 300 06:44 19.12.2020
4693 Clouds 27 1008 83 10000 5.1 280 05:20 19.12.2020
4694 Rain 27 1008 83 10000 5.7 290 03:29 19.12.2020
4695 Clouds 26 1009 88 10000 4.1 300 00:41 19.12.2020
4696 Rain 26 1010 88 10000 3.6 290 00:20 19.12.2020
4697 Rain 26 1010 88 10000 3.6 270 23:49 18.12.2020
4698 Clouds 26 1010 88 10000 3.6 270 23:25 18.12.2020
4699 Rain 25 1010 88 10000 3.6 260 22:49 18.12.2020
4700 Drizzle 25 1011 88 10000 4.6 260 22:24 18.12.2020
4701 Clouds 25 1011 94 10000 4.6 260 21:51 18.12.2020
4702 Clouds 25 1011 94 10000 4.6 260 21:31 18.12.2020
4703 Clouds 25 1011 94 10000 4.6 260 21:31 18.12.2020
4704 Rain 24 1011 94 10000 3.6 250 20:44 18.12.2020
4705 Rain 24 1011 94 10000 2.1 230 20:23 18.12.2020
4706 Rain 24 1011 94 10000 5.1 250 19:47 18.12.2020
4707 Rain 24 1011 94 10000 2.6 240 19:22 18.12.2020
4708 Rain 24 1010 94 10000 3.6 260 18:45 18.12.2020
4709 Rain 24 1010 94 10000 3.6 260 18:25 18.12.2020
4710 Rain 24 1010 94 10000 1.5 220 17:36 18.12.2020
4711 Rain 24 1009 94 10000 1.5 250 16:57 18.12.2020
4712 Rain 24 1009 94 10000 3.1 270 16:38 18.12.2020
4713 Rain 24 1010 94 10000 4.1 270 16:20 18.12.2020
4714 Rain 24 1010 94 10000 1 210 15:44 18.12.2020
4715 Rain 24 1010 94 10000 1 210 15:25 18.12.2020
4716 Rain 23 1010 100 10000 1.5 210 14:55 18.12.2020
4717 Rain 24 1010 94 10000 1 120 14:23 18.12.2020
4718 Rain 24 1010 94 10000 1 220 13:51 18.12.2020
4719 Rain 24 1010 94 10000 1 220 13:31 18.12.2020
4720 Rain 24 1011 94 10000 1 180 12:50 18.12.2020
4721 Rain 24 1011 94 10000 1 180 12:27 18.12.2020
4722 Rain 24 1011 94 4100 3.1 190 11:26 18.12.2020
4723 Clouds 25 1012 94 10000 0.5 170 10:40 18.12.2020
4724 Rain 25 1012 94 10000 1 220 10:21 18.12.2020
4725 Rain 25 1011 94 10000 0.5 220 09:40 18.12.2020
4726 Rain 25 1011 94 10000 1.5 190 09:22 18.12.2020
4727 Rain 25 1011 94 10000 1.5 190 08:57 18.12.2020
4728 Rain 25 1011 94 10000 0.5 170 08:36 18.12.2020
4729 Rain 26 1011 88 10000 1 180 07:47 18.12.2020
4730 Rain 27 1012 78 10000 5.08 242 07:19 18.12.2020
4731 Rain 27 1012 78 10000 5.08 242 06:58 18.12.2020
4732 Rain 27 1011 78 10000 5.95 280 05:43 18.12.2020
4733 Rain 27 1010 81 10000 6.09 306 04:51 18.12.2020
4734 Rain 27 1011 88 10000 4.6 20 02:31 18.12.2020
4735 Rain 27 1011 83 10000 5.1 30 01:41 18.12.2020
4736 Rain 29 1011 74 10000 4.6 360 00:28 18.12.2020
4737 Rain 29 1011 79 10000 4.6 20 23:50 17.12.2020
4738 Rain 29 1012 79 10000 6.2 30 23:19 17.12.2020
4739 Rain 29 1012 83 10000 5.1 20 22:47 17.12.2020
4740 Rain 29 1012 83 10000 5.1 20 22:27 17.12.2020
4741 Rain 28 1012 83 10000 4.6 20 21:44 17.12.2020
4742 Rain 28 1012 83 10000 4.6 20 21:20 17.12.2020
4743 Rain 28 1012 83 10000 4.6 20 20:43 17.12.2020
4744 Rain 28 1012 78 10000 4.6 20 20:19 17.12.2020
4745 Rain 27 1011 78 10000 4.1 20 19:49 17.12.2020
4746 Rain 28 1011 83 10000 3.6 20 19:24 17.12.2020
4747 Rain 27 1011 88 10000 4.6 20 18:44 17.12.2020
4748 Rain 27 1011 88 10000 4.6 20 18:26 17.12.2020
4749 Rain 27 1011 88 10000 5.1 20 17:57 17.12.2020
4750 Rain 27 1010 88 10000 5.1 20 17:34 17.12.2020
4751 Clouds 27 1010 88 10000 4.1 40 16:55 17.12.2020
4752 Clouds 27 1010 83 10000 3.6 30 16:36 17.12.2020
4753 Clouds 27 1010 88 10000 4.1 30 16:18 17.12.2020
4754 Clouds 27 1010 88 10000 3.6 40 15:40 17.12.2020
4755 Clouds 27 1010 88 10000 3.6 40 15:18 17.12.2020
4756 Clouds 27 1010 88 10000 5.1 40 14:47 17.12.2020
4757 Clouds 27 1010 88 10000 5.1 40 13:59 17.12.2020
4758 Clouds 27 1010 83 10000 6.2 40 13:41 17.12.2020
4759 Clouds 27 1011 83 10000 5.7 40 12:58 17.12.2020
4760 Clouds 27 1011 88 10000 6.2 40 12:36 17.12.2020
4761 Clouds 27 1011 88 10000 5.1 40 11:58 17.12.2020
4762 Clouds 27 1011 88 10000 5.1 40 11:58 17.12.2020
4763 Clouds 27 1011 88 10000 5.1 40 11:38 17.12.2020
4764 Clouds 27 1012 88 10000 4.6 40 11:20 17.12.2020
4765 Clouds 28 1012 83 10000 4.6 40 10:33 17.12.2020
4766 Clouds 28 1011 78 10000 5.7 40 09:36 17.12.2020
4767 Clouds 28 1011 78 10000 6.2 40 08:39 17.12.2020
4768 Clouds 28 1010 83 10000 5.7 40 07:41 17.12.2020
4769 Clouds 28 1010 78 10000 6.2 40 07:18 17.12.2020
4770 Rain 28 1010 78 10000 4.6 40 06:44 17.12.2020
4771 Clouds 28 1010 78 10000 4.6 40 06:26 17.12.2020
4772 Clouds 29 1010 74 10000 5.7 30 01:41 17.12.2020
4773 Clouds 29 1010 74 10000 7.2 40 23:58 16.12.2020
4774 Clouds 29 1011 74 10000 7.7 40 23:23 16.12.2020
4775 Clouds 29 1011 74 10000 7.7 40 22:58 16.12.2020
4776 Clouds 28 1011 83 10000 7.2 40 22:38 16.12.2020
4777 Clouds 28 1011 78 10000 8.2 40 21:59 16.12.2020
4778 Clouds 28 1011 83 10000 7.7 40 21:38 16.12.2020
4779 Clouds 28 1011 83 10000 6.2 40 21:20 16.12.2020
4780 Clouds 28 1011 83 10000 7.2 40 20:44 16.12.2020
4781 Clouds 28 1011 83 10000 7.2 40 20:19 16.12.2020
4782 Rain 28 1010 83 10000 7.2 40 19:21 16.12.2020
4783 Rain 28 1010 83 10000 7.2 40 19:21 16.12.2020
4784 Clouds 28 1010 83 10000 7.2 40 18:57 16.12.2020
4785 Clouds 28 1010 78 10000 7.7 40 18:37 16.12.2020
4786 Clouds 27 1010 83 10000 7.7 40 18:19 16.12.2020
4787 Clouds 27 1009 83 10000 9.3 40 17:33 16.12.2020
4788 Clouds 27 1009 83 10000 8.2 40 16:42 16.12.2020
4789 Clouds 27 1009 83 10000 8.7 40 16:22 16.12.2020
4790 Clouds 27 1009 83 10000 8.7 40 16:22 16.12.2020
4791 Clouds 27 1009 83 10000 8.7 40 16:22 16.12.2020
4792 Clouds 27 1009 83 10000 8.7 40 15:51 16.12.2020
4793 Clouds 27 1009 83 10000 8.7 40 15:30 16.12.2020
4794 Clouds 27 1009 83 10000 7.2 40 14:51 16.12.2020
4795 Clouds 27 1009 83 10000 7.2 40 14:30 16.12.2020
4796 Clouds 27 1010 78 10000 8.7 40 13:50 16.12.2020
4797 Clouds 27 1010 78 10000 8.7 40 13:31 16.12.2020
4798 Rain 27 1010 83 10000 8.7 40 12:56 16.12.2020
4799 Clouds 27 1010 83 10000 8.7 50 12:37 16.12.2020
4800 Clouds 28 1011 74 10000 7.7 40 11:43 16.12.2020
4801 Clouds 28 1011 78 10000 7.7 40 11:22 16.12.2020
4802 Clouds 28 1011 78 10000 7.2 40 10:50 16.12.2020
4803 Clouds 28 1011 78 10000 7.2 40 10:27 16.12.2020
4804 Clouds 28 1011 83 10000 6.7 40 09:48 16.12.2020
4805 Clouds 28 1011 78 10000 5.7 40 08:45 16.12.2020
4806 Clouds 28 1011 78 10000 4.6 40 07:59 16.12.2020
4807 Clouds 28 1011 78 10000 4.1 40 07:39 16.12.2020
4808 Clouds 28 1010 78 10000 5.1 40 06:53 16.12.2020
4809 Rain 29 1009 79 10000 5.7 20 02:26 16.12.2020
4810 Clouds 29 1010 74 10000 6.2 20 01:20 16.12.2020
4811 Clouds 29 1011 79 10000 6.2 20 23:45 15.12.2020
4812 Clouds 28 1011 83 10000 4.6 30 22:48 15.12.2020
4813 Rain 28 1011 83 10000 4.6 30 22:25 15.12.2020
4814 Rain 28 1011 78 10000 6.7 40 21:57 15.12.2020
4815 Rain 28 1011 78 10000 6.2 40 21:38 15.12.2020
4816 Rain 28 1011 78 10000 6.2 40 21:19 15.12.2020
4817 Rain 28 1011 78 10000 6.2 40 20:44 15.12.2020
4818 Rain 27 1011 83 10000 6.2 40 20:25 15.12.2020
4819 Rain 27 1011 83 10000 6.2 40 19:51 15.12.2020
4820 Rain 28 1011 78 10000 6.2 40 19:26 15.12.2020
4821 Rain 27 1010 83 10000 6.7 50 18:39 15.12.2020
4822 Rain 27 1010 83 10000 6.7 40 18:21 15.12.2020
4823 Rain 27 1010 83 10000 6.7 40 18:21 15.12.2020
4824 Rain 27 1010 78 10000 6.7 50 17:44 15.12.2020
4825 Rain 27 1009 83 10000 6.2 40 17:23 15.12.2020
4826 Rain 27 1009 78 10000 5.7 40 16:38 15.12.2020
4827 Rain 27 1009 83 10000 5.7 50 16:19 15.12.2020
4828 Rain 26 1009 88 10000 6.2 50 15:37 15.12.2020
4829 Rain 27 1009 83 10000 5.7 50 15:18 15.12.2020
4830 Rain 27 1010 83 10000 5.7 50 14:41 15.12.2020
4831 Rain 27 1010 83 10000 5.1 60 14:19 15.12.2020
4832 Rain 27 1010 83 10000 5.7 50 13:48 15.12.2020
4833 Rain 27 1010 83 10000 5.7 50 13:23 15.12.2020
4834 Rain 27 1011 78 10000 5.1 50 12:45 15.12.2020
4835 Rain 27 1011 83 10000 4.6 60 12:19 15.12.2020
4836 Rain 27 1012 83 10000 4.6 60 11:50 15.12.2020
4837 Rain 27 1012 83 10000 4.6 50 11:22 15.12.2020
4838 Rain 27 1012 78 10000 5.1 60 10:47 15.12.2020
4839 Rain 26 1012 88 10000 2.1 90 10:20 15.12.2020
4840 Rain 26 1012 88 10000 2.6 90 09:42 15.12.2020
4841 Clouds 26 1012 83 10000 2.6 90 09:23 15.12.2020
4842 Clouds 26 1012 83 10000 2.6 70 08:40 15.12.2020
4843 Clouds 27 1012 78 10000 2.6 30 08:21 15.12.2020
4844 Clouds 27 1011 78 10000 2.1 30 07:43 15.12.2020
4845 Clouds 27 1011 78 10000 2.6 40 06:59 15.12.2020
4846 Rain 28 1010 74 10000 3.6 20 05:37 15.12.2020
4847 Rain 26 1011 83 6000 5.1 350 00:39 15.12.2020
4848 Rain 29 1012 74 10000 4.6 50 23:48 14.12.2020
4849 Rain 28 1012 78 10000 3.6 30 23:19 14.12.2020
4850 Rain 29 1012 74 10000 4.6 40 22:40 14.12.2020
4851 Clouds 29 1012 74 10000 4.1 40 21:56 14.12.2020
4852 Clouds 29 1013 79 10000 4.1 40 21:36 14.12.2020
4853 Clouds 28 1013 78 10000 4.1 40 21:18 14.12.2020
4854 Clouds 28 1013 78 10000 4.1 40 20:43 14.12.2020
4855 Clouds 28 1013 74 10000 3.6 40 20:24 14.12.2020
4856 Clouds 28 1013 74 10000 3.6 40 19:39 14.12.2020
4857 Clouds 27 1012 83 10000 3.1 40 19:21 14.12.2020
4858 Clouds 25 1012 88 10000 2.6 80 18:42 14.12.2020
4859 Clouds 25 1012 88 10000 1.5 100 18:22 14.12.2020
4860 Clouds 25 1012 88 10000 2.1 90 17:34 14.12.2020
4861 Clouds 26 1012 81 10000 4.73 7 16:57 14.12.2020
4862 Clouds 26 1012 81 10000 4.73 7 16:38 14.12.2020
4863 Clouds 26 1011 80 10000 4.35 6 16:18 14.12.2020
4864 Clouds 26 1011 83 10000 4.35 6 15:33 14.12.2020
4865 Clouds 26 1011 79 10000 4.27 6 14:48 14.12.2020
4866 Clouds 26 1011 79 10000 3.92 16 14:29 14.12.2020
4867 Clouds 26 1011 79 10000 3.92 16 13:55 14.12.2020
4868 Clouds 26 1011 79 10000 3.92 16 13:34 14.12.2020
4869 Clouds 26 1013 88 10000 1.5 70 12:56 14.12.2020
4870 Clouds 26 1013 88 10000 1.5 70 12:31 14.12.2020
4871 Clouds 25 1013 88 10000 1.5 90 11:54 14.12.2020
4872 Clouds 26 1013 88 10000 2.1 90 11:23 14.12.2020
4873 Clouds 25 1013 88 10000 2.6 70 10:27 14.12.2020
4874 Clouds 25 1014 88 10000 2.1 80 09:52 14.12.2020
4875 Clouds 26 1013 83 10000 2.6 90 08:56 14.12.2020
4876 Clouds 26 1013 83 10000 2.1 80 08:38 14.12.2020
4877 Clouds 26 1013 83 10000 1.5 110 07:53 14.12.2020
4878 Clouds 27 1013 78 10000 2.6 40 07:19 14.12.2020
4879 Clouds 28 1013 74 10000 2.6 30 06:33 14.12.2020
4880 Clear 29 1012 74 10000 2.6 40 03:55 14.12.2020
4881 Clouds 29 1013 74 10000 3.1 50 00:57 14.12.2020
4882 Clouds 29 1013 74 10000 3.6 50 00:37 14.12.2020
4883 Clouds 29 1013 74 10000 3.1 50 00:18 14.12.2020
4884 Clouds 28 1014 78 10000 3.1 50 23:42 13.12.2020
4885 Clouds 29 1014 74 10000 2.6 40 22:52 13.12.2020
4886 Clouds 29 1014 74 10000 1.5 330 22:21 13.12.2020
4887 Clouds 29 1014 74 10000 1.5 330 21:56 13.12.2020
4888 Clouds 28 1014 78 10000 1.5 350 21:36 13.12.2020
4889 Clouds 28 1014 78 10000 2.1 30 20:50 13.12.2020
4890 Clouds 28 1014 78 10000 2.1 30 20:25 13.12.2020
4891 Clouds 27 1014 83 10000 1 90 19:46 13.12.2020
4892 Clouds 27 1014 83 10000 1 90 19:23 13.12.2020
4893 Clouds 26 1014 88 10000 0.5 170 18:54 13.12.2020
4894 Clear 24 1014 94 10000 0.5 90 18:36 13.12.2020
4895 Clear 23 1013 100 10000 1.5 100 18:18 13.12.2020
4896 Clear 23 1013 100 10000 1 170 17:43 13.12.2020
4897 Clear 23 1013 100 10000 1 170 17:18 13.12.2020
4898 Clear 23 1013 100 10000 1.5 190 16:42 13.12.2020
4899 Clear 23 1013 100 10000 1 170 16:21 13.12.2020
4900 Clear 23 1013 100 10000 1 160 15:45 13.12.2020
4901 Clear 23 1013 100 10000 1 160 15:45 13.12.2020
4902 Clear 23 1013 100 10000 1 160 15:45 13.12.2020
4903 Clear 23 1013 100 10000 1 160 15:45 13.12.2020
4904 Clear 23 1013 100 10000 1 160 15:45 13.12.2020
4905 Clear 23 1013 100 10000 1 160 15:24 13.12.2020
4906 Clear 23 1013 100 10000 0.5 150 14:45 13.12.2020
4907 Clear 23 1013 100 10000 0.5 150 14:27 13.12.2020
4908 Clear 23 1014 100 10000 0.5 130 13:45 13.12.2020
4909 Clear 23 1014 100 10000 0.5 130 13:27 13.12.2020
4910 Clear 24 1015 94 10000 1 100 12:52 13.12.2020
4911 Clear 24 1015 94 10000 1 100 12:23 13.12.2020
4912 Clear 25 1015 88 10000 1 100 11:47 13.12.2020
4913 Clear 25 1015 88 10000 1 110 11:22 13.12.2020
4914 Clear 25 1016 88 10000 1.5 90 10:40 13.12.2020
4915 Clear 25 1015 88 10000 2.1 100 09:58 13.12.2020
4916 Clear 25 1015 88 10000 0.5 110 09:28 13.12.2020
4917 Clear 26 1015 83 10000 0.5 110 08:35 13.12.2020
4918 Clear 26 1015 83 10000 1 110 07:51 13.12.2020
4919 Clouds 28 1013 74 10000 3.1 40 04:48 13.12.2020
4920 Clouds 28 1013 74 10000 3.1 50 02:42 13.12.2020
4921 Clouds 28 1014 74 10000 2.6 40 01:58 13.12.2020
4922 Clear 28 1014 74 10000 3.1 40 00:51 13.12.2020
4923 Clear 28 1014 74 10000 3.1 40 00:51 13.12.2020
4924 Clear 28 1014 74 10000 3.1 40 00:28 13.12.2020
4925 Clear 28 1014 74 10000 3.6 40 23:32 12.12.2020
4926 Clear 28 1014 74 10000 3.1 40 22:53 12.12.2020
4927 Clear 28 1015 74 10000 2.6 40 22:19 12.12.2020
4928 Clear 28 1015 74 10000 3.1 40 21:34 12.12.2020
4929 Clear 28 1015 74 10000 3.1 40 20:56 12.12.2020
4930 Clear 28 1015 78 10000 2.6 40 20:30 12.12.2020
4931 Clear 26 1015 80 10000 4.15 75 19:58 12.12.2020
4932 Clear 26 1015 80 10000 4.15 75 19:39 12.12.2020
4933 Rain 26 1015 79 10000 3.64 73 19:21 12.12.2020
4934 Clouds 25 1014 88 10000 1.5 110 18:44 12.12.2020
4935 Rain 25 1014 88 10000 1.5 110 18:26 12.12.2020
4936 Rain 25 1014 88 10000 1.5 100 17:47 12.12.2020
4937 Rain 25 1014 88 10000 2.6 100 16:56 12.12.2020
4938 Clouds 25 1013 88 10000 2.1 90 16:20 12.12.2020
4939 Clouds 25 1013 88 10000 2.6 90 15:45 12.12.2020
4940 Clouds 25 1013 88 10000 2.6 90 15:27 12.12.2020
4941 Clouds 25 1013 94 10000 2.1 90 14:45 12.12.2020
4942 Clouds 25 1014 94 10000 2.1 110 13:55 12.12.2020
4943 Clouds 25 1014 94 10000 2.6 100 13:36 12.12.2020
4944 Clouds 25 1015 88 10000 2.6 70 12:53 12.12.2020
4945 Rain 26 1015 83 10000 2.6 100 11:46 12.12.2020
4946 Rain 25 1016 88 10000 2.1 100 10:53 12.12.2020
4947 Rain 25 1015 88 10000 3.1 80 09:32 12.12.2020
4948 Rain 26 1015 88 10000 3.6 80 08:53 12.12.2020
4949 Rain 27 1014 83 10000 4.6 60 02:53 12.12.2020
4950 Rain 28 1015 78 10000 6.7 70 23:54 11.12.2020
4951 Rain 29 1015 70 10000 7.2 80 22:24 11.12.2020
4952 Clouds 28 1015 74 10000 6.7 80 20:35 11.12.2020
4953 Clouds 26 1013 83 10000 5.7 80 17:52 11.12.2020
4954 Clouds 26 1013 83 10000 5.7 90 14:41 11.12.2020
4955 Clouds 26 1013 83 10000 6.2 90 13:58 11.12.2020
4956 Clouds 26 1014 83 10000 6.2 90 12:56 11.12.2020
4957 Clouds 26 1015 83 10000 4.1 90 11:58 11.12.2020
4958 Clouds 26 1015 83 10000 5.1 90 11:38 11.12.2020
4959 Clouds 26 1015 83 10000 4.6 90 10:44 11.12.2020
4960 Clouds 26 1015 83 10000 5.1 100 08:43 11.12.2020
4961 Clouds 26 1014 88 10000 4.6 100 05:40 11.12.2020
4962 Clouds 27 1014 83 10000 6.2 100 04:49 11.12.2020
4963 Rain 29 1014 74 10000 7.2 70 01:32 11.12.2020
4964 Rain 29 1015 74 10000 8.7 80 23:38 10.12.2020
4965 Rain 28 1015 74 10000 9.3 80 22:24 10.12.2020
4966 Rain 28 1015 74 10000 8.7 80 21:35 10.12.2020
4967 Rain 27 1015 78 10000 6.2 100 20:39 10.12.2020
4968 Rain 27 1015 78 10000 4.6 100 19:37 10.12.2020
4969 Rain 25 1015 83 10000 5.7 90 18:50 10.12.2020
4970 Rain 26 1014 83 10000 4.6 90 17:45 10.12.2020
4971 Rain 26 1014 78 10000 3.6 100 16:24 10.12.2020
4972 Clouds 26 1014 78 10000 4.6 100 15:24 10.12.2020
4973 Clouds 26 1014 78 10000 3.6 100 14:47 10.12.2020
4974 Clouds 26 1014 78 10000 3.6 100 14:24 10.12.2020
4975 Clear 26 1015 78 10000 4.6 90 12:33 10.12.2020
4976 Clear 26 1015 78 10000 4.6 100 10:59 10.12.2020
4977 Clear 26 1015 78 10000 5.1 90 08:44 10.12.2020
4978 Clear 27 1014 78 10000 4.1 100 07:34 10.12.2020
4979 Clear 27 1014 74 10000 5.1 100 06:33 10.12.2020
4980 Clear 28 1013 74 10000 4.1 100 02:50 10.12.2020
4981 Clear 29 1014 70 10000 6.7 80 01:50 10.12.2020
4982 Clear 28 1015 74 10000 4.1 110 23:45 09.12.2020
4983 Rain 28 1015 78 10000 3.1 110 20:40 09.12.2020
4984 Clear 27 1015 78 10000 3.1 110 19:46 09.12.2020
4985 Clear 26 1015 83 10000 3.6 90 18:39 09.12.2020
4986 Rain 25 1014 88 10000 3.1 100 17:29 09.12.2020
4987 Rain 25 1013 88 10000 2.6 100 16:40 09.12.2020
4988 Rain 25 1013 88 10000 3.1 100 16:20 09.12.2020
4989 Rain 24 1014 94 10000 1.5 90 14:51 09.12.2020
4990 Rain 24 1014 94 10000 1.5 90 14:26 09.12.2020
4991 Rain 25 1014 88 10000 2.6 100 13:37 09.12.2020
4992 Rain 25 1014 83 10000 2.1 110 13:18 09.12.2020
4993 Rain 26 1014 83 10000 3.1 90 12:31 09.12.2020
4994 Rain 26 1015 88 10000 4.1 90 11:37 09.12.2020
4995 Clear 26 1015 83 10000 5.1 90 09:51 09.12.2020
4996 Rain 27 1015 78 10000 5.1 90 08:36 09.12.2020
4997 Clear 27 1014 78 10000 4.6 90 06:43 09.12.2020
4998 Clouds 28 1013 74 10000 5.1 100 05:28 09.12.2020
4999 Clouds 28 1013 74 10000 5.7 100 02:40 09.12.2020
5000 Clouds 29 1014 66 10000 5.7 100 00:34 09.12.2020
5001 Clouds 28 1014 69 10000 5.7 100 23:34 08.12.2020
5002 Clouds 29 1015 70 10000 3.6 100 21:56 08.12.2020
5003 Clouds 28 1015 69 10000 4.6 90 20:24 08.12.2020
5004 Rain 27 1015 74 10000 3.1 110 19:29 08.12.2020
5005 Rain 26 1015 83 10000 3.1 90 18:34 08.12.2020
5006 Clouds 26 1014 78 10000 2.1 110 16:28 08.12.2020
5007 Clouds 26 1013 78 10000 2.6 120 15:18 08.12.2020
5008 Clouds 26 1014 78 10000 2.1 100 13:49 08.12.2020
5009 Clear 26 1015 78 10000 2.6 100 12:37 08.12.2020
5010 Clear 25 1015 83 10000 3.1 90 11:52 08.12.2020
5011 Clear 26 1015 83 10000 3.6 110 10:54 08.12.2020
5012 Clear 26 1015 78 10000 4.1 100 10:34 08.12.2020
5013 Clear 26 1015 78 10000 3.1 90 09:35 08.12.2020
5014 Rain 26 1015 78 10000 2.1 130 07:34 08.12.2020
5015 Rain 27 1014 78 10000 3.1 110 04:22 08.12.2020
5016 Clear 29 1015 70 10000 3.1 110 01:38 08.12.2020
5017 Clouds 29 1015 66 10000 3.6 120 00:44 08.12.2020
5018 Clouds 28 1016 74 10000 4.1 120 22:50 07.12.2020
5019 Clouds 29 1016 70 10000 3.1 130 22:18 07.12.2020
5020 Clouds 28 1016 74 10000 2.1 90 20:45 07.12.2020
5021 Clouds 25 1015 88 10000 0.5 130 18:48 07.12.2020
5022 Clouds 23 1015 100 10000 1 170 17:31 07.12.2020
5023 Clouds 23 1015 100 10000 0.5 90 16:56 07.12.2020
5024 Clouds 24 1015 94 10000 0.5 130 15:57 07.12.2020
5025 Clouds 24 1015 94 10000 1 240 15:23 07.12.2020
5026 Clouds 25 1015 88 10000 2.1 100 14:24 07.12.2020
5027 Clouds 25 1015 88 10000 1.5 100 13:33 07.12.2020
5028 Clouds 25 1017 83 10000 2.6 90 11:45 07.12.2020
5029 Rain 25 1017 83 10000 3.1 100 11:20 07.12.2020
5030 Clouds 26 1017 83 10000 5.7 80 09:57 07.12.2020
5031 Clouds 25 1017 94 10000 2.6 80 08:30 07.12.2020
5032 Rain 27 1016 83 10000 3.6 80 06:45 07.12.2020
5033 Clouds 28 1015 78 10000 5.7 70 04:58 07.12.2020
5034 Clouds 28 1015 78 10000 5.7 70 04:58 07.12.2020
5035 Clouds 29 1015 74 10000 6.2 60 01:57 07.12.2020
5036 Clouds 29 1016 74 10000 6.7 60 00:29 07.12.2020
5037 Clouds 29 1017 79 10000 7.2 70 22:28 06.12.2020
5038 Clouds 29 1017 74 10000 6.7 70 21:22 06.12.2020
5039 Clouds 28 1017 78 10000 6.2 70 20:34 06.12.2020
5040 Clouds 28 1017 78 10000 6.2 70 19:56 06.12.2020
5041 Clouds 26 1017 88 10000 4.6 80 18:40 06.12.2020
5042 Clouds 26 1016 88 10000 5.7 70 16:56 06.12.2020
5043 Rain 25 1016 94 10000 5.7 80 15:21 06.12.2020
5044 Clouds 26 1016 83 10000 5.1 80 13:49 06.12.2020
5045 Rain 26 1016 88 10000 6.7 70 12:52 06.12.2020
5046 Rain 26 1017 88 10000 4.6 80 11:59 06.12.2020
5047 Rain 26 1017 88 10000 2.6 90 11:34 06.12.2020
5048 Rain 26 1017 88 10000 6.2 70 10:47 06.12.2020
5049 Clouds 27 1017 83 10000 6.2 80 09:57 06.12.2020
5050 Clouds 27 1017 83 10000 5.1 80 08:29 06.12.2020
5051 Clouds 27 1016 83 10000 7.2 80 06:37 06.12.2020
5052 Clouds 29 1015 79 10000 8.2 80 00:58 06.12.2020
5053 Clouds 29 1015 74 10000 7.2 70 00:39 06.12.2020
5054 Clouds 29 1015 74 10000 7.2 70 00:21 06.12.2020
5055 Clouds 28 1017 78 10000 7.2 70 22:43 05.12.2020
5056 Clouds 27 1017 83 10000 5.7 80 22:20 05.12.2020
5057 Clouds 28 1017 78 10000 5.7 70 21:47 05.12.2020
5058 Rain 28 1017 78 10000 5.7 70 21:23 05.12.2020
5059 Clouds 26 1017 88 10000 4.1 90 19:21 05.12.2020
5060 Clear 24 1016 88 10000 3.1 80 18:39 05.12.2020
5061 Clear 25 1015 94 10000 2.6 100 17:20 05.12.2020
5062 Clear 25 1015 94 10000 2.6 100 16:29 05.12.2020
5063 Clear 25 1015 94 10000 3.1 90 15:37 05.12.2020
5064 Clear 25 1014 94 10000 3.1 90 14:24 05.12.2020
5065 Clear 25 1015 88 10000 3.1 80 11:51 05.12.2020
5066 Clear 26 1016 88 10000 3.1 90 10:48 05.12.2020
5067 Rain 26 1016 88 10000 3.1 90 10:22 05.12.2020
5068 Clear 26 1015 88 10000 3.1 90 07:48 05.12.2020
5069 Rain 27 1014 78 10000 3.6 100 06:20 05.12.2020
5070 Clear 29 1013 70 10000 7.2 70 02:45 05.12.2020
5071 Clear 29 1014 70 10000 5.7 90 23:47 04.12.2020
5072 Clear 29 1014 74 10000 3.1 90 21:53 04.12.2020
5073 Clear 27 1014 78 10000 2.1 90 19:42 04.12.2020
5074 Clear 25 1013 88 10000 2.1 10 18:40 04.12.2020
5075 Clear 23 1012 94 10000 1.5 220 17:48 04.12.2020
5076 Clear 23 1012 100 10000 0.5 170 16:52 04.12.2020
5077 Clear 23 1012 100 10000 0.5 250 15:26 04.12.2020
5078 Clear 24 1013 94 10000 1 210 13:38 04.12.2020
5079 Clear 24 1013 94 10000 1 190 13:20 04.12.2020
5080 Clear 24 1013 94 10000 0.5 60 12:26 04.12.2020
5081 Clear 25 1014 88 10000 1.5 50 10:37 04.12.2020
5082 Clear 25 1014 94 10000 0.5 140 09:30 04.12.2020
5083 Clouds 27 1012 78 10000 3.1 80 06:40 04.12.2020
5084 Clouds 29 1010 70 10000 2.6 210 04:54 04.12.2020
5085 Clouds 28 1011 78 10000 3.1 260 01:54 04.12.2020
5086 Clouds 26 1012 94 10000 2.6 80 22:51 03.12.2020
5087 Rain 25 1013 94 10000 1 80 21:38 03.12.2020
5088 Rain 26 1013 94 7000 2.1 310 20:47 03.12.2020
5089 Clouds 26 1013 94 10000 0.5 360 19:25 03.12.2020
5090 Clouds 25 1012 100 10000 1 200 18:48 03.12.2020
5091 Clouds 24 1011 100 10000 1 110 17:21 03.12.2020
5092 Clouds 23 1010 100 10000 1.5 90 16:43 03.12.2020
5093 Clouds 24 1010 100 10000 0.5 140 15:33 03.12.2020
5094 Clouds 24 1010 100 10000 1.5 90 14:49 03.12.2020
5095 Fog 25 1011 94 1500 1 130 13:55 03.12.2020
5096 Clouds 25 1011 94 10000 2.1 210 12:50 03.12.2020
5097 Rain 25 1011 94 10000 2.1 220 12:23 03.12.2020
5098 Rain 25 1012 94 10000 1 210 10:54 03.12.2020
5099 Clouds 26 1013 88 10000 1 190 08:49 03.12.2020
5100 Clouds 27 1011 83 10000 1.5 20 04:21 03.12.2020
5101 Clouds 28 1012 78 10000 3.1 260 01:57 03.12.2020
5102 Clouds 28 1013 78 10000 3.6 50 00:28 03.12.2020
5103 Clouds 28 1014 74 10000 3.6 50 22:46 02.12.2020
5104 Clouds 28 1014 78 10000 2.1 20 21:50 02.12.2020
5105 Clouds 28 1014 74 10000 1.5 360 20:51 02.12.2020
5106 Clouds 27 1015 78 10000 1.5 280 20:33 02.12.2020
5107 Rain 27 1014 78 10000 1 110 19:50 02.12.2020
5108 Clouds 22 1013 100 10000 1 180 17:51 02.12.2020
5109 Clouds 22 1013 100 10000 1 180 17:31 02.12.2020
5110 Clouds 23 1014 94 10000 1.5 190 16:42 02.12.2020
5111 Clouds 24 1014 88 10000 1 100 13:48 02.12.2020
5112 Clouds 25 1014 88 10000 2.1 100 11:33 02.12.2020
5113 Clouds 25 1015 88 10000 2.6 90 10:25 02.12.2020
5114 Clear 26 1014 83 10000 3.6 90 07:48 02.12.2020
5115 Clear 28 1015 78 10000 6.7 60 23:40 01.12.2020
5116 Clear 28 1016 78 10000 6.7 70 22:20 01.12.2020
5117 Clear 26 1017 82 10000 5.71 100 19:43 01.12.2020
5118 Clouds 26 1015 83 10000 3.6 90 18:56 01.12.2020
5119 Clouds 24 1015 88 10000 3.1 90 16:48 01.12.2020
5120 Clouds 23 1015 94 10000 1.5 100 14:53 01.12.2020
5121 Clear 21 1015 94 10000 0.5 150 12:48 01.12.2020
5122 Clear 22 1016 88 10000 1 180 11:41 01.12.2020
5123 Clear 23 1016 88 10000 0.5 130 10:54 01.12.2020
5124 Clear 23 1016 94 10000 1.5 80 10:31 01.12.2020
5125 Clear 26 1015 88 10000 2.1 100 07:47 01.12.2020
5126 Clouds 26 1015 88 10000 2.6 90 06:25 01.12.2020
5127 Clouds 28 1013 83 10000 8.2 60 01:33 01.12.2020
5128 Clouds 28 1014 78 10000 6.7 60 00:38 01.12.2020
5129 Clouds 28 1015 83 10000 5.1 70 23:20 30.11.2020
5130 Clouds 27 1016 88 10000 5.7 80 22:42 30.11.2020
5131 Clouds 27 1016 88 10000 5.7 80 22:22 30.11.2020
5132 Clouds 27 1015 83 10000 5.7 70 19:50 30.11.2020
5133 Clouds 27 1016 83 10000 4.1 70 19:31 30.11.2020
5134 Clouds 25 1014 94 10000 2.1 100 18:21 30.11.2020
5135 Clouds 25 1013 94 10000 2.6 100 17:46 30.11.2020
5136 Clouds 25 1013 94 10000 2.1 90 16:52 30.11.2020
5137 Clouds 25 1012 94 10000 3.6 70 14:48 30.11.2020
5138 Clouds 26 1013 88 10000 3.6 60 13:55 30.11.2020
5139 Clouds 26 1013 88 10000 4.6 60 12:59 30.11.2020
5140 Clouds 26 1013 94 10000 4.6 60 12:25 30.11.2020
5141 Clouds 26 1014 94 10000 3.6 60 11:34 30.11.2020
5142 Clouds 26 1015 88 10000 4.1 60 10:24 30.11.2020
5143 Clouds 26 1014 94 10000 5.1 60 08:52 30.11.2020
5144 Clouds 28 1013 83 10000 3.1 40 01:25 30.11.2020
5145 Rain 28 1014 83 10000 3.6 40 23:26 29.11.2020
5146 Rain 28 1015 83 10000 2.6 40 21:44 29.11.2020
5147 Rain 28 1015 83 10000 2.6 40 21:25 29.11.2020
5148 Rain 27 1014 88 10000 3.6 70 19:19 29.11.2020
5149 Rain 25 1013 100 10000 2.6 80 17:34 29.11.2020
5150 Rain 26 1013 94 10000 4.1 60 13:37 29.11.2020
5151 Rain 26 1013 94 10000 4.1 60 12:44 29.11.2020
5152 Rain 26 1014 94 10000 3.6 80 11:25 29.11.2020
5153 Clouds 26 1013 94 10000 4.6 80 08:53 29.11.2020
5154 Clouds 26 1013 94 10000 4.1 80 08:34 29.11.2020
5155 Clouds 28 1012 83 10000 4.6 50 02:31 29.11.2020
5156 Rain 27 1014 88 10000 4.6 60 22:59 28.11.2020
5157 Rain 27 1014 88 10000 5.1 70 22:18 28.11.2020
5158 Clouds 26 1014 94 10000 5.1 80 19:56 28.11.2020
5159 Clouds 25 1014 94 10000 3.6 90 19:27 28.11.2020
5160 Rain 25 1014 94 10000 4.6 90 18:55 28.11.2020
5161 Clouds 25 1013 88 10000 4.1 90 17:57 28.11.2020
5162 Clouds 25 1012 88 10000 5.7 80 16:56 28.11.2020
5163 Clouds 25 1012 88 10000 5.7 80 14:58 28.11.2020
5164 Clouds 25 1013 83 10000 6.2 80 13:31 28.11.2020
5165 Clouds 25 1014 83 10000 5.1 90 11:24 28.11.2020
5166 Clouds 25 1014 83 10000 5.7 80 08:18 28.11.2020
5167 Clouds 27 1012 74 10000 7.7 80 03:34 28.11.2020
5168 Clouds 27 1012 69 10000 9.3 70 01:51 28.11.2020
5169 Rain 26 1013 74 10000 9.3 80 23:19 27.11.2020
5170 Rain 27 1013 69 10000 9.3 70 21:51 27.11.2020
5171 Rain 26 1014 74 10000 7.7 80 20:37 27.11.2020
5172 Rain 26 1014 69 10000 6.7 80 19:30 27.11.2020
5173 Rain 25 1013 78 10000 3.6 90 18:51 27.11.2020
5174 Clouds 23 1012 78 10000 2.6 90 15:21 27.11.2020
5175 Clouds 24 1013 73 10000 4.1 90 13:57 27.11.2020
5176 Clouds 24 1014 78 10000 2.6 100 12:48 27.11.2020
5177 Clouds 24 1014 78 10000 3.1 110 11:55 27.11.2020
5178 Clouds 24 1015 78 10000 4.1 100 10:51 27.11.2020
5179 Clouds 24 1015 73 10000 3.6 110 10:27 27.11.2020
5180 Clear 24 1016 78 10000 8.39 114 07:30 27.11.2020
5181 Clouds 24 1015 78 10000 8.34 123 22:43 26.11.2020
5182 Clouds 24 1016 77 10000 7.99 122 22:22 26.11.2020
5183 Clouds 26 1015 61 10000 3.6 110 21:39 26.11.2020
5184 Clouds 24 1015 69 10000 4.1 110 19:41 26.11.2020
5185 Clouds 24 1015 73 10000 3.1 120 18:31 26.11.2020
5186 Clouds 23 1013 78 10000 2.6 110 16:32 26.11.2020
5187 Clouds 23 1013 73 10000 2.1 120 13:43 26.11.2020
5188 Clouds 24 1014 73 10000 3.1 120 12:45 26.11.2020
5189 Clouds 24 1014 73 10000 3.1 120 12:23 26.11.2020
5190 Clouds 24 1015 73 10000 3.1 110 10:38 26.11.2020
5191 Clouds 23 1015 78 10000 1.5 130 09:48 26.11.2020
5192 Clouds 23 1015 78 10000 1.5 130 09:30 26.11.2020
5193 Clouds 23 1015 73 10000 1.5 130 08:40 26.11.2020
5194 Clouds 23 1014 73 10000 1.5 130 06:55 26.11.2020
5195 Clouds 26 1014 65 10000 4.6 90 23:54 25.11.2020
5196 Clouds 26 1015 65 10000 3.6 140 21:26 25.11.2020
5197 Clouds 24 1014 69 10000 3.1 120 19:58 25.11.2020
5198 Clouds 24 1013 69 10000 3.1 120 18:28 25.11.2020
5199 Clouds 23 1013 73 10000 2.6 130 17:23 25.11.2020
5200 Clouds 23 1012 78 10000 2.6 130 15:41 25.11.2020
5201 Clouds 23 1012 78 10000 2.6 120 13:58 25.11.2020
5202 Clouds 23 1012 78 10000 2.6 120 13:38 25.11.2020
5203 Clouds 23 1013 78 10000 2.6 140 11:58 25.11.2020
5204 Clouds 24 1013 73 10000 2.1 130 11:18 25.11.2020
5205 Clouds 24 1013 78 10000 2.6 130 09:19 25.11.2020
5206 Clouds 24 1012 78 10000 3.1 110 08:44 25.11.2020
5207 Clouds 26 1010 78 10000 2.6 120 03:59 25.11.2020
5208 Rain 26 1010 83 10000 2.1 100 02:26 25.11.2020
5209 Rain 26 1011 83 7000 2.6 100 00:24 25.11.2020
5210 Clouds 26 1011 83 10000 3.1 100 23:52 24.11.2020
5211 Rain 25 1011 88 6000 3.1 90 23:33 24.11.2020
5212 Rain 25 1012 88 10000 3.1 120 21:51 24.11.2020
5213 Clouds 27 1012 74 10000 1.5 170 21:29 24.11.2020
5214 Clouds 27 1012 74 10000 1.5 110 20:40 24.11.2020
5215 Clouds 25 1011 88 10000 0.5 120 18:40 24.11.2020
5216 Clouds 24 1010 83 10000 1 140 17:30 24.11.2020
5217 Clouds 23 1010 94 10000 0.5 180 16:45 24.11.2020
5218 Clouds 23 1010 94 10000 0.5 180 16:45 24.11.2020
5219 Clouds 23 1010 94 10000 0.5 180 16:27 24.11.2020
5220 Clouds 23 1010 94 10000 1 160 15:54 24.11.2020
5221 Clouds 23 1009 94 10000 1.5 200 15:18 24.11.2020
5222 Clouds 23 1009 94 10000 1.5 200 14:33 24.11.2020
5223 Clouds 23 1010 94 10000 0.5 340 12:45 24.11.2020
5224 Clouds 23 1010 94 10000 0.5 340 12:22 24.11.2020
5225 Clouds 24 1011 88 10000 1 210 11:38 24.11.2020
5226 Clouds 25 1011 83 10000 1 110 10:39 24.11.2020
5227 Clouds 25 1011 83 10000 0.5 150 10:19 24.11.2020
5228 Clouds 25 1011 83 10000 1 170 09:35 24.11.2020
5229 Clouds 25 1010 83 10000 2.1 150 07:57 24.11.2020
5230 Clouds 26 1009 74 10000 2.1 140 04:19 24.11.2020
5231 Clouds 27 1010 74 10000 2.1 180 22:29 23.11.2020
5232 Clouds 26 1011 78 10000 2.1 110 21:36 23.11.2020
5233 Clouds 26 1010 78 10000 1.5 160 20:50 23.11.2020
5234 Clouds 25 1010 83 10000 1 240 20:21 23.11.2020
5235 Clouds 23 1009 100 10000 1 120 18:48 23.11.2020
5236 Clouds 23 1008 94 10000 0.5 30 17:25 23.11.2020
5237 Clouds 23 1008 94 10000 1.5 140 16:22 23.11.2020
5238 Clouds 23 1008 94 10000 1 180 14:46 23.11.2020
5239 Clouds 24 1008 94 10000 1 160 12:56 23.11.2020
5240 Clouds 24 1008 94 10000 2.1 100 12:36 23.11.2020
5241 Rain 23 1010 94 10000 0.5 50 11:46 23.11.2020
5242 Clouds 23 1010 94 10000 0.5 100 10:47 23.11.2020
5243 Clouds 23 1010 94 10000 1.5 80 09:31 23.11.2020
5244 Rain 24 1010 94 10000 1 190 08:39 23.11.2020
5245 Rain 25 1010 88 10000 1 140 07:19 23.11.2020
5246 Clouds 26 1009 78 10000 4.1 50 00:25 23.11.2020
5247 Clouds 26 1010 74 10000 4.1 50 23:18 22.11.2020
5248 Rain 26 1010 78 10000 4.1 50 21:40 22.11.2020
5249 Rain 26 1010 88 10000 3.1 80 20:51 22.11.2020
5250 Rain 25 1010 94 10000 2.1 90 19:52 22.11.2020
5251 Rain 24 1009 100 10000 1 80 18:40 22.11.2020
5252 Clouds 24 1008 94 10000 0.5 190 16:51 22.11.2020
5253 Clouds 23 1008 100 10000 0.5 150 15:33 22.11.2020
5254 Clouds 23 1008 100 10000 0.5 170 14:28 22.11.2020
5255 Clouds 24 1009 94 10000 1 170 12:49 22.11.2020
5256 Clouds 24 1009 94 10000 0.5 190 11:56 22.11.2020
5257 Clouds 23 1009 100 10000 1 80 11:20 22.11.2020
5258 Clouds 24 1010 94 10000 0.5 170 10:38 22.11.2020
5259 Clouds 24 1010 94 10000 0.5 110 08:36 22.11.2020
5260 Clouds 27 1009 78 10000 2.1 10 01:47 22.11.2020
5261 Clouds 28 1010 83 10000 2.6 50 22:56 21.11.2020
5262 Clouds 27 1011 78 10000 2.6 60 21:39 21.11.2020
5263 Clouds 26 1011 83 10000 2.6 40 20:55 21.11.2020
5264 Clouds 27 1011 83 10000 2.1 50 20:31 21.11.2020
5265 Clouds 26 1011 83 10000 3.1 80 19:52 21.11.2020
5266 Clouds 26 1011 88 10000 3.1 80 19:25 21.11.2020
5267 Clouds 22 1010 100 10000 1.5 90 17:57 21.11.2020
5268 Clouds 22 1010 100 10000 0.5 170 16:48 21.11.2020
5269 Clouds 23 1009 94 10000 0.5 160 15:45 21.11.2020
5270 Clouds 23 1009 100 10000 0.5 160 15:21 21.11.2020
5271 Clouds 23 1010 100 10000 0.5 80 14:42 21.11.2020
5272 Clouds 22 1010 100 10000 1 80 13:27 21.11.2020
5273 Clouds 22 1011 100 10000 0.5 170 12:24 21.11.2020
5274 Clouds 23 1011 94 10000 0.5 150 11:50 21.11.2020
5275 Rain 23 1012 94 10000 0.5 70 10:28 21.11.2020
5276 Clouds 23 1012 94 10000 1 80 09:22 21.11.2020
5277 Clouds 24 1011 88 10000 1 120 08:50 21.11.2020
5278 Clouds 26 1010 83 10000 4.6 70 05:42 21.11.2020
5279 Clouds 27 1010 78 10000 4.6 50 03:36 21.11.2020
5280 Clouds 26 1011 83 10000 5.1 60 00:22 21.11.2020
5281 Clouds 27 1012 83 10000 5.7 70 23:19 20.11.2020
5282 Clouds 27 1012 83 10000 6.2 70 21:46 20.11.2020
5283 Clouds 27 1012 83 10000 6.2 70 21:26 20.11.2020
5284 Clouds 27 1012 83 10000 4.1 70 20:41 20.11.2020
5285 Clear 26 1012 88 10000 3.1 80 19:28 20.11.2020
5286 Clear 23 1012 100 10000 0.5 160 18:27 20.11.2020
5287 Clear 22 1011 100 10000 1 70 17:31 20.11.2020
5288 Clear 23 1011 94 10000 0.5 230 16:47 20.11.2020
5289 Clear 24 1011 94 10000 1.5 100 15:59 20.11.2020
5290 Clear 24 1011 94 10000 1 100 15:39 20.11.2020
5291 Clear 24 1012 94 10000 1 100 13:54 20.11.2020
5292 Clouds 25 1013 88 10000 0.5 150 13:19 20.11.2020
5293 Clouds 25 1013 88 10000 2.1 100 12:41 20.11.2020
5294 Clouds 25 1013 88 10000 2.6 90 11:50 20.11.2020
5295 Clouds 25 1014 88 10000 2.1 90 11:21 20.11.2020
5296 Clouds 25 1014 88 10000 1.5 100 09:46 20.11.2020
5297 Clear 25 1014 88 10000 1 100 08:28 20.11.2020
5298 Clear 25 1013 88 10000 4.1 90 07:47 20.11.2020
5299 Clouds 27 1012 83 10000 5.7 70 03:45 20.11.2020
5300 Clouds 27 1014 83 10000 7.2 70 23:36 19.11.2020
5301 Clouds 28 1014 78 10000 4.6 90 22:29 19.11.2020
5302 Clouds 27 1015 78 10000 4.1 80 21:50 19.11.2020
5303 Rain 26 1015 88 10000 4.6 90 20:42 19.11.2020
5304 Rain 26 1015 88 10000 4.6 90 20:42 19.11.2020
5305 Clouds 26 1015 88 10000 6.7 80 20:19 19.11.2020
5306 Clouds 26 1015 83 10000 4.1 80 19:25 19.11.2020
5307 Clouds 25 1015 88 10000 1.5 100 18:35 19.11.2020
5308 Clouds 25 1014 88 10000 2.1 90 17:18 19.11.2020
5309 Clouds 25 1014 94 10000 3.1 100 15:59 19.11.2020
5310 Clouds 25 1014 94 10000 2.1 90 15:28 19.11.2020
5311 Clouds 25 1014 94 10000 3.1 90 13:47 19.11.2020
5312 Clouds 25 1014 94 10000 3.1 90 13:25 19.11.2020
5313 Clouds 25 1014 94 10000 3.1 90 12:51 19.11.2020
5314 Clouds 24 1014 100 10000 3.1 70 12:25 19.11.2020
5315 Clouds 24 1015 100 10000 3.6 90 11:40 19.11.2020
5316 Rain 25 1015 94 10000 4.1 60 10:54 19.11.2020
5317 Rain 24 1016 100 10000 4.1 60 10:27 19.11.2020
5318 Rain 24 1015 94 10000 5.7 80 09:44 19.11.2020
5319 Rain 24 1015 94 10000 5.7 80 09:25 19.11.2020
5320 Rain 23 1015 100 10000 6.7 80 08:20 19.11.2020
5321 Rain 25 1015 94 10000 6.2 80 06:20 19.11.2020
5322 Rain 26 1015 83 10000 3.1 100 01:45 19.11.2020
5323 Clouds 26 1015 88 10000 4.1 90 00:28 19.11.2020
5324 Clouds 26 1015 83 10000 5.1 90 23:25 18.11.2020
5325 Clouds 26 1015 83 10000 5.7 90 22:36 18.11.2020
5326 Clouds 26 1015 83 10000 5.1 90 22:18 18.11.2020
5327 Clouds 26 1015 88 10000 6.2 90 21:38 18.11.2020
5328 Clouds 26 1015 83 10000 7.7 80 21:19 18.11.2020
5329 Clouds 25 1015 88 10000 5.7 90 19:48 18.11.2020
5330 Clouds 25 1015 88 10000 5.7 90 19:27 18.11.2020
5331 Clouds 25 1014 88 10000 5.7 90 18:55 18.11.2020
5332 Clouds 25 1014 88 10000 6.2 90 18:36 18.11.2020
5333 Clouds 24 1013 94 10000 5.7 90 17:35 18.11.2020
5334 Clouds 24 1013 100 10000 4.6 90 16:23 18.11.2020
5335 Mist 24 1013 94 2300 4.6 80 15:22 18.11.2020
5336 Clouds 25 1014 86 10000 8.01 81 14:40 18.11.2020
5337 Mist 24 1013 94 4400 7.2 80 13:43 18.11.2020
5338 Clouds 24 1014 94 10000 7.2 80 12:54 18.11.2020
5339 Clouds 24 1014 94 10000 5.7 90 12:27 18.11.2020
5340 Clouds 24 1015 100 8000 7.2 80 11:27 18.11.2020
5341 Clouds 24 1016 100 10000 5.1 90 10:31 18.11.2020
5342 Clouds 25 1015 94 10000 6.2 90 09:41 18.11.2020
5343 Clouds 24 1015 100 10000 6.2 90 07:37 18.11.2020
5344 Rain 24 1015 100 1800 3.6 80 06:29 18.11.2020
5345 Clouds 27 1015 83 10000 9.8 80 00:22 18.11.2020
5346 Clouds 27 1015 83 10000 8.7 80 23:31 17.11.2020
5347 Drizzle 26 1015 88 6000 7.2 80 22:46 17.11.2020
5348 Drizzle 26 1015 88 6000 7.2 80 22:27 17.11.2020
5349 Clouds 27 1016 83 10000 7.7 80 21:49 17.11.2020
5350 Clouds 27 1016 83 10000 8.2 80 21:29 17.11.2020
5351 Clouds 26 1016 88 10000 6.7 80 20:43 17.11.2020
5352 Clouds 26 1016 88 10000 6.7 80 20:24 17.11.2020
5353 Clouds 26 1016 88 10000 6.2 80 19:50 17.11.2020
5354 Clouds 25 1015 88 10000 5.7 90 18:23 17.11.2020
5355 Clouds 25 1015 88 10000 5.1 90 17:33 17.11.2020
5356 Clouds 25 1015 88 10000 5.1 80 16:37 17.11.2020
5357 Clouds 25 1014 88 10000 5.1 90 15:58 17.11.2020
5358 Clouds 25 1014 88 10000 5.1 90 15:36 17.11.2020
5359 Clouds 25 1014 88 10000 5.1 90 14:58 17.11.2020
5360 Clouds 25 1014 88 10000 5.1 80 14:30 17.11.2020
5361 Clouds 25 1014 88 10000 6.2 80 13:45 17.11.2020
5362 Clouds 25 1014 88 10000 6.2 80 13:21 17.11.2020
5363 Clouds 25 1014 88 10000 6.2 80 13:21 17.11.2020
5364 Clouds 25 1015 88 10000 6.2 80 12:41 17.11.2020
5365 Clouds 25 1016 88 10000 5.1 80 11:44 17.11.2020
5366 Clouds 25 1016 88 10000 4.6 90 10:57 17.11.2020
5367 Clouds 25 1016 88 10000 5.7 90 10:37 17.11.2020
5368 Clouds 25 1016 88 10000 5.7 90 09:51 17.11.2020
5369 Clouds 25 1016 88 10000 4.6 90 09:30 17.11.2020
5370 Rain 25 1015 88 10000 5.7 90 08:25 17.11.2020
5371 Rain 25 1015 88 10000 5.7 90 07:50 17.11.2020
5372 Rain 25 1015 88 10000 4.6 90 06:59 17.11.2020
5373 Rain 26 1014 88 10000 6.2 80 04:20 17.11.2020
5374 Rain 27 1014 83 10000 6.7 80 02:55 17.11.2020
5375 Rain 27 1014 83 10000 7.2 80 01:31 17.11.2020
5376 Rain 28 1014 83 10000 7.7 80 00:56 17.11.2020
5377 Rain 27 1015 88 10000 8.2 70 23:50 16.11.2020
5378 Rain 28 1015 83 10000 8.2 80 23:29 16.11.2020
5379 Rain 27 1015 88 10000 7.7 70 22:48 16.11.2020
5380 Rain 27 1015 88 10000 7.7 70 22:21 16.11.2020
5381 Rain 26 1015 94 10000 8.2 80 21:47 16.11.2020
5382 Rain 26 1015 94 10000 8.2 80 21:25 16.11.2020
5383 Rain 25 1014 94 10000 6.2 90 20:50 16.11.2020
5384 Clouds 25 1014 94 10000 6.2 90 20:24 16.11.2020
5385 Rain 25 1015 94 10000 4.6 80 19:38 16.11.2020
5386 Rain 24 1015 100 8000 3.6 90 19:19 16.11.2020
5387 Rain 25 1015 94 10000 4.6 80 18:39 16.11.2020
5388 Rain 24 1014 100 10000 4.6 90 17:50 16.11.2020
5389 Rain 24 1014 94 10000 4.6 90 17:21 16.11.2020
5390 Rain 24 1014 94 10000 4.6 90 16:54 16.11.2020
5391 Rain 24 1013 94 10000 3.6 100 16:28 16.11.2020
5392 Rain 24 1013 94 10000 3.6 90 15:52 16.11.2020
5393 Rain 24 1013 100 10000 4.6 90 15:31 16.11.2020
5394 Rain 24 1013 100 9000 4.6 90 14:57 16.11.2020
5395 Rain 24 1013 100 10000 2.6 90 14:28 16.11.2020
5396 Rain 24 1013 94 10000 3.6 90 13:31 16.11.2020
5397 Rain 24 1014 100 10000 0.5 110 12:33 16.11.2020
5398 Rain 24 1015 100 10000 3.1 90 11:44 16.11.2020
5399 Rain 24 1015 100 10000 3.1 90 11:24 16.11.2020
5400 Rain 24 1015 100 10000 1 150 10:47 16.11.2020
5401 Rain 24 1015 100 10000 1 150 10:26 16.11.2020
5402 Rain 24 1015 100 10000 1 150 10:26 16.11.2020
5403 Rain 24 1014 100 10000 1.5 80 09:53 16.11.2020
5404 Rain 24 1014 100 10000 5.1 60 09:35 16.11.2020
5405 Rain 25 1015 94 10000 5.1 80 08:49 16.11.2020
5406 Rain 25 1014 94 10000 5.1 80 08:22 16.11.2020
5407 Rain 25 1014 88 10000 4.1 80 07:34 16.11.2020
5408 Clouds 25 1013 88 10000 4.6 90 06:46 16.11.2020
5409 Clouds 25 1012 88 10000 5.7 80 05:49 16.11.2020
5410 Rain 27 1012 78 10000 7.2 80 03:54 16.11.2020
5411 Rain 27 1013 78 10000 7.2 80 01:45 16.11.2020
5412 Rain 28 1014 74 10000 8.2 70 00:42 16.11.2020
5413 Clouds 27 1014 83 10000 7.7 70 23:33 15.11.2020
5414 Clouds 27 1014 83 10000 7.2 70 22:58 15.11.2020
5415 Clouds 27 1014 78 10000 7.2 80 22:26 15.11.2020
5416 Clouds 27 1014 78 10000 7.7 70 21:56 15.11.2020
5417 Clouds 27 1014 78 10000 7.7 80 21:36 15.11.2020
5418 Rain 27 1014 78 10000 7.2 80 20:58 15.11.2020
5419 Rain 26 1014 83 10000 6.7 90 20:39 15.11.2020
5420 Clouds 25 1014 88 10000 7.2 80 19:57 15.11.2020
5421 Clouds 25 1014 88 10000 5.7 80 19:38 15.11.2020
5422 Clouds 25 1014 88 10000 5.7 80 19:20 15.11.2020
5423 Clouds 24 1014 94 10000 3.6 80 18:45 15.11.2020
5424 Clouds 24 1014 94 10000 3.6 80 18:25 15.11.2020
5425 Clouds 24 1014 94 10000 4.1 90 17:57 15.11.2020
5426 Clouds 24 1013 94 10000 4.1 90 17:39 15.11.2020
5427 Clouds 24 1013 94 10000 4.6 90 17:19 15.11.2020
5428 Clouds 24 1013 94 10000 4.6 90 16:39 15.11.2020
5429 Rain 24 1013 94 10000 4.1 80 16:18 15.11.2020
5430 Rain 24 1013 94 10000 3.1 90 15:43 15.11.2020
5431 Clouds 24 1013 94 10000 3.1 90 15:23 15.11.2020
5432 Clouds 24 1013 88 10000 3.1 90 14:50 15.11.2020
5433 Rain 24 1013 88 10000 2.6 100 14:25 15.11.2020
5434 Rain 24 1013 88 10000 2.6 100 14:25 15.11.2020
5435 Rain 24 1014 88 10000 3.1 90 13:41 15.11.2020
5436 Rain 24 1014 94 10000 4.1 90 13:18 15.11.2020
5437 Clouds 24 1014 88 10000 4.1 80 12:42 15.11.2020
5438 Rain 24 1015 88 10000 4.1 90 12:19 15.11.2020
5439 Rain 24 1015 94 10000 4.6 90 11:42 15.11.2020
5440 Rain 24 1015 88 10000 4.1 90 11:18 15.11.2020
5441 Rain 24 1015 94 10000 4.6 90 10:49 15.11.2020
5442 Rain 24 1015 94 10000 4.6 90 10:29 15.11.2020
5443 Rain 24 1015 88 10000 3.6 90 09:45 15.11.2020
5444 Clouds 24 1015 88 10000 3.6 90 09:22 15.11.2020
5445 Clouds 24 1015 88 10000 3.6 90 08:54 15.11.2020
5446 Clouds 24 1015 88 10000 3.6 90 08:31 15.11.2020
5447 Rain 24 1014 88 10000 4.1 80 07:43 15.11.2020
5448 Clouds 26 1013 78 10000 3.6 90 05:30 15.11.2020
5449 Clouds 25 1013 83 10000 4.6 90 04:50 15.11.2020
5450 Rain 28 1014 74 10000 7.2 80 00:56 15.11.2020
5451 Clouds 27 1014 74 10000 6.2 80 00:29 15.11.2020
5452 Clouds 28 1015 74 10000 6.7 70 23:37 14.11.2020
5453 Clouds 27 1015 74 10000 6.2 70 22:50 14.11.2020
5454 Clouds 27 1015 74 10000 4.6 80 22:31 14.11.2020
5455 Clouds 26 1015 74 10000 3.1 100 21:44 14.11.2020
5456 Clouds 26 1015 74 10000 3.1 100 21:22 14.11.2020
5457 Clouds 27 1015 74 10000 3.6 100 20:56 14.11.2020
5458 Clouds 26 1015 78 10000 3.6 90 20:28 14.11.2020
5459 Clouds 26 1015 78 10000 2.6 100 19:51 14.11.2020
5460 Clouds 26 1015 74 10000 1 110 19:31 14.11.2020
5461 Clouds 24 1015 88 10000 1.5 90 18:43 14.11.2020
5462 Clouds 24 1015 88 10000 1.5 90 18:24 14.11.2020
5463 Clouds 22 1015 94 10000 1.5 80 17:51 14.11.2020
5464 Clouds 21 1015 100 10000 1.5 160 17:33 14.11.2020
5465 Clouds 20 1014 100 10000 1 170 16:57 14.11.2020
5466 Clouds 20 1014 100 10000 1 140 16:37 14.11.2020
5467 Clouds 20 1014 100 10000 0.5 130 16:18 14.11.2020
5468 Clouds 20 1014 100 10000 0.5 130 15:51 14.11.2020
5469 Clouds 21 1014 94 10000 1 180 15:25 14.11.2020
5470 Clouds 21 1014 94 10000 1 180 14:41 14.11.2020
5471 Clear 21 1014 94 10000 1 180 14:23 14.11.2020
5472 Clear 22 1015 88 10000 1 160 13:41 14.11.2020
5473 Clouds 22 1015 88 10000 1 160 13:22 14.11.2020
5474 Clouds 23 1015 88 10000 1.5 120 12:46 14.11.2020
5475 Clouds 23 1015 88 10000 1.5 120 12:27 14.11.2020
5476 Clouds 23 1016 88 10000 1.5 120 11:43 14.11.2020
5477 Clouds 23 1016 88 10000 1.5 120 11:24 14.11.2020
5478 Clouds 22 1016 88 10000 1 130 10:43 14.11.2020
5479 Clouds 22 1016 88 10000 1 130 10:25 14.11.2020
5480 Clouds 22 1016 88 10000 1 200 09:47 14.11.2020
5481 Clouds 22 1016 88 10000 1 200 09:28 14.11.2020
5482 Clouds 22 1016 88 10000 1.5 190 08:49 14.11.2020
5483 Clouds 22 1015 88 10000 0.5 180 08:27 14.11.2020
5484 Clouds 23 1015 83 10000 0.5 180 07:44 14.11.2020
5485 Clouds 23 1015 83 10000 0.5 180 07:25 14.11.2020
5486 Clouds 24 1014 78 10000 1.5 100 06:31 14.11.2020
5487 Clouds 25 1014 73 10000 3.6 90 05:29 14.11.2020
5488 Clouds 26 1014 69 10000 3.1 120 03:52 14.11.2020
5489 Clouds 27 1014 69 10000 2.6 140 00:54 14.11.2020
5490 Clear 27 1015 69 10000 3.1 110 23:43 13.11.2020
5491 Clear 27 1015 69 10000 3.1 130 23:22 13.11.2020
5492 Clear 26 1015 69 10000 3.6 120 22:42 13.11.2020
5493 Clear 26 1015 69 10000 3.6 120 22:23 13.11.2020
5494 Clear 27 1015 69 10000 1.5 130 21:51 13.11.2020
5495 Clear 26 1016 69 10000 3.6 130 21:29 13.11.2020
5496 Clear 26 1016 74 10000 2.6 150 20:56 13.11.2020
5497 Clear 26 1015 69 10000 2.1 130 20:37 13.11.2020
5498 Clear 25 1015 73 10000 2.6 130 20:19 13.11.2020
5499 Clear 25 1015 73 10000 2.1 130 19:45 13.11.2020
5500 Clouds 25 1015 73 10000 2.1 130 19:22 13.11.2020
5501 Clouds 24 1015 78 10000 5.1 150 18:50 13.11.2020
5502 Clouds 24 1014 78 10000 5.1 150 17:59 13.11.2020
5503 Clouds 24 1014 78 10000 5.1 140 17:39 13.11.2020
5504 Clouds 24 1014 78 10000 4.6 150 17:18 13.11.2020
5505 Rain 24 1014 78 10000 3.6 150 16:46 13.11.2020
5506 Rain 24 1014 78 10000 3.6 150 16:21 13.11.2020
5507 Rain 23 1013 83 10000 4.6 140 15:41 13.11.2020
5508 Rain 23 1013 83 10000 4.6 140 15:22 13.11.2020
5509 Rain 23 1014 88 10000 2.1 140 14:39 13.11.2020
5510 Rain 23 1014 88 10000 1.5 140 14:19 13.11.2020
5511 Clouds 23 1014 94 10000 1 120 13:37 13.11.2020
5512 Clouds 23 1014 94 10000 1 90 13:18 13.11.2020
5513 Clouds 23 1015 94 10000 1 230 12:43 13.11.2020
5514 Clouds 23 1015 94 10000 1 230 12:24 13.11.2020
5515 Rain 23 1015 94 10000 1 130 11:47 13.11.2020
5516 Rain 23 1015 94 10000 1 130 11:24 13.11.2020
5517 Clouds 23 1015 88 10000 1 90 10:54 13.11.2020
5518 Clouds 23 1016 88 10000 2.1 100 10:33 13.11.2020
5519 Clouds 23 1016 88 10000 2.1 110 09:53 13.11.2020
5520 Rain 23 1016 88 10000 1 140 09:32 13.11.2020
5521 Clouds 23 1015 88 10000 1 120 08:54 13.11.2020
5522 Clouds 23 1015 94 10000 1 140 08:30 13.11.2020
5523 Clouds 24 1015 83 10000 2.6 100 07:51 13.11.2020
5524 Clouds 24 1014 83 10000 1.5 100 07:29 13.11.2020
5525 Clouds 24 1014 83 10000 1 100 06:57 13.11.2020
5526 Clouds 25 1014 78 10000 2.1 100 06:37 13.11.2020
5527 Clouds 25 1013 78 10000 2.1 120 05:42 13.11.2020
5528 Clouds 26 1013 74 10000 4.1 100 04:20 13.11.2020
5529 Clouds 27 1014 69 10000 5.1 100 01:43 13.11.2020
5530 Clouds 26 1014 74 10000 5.7 80 00:37 13.11.2020
5531 Clouds 26 1015 74 10000 4.1 100 23:55 12.11.2020
5532 Clouds 26 1015 78 10000 3.1 90 23:21 12.11.2020
5533 Clouds 26 1015 78 10000 3.1 90 22:56 12.11.2020
5534 Clouds 26 1015 78 10000 2.1 120 22:38 12.11.2020
5535 Rain 25 1016 83 8000 2.6 130 21:59 12.11.2020
5536 Clouds 25 1015 83 10000 2.1 110 21:41 12.11.2020
5537 Clouds 25 1015 83 10000 2.1 110 21:22 12.11.2020
5538 Clouds 25 1016 78 10000 2.6 120 20:42 12.11.2020
5539 Clouds 25 1016 78 10000 2.6 120 20:24 12.11.2020
5540 Clouds 25 1016 78 10000 2.6 120 19:55 12.11.2020
5541 Clouds 25 1016 78 10000 2.6 100 19:37 12.11.2020
5542 Clouds 24 1016 83 10000 1.5 130 19:19 12.11.2020
5543 Clouds 24 1016 83 10000 2.6 140 18:42 12.11.2020
5544 Clouds 24 1015 83 10000 2.1 130 18:20 12.11.2020
5545 Clouds 24 1015 83 10000 2.1 140 17:43 12.11.2020
5546 Clouds 24 1015 83 10000 2.1 140 17:24 12.11.2020
5547 Clouds 23 1014 88 10000 1.5 120 16:45 12.11.2020
5548 Clouds 23 1014 88 10000 1.5 120 16:23 12.11.2020
5549 Clouds 23 1014 83 10000 1.5 110 15:53 12.11.2020
5550 Clouds 23 1014 83 10000 1 110 15:28 12.11.2020
5551 Clouds 24 1014 78 10000 2.6 120 14:56 12.11.2020
5552 Clouds 23 1014 83 10000 1 140 14:37 12.11.2020
5553 Clouds 23 1015 83 10000 1 110 14:18 12.11.2020
5554 Clouds 24 1015 82 10000 6.45 117 13:43 12.11.2020
5555 Clouds 24 1015 83 10000 3.1 110 13:19 12.11.2020
5556 Clouds 24 1015 83 10000 3.1 110 12:47 12.11.2020
5557 Clouds 24 1015 83 10000 3.1 110 12:25 12.11.2020
5558 Clouds 24 1015 83 10000 1.5 120 11:53 12.11.2020
5559 Drizzle 24 1016 83 10000 2.1 100 11:34 12.11.2020
5560 Clouds 24 1016 83 10000 2.6 100 10:50 12.11.2020
5561 Clouds 24 1016 83 10000 3.6 90 10:32 12.11.2020
5562 Clouds 24 1016 83 10000 3.1 100 09:51 12.11.2020
5563 Clouds 24 1016 83 10000 3.6 100 09:27 12.11.2020
5564 Clouds 24 1016 83 10000 4.1 100 08:58 12.11.2020
5565 Clouds 25 1015 78 10000 4.6 100 08:40 12.11.2020
5566 Clouds 25 1015 78 10000 4.1 100 08:20 12.11.2020
5567 Clouds 25 1015 78 10000 4.1 100 07:54 12.11.2020
5568 Clouds 25 1015 78 10000 4.1 100 07:30 12.11.2020
5569 Clouds 24 1015 83 10000 3.1 110 06:51 12.11.2020
5570 Clouds 25 1014 78 10000 3.6 90 06:22 12.11.2020
5571 Clear 26 1014 74 10000 4.1 100 03:43 12.11.2020
5572 Clear 26 1014 74 10000 6.2 90 03:18 12.11.2020
5573 Clouds 27 1015 74 10000 5.1 100 00:25 12.11.2020
5574 Clouds 27 1016 74 10000 6.7 90 23:40 11.11.2020
5575 Clouds 27 1016 74 10000 6.7 90 23:22 11.11.2020
5576 Clouds 27 1016 74 10000 5.7 90 22:43 11.11.2020
5577 Clouds 27 1016 74 10000 7.2 90 22:21 11.11.2020
5578 Clouds 27 1016 74 10000 7.2 90 21:56 11.11.2020
5579 Clouds 27 1017 78 10000 6.2 80 21:38 11.11.2020
5580 Clouds 26 1017 78 10000 6.2 90 21:18 11.11.2020
5581 Clouds 26 1017 78 10000 5.7 90 20:42 11.11.2020
5582 Clouds 26 1017 78 10000 5.7 90 20:21 11.11.2020
5583 Clouds 26 1017 78 10000 4.6 90 19:51 11.11.2020
5584 Clouds 25 1017 83 10000 4.1 100 19:32 11.11.2020
5585 Clouds 25 1016 83 10000 4.6 90 18:58 11.11.2020
5586 Clouds 24 1016 88 10000 4.1 90 18:40 11.11.2020
5587 Clouds 24 1015 88 10000 3.6 90 17:46 11.11.2020
5588 Clouds 24 1015 88 10000 3.6 90 17:27 11.11.2020
5589 Clouds 24 1015 88 10000 4.1 90 16:59 11.11.2020
5590 Clouds 24 1015 88 10000 5.1 90 16:37 11.11.2020
5591 Rain 24 1014 88 10000 4.1 90 16:19 11.11.2020
5592 Clouds 24 1014 88 10000 5.1 80 15:39 11.11.2020
5593 Clouds 24 1014 88 10000 6.2 90 15:21 11.11.2020
5594 Clouds 24 1014 88 10000 5.7 90 14:43 11.11.2020
5595 Clouds 24 1014 88 10000 5.7 90 14:23 11.11.2020
5596 Clouds 24 1015 88 10000 5.7 80 13:48 11.11.2020
5597 Rain 24 1015 88 10000 5.1 90 12:59 11.11.2020
5598 Clouds 25 1015 83 10000 6.7 80 12:21 11.11.2020
5599 Clouds 24 1016 88 10000 6.2 80 11:51 11.11.2020
5600 Clouds 24 1016 88 10000 5.7 90 11:33 11.11.2020
5601 Clouds 24 1016 88 10000 5.7 90 11:33 11.11.2020
5602 Clouds 25 1016 83 10000 6.2 80 10:45 11.11.2020
5603 Clouds 25 1016 83 10000 6.2 80 10:27 11.11.2020
5604 Clouds 25 1016 83 10000 6.2 90 09:55 11.11.2020
5605 Clouds 25 1016 83 10000 6.2 80 09:37 11.11.2020
5606 Clouds 25 1016 83 10000 7.2 80 09:19 11.11.2020
5607 Clouds 25 1016 83 10000 5.1 90 08:43 11.11.2020
5608 Clear 25 1016 83 10000 5.1 90 08:24 11.11.2020
5609 Clear 25 1015 83 10000 5.1 90 07:43 11.11.2020
5610 Clouds 25 1015 83 10000 6.7 90 06:31 11.11.2020
5611 Clouds 26 1014 78 10000 5.1 100 05:36 11.11.2020
5612 Clear 27 1014 78 10000 7.12 99 01:37 11.11.2020
5613 Rain 27 1014 78 10000 5.41 95 00:57 11.11.2020
5614 Clear 28 1015 74 10000 7.7 80 00:24 11.11.2020
5615 Clear 27 1015 78 10000 6.2 90 23:37 10.11.2020
5616 Rain 26 1015 88 10000 5.48 79 23:18 10.11.2020
5617 Rain 26 1015 83 10000 6.7 70 22:43 10.11.2020
5618 Clear 26 1015 83 10000 6.7 70 22:20 10.11.2020
5619 Clear 27 1016 78 10000 6.7 70 21:40 10.11.2020
5620 Clear 27 1016 78 10000 5.78 73 21:22 10.11.2020
5621 Clear 26 1016 78 10000 5.78 73 20:44 10.11.2020
5622 Clear 26 1016 78 10000 5.68 68 20:24 10.11.2020
5623 Clear 26 1015 78 10000 4.6 100 19:58 10.11.2020
5624 Clear 26 1015 78 10000 4.6 90 19:39 10.11.2020
5625 Clear 26 1015 78 10000 4.6 90 19:21 10.11.2020
5626 Clear 24 1015 88 10000 3.6 90 18:42 10.11.2020
5627 Clear 24 1014 88 10000 3.6 90 18:21 10.11.2020
5628 Clear 24 1014 88 10000 6.01 57 17:47 10.11.2020
5629 Rain 24 1014 88 10000 6.66 58 17:28 10.11.2020
5630 Rain 24 1014 88 10000 4.1 80 16:58 10.11.2020
5631 Rain 24 1013 88 10000 4.6 80 16:40 10.11.2020
5632 Rain 24 1013 88 10000 4.6 80 16:22 10.11.2020
5633 Rain 24 1013 88 10000 5.1 90 15:48 10.11.2020
5634 Rain 24 1013 88 10000 5.1 90 15:27 10.11.2020
5635 Rain 24 1013 88 10000 5.7 80 14:43 10.11.2020
5636 Rain 24 1013 88 10000 5.7 80 14:23 10.11.2020
5637 Rain 24 1013 88 10000 6.7 70 13:59 10.11.2020
5638 Rain 24 1014 94 10000 6.41 59 13:37 10.11.2020
5639 Rain 25 1014 88 10000 5.7 70 13:19 10.11.2020
5640 Rain 24 1014 94 10000 5.7 80 12:45 10.11.2020
5641 Clear 24 1014 94 10000 5.7 80 12:24 10.11.2020
5642 Clear 24 1015 88 10000 6.14 57 11:41 10.11.2020
5643 Clear 24 1015 88 10000 5.86 61 11:21 10.11.2020
5644 Clear 24 1015 88 10000 5.86 61 11:21 10.11.2020
5645 Clear 24 1015 88 10000 3.6 80 10:56 10.11.2020
5646 Clear 24 1015 83 10000 3.6 90 10:36 10.11.2020
5647 Rain 23 1015 88 10000 4.1 80 10:18 10.11.2020
5648 Rain 24 1015 88 10000 5.18 68 09:41 10.11.2020
5649 Clear 24 1015 88 10000 4.71 70 09:23 10.11.2020
5650 Clear 24 1014 88 10000 4.6 90 08:52 10.11.2020
5651 Rain 24 1015 88 10000 7.7 80 08:26 10.11.2020
5652 Clear 25 1014 88 10000 4.93 77 07:44 10.11.2020
5653 Clear 25 1014 88 10000 4.32 88 07:21 10.11.2020
5654 Clear 25 1013 88 10000 4.6 90 06:40 10.11.2020
5655 Clear 26 1013 83 10000 3.93 119 05:41 10.11.2020
5656 Rain 27 1012 78 10000 4.1 80 04:49 10.11.2020
5657 Rain 27 1013 78 10000 4.6 80 02:18 10.11.2020
5658 Rain 27 1013 78 10000 5.7 70 01:25 10.11.2020
5659 Clouds 27 1014 74 10000 5.7 70 23:53 09.11.2020
5660 Clouds 27 1014 78 10000 6.7 70 23:24 09.11.2020
5661 Clouds 26 1014 78 10000 4.86 150 22:44 09.11.2020
5662 Clouds 26 1014 78 10000 4.75 149 22:23 09.11.2020
5663 Clouds 26 1014 74 10000 5.1 80 21:45 09.11.2020
5664 Clouds 26 1014 74 10000 5.1 80 21:27 09.11.2020
5665 Clouds 26 1014 74 10000 5.1 80 21:27 09.11.2020
5666 Clouds 26 1014 78 10000 4.64 151 20:45 09.11.2020
5667 Clouds 26 1014 78 10000 4.4 149 20:22 09.11.2020
5668 Clouds 26 1014 78 10000 1.5 60 19:57 09.11.2020
5669 Clouds 24 1014 88 10000 1 110 19:39 09.11.2020
5670 Clouds 22 1014 94 10000 4.63 149 19:19 09.11.2020
5671 Rain 22 1014 94 10000 4.44 149 18:41 09.11.2020
5672 Rain 21 1013 100 10000 1 170 18:20 09.11.2020
5673 Rain 21 1013 100 10000 4.65 147 17:44 09.11.2020
5674 Rain 21 1013 100 10000 5 148 17:26 09.11.2020
5675 Rain 22 1012 94 10000 1 200 16:44 09.11.2020
5676 Rain 22 1012 94 10000 1 200 16:24 09.11.2020
5677 Rain 22 1012 94 10000 5.35 153 15:47 09.11.2020
5678 Rain 22 1012 94 10000 5.33 158 15:28 09.11.2020
5679 Rain 22 1012 94 10000 5.33 158 14:51 09.11.2020
5680 Clouds 22 1012 94 10000 5.04 162 14:29 09.11.2020
5681 Clouds 22 1012 94 10000 0.5 180 13:57 09.11.2020
5682 Clouds 22 1012 94 10000 5.04 162 13:37 09.11.2020
5683 Clouds 22 1012 88 10000 1 170 13:18 09.11.2020
5684 Clouds 23 1013 83 10000 4.6 156 12:41 09.11.2020
5685 Clouds 22 1013 94 10000 2.1 70 12:21 09.11.2020
5686 Clouds 22 1013 94 10000 0.5 110 11:43 09.11.2020
5687 Clouds 22 1013 94 10000 0.5 110 11:24 09.11.2020
5688 Clouds 22 1013 94 10000 1 150 10:57 09.11.2020
5689 Clouds 22 1014 88 10000 1 170 10:39 09.11.2020
5690 Clouds 22 1014 88 10000 1 170 10:21 09.11.2020
5691 Clouds 21 1013 94 10000 0.5 110 09:30 09.11.2020
5692 Clouds 22 1013 88 10000 0.5 170 08:50 09.11.2020
5693 Clouds 23 1013 78 10000 2.6 110 08:27 09.11.2020
5694 Clouds 23 1012 78 10000 4.1 130 07:44 09.11.2020
5695 Clouds 23 1012 78 10000 4.1 130 07:22 09.11.2020
5696 Clouds 24 1012 73 10000 2.6 130 06:51 09.11.2020
5697 Clouds 26 1011 69 10000 3.96 159 03:51 09.11.2020
5698 Clouds 27 1011 69 10000 2.96 151 01:57 09.11.2020
5699 Clouds 26 1011 74 10000 1.5 360 01:39 09.11.2020
5700 Clouds 26 1012 69 10000 2.6 10 00:35 09.11.2020
5701 Clouds 25 1013 73 10000 2.6 310 23:40 08.11.2020
5702 Clouds 25 1013 73 10000 2.6 310 23:22 08.11.2020
5703 Clouds 26 1013 74 10000 2.1 330 22:42 08.11.2020
5704 Clouds 26 1013 74 10000 2.1 330 22:21 08.11.2020
5705 Clouds 25 1014 73 10000 2.1 360 21:45 08.11.2020
5706 Clouds 25 1014 73 10000 2.1 10 21:21 08.11.2020
5707 Clouds 25 1014 73 10000 2.1 10 20:56 08.11.2020
5708 Clouds 26 1014 69 10000 2.1 10 20:38 08.11.2020
5709 Clear 25 1014 73 10000 4.34 163 20:19 08.11.2020
5710 Clear 25 1014 73 10000 4.34 163 20:19 08.11.2020
5711 Clear 25 1013 73 10000 1 200 19:43 08.11.2020
5712 Clear 25 1013 73 10000 1 200 19:21 08.11.2020
5713 Clear 23 1013 83 10000 0.5 300 18:49 08.11.2020
5714 Clouds 21 1012 88 10000 3.44 160 18:22 08.11.2020
5715 Clouds 21 1012 88 10000 3.44 160 17:59 08.11.2020
5716 Clouds 19 1012 100 10000 1 230 17:41 08.11.2020
5717 Clouds 19 1012 100 10000 0.5 250 17:20 08.11.2020
5718 Clouds 19 1012 100 10000 0.5 250 16:56 08.11.2020
5719 Clouds 20 1012 94 10000 1 220 16:37 08.11.2020
5720 Clouds 20 1012 94 10000 3.51 172 16:18 08.11.2020
5721 Clouds 19 1012 100 10000 0.5 220 15:43 08.11.2020
5722 Clouds 19 1012 100 10000 0.5 220 15:23 08.11.2020
5723 Clouds 20 1012 94 10000 1 230 14:42 08.11.2020
5724 Clouds 20 1012 94 10000 1 230 14:22 08.11.2020
5725 Clouds 20 1012 94 10000 1 230 14:22 08.11.2020
5726 Clouds 20 1012 94 10000 0.5 180 13:47 08.11.2020
5727 Clear 20 1012 94 10000 0.5 180 13:24 08.11.2020
5728 Clear 20 1013 94 10000 1 180 12:46 08.11.2020
5729 Clear 20 1013 94 10000 1 180 12:28 08.11.2020
5730 Clear 20 1013 94 10000 2.47 147 11:58 08.11.2020
5731 Clear 20 1013 94 10000 0.5 210 11:39 08.11.2020
5732 Clear 20 1013 94 10000 3.25 139 11:20 08.11.2020
5733 Clear 20 1013 94 10000 3.25 139 10:50 08.11.2020
5734 Clear 21 1014 94 10000 1.5 190 10:19 08.11.2020
5735 Clear 22 1013 94 10000 3.19 147 09:44 08.11.2020
5736 Clear 22 1013 94 10000 3.16 148 09:24 08.11.2020
5737 Clear 22 1013 88 10000 3.16 148 08:56 08.11.2020
5738 Clear 21 1013 94 10000 0.5 180 08:37 08.11.2020
5739 Clear 22 1013 88 10000 3.04 144 08:18 08.11.2020
5740 Clear 22 1013 88 10000 0.5 250 07:46 08.11.2020
5741 Clouds 23 1012 83 10000 3.35 141 07:19 08.11.2020
5742 Clouds 24 1012 78 10000 1.5 120 05:55 08.11.2020
5743 Clouds 25 1012 73 10000 1.5 130 05:29 08.11.2020
5744 Clouds 26 1011 74 10000 1 150 03:56 08.11.2020
5745 Clouds 26 1012 74 10000 3.37 142 01:49 08.11.2020
5746 Clouds 26 1012 74 10000 3.1 320 01:18 08.11.2020
5747 Clouds 26 1012 78 10000 2.6 340 00:24 08.11.2020
5748 Clouds 25 1013 78 10000 2.6 50 23:45 07.11.2020
5749 Clouds 25 1013 78 10000 2.6 50 23:27 07.11.2020
5750 Clouds 25 1013 73 10000 3.77 125 22:41 07.11.2020
5751 Clouds 25 1013 73 10000 3.68 132 22:23 07.11.2020
5752 Clouds 24 1013 83 10000 1.5 210 21:45 07.11.2020
5753 Clouds 24 1013 83 10000 1.5 210 21:22 07.11.2020
5754 Clouds 25 1014 78 10000 2.1 210 20:50 07.11.2020
5755 Clouds 24 1014 78 10000 4.01 143 20:32 07.11.2020
5756 Clouds 23 1014 88 10000 1 290 19:52 07.11.2020
5757 Clouds 23 1014 88 10000 1 290 19:29 07.11.2020
5758 Clouds 23 1014 88 10000 3.9 165 18:58 07.11.2020
5759 Clouds 21 1013 100 10000 3.9 165 18:38 07.11.2020
5760 Clouds 20 1013 100 10000 1 180 18:19 07.11.2020
5761 Clouds 20 1013 100 10000 1 180 17:40 07.11.2020
5762 Clouds 20 1013 100 10000 1 180 17:22 07.11.2020
5763 Clouds 20 1012 100 10000 1.59 140 16:42 07.11.2020
5764 Clouds 20 1012 100 10000 0.5 80 16:23 07.11.2020
5765 Clouds 20 1012 100 10000 1 140 15:43 07.11.2020
5766 Clouds 20 1012 100 10000 1 140 15:23 07.11.2020
5767 Clouds 20 1013 100 10000 1.5 200 14:48 07.11.2020
5768 Clouds 21 1013 94 10000 0.81 146 14:30 07.11.2020
5769 Clouds 21 1013 94 10000 0.81 146 14:30 07.11.2020
5770 Clouds 21 1013 100 10000 0.5 160 13:59 07.11.2020
5771 Clouds 21 1013 100 10000 1.5 220 13:31 07.11.2020
5772 Clouds 20 1013 100 10000 0.5 160 12:58 07.11.2020
5773 Clouds 20 1014 100 10000 1.88 150 12:30 07.11.2020
5774 Clouds 20 1014 100 10000 1.71 134 11:45 07.11.2020
5775 Clouds 20 1014 100 10000 1.71 134 11:45 07.11.2020
5776 Rain 20 1014 100 10000 1.43 120 11:24 07.11.2020
5777 Rain 20 1015 100 10000 1.43 120 10:46 07.11.2020
5778 Clouds 20 1015 100 10000 1.64 117 10:28 07.11.2020
5779 Clouds 21 1015 94 10000 0.5 100 09:57 07.11.2020
5780 Clouds 21 1015 94 10000 1.64 117 09:37 07.11.2020
5781 Clouds 21 1014 94 10000 0.5 100 08:56 07.11.2020
5782 Clouds 22 1014 88 10000 2.05 140 08:37 07.11.2020
5783 Clear 23 1014 88 10000 0.5 190 07:56 07.11.2020
5784 Clear 23 1014 88 10000 2.44 163 07:31 07.11.2020
5785 Clouds 24 1013 83 10000 2.1 200 06:47 07.11.2020
5786 Clouds 25 1013 78 10000 2.6 210 05:34 07.11.2020
5787 Rain 25 1012 83 10000 1.5 220 03:24 07.11.2020
5788 Clouds 27 1012 74 10000 4.1 240 01:29 07.11.2020
5789 Clouds 26 1012 74 10000 3.49 201 00:59 07.11.2020
5790 Clouds 25 1013 78 10000 4.6 260 23:56 06.11.2020
5791 Clouds 25 1013 78 10000 3.6 230 23:22 06.11.2020
5792 Clouds 25 1013 78 10000 3.6 240 22:44 06.11.2020
5793 Rain 26 1013 74 10000 2.6 210 22:19 06.11.2020
5794 Rain 25 1013 78 10000 3.1 190 21:46 06.11.2020
5795 Rain 25 1013 78 10000 3.1 190 21:22 06.11.2020
5796 Rain 24 1013 83 10000 3.3 189 20:56 06.11.2020
5797 Rain 25 1013 78 10000 2.6 200 20:38 06.11.2020
5798 Clouds 24 1013 83 10000 2.1 200 20:18 06.11.2020
5799 Clouds 24 1013 83 10000 1.5 200 19:44 06.11.2020
5800 Clouds 24 1013 83 10000 1.5 200 19:26 06.11.2020
5801 Rain 22 1013 94 10000 1 160 18:46 06.11.2020
5802 Rain 22 1013 94 10000 1 160 18:24 06.11.2020
5803 Clouds 22 1013 94 10000 1 160 17:51 06.11.2020
5804 Rain 22 1012 94 10000 0.5 160 17:27 06.11.2020
5805 Clouds 21 1011 94 10000 1 200 16:50 06.11.2020
5806 Clouds 21 1011 94 10000 1 200 16:31 06.11.2020
5807 Clouds 22 1011 88 10000 1 200 15:53 06.11.2020
5808 Clouds 22 1011 88 10000 1 200 15:33 06.11.2020
5809 Clouds 22 1011 88 10000 4.27 229 14:54 06.11.2020
5810 Clouds 22 1011 94 10000 1 190 14:27 06.11.2020
5811 Clouds 22 1011 94 10000 1.5 140 13:47 06.11.2020
5812 Clouds 22 1011 94 10000 1.5 140 13:24 06.11.2020
5813 Clouds 22 1011 94 10000 2.1 190 12:46 06.11.2020
5814 Clouds 22 1011 94 10000 2.1 190 12:25 06.11.2020
5815 Clouds 22 1012 94 10000 1.5 220 11:55 06.11.2020
5816 Clouds 23 1012 88 10000 6.09 192 11:35 06.11.2020
5817 Rain 23 1012 83 10000 2.1 130 10:46 06.11.2020
5818 Rain 23 1012 83 10000 2.1 130 10:25 06.11.2020
5819 Clouds 23 1012 83 10000 2.1 160 09:49 06.11.2020
5820 Clouds 23 1012 83 10000 2.1 140 09:22 06.11.2020
5821 Clouds 23 1012 83 10000 7.48 166 08:51 06.11.2020
5822 Rain 23 1012 83 10000 2.6 140 08:29 06.11.2020
5823 Rain 23 1012 83 10000 2.6 140 08:29 06.11.2020
5824 Rain 23 1012 83 10000 2.6 150 07:53 06.11.2020
5825 Rain 23 1011 83 10000 2.1 130 07:34 06.11.2020
5826 Clouds 23 1011 83 10000 9.14 162 06:58 06.11.2020
5827 Clouds 24 1011 83 10000 2.1 160 06:24 06.11.2020
5828 Rain 25 1010 78 10000 2.6 150 04:42 06.11.2020
5829 Rain 26 1010 78 9769 10.33 184 01:22 06.11.2020
5830 Clouds 24 1011 78 10000 3.1 130 00:22 06.11.2020
5831 Clouds 24 1011 83 10000 2.6 140 23:32 05.11.2020
5832 Rain 23 1012 88 10000 8.89 180 22:58 05.11.2020
5833 Clouds 24 1012 83 10000 5.1 150 22:39 05.11.2020
5834 Clouds 23 1012 83 10000 6.2 150 22:20 05.11.2020
5835 Clouds 24 1012 78 10000 8.43 180 21:43 05.11.2020
5836 Clouds 24 1012 78 10000 7.99 177 21:22 05.11.2020
5837 Clouds 24 1012 78 10000 7.99 177 20:55 05.11.2020
5838 Clouds 24 1012 78 10000 5.1 140 20:37 05.11.2020
5839 Clouds 23 1013 78 10000 6.2 150 20:18 05.11.2020
5840 Clouds 23 1012 78 10000 8.03 171 19:41 05.11.2020
5841 Clouds 23 1012 78 10000 7.33 165 19:22 05.11.2020
5842 Clouds 23 1012 83 10000 4.6 150 18:45 05.11.2020
5843 Rain 23 1012 83 10000 4.6 150 18:26 05.11.2020
5844 Rain 22 1011 83 10000 3.6 160 17:52 05.11.2020
5845 Rain 22 1011 83 10000 1.5 140 17:29 05.11.2020
5846 Rain 22 1012 88 10000 1 160 16:59 05.11.2020
5847 Rain 22 1012 88 10000 1 170 16:40 05.11.2020
5848 Rain 22 1012 88 10000 2.1 120 16:19 05.11.2020
5849 Rain 22 1012 88 10000 2.6 110 15:44 05.11.2020
5850 Rain 22 1012 88 10000 2.6 110 15:22 05.11.2020
5851 Rain 22 1012 88 10000 3.6 130 14:46 05.11.2020
5852 Rain 22 1012 88 10000 3.6 130 14:26 05.11.2020
5853 Rain 22 1012 88 10000 2.1 130 13:42 05.11.2020
5854 Rain 22 1012 88 10000 2.1 130 13:23 05.11.2020
5855 Rain 22 1013 88 10000 8.53 157 12:50 05.11.2020
5856 Rain 22 1013 88 10000 9.2 157 12:25 05.11.2020
5857 Rain 22 1013 88 10000 1 150 11:54 05.11.2020
5858 Rain 22 1013 88 10000 0.5 10 11:28 05.11.2020
5859 Rain 22 1014 88 10000 1 180 10:53 05.11.2020
5860 Rain 22 1014 88 10000 9.08 155 10:33 05.11.2020
5861 Rain 22 1014 88 10000 2.1 100 09:59 05.11.2020
5862 Rain 22 1014 88 10000 1.5 120 09:41 05.11.2020
5863 Rain 22 1014 88 10000 1.5 120 09:21 05.11.2020
5864 Rain 22 1014 88 10000 10.32 143 08:43 05.11.2020
5865 Rain 22 1014 88 10000 10.75 143 08:25 05.11.2020
5866 Rain 23 1014 83 10000 1.5 120 07:29 05.11.2020
5867 Clouds 22 1014 88 10000 2.1 130 06:52 05.11.2020
5868 Rain 22 1013 88 10000 10.47 131 06:34 05.11.2020
5869 Rain 23 1013 83 10000 3.6 110 04:19 05.11.2020
5870 Rain 23 1014 83 10000 12.17 131 01:22 05.11.2020
5871 Rain 22 1015 88 10000 2.1 110 00:29 05.11.2020
5872 Rain 23 1015 83 10000 11.7 134 23:44 04.11.2020
5873 Rain 23 1015 83 10000 11.7 134 23:44 04.11.2020
5874 Rain 23 1015 83 10000 11.84 134 23:25 04.11.2020
5875 Rain 22 1016 88 10000 4.6 130 22:45 04.11.2020
5876 Rain 22 1016 88 10000 4.6 130 22:23 04.11.2020
5877 Rain 22 1016 88 10000 11.73 137 21:48 04.11.2020
5878 Rain 23 1016 83 10000 11.07 139 21:29 04.11.2020
5879 Rain 22 1016 88 10000 4.6 120 20:56 04.11.2020
5880 Rain 22 1016 88 4600 4.1 150 20:37 04.11.2020
5881 Rain 22 1016 88 10000 3.6 130 20:18 04.11.2020
5882 Rain 22 1016 88 10000 11.03 134 19:42 04.11.2020
5883 Rain 22 1016 88 10000 11.03 134 19:42 04.11.2020
5884 Rain 22 1016 88 10000 10.83 140 19:24 04.11.2020
5885 Rain 22 1015 94 6000 4.6 140 18:43 04.11.2020
5886 Rain 22 1015 94 6000 4.6 140 18:24 04.11.2020
5887 Rain 22 1014 94 10000 10.71 135 17:48 04.11.2020
5888 Rain 22 1014 94 10000 10.66 131 17:28 04.11.2020
5889 Rain 22 1014 94 10000 2.1 150 16:57 04.11.2020
5890 Rain 22 1014 94 10000 1.5 150 16:37 04.11.2020
5891 Rain 21 1014 100 10000 10.52 132 16:18 04.11.2020
5892 Rain 21 1014 94 10000 10.52 132 15:42 04.11.2020
5893 Rain 21 1014 94 10000 10.19 132 15:23 04.11.2020
5894 Rain 21 1014 100 10000 10.19 132 14:46 04.11.2020
5895 Rain 21 1014 100 10000 10.49 128 14:25 04.11.2020
5896 Rain 21 1014 100 10000 10.49 128 13:53 04.11.2020
5897 Rain 22 1015 94 9000 1 200 13:22 04.11.2020
5898 Clouds 22 1015 94 10000 2.1 130 12:59 04.11.2020
5899 Rain 22 1015 94 10000 2.1 130 12:59 04.11.2020
5900 Rain 22 1015 94 5000 3.1 90 12:41 04.11.2020
5901 Rain 22 1015 94 5000 3.1 90 12:22 04.11.2020
5902 Rain 23 1016 83 10000 2.6 110 11:46 04.11.2020
5903 Rain 23 1016 83 10000 2.6 110 11:23 04.11.2020
5904 Rain 22 1017 88 10000 6.2 90 10:49 04.11.2020
5905 Rain 22 1017 88 10000 6.2 90 10:24 04.11.2020
5906 Rain 22 1017 88 10000 6.2 90 10:24 04.11.2020
5907 Rain 22 1017 88 10000 9.7 118 09:56 04.11.2020
5908 Rain 23 1017 88 10000 4.6 90 09:28 04.11.2020
5909 Rain 24 1017 78 10000 4.6 100 08:50 04.11.2020
5910 Rain 24 1016 78 10000 4.6 110 08:23 04.11.2020
5911 Rain 24 1016 78 10000 11.46 118 07:57 04.11.2020
5912 Rain 24 1016 78 10000 5.7 110 07:31 04.11.2020
5913 Rain 23 1016 83 10000 3.6 120 06:59 04.11.2020
5914 Rain 24 1017 78 10000 4.1 120 06:39 04.11.2020
5915 Clouds 24 1016 78 10000 11.6 130 04:59 04.11.2020
5916 Clouds 24 1015 78 10000 4.6 120 02:31 04.11.2020
5917 Rain 24 1016 83 10000 3.6 110 01:38 04.11.2020
5918 Clouds 26 1016 78 10000 9.38 143 23:56 03.11.2020
5919 Clouds 25 1016 78 10000 4.6 130 23:25 03.11.2020
5920 Clouds 25 1016 78 10000 6.7 150 22:54 03.11.2020
5921 Clouds 25 1016 78 10000 4.1 140 22:36 03.11.2020
5922 Clouds 25 1016 78 10000 9.15 151 22:18 03.11.2020
5923 Rain 24 1017 83 10000 4.1 150 21:41 03.11.2020
5924 Rain 24 1017 83 10000 4.1 150 21:23 03.11.2020
5925 Rain 24 1017 83 10000 4.1 130 20:48 03.11.2020
5926 Clouds 24 1017 83 10000 4.1 110 20:26 03.11.2020
5927 Clouds 24 1017 83 10000 7.75 147 19:49 03.11.2020
5928 Clouds 24 1017 83 10000 4.6 140 19:29 03.11.2020
5929 Clouds 23 1017 83 10000 3.6 140 18:58 03.11.2020
5930 Clouds 23 1016 88 10000 4.6 150 18:40 03.11.2020
5931 Rain 23 1016 94 10000 8.04 140 18:18 03.11.2020
5932 Clouds 23 1016 88 10000 3.6 160 17:45 03.11.2020
5933 Clouds 23 1016 88 10000 3.6 160 17:45 03.11.2020
5934 Clouds 23 1016 88 10000 3.6 160 17:26 03.11.2020
5935 Clouds 23 1016 88 10000 3.6 160 16:45 03.11.2020
5936 Clouds 23 1016 88 10000 3.6 160 16:27 03.11.2020
5937 Rain 23 1016 94 10000 6.87 147 15:53 03.11.2020
5938 Clouds 23 1016 88 10000 1.5 220 15:30 03.11.2020
5939 Clouds 23 1016 88 10000 1.5 220 15:30 03.11.2020
5940 Clouds 23 1016 88 10000 7.09 151 14:54 03.11.2020
5941 Clouds 24 1016 83 10000 1.5 80 14:33 03.11.2020
5942 Clouds 24 1016 83 10000 1 110 13:47 03.11.2020
5943 Clouds 24 1016 83 10000 1 110 13:26 03.11.2020
5944 Clouds 24 1016 83 10000 7.18 149 12:59 03.11.2020
5945 Clouds 24 1016 83 10000 4.1 100 12:41 03.11.2020
5946 Clouds 24 1016 83 10000 6.83 147 12:20 03.11.2020
5947 Clouds 24 1017 78 10000 2.6 110 11:46 03.11.2020
5948 Clouds 24 1017 78 10000 2.6 110 11:22 03.11.2020
5949 Clouds 23 1017 88 10000 7.11 140 10:41 03.11.2020
5950 Clouds 23 1017 88 10000 8.42 133 10:22 03.11.2020
5951 Clouds 23 1016 88 10000 5.7 80 09:59 03.11.2020
5952 Clouds 23 1017 88 10000 2.6 120 09:41 03.11.2020
5953 Clouds 23 1017 88 10000 7.7 70 09:18 03.11.2020
5954 Clouds 23 1018 88 10000 8.48 132 08:44 03.11.2020
5955 Clouds 23 1018 88 10000 9.06 135 08:25 03.11.2020
5956 Drizzle 24 1017 83 10000 7.2 80 07:35 03.11.2020
5957 Clouds 24 1017 78 10000 5.7 100 06:53 03.11.2020
5958 Clouds 24 1016 78 10000 5.7 100 06:19 03.11.2020
5959 Clouds 24 1015 64 10000 9.3 90 03:34 03.11.2020
5960 Rain 23 1019 83 10000 10.2 155 00:43 03.11.2020
5961 Clouds 24 1019 78 10000 4.1 70 23:59 02.11.2020
5962 Clouds 24 1018 73 10000 4.1 90 23:40 02.11.2020
5963 Rain 23 1019 78 10000 4.6 90 22:56 02.11.2020
5964 Rain 23 1019 83 10000 10.78 149 22:37 02.11.2020
5965 Rain 22 1021 88 10000 2.6 40 22:19 02.11.2020
5966 Rain 22 1020 83 10000 4.6 120 21:38 02.11.2020
5967 Drizzle 22 1021 83 10000 2.6 300 21:19 02.11.2020
5968 Drizzle 22 1020 88 10000 10.49 154 20:41 02.11.2020
5969 Rain 22 1020 88 8000 4.1 130 20:20 02.11.2020
5970 Rain 22 1020 88 8000 4.1 130 19:57 02.11.2020
5971 Rain 23 1019 78 10000 4.6 150 19:38 02.11.2020
5972 Rain 23 1019 78 10000 4.6 150 19:20 02.11.2020
5973 Drizzle 22 1019 88 10000 7.7 140 18:39 02.11.2020
5974 Clouds 23 1018 88 10000 7.2 120 18:20 02.11.2020
5975 Clouds 23 1018 88 10000 7.2 120 17:45 02.11.2020
5976 Clouds 23 1018 88 10000 7.2 120 17:25 02.11.2020
5977 Clouds 23 1017 88 10000 6.2 120 16:56 02.11.2020
5978 Clouds 23 1017 88 10000 6.2 120 16:37 02.11.2020
5979 Clouds 23 1017 88 10000 5.1 100 16:18 02.11.2020
5980 Clouds 23 1017 88 10000 5.1 100 15:39 02.11.2020
5981 Clouds 24 1017 100 10000 4.6 90 15:20 02.11.2020
5982 Clouds 24 1017 100 10000 4.6 90 15:20 02.11.2020
5983 Clouds 24 1017 100 10000 4.6 90 14:49 02.11.2020
5984 Rain 24 1018 86 10000 8.8 100 14:19 02.11.2020
5985 Rain 24 1018 86 10000 8.8 100 13:51 02.11.2020
5986 Rain 24 1018 87 10000 8.39 95 13:22 02.11.2020
5987 Rain 24 1018 88 10000 3.6 100 12:52 02.11.2020
5988 Rain 24 1018 88 10000 3.6 100 12:28 02.11.2020
5989 Rain 24 1019 88 10000 4.1 100 11:46 02.11.2020
5990 Clouds 24 1019 88 10000 4.1 100 11:22 02.11.2020
5991 Clouds 24 1019 88 10000 4.1 100 10:48 02.11.2020
5992 Rain 24 1019 88 10000 4.1 100 10:26 02.11.2020
5993 Rain 23 1019 94 10000 4.1 90 09:57 02.11.2020
5994 Rain 23 1019 94 10000 4.1 100 09:30 02.11.2020
5995 Rain 23 1020 94 10000 5.7 90 08:59 02.11.2020
5996 Rain 23 1019 94 10000 3.6 110 08:39 02.11.2020
5997 Rain 23 1019 94 10000 5.7 90 08:19 02.11.2020
5998 Rain 23 1019 94 10000 6.2 80 07:42 02.11.2020
5999 Rain 24 1019 94 10000 5.7 90 06:46 02.11.2020
6000 Rain 24 1018 94 10000 6.2 90 05:39 02.11.2020
6001 Rain 26 1018 83 10000 7.7 90 01:35 02.11.2020
6002 Rain 26 1019 88 10000 7.7 80 00:39 02.11.2020
6003 Rain 26 1019 88 10000 7.7 80 00:39 02.11.2020
6004 Haze 25 1020 88 4300 6.7 90 00:20 02.11.2020
6005 Rain 26 1020 83 10000 6.2 90 23:39 01.11.2020
6006 Rain 26 1020 83 10000 9.3 80 23:21 01.11.2020
6007 Rain 26 1020 83 10000 7.7 90 22:43 01.11.2020
6008 Clouds 26 1020 83 10000 7.7 90 22:22 01.11.2020
6009 Clouds 25 1020 88 10000 8.2 80 21:43 01.11.2020
6010 Clouds 25 1020 88 10000 8.2 80 21:25 01.11.2020
6011 Clouds 25 1020 83 10000 7.2 90 20:50 01.11.2020
6012 Clouds 25 1020 88 10000 7.7 80 20:28 01.11.2020
6013 Clouds 25 1020 88 10000 8.2 90 19:56 01.11.2020
6014 Clouds 24 1019 94 10000 7.2 90 19:37 01.11.2020
6015 Clouds 24 1019 94 10000 8.2 80 19:19 01.11.2020
6016 Clouds 24 1019 94 10000 7.2 80 18:40 01.11.2020
6017 Clouds 24 1019 94 10000 7.2 80 18:40 01.11.2020
6018 Clouds 24 1018 88 10000 8.2 80 18:19 01.11.2020
6019 Clouds 24 1018 88 10000 8.2 80 18:19 01.11.2020
6020 Clouds 24 1018 88 10000 5.7 100 17:47 01.11.2020
6021 Rain 24 1018 88 10000 5.7 100 17:27 01.11.2020
6022 Rain 24 1018 88 10000 6.2 90 16:57 01.11.2020
6023 Rain 24 1018 88 10000 4.6 90 16:39 01.11.2020
6024 Clouds 24 1018 88 10000 5.7 90 16:18 01.11.2020
6025 Clouds 24 1017 83 10000 4.6 100 15:39 01.11.2020
6026 Clouds 24 1017 83 10000 4.1 100 15:20 01.11.2020
6027 Clouds 24 1018 88 10000 4.6 110 14:48 01.11.2020
6028 Rain 24 1018 88 10000 4.6 110 14:23 01.11.2020
6029 Rain 24 1018 88 10000 3.6 100 13:57 01.11.2020
6030 Rain 24 1019 88 10000 5.7 90 13:39 01.11.2020
6031 Rain 24 1019 88 10000 5.7 90 13:21 01.11.2020
6032 Clouds 24 1020 88 10000 5.7 90 12:42 01.11.2020
6033 Rain 24 1020 88 10000 6.2 80 12:19 01.11.2020
6034 Rain 24 1020 88 10000 6.2 90 11:48 01.11.2020
6035 Clouds 24 1020 88 10000 7.7 90 11:18 01.11.2020
6036 Clouds 24 1020 88 10000 7.2 90 10:42 01.11.2020
6037 Clouds 24 1020 88 10000 7.2 90 10:24 01.11.2020
6038 Clouds 24 1020 88 10000 6.2 90 09:49 01.11.2020
6039 Clouds 24 1020 88 10000 6.2 90 09:24 01.11.2020
6040 Clouds 24 1020 83 10000 6.2 90 08:40 01.11.2020
6041 Clouds 24 1020 83 10000 6.2 90 07:54 01.11.2020
6042 Rain 24 1019 83 10000 5.1 100 06:48 01.11.2020
6043 Rain 24 1019 83 10000 2.6 100 02:31 01.11.2020
6044 Rain 24 1019 83 10000 5.7 100 01:38 01.11.2020
6045 Clouds 25 1020 78 10000 5.1 110 23:56 31.10.2020
6046 Clouds 25 1020 78 10000 5.1 100 23:23 31.10.2020
6047 Clouds 24 1020 83 10000 5.1 100 22:45 31.10.2020
6048 Clouds 24 1020 83 10000 5.1 100 22:45 31.10.2020
6049 Clouds 24 1020 83 10000 5.1 100 22:24 31.10.2020
6050 Clouds 24 1020 83 10000 5.1 100 21:46 31.10.2020
6051 Clouds 24 1020 83 10000 5.1 100 21:22 31.10.2020
6052 Clouds 23 1020 83 10000 6.2 100 20:43 31.10.2020
6053 Clouds 23 1020 88 10000 4.1 110 20:20 31.10.2020
6054 Clouds 23 1020 88 10000 5.7 100 19:44 31.10.2020
6055 Clouds 23 1020 88 10000 5.7 100 19:25 31.10.2020
6056 Clouds 23 1020 83 10000 5.1 110 18:59 31.10.2020
6057 Clouds 23 1020 83 10000 5.1 110 18:59 31.10.2020
6058 Clouds 22 1020 88 6000 5.7 110 18:41 31.10.2020
6059 Haze 22 1019 88 3600 5.1 100 17:47 31.10.2020
6060 Haze 22 1019 88 3600 5.1 100 17:27 31.10.2020
6061 Clouds 23 1019 83 10000 5.1 110 16:56 31.10.2020
6062 Clouds 23 1019 83 10000 5.7 110 16:37 31.10.2020
6063 Clouds 23 1018 78 10000 6.7 100 15:55 31.10.2020
6064 Rain 23 1018 83 10000 6.2 100 15:26 31.10.2020
6065 Rain 23 1018 83 10000 4.6 110 14:55 31.10.2020
6066 Rain 23 1019 83 10000 5.1 100 14:32 31.10.2020
6067 Rain 23 1018 83 10000 5.7 110 13:57 31.10.2020
6068 Rain 23 1019 83 10000 6.2 100 13:39 31.10.2020
6069 Rain 23 1019 83 10000 6.7 100 13:19 31.10.2020
6070 Rain 23 1019 83 10000 6.7 100 12:27 31.10.2020
6071 Rain 22 1020 88 3700 6.7 100 11:42 31.10.2020
6072 Rain 22 1020 88 3700 6.7 100 11:24 31.10.2020
6073 Rain 23 1021 83 7000 6.2 100 10:54 31.10.2020
6074 Haze 22 1021 88 5000 7.2 100 10:32 31.10.2020
6075 Rain 24 1019 78 10000 8.2 100 09:41 31.10.2020
6076 Rain 24 1019 73 10000 8.2 100 09:20 31.10.2020
6077 Rain 24 1020 78 10000 6.2 100 08:28 31.10.2020
6078 Rain 23 1019 83 10000 6.7 90 07:47 31.10.2020
6079 Rain 23 1019 83 10000 6.7 90 07:26 31.10.2020
6080 Clouds 24 1019 78 10000 5.7 100 06:37 31.10.2020
6081 Clouds 24 1018 78 10000 5.7 100 03:50 31.10.2020
6082 Clouds 24 1018 78 10000 6.7 100 02:48 31.10.2020
6083 Clouds 25 1018 73 10000 4.1 120 00:55 31.10.2020
6084 Clouds 25 1019 73 10000 5.1 100 23:58 30.10.2020
6085 Clouds 25 1019 73 10000 4.6 110 23:39 30.10.2020
6086 Clouds 24 1019 78 10000 7.2 100 23:20 30.10.2020
6087 Clouds 25 1019 73 10000 4.1 130 22:40 30.10.2020
6088 Clouds 25 1019 73 10000 4.1 130 22:22 30.10.2020
6089 Clouds 25 1019 78 10000 3.1 120 21:49 30.10.2020
6090 Clouds 25 1019 78 10000 5.1 110 21:27 30.10.2020
6091 Clouds 24 1019 78 10000 5.1 100 20:48 30.10.2020
6092 Clouds 24 1019 78 10000 4.1 100 20:28 30.10.2020
6093 Clouds 24 1019 73 10000 3.1 90 19:59 30.10.2020
6094 Clouds 23 1018 78 10000 3.1 110 19:40 30.10.2020
6095 Clouds 23 1018 78 10000 3.1 110 19:18 30.10.2020
6096 Clouds 23 1018 78 10000 3.1 110 19:18 30.10.2020
6097 Clouds 23 1018 78 10000 4.6 110 18:42 30.10.2020
6098 Clouds 23 1018 78 10000 4.6 110 18:23 30.10.2020
6099 Clouds 22 1017 83 10000 2.6 110 17:47 30.10.2020
6100 Clouds 22 1017 88 10000 3.6 120 17:22 30.10.2020
6101 Clouds 23 1017 78 10000 3.1 120 16:52 30.10.2020
6102 Clouds 23 1017 78 10000 3.1 120 16:25 30.10.2020
6103 Clouds 23 1017 78 10000 2.6 130 15:46 30.10.2020
6104 Clouds 23 1017 78 10000 2.6 130 15:27 30.10.2020
6105 Clouds 23 1016 78 10000 1.5 130 14:58 30.10.2020
6106 Clouds 23 1016 78 10000 2.6 130 14:40 30.10.2020
6107 Clouds 23 1016 78 10000 2.6 130 14:21 30.10.2020
6108 Clouds 23 1017 78 10000 3.1 120 13:42 30.10.2020
6109 Clouds 23 1017 78 10000 2.6 120 13:20 30.10.2020
6110 Clouds 23 1017 78 10000 2.6 110 12:46 30.10.2020
6111 Clouds 23 1017 78 10000 2.6 110 12:22 30.10.2020
6112 Clouds 23 1018 78 10000 2.1 120 11:54 30.10.2020
6113 Clouds 23 1018 78 10000 3.1 110 11:20 30.10.2020
6114 Clouds 23 1018 78 10000 3.1 110 10:50 30.10.2020
6115 Clouds 23 1018 78 10000 3.1 120 10:25 30.10.2020
6116 Clouds 23 1017 78 10000 4.1 110 09:47 30.10.2020
6117 Clouds 23 1017 78 10000 4.1 110 09:25 30.10.2020
6118 Clouds 23 1017 78 10000 3.1 110 08:55 30.10.2020
6119 Clouds 23 1017 73 10000 2.6 130 08:31 30.10.2020
6120 Clouds 23 1016 73 10000 2.6 120 07:51 30.10.2020
6121 Clouds 23 1016 73 10000 2.6 120 07:51 30.10.2020
6122 Clouds 23 1016 78 10000 2.6 110 07:33 30.10.2020
6123 Clouds 23 1015 78 10000 2.6 130 06:47 30.10.2020
6124 Clouds 24 1014 73 10000 4.1 120 05:22 30.10.2020
6125 Clouds 25 1014 69 10000 4.1 140 02:28 30.10.2020
6126 Clouds 25 1014 73 10000 4.1 100 00:43 30.10.2020
6127 Clouds 25 1014 73 10000 4.1 100 23:50 29.10.2020
6128 Clouds 25 1015 73 10000 3.6 110 23:31 29.10.2020
6129 Clouds 25 1015 73 10000 3.1 120 22:59 29.10.2020
6130 Clouds 24 1015 73 10000 3.6 120 22:40 29.10.2020
6131 Clouds 24 1015 73 10000 3.6 120 22:22 29.10.2020
6132 Clouds 24 1015 78 10000 3.6 120 21:39 29.10.2020
6133 Clouds 24 1015 78 10000 3.6 110 21:20 29.10.2020
6134 Clouds 23 1014 83 10000 4.1 120 20:42 29.10.2020
6135 Clouds 23 1015 83 10000 3.1 130 20:19 29.10.2020
6136 Clouds 23 1014 83 10000 3.1 120 19:43 29.10.2020
6137 Clouds 23 1014 83 10000 3.1 120 19:22 29.10.2020
6138 Clouds 23 1014 83 10000 3.1 150 18:55 29.10.2020
6139 Clouds 23 1014 83 10000 3.1 150 18:36 29.10.2020
6140 Clouds 23 1013 83 10000 1.5 130 18:18 29.10.2020
6141 Clouds 23 1013 83 10000 2.6 140 17:40 29.10.2020
6142 Clouds 23 1012 83 10000 2.6 140 17:20 29.10.2020
6143 Clouds 23 1012 83 10000 2.6 120 16:45 29.10.2020
6144 Clouds 22 1012 88 10000 1 150 16:20 29.10.2020
6145 Clouds 22 1012 88 10000 1 150 15:56 29.10.2020
6146 Clouds 22 1012 83 10000 1.5 150 15:37 29.10.2020
6147 Clouds 22 1012 83 10000 1 130 15:18 29.10.2020
6148 Clouds 22 1012 83 10000 1.5 140 14:42 29.10.2020
6149 Clouds 22 1012 83 10000 1.5 150 14:21 29.10.2020
6150 Clouds 21 1013 94 10000 0.5 100 13:46 29.10.2020
6151 Clouds 21 1013 94 10000 0.5 100 13:27 29.10.2020
6152 Clouds 22 1013 83 10000 1 190 12:43 29.10.2020
6153 Clouds 21 1013 94 10000 1.5 200 12:20 29.10.2020
6154 Clouds 21 1013 94 10000 1.5 200 12:20 29.10.2020
6155 Clouds 21 1013 88 10000 1.5 160 11:51 29.10.2020
6156 Clouds 21 1013 88 10000 1.5 160 11:27 29.10.2020
6157 Clouds 21 1013 94 10000 0.5 160 10:59 29.10.2020
6158 Clouds 22 1013 88 10000 0.5 120 10:37 29.10.2020
6159 Clouds 22 1013 88 10000 0.5 140 10:18 29.10.2020
6160 Clouds 23 1013 83 10000 1.5 120 09:46 29.10.2020
6161 Clouds 23 1013 83 10000 1.5 120 09:24 29.10.2020
6162 Clouds 23 1013 83 10000 3.6 100 08:40 29.10.2020
6163 Clouds 23 1013 83 10000 3.6 100 08:22 29.10.2020
6164 Clouds 23 1013 83 10000 3.1 100 07:49 29.10.2020
6165 Clouds 23 1012 83 10000 3.1 100 06:59 29.10.2020
6166 Clouds 23 1012 83 10000 2.1 90 06:24 29.10.2020
6167 Clouds 23 1011 83 10000 2.6 100 04:48 29.10.2020
6168 Clouds 23 1011 81 10000 8.61 134 02:18 29.10.2020
6169 Clouds 23 1011 82 10000 8.45 131 00:38 29.10.2020
6170 Clouds 23 1012 81 10000 7.44 134 00:18 29.10.2020
6171 Clouds 23 1012 82 10000 8.3 130 23:23 28.10.2020
6172 Clouds 25 1012 78 10000 3.6 100 22:59 28.10.2020
6173 Clouds 25 1012 78 10000 3.6 100 22:41 28.10.2020
6174 Clouds 25 1012 78 10000 3.6 100 22:22 28.10.2020
6175 Clouds 24 1012 78 10000 3.6 100 21:44 28.10.2020
6176 Clouds 24 1012 78 10000 3.6 100 21:25 28.10.2020
6177 Clouds 23 1012 83 8000 4.6 90 20:43 28.10.2020
6178 Clouds 23 1012 83 10000 3.1 100 20:23 28.10.2020
6179 Clouds 23 1012 83 10000 3.1 100 19:53 28.10.2020
6180 Clouds 23 1011 83 10000 2.6 110 19:31 28.10.2020
6181 Clouds 22 1011 83 10000 2.1 110 18:52 28.10.2020
6182 Clouds 21 1010 88 10000 2.1 120 18:22 28.10.2020
6183 Clouds 21 1010 88 10000 1.5 120 17:59 28.10.2020
6184 Clouds 21 1010 88 10000 2.1 100 17:41 28.10.2020
6185 Clouds 21 1009 88 10000 2.6 90 17:21 28.10.2020
6186 Clouds 21 1009 88 10000 3.6 100 16:47 28.10.2020
6187 Clouds 21 1009 88 10000 3.6 100 16:25 28.10.2020
6188 Clouds 21 1009 88 10000 3.1 110 15:41 28.10.2020
6189 Clouds 21 1009 88 10000 3.1 110 15:41 28.10.2020
6190 Clouds 22 1010 81 10000 9.41 132 15:19 28.10.2020
6191 Clouds 22 1010 81 10000 9.41 132 14:44 28.10.2020
6192 Clouds 21 1010 88 10000 3.1 80 14:26 28.10.2020
6193 Rain 22 1010 82 10000 8.91 132 12:55 28.10.2020
6194 Clouds 22 1010 82 10000 8.79 135 12:36 28.10.2020
6195 Clouds 22 1010 82 10000 9.29 134 12:18 28.10.2020
6196 Clouds 22 1010 82 10000 9.29 134 11:41 28.10.2020
6197 Clouds 22 1011 82 10000 9.99 129 11:20 28.10.2020
6198 Clouds 23 1011 78 10000 4.6 100 10:53 28.10.2020
6199 Clouds 23 1011 78 10000 4.6 100 10:33 28.10.2020
6200 Clouds 22 1010 78 10000 3.6 80 09:46 28.10.2020
6201 Clouds 22 1010 78 10000 3.6 80 09:24 28.10.2020
6202 Clouds 22 1010 78 10000 3.1 100 08:51 28.10.2020
6203 Clouds 22 1010 78 10000 4.6 100 08:33 28.10.2020
6204 Clouds 22 1010 78 10000 5.1 90 07:56 28.10.2020
6205 Rain 22 1010 83 10000 3.1 90 07:37 28.10.2020
6206 Rain 22 1010 83 10000 3.1 120 07:19 28.10.2020
6207 Rain 22 1010 83 10000 3.1 100 06:39 28.10.2020
6208 Rain 21 1009 88 6000 3.6 120 05:44 28.10.2020
6209 Rain 21 1009 94 2600 3.6 120 04:51 28.10.2020
6210 Rain 22 1008 88 5000 3.6 110 04:20 28.10.2020
6211 Rain 23 1008 78 10000 3.1 110 01:56 28.10.2020
6212 Rain 24 1009 78 10000 3.6 130 00:33 28.10.2020
6213 Rain 23 1010 78 10000 3.1 110 23:50 27.10.2020
6214 Rain 22 1010 88 7000 4.1 120 23:22 27.10.2020
6215 Rain 22 1010 88 9000 2.1 140 22:45 27.10.2020
6216 Rain 22 1010 88 9000 2.1 140 22:22 27.10.2020
6217 Rain 22 1010 88 9000 2.1 140 21:57 27.10.2020
6218 Drizzle 21 1011 88 5000 3.6 110 21:38 27.10.2020
6219 Rain 21 1011 88 5000 3.1 130 21:20 27.10.2020
6220 Haze 21 1011 88 5000 3.1 130 20:50 27.10.2020
6221 Rain 21 1011 88 5000 2.6 120 20:24 27.10.2020
6222 Rain 21 1011 88 6000 1.5 110 19:57 27.10.2020
6223 Rain 21 1010 88 4200 1.5 120 19:37 27.10.2020
6224 Rain 21 1010 88 4100 1.5 30 19:18 27.10.2020
6225 Rain 20 1010 94 3800 1.5 130 18:44 27.10.2020
6226 Rain 21 1009 83 10000 3.6 120 18:22 27.10.2020
6227 Rain 21 1009 83 10000 3.6 120 17:57 27.10.2020
6228 Drizzle 20 1009 94 10000 3.1 110 17:38 27.10.2020
6229 Drizzle 20 1009 88 8000 2.1 70 17:18 27.10.2020
6230 Rain 20 1009 88 10000 4.1 120 16:42 27.10.2020
6231 Rain 20 1008 88 8000 3.1 90 16:23 27.10.2020
6232 Rain 20 1008 88 10000 5.7 110 15:42 27.10.2020
6233 Rain 20 1008 82 10000 4.1 110 15:23 27.10.2020
6234 Rain 20 1008 88 10000 3.6 110 14:49 27.10.2020
6235 Rain 20 1008 88 10000 3.6 110 14:29 27.10.2020
6236 Rain 20 1008 88 8000 4.1 110 13:58 27.10.2020
6237 Rain 20 1008 88 7000 7.7 100 13:28 27.10.2020
6238 Rain 20 1009 82 10000 6.2 100 12:44 27.10.2020
6239 Rain 20 1009 82 10000 6.2 100 12:25 27.10.2020
6240 Drizzle 21 1010 73 10000 6.2 100 11:59 27.10.2020
6241 Drizzle 20 1010 82 10000 5.1 120 11:41 27.10.2020
6242 Rain 20 1011 77 10000 4.6 120 11:20 27.10.2020
6243 Rain 20 1011 77 10000 4.6 120 11:20 27.10.2020
6244 Rain 20 1011 77 10000 6.7 130 10:39 27.10.2020
6245 Rain 20 1012 77 10000 7.2 120 10:19 27.10.2020
6246 Rain 20 1012 82 10000 7.7 130 09:28 27.10.2020
6247 Rain 20 1012 88 10000 8.7 130 08:56 27.10.2020
6248 Rain 20 1011 82 10000 8.2 130 08:29 27.10.2020
6249 Rain 20 1011 82 10000 7.2 120 07:52 27.10.2020
6250 Rain 20 1012 88 8000 5.1 130 07:34 27.10.2020
6251 Rain 20 1012 88 5000 5.1 130 06:52 27.10.2020
6252 Rain 20 1011 94 4400 4.1 140 06:19 27.10.2020
6253 Rain 20 1011 94 4400 4.1 140 06:19 27.10.2020
6254 Rain 20 1011 94 2500 4.1 140 05:44 27.10.2020
6255 Rain 21 1010 94 4900 4.1 150 04:57 27.10.2020
6256 Rain 22 1010 83 10000 6.2 110 02:40 27.10.2020
6257 Clouds 24 1011 69 10000 8.2 100 01:18 27.10.2020
6258 Clouds 24 1012 69 10000 8.7 100 23:59 26.10.2020
6259 Clouds 24 1012 69 10000 7.2 100 23:36 26.10.2020
6260 Clouds 24 1012 69 10000 7.2 100 23:36 26.10.2020
6261 Clouds 24 1012 69 10000 6.7 100 22:55 26.10.2020
6262 Clouds 24 1013 69 10000 6.2 110 22:29 26.10.2020
6263 Clouds 24 1013 69 10000 6.7 110 21:53 26.10.2020
6264 Clouds 24 1013 73 10000 6.7 100 21:21 26.10.2020
6265 Clouds 24 1013 69 10000 8.7 90 20:59 26.10.2020
6266 Clouds 24 1013 73 10000 6.2 100 20:41 26.10.2020
6267 Rain 24 1013 73 10000 5.7 100 20:22 26.10.2020
6268 Rain 24 1013 73 10000 5.7 100 19:48 26.10.2020
6269 Rain 24 1013 73 10000 5.7 100 19:28 26.10.2020
6270 Rain 23 1013 78 10000 7.7 100 18:55 26.10.2020
6271 Rain 23 1012 78 10000 6.7 100 18:36 26.10.2020
6272 Rain 23 1012 78 10000 7.7 90 18:18 26.10.2020
6273 Rain 23 1012 73 10000 6.7 100 17:40 26.10.2020
6274 Rain 23 1012 73 10000 6.7 100 17:40 26.10.2020
6275 Rain 23 1011 73 10000 6.2 100 17:22 26.10.2020
6276 Rain 23 1011 73 10000 6.2 110 16:43 26.10.2020
6277 Rain 23 1011 73 10000 5.7 110 16:22 26.10.2020
6278 Rain 23 1011 73 10000 4.6 100 15:43 26.10.2020
6279 Clouds 23 1011 73 10000 4.6 100 15:25 26.10.2020
6280 Clouds 23 1012 73 10000 5.1 100 14:54 26.10.2020
6281 Clouds 23 1012 73 10000 7.2 100 14:35 26.10.2020
6282 Clouds 23 1013 73 10000 7.2 90 13:46 26.10.2020
6283 Clouds 23 1013 73 10000 7.2 90 13:27 26.10.2020
6284 Clouds 23 1013 73 10000 6.7 90 12:57 26.10.2020
6285 Clouds 23 1013 73 10000 6.2 90 12:33 26.10.2020
6286 Clouds 23 1014 73 10000 6.2 100 11:57 26.10.2020
6287 Clouds 23 1014 73 10000 6.2 90 11:39 26.10.2020
6288 Clouds 23 1015 73 10000 5.1 100 11:21 26.10.2020
6289 Clouds 23 1015 73 10000 5.1 90 10:49 26.10.2020
6290 Clouds 23 1015 73 10000 5.1 90 10:26 26.10.2020
6291 Clouds 23 1015 73 10000 5.7 100 09:56 26.10.2020
6292 Clouds 24 1015 69 10000 7.2 100 09:31 26.10.2020
6293 Clouds 24 1015 69 10000 7.2 100 08:54 26.10.2020
6294 Clouds 23 1014 73 10000 4.6 100 08:25 26.10.2020
6295 Clouds 23 1014 73 10000 6.2 100 07:40 26.10.2020
6296 Clouds 23 1013 73 10000 6.7 100 07:21 26.10.2020
6297 Clouds 24 1013 69 10000 5.7 100 05:31 26.10.2020
6298 Clouds 24 1012 69 10000 9.3 90 04:19 26.10.2020
6299 Clouds 25 1012 69 10000 9.3 80 03:21 26.10.2020
6300 Clouds 25 1012 69 10000 9.3 80 03:21 26.10.2020
6301 Clouds 25 1012 69 10000 9.3 80 03:21 26.10.2020
6302 Clouds 26 1013 65 10000 5.7 100 01:34 26.10.2020
6303 Clouds 26 1013 69 10000 5.7 100 00:35 26.10.2020
6304 Clouds 25 1014 69 10000 5.7 110 23:47 25.10.2020
6305 Rain 25 1014 69 10000 5.7 110 23:28 25.10.2020
6306 Rain 25 1014 65 10000 6.2 100 22:45 25.10.2020
6307 Rain 25 1014 65 10000 6.2 100 22:27 25.10.2020
6308 Rain 25 1015 65 10000 5.7 100 21:51 25.10.2020
6309 Rain 24 1015 73 10000 5.1 100 21:31 25.10.2020
6310 Rain 24 1015 73 10000 5.1 110 20:59 25.10.2020
6311 Rain 23 1015 83 10000 6.2 100 20:40 25.10.2020
6312 Rain 23 1015 83 10000 6.2 100 20:22 25.10.2020
6313 Clouds 24 1015 73 10000 4.6 100 19:50 25.10.2020
6314 Clouds 24 1015 73 10000 3.1 120 19:27 25.10.2020
6315 Clouds 24 1014 73 10000 3.1 120 18:59 25.10.2020
6316 Clouds 23 1014 73 10000 2.1 120 18:40 25.10.2020
6317 Clouds 23 1014 73 10000 4.1 110 18:21 25.10.2020
6318 Clouds 23 1014 73 10000 4.1 110 17:54 25.10.2020
6319 Clouds 23 1014 73 10000 4.1 110 17:36 25.10.2020
6320 Clouds 23 1013 73 10000 4.6 100 17:18 25.10.2020
6321 Clouds 23 1013 73 10000 4.6 100 16:39 25.10.2020
6322 Clouds 23 1013 73 10000 4.6 100 16:21 25.10.2020
6323 Clouds 23 1013 73 10000 4.6 110 15:47 25.10.2020
6324 Clouds 23 1013 73 10000 4.6 110 15:26 25.10.2020
6325 Clouds 23 1013 73 10000 4.1 110 14:52 25.10.2020
6326 Clouds 23 1013 73 10000 4.6 110 14:29 25.10.2020
6327 Clouds 23 1014 73 10000 4.1 100 13:44 25.10.2020
6328 Clouds 23 1014 73 10000 4.6 100 13:23 25.10.2020
6329 Clouds 23 1014 73 10000 4.6 100 12:49 25.10.2020
6330 Clouds 23 1015 73 10000 5.7 100 12:27 25.10.2020
6331 Clouds 23 1015 73 10000 4.6 110 11:58 25.10.2020
6332 Clouds 23 1015 73 10000 4.1 110 11:39 25.10.2020
6333 Clouds 23 1015 73 10000 5.1 110 11:19 25.10.2020
6334 Clouds 23 1016 73 10000 5.1 100 10:44 25.10.2020
6335 Clouds 23 1016 73 10000 5.1 100 10:25 25.10.2020
6336 Clouds 23 1016 73 10000 5.1 100 09:48 25.10.2020
6337 Clouds 23 1016 73 10000 5.7 100 09:20 25.10.2020
6338 Clouds 23 1016 73 10000 5.7 100 08:55 25.10.2020
6339 Clouds 23 1015 78 10000 5.7 100 08:36 25.10.2020
6340 Clouds 23 1015 73 10000 5.7 100 08:18 25.10.2020
6341 Clouds 23 1015 78 10000 5.7 100 07:41 25.10.2020
6342 Clouds 23 1015 73 10000 5.1 100 06:52 25.10.2020
6343 Clouds 24 1014 69 10000 6.2 100 06:19 25.10.2020
6344 Clouds 24 1013 73 10000 5.7 100 05:18 25.10.2020
6345 Clouds 24 1013 73 10000 6.7 100 04:20 25.10.2020
6346 Clouds 24 1013 73 10000 6.2 100 02:19 25.10.2020
6347 Clouds 25 1014 69 10000 6.7 100 00:49 25.10.2020
6348 Clouds 25 1014 69 10000 6.2 100 00:49 25.10.2020
6349 Clouds 25 1014 69 10000 7.2 100 00:20 25.10.2020
6350 Clouds 25 1014 69 10000 7.2 100 23:54 24.10.2020
6351 Clouds 25 1015 65 10000 6.2 110 23:26 24.10.2020
6352 Clouds 24 1015 73 10000 6.7 100 22:57 24.10.2020
6353 Clouds 25 1015 69 10000 6.2 90 22:38 24.10.2020
6354 Clouds 24 1015 73 10000 5.7 100 22:20 24.10.2020
6355 Clouds 24 1015 73 10000 5.7 100 21:42 24.10.2020
6356 Clouds 24 1015 73 10000 6.2 100 21:21 24.10.2020
6357 Clouds 24 1015 73 10000 5.7 100 20:48 24.10.2020
6358 Clouds 24 1015 73 10000 5.7 100 20:23 24.10.2020
6359 Clouds 23 1015 78 10000 3.6 110 19:57 24.10.2020
6360 Rain 23 1014 73 10000 2.6 110 19:37 24.10.2020
6361 Clouds 22 1014 83 10000 3.1 110 19:19 24.10.2020
6362 Clouds 23 1014 78 10000 3.6 120 18:43 24.10.2020
6363 Clouds 23 1014 78 10000 3.6 120 18:24 24.10.2020
6364 Clouds 23 1014 78 10000 3.6 120 18:24 24.10.2020
6365 Clouds 22 1013 83 10000 3.1 120 17:39 24.10.2020
6366 Clouds 22 1013 83 10000 3.1 120 17:21 24.10.2020
6367 Clouds 22 1013 83 10000 3.1 110 16:45 24.10.2020
6368 Clouds 22 1013 83 10000 3.1 110 16:23 24.10.2020
6369 Clouds 23 1013 78 10000 2.1 120 15:41 24.10.2020
6370 Clouds 23 1013 78 10000 2.1 120 15:20 24.10.2020
6371 Clouds 23 1014 78 10000 4.1 100 14:54 24.10.2020
6372 Clouds 23 1014 73 10000 4.1 100 14:29 24.10.2020
6373 Clouds 23 1014 73 10000 5.1 100 13:46 24.10.2020
6374 Clouds 23 1014 73 10000 5.1 100 13:24 24.10.2020
6375 Clouds 23 1015 73 10000 5.1 100 12:48 24.10.2020
6376 Clouds 23 1015 73 10000 5.1 100 12:22 24.10.2020
6377 Clouds 23 1015 73 10000 5.1 100 11:53 24.10.2020
6378 Clouds 23 1015 73 10000 5.1 100 11:35 24.10.2020
6379 Clouds 23 1015 73 10000 4.6 100 10:54 24.10.2020
6380 Clouds 23 1015 73 10000 5.1 100 10:34 24.10.2020
6381 Clouds 23 1015 73 10000 6.2 100 09:55 24.10.2020
6382 Clouds 23 1015 78 10000 5.1 100 09:37 24.10.2020
6383 Clouds 23 1015 78 10000 5.1 100 09:19 24.10.2020
6384 Drizzle 23 1015 83 10000 3.6 100 08:20 24.10.2020
6385 Drizzle 23 1015 83 10000 3.6 100 07:54 24.10.2020
6386 Clouds 24 1014 73 10000 4.1 110 07:25 24.10.2020
6387 Clouds 24 1014 73 10000 5.7 110 06:53 24.10.2020
6388 Clouds 24 1014 73 10000 5.7 110 06:23 24.10.2020
6389 Clouds 25 1013 69 10000 7.2 90 03:35 24.10.2020
6390 Clouds 26 1014 69 10000 5.1 90 01:40 24.10.2020
6391 Clouds 26 1015 69 10000 5.7 100 00:42 24.10.2020
6392 Clouds 25 1015 73 10000 6.2 90 00:21 24.10.2020
6393 Clouds 25 1015 73 10000 6.2 90 23:49 23.10.2020
6394 Clouds 25 1015 73 10000 4.1 100 23:26 23.10.2020
6395 Clouds 25 1015 69 10000 5.7 100 22:57 23.10.2020
6396 Clouds 26 1015 65 10000 4.6 100 22:39 23.10.2020
6397 Clouds 25 1015 69 10000 6.7 100 22:18 23.10.2020
6398 Clouds 24 1014 73 10000 6.7 100 21:45 23.10.2020
6399 Clouds 24 1014 73 10000 6.7 100 21:24 23.10.2020
6400 Clouds 23 1014 83 10000 9.3 80 20:41 23.10.2020
6401 Clouds 23 1014 83 10000 9.3 80 20:23 23.10.2020
6402 Clouds 23 1014 78 10000 8.2 90 19:52 23.10.2020
6403 Clouds 23 1013 78 10000 6.7 100 19:32 23.10.2020
6404 Clouds 23 1013 78 10000 5.7 100 18:55 23.10.2020
6405 Clouds 23 1013 78 10000 6.2 90 18:34 23.10.2020
6406 Clouds 23 1013 73 10000 4.6 90 17:51 23.10.2020
6407 Rain 22 1013 83 10000 3.6 90 17:27 23.10.2020
6408 Rain 22 1013 83 10000 4.6 100 16:56 23.10.2020
6409 Rain 22 1013 83 10000 4.6 100 16:56 23.10.2020
6410 Rain 22 1013 83 10000 3.6 100 16:37 23.10.2020
6411 Rain 22 1013 83 10000 3.6 100 16:37 23.10.2020
6412 Rain 22 1013 88 10000 3.6 110 16:19 23.10.2020
6413 Rain 22 1013 88 10000 4.6 120 15:42 23.10.2020
6414 Rain 22 1013 88 10000 4.6 120 15:23 23.10.2020
6415 Drizzle 22 1013 88 10000 4.6 130 14:53 23.10.2020
6416 Rain 22 1014 94 5000 4.1 130 14:34 23.10.2020
6417 Rain 22 1014 94 6000 5.1 150 13:56 23.10.2020
6418 Rain 22 1014 94 2300 2.1 160 13:37 23.10.2020
6419 Rain 23 1015 94 5000 3.6 110 13:18 23.10.2020
6420 Rain 23 1015 94 5000 3.6 110 13:18 23.10.2020
6421 Rain 23 1015 94 7000 3.1 110 12:42 23.10.2020
6422 Rain 23 1015 94 7000 3.1 110 12:23 23.10.2020
6423 Rain 23 1015 88 9000 5.1 110 11:42 23.10.2020
6424 Rain 23 1015 88 9000 5.1 110 11:20 23.10.2020
6425 Rain 23 1015 94 10000 5.1 90 10:43 23.10.2020
6426 Rain 23 1015 94 10000 5.1 90 10:23 23.10.2020
6427 Rain 23 1013 94 9000 7.7 90 09:43 23.10.2020
6428 Rain 23 1013 94 9000 7.7 90 09:23 23.10.2020
6429 Rain 23 1014 94 10000 7.2 90 08:52 23.10.2020
6430 Rain 24 1014 88 10000 7.2 90 08:28 23.10.2020
6431 Rain 24 1013 94 10000 6.7 90 07:28 23.10.2020
6432 Rain 24 1013 94 10000 5.7 100 06:54 23.10.2020
6433 Rain 24 1013 88 10000 5.1 100 06:20 23.10.2020
6434 Clouds 25 1012 88 10000 6.7 100 04:42 23.10.2020
6435 Clouds 26 1014 83 10000 5.1 100 02:32 23.10.2020
6436 Rain 26 1014 83 10000 6.2 90 00:56 23.10.2020
6437 Rain 26 1015 83 10000 6.7 100 00:33 23.10.2020
6438 Rain 26 1015 83 10000 4.6 100 23:39 22.10.2020
6439 Rain 25 1016 83 10000 6.2 90 23:19 22.10.2020
6440 Rain 25 1016 83 10000 4.6 110 22:46 22.10.2020
6441 Rain 25 1016 83 10000 4.6 110 22:26 22.10.2020
6442 Rain 25 1016 88 10000 4.1 100 21:58 22.10.2020
6443 Rain 24 1016 94 9000 4.1 100 21:38 22.10.2020
6444 Clouds 24 1016 94 10000 3.1 100 21:18 22.10.2020
6445 Clouds 24 1016 88 9000 4.1 100 20:43 22.10.2020
6446 Clouds 24 1016 88 9000 4.1 100 20:24 22.10.2020
6447 Clouds 24 1015 88 10000 2.6 110 19:43 22.10.2020
6448 Clouds 23 1015 94 10000 2.6 120 19:20 22.10.2020
6449 Clouds 23 1015 94 10000 2.6 100 18:44 22.10.2020
6450 Clouds 23 1014 94 10000 3.1 110 18:22 22.10.2020
6451 Clouds 23 1014 94 10000 3.1 110 17:58 22.10.2020
6452 Clouds 23 1014 94 9000 3.6 110 17:39 22.10.2020
6453 Clouds 23 1014 94 10000 3.1 120 17:20 22.10.2020
6454 Clouds 23 1014 94 10000 4.1 110 16:42 22.10.2020
6455 Clouds 23 1014 94 10000 4.1 110 16:23 22.10.2020
6456 Rain 23 1014 94 10000 3.6 110 15:48 22.10.2020
6457 Rain 23 1014 94 10000 3.6 110 15:26 22.10.2020
6458 Clouds 23 1014 94 8000 2.1 100 14:50 22.10.2020
6459 Clouds 23 1015 88 10000 3.1 120 14:27 22.10.2020
6460 Rain 23 1015 94 10000 2.1 110 13:50 22.10.2020
6461 Clouds 23 1015 88 7000 2.6 100 13:25 22.10.2020
6462 Clouds 23 1015 88 10000 4.1 110 12:57 22.10.2020
6463 Clouds 23 1015 88 10000 3.1 100 12:27 22.10.2020
6464 Clouds 23 1015 88 10000 2.6 120 11:50 22.10.2020
6465 Clouds 23 1015 88 10000 4.1 100 11:21 22.10.2020
6466 Clouds 23 1015 88 10000 4.1 100 10:52 22.10.2020
6467 Clouds 23 1015 88 10000 2.6 110 10:30 22.10.2020
6468 Rain 23 1015 88 10000 2.6 110 09:57 22.10.2020
6469 Rain 23 1015 88 10000 1.5 120 09:39 22.10.2020
6470 Rain 23 1015 88 10000 1.5 130 08:56 22.10.2020
6471 Rain 23 1015 88 10000 1.5 110 08:37 22.10.2020
6472 Rain 24 1014 83 10000 3.1 110 08:18 22.10.2020
6473 Rain 23 1014 88 10000 2.1 130 07:42 22.10.2020
6474 Clouds 24 1014 83 10000 4.1 100 06:59 22.10.2020
6475 Clouds 24 1014 83 10000 3.6 100 06:36 22.10.2020
6476 Clouds 24 1014 83 10000 4.6 100 05:42 22.10.2020
6477 Clouds 25 1013 78 10000 3.1 110 05:19 22.10.2020
6478 Rain 26 1014 78 10000 4.6 100 01:53 22.10.2020
6479 Rain 25 1014 83 10000 3.1 110 00:27 22.10.2020
6480 Rain 25 1015 83 10000 5.1 100 23:57 21.10.2020
6481 Clouds 25 1015 83 8000 2.6 130 23:33 21.10.2020
6482 Clouds 24 1015 88 7000 3.1 110 22:44 21.10.2020
6483 Clouds 24 1016 88 10000 2.6 110 22:20 21.10.2020
6484 Clouds 24 1016 88 10000 2.6 110 22:20 21.10.2020
6485 Clouds 24 1016 88 10000 2.6 110 21:56 21.10.2020
6486 Clouds 24 1016 88 10000 2.6 110 21:56 21.10.2020
6487 Clouds 25 1016 83 10000 2.1 120 21:38 21.10.2020
6488 Clouds 25 1016 78 10000 3.1 110 21:18 21.10.2020
6489 Clouds 24 1016 83 10000 2.1 110 20:48 21.10.2020
6490 Clouds 23 1015 88 10000 2.6 120 20:19 21.10.2020
6491 Clouds 23 1015 88 10000 3.1 120 19:47 21.10.2020
6492 Clouds 23 1015 88 10000 3.1 120 19:26 21.10.2020
6493 Clouds 23 1015 88 10000 3.1 120 19:26 21.10.2020
6494 Rain 22 1014 94 6000 2.6 90 18:54 21.10.2020
6495 Clouds 23 1014 88 7000 2.6 80 18:33 21.10.2020
6496 Clouds 23 1014 88 9000 2.6 110 17:57 21.10.2020
6497 Drizzle 23 1014 88 5000 2.6 100 17:39 21.10.2020
6498 Rain 23 1014 88 8000 3.6 100 17:19 21.10.2020
6499 Rain 23 1014 88 8000 3.6 100 16:40 21.10.2020
6500 Clouds 23 1013 88 10000 2.1 100 16:21 21.10.2020
6501 Clouds 23 1014 88 10000 2.6 100 15:49 21.10.2020
6502 Rain 23 1013 88 10000 2.1 140 15:29 21.10.2020
6503 Rain 23 1013 88 10000 2.1 110 14:58 21.10.2020
6504 Rain 23 1013 88 10000 2.1 110 14:40 21.10.2020
6505 Rain 23 1013 88 10000 2.1 110 14:40 21.10.2020
6506 Clouds 23 1014 88 10000 1 140 14:21 21.10.2020
6507 Clouds 23 1014 88 10000 1 110 13:42 21.10.2020
6508 Clouds 23 1014 88 10000 1.5 130 13:23 21.10.2020
6509 Clouds 24 1015 83 10000 4.1 100 12:42 21.10.2020
6510 Clouds 24 1015 83 10000 4.1 100 12:23 21.10.2020
6511 Clouds 24 1015 83 10000 5.1 100 11:48 21.10.2020
6512 Clouds 24 1015 88 10000 5.1 100 11:22 21.10.2020
6513 Rain 24 1015 88 10000 5.1 100 10:58 21.10.2020
6514 Rain 24 1015 88 10000 5.1 100 10:40 21.10.2020
6515 Drizzle 23 1015 94 7000 2.6 110 10:20 21.10.2020
6516 Clouds 24 1015 83 10000 3.1 110 09:42 21.10.2020
6517 Clouds 24 1015 83 10000 4.1 110 09:18 21.10.2020
6518 Drizzle 23 1014 88 10000 3.1 100 08:40 21.10.2020
6519 Drizzle 23 1014 88 10000 3.1 100 08:22 21.10.2020
6520 Drizzle 23 1014 88 10000 3.1 100 08:22 21.10.2020
6521 Drizzle 23 1014 94 10000 3.6 120 07:49 21.10.2020
6522 Drizzle 23 1014 94 5000 3.1 130 06:59 21.10.2020
6523 Rain 23 1013 94 5000 3.6 130 06:34 21.10.2020
6524 Rain 23 1013 94 8000 2.1 110 05:59 21.10.2020
6525 Rain 24 1012 94 5000 4.1 100 02:46 21.10.2020
6526 Clouds 24 1014 94 10000 3.6 270 00:25 21.10.2020
6527 Clouds 26 1014 83 10000 4.1 70 23:28 20.10.2020
6528 Clouds 25 1014 88 10000 2.6 60 22:38 20.10.2020
6529 Clouds 25 1014 88 10000 2.6 60 22:20 20.10.2020
6530 Clouds 24 1014 94 8000 3.6 80 21:47 20.10.2020
6531 Clouds 24 1014 94 8000 3.6 80 21:19 20.10.2020
6532 Clouds 24 1014 94 10000 0.5 100 20:43 20.10.2020
6533 Clouds 24 1014 94 10000 0.5 20 20:23 20.10.2020
6534 Mist 23 1013 100 4300 1.5 80 19:45 20.10.2020
6535 Clouds 24 1013 94 9000 1 120 19:22 20.10.2020
6536 Clouds 23 1012 100 10000 1 80 18:59 20.10.2020
6537 Clouds 23 1012 100 10000 1.5 200 18:37 20.10.2020
6538 Clouds 23 1012 100 10000 1 200 17:51 20.10.2020
6539 Clouds 23 1012 100 10000 1 190 17:32 20.10.2020
6540 Clouds 23 1012 94 10000 1 190 16:58 20.10.2020
6541 Clouds 23 1012 94 10000 0.5 180 16:38 20.10.2020
6542 Clouds 23 1012 94 10000 0.5 180 16:20 20.10.2020
6543 Clouds 23 1012 94 10000 0.5 140 15:44 20.10.2020
6544 Rain 23 1012 94 10000 0.5 140 15:23 20.10.2020
6545 Rain 23 1012 94 10000 0.5 160 14:44 20.10.2020
6546 Clouds 25 1013 79 10000 1.76 118 14:25 20.10.2020
6547 Clouds 25 1013 79 10000 1.76 118 13:58 20.10.2020
6548 Clouds 24 1012 81 10000 2.32 107 13:39 20.10.2020
6549 Clouds 25 1013 80 10000 1.96 97 13:19 20.10.2020
6550 Clouds 25 1013 80 10000 1.96 97 12:48 20.10.2020
6551 Clouds 23 1013 94 10000 0.5 170 12:29 20.10.2020
6552 Clouds 23 1013 94 10000 0.5 160 11:47 20.10.2020
6553 Clear 23 1013 94 10000 0.5 100 11:27 20.10.2020
6554 Clear 24 1014 88 10000 1 90 10:40 20.10.2020
6555 Clear 24 1014 88 10000 1 90 10:22 20.10.2020
6556 Clear 24 1013 88 10000 1.5 190 09:44 20.10.2020
6557 Clear 24 1013 94 10000 1 180 09:19 20.10.2020
6558 Clear 24 1013 88 10000 1 190 08:39 20.10.2020
6559 Clear 24 1013 88 10000 1 190 08:39 20.10.2020
6560 Clouds 25 1013 83 10000 1 340 07:54 20.10.2020
6561 Clouds 25 1012 83 10000 1 340 07:26 20.10.2020
6562 Clouds 26 1012 78 10000 1.5 340 06:55 20.10.2020
6563 Clouds 26 1012 78 10000 1.5 340 06:18 20.10.2020
6564 Clouds 27 1011 74 10000 2.6 320 03:59 20.10.2020
6565 Clouds 27 1011 74 10000 2.6 10 02:30 20.10.2020
6566 Clear 27 1012 74 10000 3.6 20 01:20 20.10.2020
6567 Clear 26 1012 78 10000 3.1 20 00:50 20.10.2020
6568 Clear 27 1012 74 10000 3.6 20 00:23 20.10.2020
6569 Clear 27 1012 78 10000 3.1 10 23:47 19.10.2020
6570 Clear 27 1012 78 10000 3.1 10 23:47 19.10.2020
6571 Clear 26 1013 83 10000 3.1 20 23:24 19.10.2020
6572 Clear 26 1013 78 10000 3.1 40 22:47 19.10.2020
6573 Clear 26 1013 78 10000 2.6 40 22:24 19.10.2020
6574 Clear 26 1013 78 10000 2.6 40 22:24 19.10.2020
6575 Clear 26 1013 78 10000 3.1 40 21:48 19.10.2020
6576 Clear 25 1013 83 10000 2.6 40 21:22 19.10.2020
6577 Clear 26 1013 83 10000 3.1 50 20:52 19.10.2020
6578 Clear 25 1013 83 10000 3.1 50 20:33 19.10.2020
6579 Clouds 24 1012 94 10000 2.6 70 19:54 19.10.2020
6580 Clear 23 1012 94 10000 2.1 90 19:36 19.10.2020
6581 Clear 23 1012 94 10000 2.1 90 19:18 19.10.2020
6582 Clear 23 1012 94 10000 1.5 90 18:42 19.10.2020
6583 Clear 23 1012 94 10000 1.5 90 18:18 19.10.2020
6584 Clear 23 1012 94 10000 1.5 90 18:18 19.10.2020
6585 Clear 23 1011 94 10000 1.5 90 17:44 19.10.2020
6586 Clear 22 1011 100 10000 1.5 90 17:24 19.10.2020
6587 Clear 22 1011 94 10000 1.5 80 16:46 19.10.2020
6588 Clear 21 1011 100 10000 1.5 80 16:28 19.10.2020
6589 Clear 24 1011 77 10000 2.18 17 15:44 19.10.2020
6590 Clear 24 1012 77 10000 2.36 21 15:25 19.10.2020
6591 Clear 24 1012 77 10000 2.36 21 14:51 19.10.2020
6592 Clouds 24 1012 77 10000 2.66 30 14:26 19.10.2020
6593 Clouds 24 1012 77 10000 2.66 30 13:54 19.10.2020
6594 Clouds 24 1012 77 10000 2.87 47 13:33 19.10.2020
6595 Clouds 24 1012 77 10000 2.87 47 13:33 19.10.2020
6596 Clouds 24 1012 77 10000 2.91 58 12:52 19.10.2020
6597 Clouds 24 1012 77 10000 2.91 58 12:34 19.10.2020
6598 Clouds 24 1013 77 10000 2.58 65 11:51 19.10.2020
6599 Clouds 23 1013 88 10000 0.5 140 11:26 19.10.2020
6600 Clouds 23 1013 88 10000 0.5 140 10:59 19.10.2020
6601 Clouds 23 1013 88 10000 0.5 140 10:39 19.10.2020
6602 Clouds 23 1012 88 10000 1 80 10:19 19.10.2020
6603 Clouds 24 1012 88 10000 1 100 09:43 19.10.2020
6604 Clouds 23 1012 88 10000 1.5 90 09:19 19.10.2020
6605 Clouds 23 1012 88 10000 1.5 100 08:48 19.10.2020
6606 Clouds 23 1012 88 10000 1.5 100 08:23 19.10.2020
6607 Clouds 25 1011 78 10000 2.6 50 07:39 19.10.2020
6608 Clouds 25 1011 78 10000 2.1 40 07:18 19.10.2020
6609 Clouds 26 1010 74 10000 2.6 40 06:18 19.10.2020
6610 Clouds 26 1011 74 10000 3.1 30 03:48 19.10.2020
6611 Clouds 26 1011 74 10000 3.6 40 02:23 19.10.2020
6612 Clouds 26 1013 74 10000 4.1 40 00:46 19.10.2020
6613 Clouds 26 1013 74 10000 4.1 50 00:19 19.10.2020
6614 Clouds 26 1013 78 10000 3.6 40 23:43 18.10.2020
6615 Clouds 26 1013 78 10000 3.6 40 23:21 18.10.2020
6616 Clouds 25 1013 73 10000 4.1 60 22:46 18.10.2020
6617 Clouds 25 1013 78 10000 3.6 60 22:21 18.10.2020
6618 Clouds 25 1013 78 10000 3.6 60 21:50 18.10.2020
6619 Clouds 25 1013 78 10000 3.6 40 21:30 18.10.2020
6620 Clouds 25 1013 73 10000 3.1 40 20:56 18.10.2020
6621 Clouds 25 1013 73 10000 3.1 50 20:38 18.10.2020
6622 Clouds 25 1013 73 10000 3.1 50 20:19 18.10.2020
6623 Clouds 21 1012 94 10000 2.6 90 19:41 18.10.2020
6624 Clouds 21 1012 88 10000 2.1 100 19:19 18.10.2020
6625 Clouds 21 1012 88 10000 2.6 100 18:46 18.10.2020
6626 Clouds 21 1012 88 10000 2.6 100 18:24 18.10.2020
6627 Clouds 22 1012 83 10000 2.6 100 17:41 18.10.2020
6628 Clouds 22 1012 83 10000 2.6 100 17:22 18.10.2020
6629 Clouds 22 1011 83 10000 3.1 100 16:44 18.10.2020
6630 Clouds 22 1011 83 10000 3.1 100 16:44 18.10.2020
6631 Clouds 22 1011 83 10000 3.1 100 16:25 18.10.2020
6632 Clouds 22 1012 83 10000 3.6 100 15:45 18.10.2020
6633 Clouds 22 1012 83 10000 3.6 100 15:27 18.10.2020
6634 Clouds 22 1012 83 10000 3.6 90 14:58 18.10.2020
6635 Clouds 22 1012 83 10000 3.6 90 14:39 18.10.2020
6636 Clouds 22 1012 83 10000 3.6 90 14:39 18.10.2020
6637 Clouds 22 1012 83 10000 3.6 90 14:39 18.10.2020
6638 Clouds 22 1012 83 10000 3.6 90 14:21 18.10.2020
6639 Clouds 22 1013 83 10000 3.6 100 13:43 18.10.2020
6640 Clouds 22 1013 83 10000 3.6 100 13:25 18.10.2020
6641 Clouds 22 1013 83 10000 3.1 90 12:43 18.10.2020
6642 Clouds 22 1013 83 10000 3.1 90 12:24 18.10.2020
6643 Clouds 22 1014 78 10000 2.6 100 11:47 18.10.2020
6644 Clouds 22 1014 78 10000 2.6 100 11:29 18.10.2020
6645 Clouds 22 1014 83 10000 2.1 100 10:59 18.10.2020
6646 Clouds 22 1014 83 10000 3.1 90 10:39 18.10.2020
6647 Clouds 22 1014 78 10000 2.6 100 10:18 18.10.2020
6648 Clouds 22 1014 83 10000 2.6 100 09:44 18.10.2020
6649 Clouds 22 1014 83 10000 2.1 100 09:20 18.10.2020
6650 Clouds 22 1014 83 10000 2.1 100 08:52 18.10.2020
6651 Clouds 22 1014 83 10000 2.6 100 08:26 18.10.2020
6652 Clouds 23 1014 78 10000 2.1 100 07:51 18.10.2020
6653 Clouds 25 1012 65 10000 6.2 70 05:57 18.10.2020
6654 Clouds 25 1012 69 10000 7.7 70 03:46 18.10.2020
6655 Clouds 26 1012 69 10000 7.7 70 02:52 18.10.2020
6656 Clouds 26 1013 69 10000 7.2 60 01:30 18.10.2020
6657 Clouds 26 1013 69 10000 7.2 80 00:38 18.10.2020
6658 Clouds 25 1013 73 10000 6.7 80 00:20 18.10.2020
6659 Clouds 25 1013 73 10000 7.7 70 23:41 17.10.2020
6660 Clouds 25 1013 73 10000 8.2 80 23:21 17.10.2020
6661 Clouds 25 1013 73 10000 8.2 80 22:56 17.10.2020
6662 Clouds 25 1014 69 10000 7